# Wetter Temperatur Luftdruck Luftfeuchtigkeit Sichtweite Windgeschwindigkeit Windrichtung Zeit
1 Clear -5 994 92 10000 3 40 19:42 17.10.2019
2 Clear -5 994 92 10000 3 40 19:20 17.10.2019
3 Clouds -4 994 85 10000 5 350 18:59 17.10.2019
4 Clouds -4 994 85 10000 5 350 18:39 17.10.2019
5 Clouds -4 994 85 10000 5 350 18:20 17.10.2019
6 Clouds -3 994 86 10000 3 330 17:44 17.10.2019
7 Clouds -3 994 86 10000 3 330 17:25 17.10.2019
8 Clouds -3 994 92 10000 3 360 16:59 17.10.2019
9 Clouds -3 994 92 10000 3 360 16:41 17.10.2019
10 Clouds -3 994 92 10000 3 360 16:19 17.10.2019
11 Clouds -2 994 86 10000 4 10 15:57 17.10.2019
12 Clouds -2 994 86 10000 4 10 15:38 17.10.2019
13 Clouds -2 994 86 10000 4 10 15:20 17.10.2019
14 Snow -2 993 86 10000 4 10 14:57 17.10.2019
15 Snow -2 993 86 10000 4 10 14:38 17.10.2019
16 Snow -2 993 86 10000 4 10 14:20 17.10.2019
17 Clouds -1 993 86 10000 4 10 13:41 17.10.2019
18 Clouds -1 993 86 10000 4 10 13:20 17.10.2019
19 Snow -1 993 86 10000 5 10 12:58 17.10.2019
20 Snow -1 993 86 10000 5 10 12:39 17.10.2019
21 Snow -1 993 86 10000 5 10 12:19 17.10.2019
22 Snow -1 993 86 10000 3 360 11:56 17.10.2019
23 Snow -1 993 86 10000 3 360 11:37 17.10.2019
24 Snow -1 993 86 10000 3 360 11:18 17.10.2019
25 Snow -1 993 86 10000 3 360 10:42 17.10.2019
26 Snow -1 993 86 10000 3 360 10:20 17.10.2019
27 Clouds -1 993 86 10000 4 360 09:57 17.10.2019
28 Clouds -1 993 86 10000 4 360 09:38 17.10.2019
29 Clouds -1 993 86 10000 4 360 09:20 17.10.2019
30 Clouds -1 993 80 10000 5 350 08:56 17.10.2019
31 Snow -1 993 80 10000 3 50 08:37 17.10.2019
32 Snow -1 993 80 10000 3 50 08:18 17.10.2019
33 Snow -1 993 80 10000 3 50 08:18 17.10.2019
34 Snow -1 993 86 10000 3 40 07:43 17.10.2019
35 Snow 0 992 84 10000 6 20 07:21 17.10.2019
36 Snow 0 992 84 10000 6 20 07:21 17.10.2019
37 Clouds 0 992 84 10000 6 20 06:56 17.10.2019
38 Clouds 0 992 84 10000 6 20 06:38 17.10.2019
39 Clouds 0 992 96 10000 6 20 06:19 17.10.2019
40 Clouds 1 992 86 10000 5 30 05:41 17.10.2019
41 Clouds 2 991 96 10000 1 20 05:20 17.10.2019
42 Rain 1 991 96 10000 3 30 04:48 17.10.2019
43 Rain 3 991 96 10000 3 110 03:49 17.10.2019
44 Clouds 3 990 74 10000 2 350 02:32 17.10.2019
45 Clouds 3 990 74 10000 3 30 00:43 17.10.2019
46 Clouds 3 990 87 10000 5 10 00:21 17.10.2019
47 Clouds 3 989 87 10000 5 30 23:59 16.10.2019
48 Clouds 3 989 87 10000 5 30 23:41 16.10.2019
49 Clouds 2 989 80 10000 6 70 23:19 16.10.2019
50 Clouds 2 989 80 10000 6 70 23:19 16.10.2019
51 -273 0 0 0 0 0 22:54 16.10.2019
52 Clouds 2 988 80 10000 6 70 22:36 16.10.2019
53 Clouds 2 988 80 10000 6 70 22:36 16.10.2019
54 Clouds 2 988 80 10000 6 70 22:18 16.10.2019
55 Clouds 2 988 87 10000 6 60 21:55 16.10.2019
56 Clouds 2 988 87 10000 6 60 21:54 16.10.2019
57 Clouds 2 988 87 10000 6 60 21:54 16.10.2019
58 Clouds 2 988 80 10000 6 60 21:36 16.10.2019
59 Clouds 2 988 78 10000 6 60 21:18 16.10.2019
60 Clouds 3 987 86 10000 4 50 20:55 16.10.2019
61 Clouds 3 987 86 10000 4 50 20:37 16.10.2019
62 Clouds 3 987 86 10000 4 50 20:37 16.10.2019
63 Clouds 3 987 86 10000 4 50 20:19 16.10.2019
64 Clouds 3 986 86 10000 7 80 19:40 16.10.2019
65 Clouds 3 986 86 10000 7 80 19:40 16.10.2019
66 Clouds 3 986 86 10000 7 80 19:21 16.10.2019
67 Clouds 3 986 86 10000 7 80 19:21 16.10.2019
68 Clouds 3 985 86 10000 6 80 18:58 16.10.2019
69 Clouds 3 985 86 10000 6 80 18:37 16.10.2019
70 Clouds 3 985 86 10000 6 80 18:18 16.10.2019
71 Rain 2 984 93 9000 8 80 17:55 16.10.2019
72 Rain 2 984 93 9000 8 80 17:37 16.10.2019
73 Rain 2 984 93 9000 8 80 17:18 16.10.2019
74 -273 0 0 0 0 0 16:56 16.10.2019
75 Rain 2 983 93 9000 8 80 16:37 16.10.2019
76 Rain 2 983 93 9000 8 80 16:18 16.10.2019
77 Rain 2 983 93 9000 9 70 15:40 16.10.2019
78 Rain 2 983 93 9000 9 70 15:40 16.10.2019
79 Rain 2 982 86 7000 12 80 15:19 16.10.2019
80 Rain 3 982 86 7000 12 80 14:59 16.10.2019
81 Rain 3 982 86 7000 12 80 14:40 16.10.2019
82 Rain 3 982 86 7000 12 80 14:21 16.10.2019
83 Rain 3 981 93 8000 10 70 13:58 16.10.2019
84 Rain 3 981 93 8000 10 70 13:40 16.10.2019
85 Rain 3 981 93 8000 10 70 13:21 16.10.2019
86 Rain 3 980 93 10000 11 60 12:44 16.10.2019
87 Rain 3 980 93 10000 11 60 12:20 16.10.2019
88 Rain 3 979 86 10000 14 70 11:55 16.10.2019
89 Rain 3 979 86 10000 14 70 11:37 16.10.2019
90 Rain 3 979 86 10000 14 70 11:18 16.10.2019
91 Clouds 3 977 86 10000 14 60 10:37 16.10.2019
92 Clouds 3 977 86 10000 14 60 10:18 16.10.2019
93 Rain 3 976 86 10000 15 60 09:41 16.10.2019
94 Rain 3 976 86 10000 15 60 09:22 16.10.2019
95 Rain 2 974 93 10000 19 70 08:57 16.10.2019
96 Rain 2 974 93 10000 19 70 08:39 16.10.2019
97 Rain 2 974 93 10000 19 70 08:39 16.10.2019
98 Rain 2 974 93 10000 19 70 08:20 16.10.2019
99 Rain 2 974 93 10000 19 70 08:20 16.10.2019
100 Rain 3 974 89 10000 20 70 07:43 16.10.2019
101 Rain 3 974 89 10000 20 70 07:24 16.10.2019
102 Rain 3 973 89 10000 20 70 06:55 16.10.2019
103 Clouds 3 973 89 10000 22 70 06:31 16.10.2019
104 Clouds 4 973 94 10000 21 70 05:22 16.10.2019
105 Rain 4 976 92 10000 14 60 02:53 16.10.2019
106 Clouds 4 977 94 10000 14 60 01:38 16.10.2019
107 Clouds 4 977 94 10000 14 60 01:18 16.10.2019
108 Clouds 4 977 94 10000 13 60 00:42 16.10.2019
109 Clouds 3 978 96 10000 13 60 23:59 15.10.2019
110 Rain 3 979 96 10000 12 60 23:39 15.10.2019
111 Rain 3 979 96 10000 12 60 23:21 15.10.2019
112 Rain 3 979 96 10000 11 60 22:55 15.10.2019
113 Rain 3 979 96 10000 11 60 22:55 15.10.2019
114 Rain 3 979 96 10000 11 60 22:55 15.10.2019
115 Rain 3 979 96 10000 14 70 22:37 15.10.2019
116 Rain 3 979 96 10000 14 70 22:19 15.10.2019
117 -273 0 0 0 0 0 21:55 15.10.2019
118 Rain 3 979 96 10000 14 70 21:55 15.10.2019
119 Rain 3 979 94 10000 14 70 21:36 15.10.2019
120 Rain 3 979 96 10000 14 70 21:18 15.10.2019
121 Rain 3 980 96 10000 15 80 20:55 15.10.2019
122 Rain 3 980 96 10000 15 80 20:55 15.10.2019
123 Rain 3 980 96 10000 15 80 20:37 15.10.2019
124 Rain 3 980 96 10000 15 80 20:19 15.10.2019
125 Rain 3 980 96 10000 15 80 19:55 15.10.2019
126 Rain 3 980 96 10000 15 80 19:55 15.10.2019
127 Rain 3 980 96 10000 15 80 19:37 15.10.2019
128 Rain 3 980 96 10000 15 80 19:37 15.10.2019
129 Rain 3 980 96 10000 15 80 19:18 15.10.2019
130 Rain 3 981 86 10000 11 60 18:44 15.10.2019
131 -273 0 0 0 0 0 18:25 15.10.2019
132 Rain 4 981 80 10000 10 60 17:55 15.10.2019
133 Rain 4 981 80 10000 10 60 17:55 15.10.2019
134 Rain 4 981 80 10000 10 60 17:37 15.10.2019
135 Rain 4 981 80 10000 10 60 17:19 15.10.2019
136 Rain 4 981 80 10000 11 60 16:45 15.10.2019
137 Rain 4 981 80 10000 11 60 16:22 15.10.2019
138 Rain 3 982 86 10000 12 60 15:58 15.10.2019
139 Rain 3 982 86 10000 12 60 15:39 15.10.2019
140 Rain 3 982 86 10000 12 60 15:19 15.10.2019
141 Rain 2 983 96 9000 10 60 14:56 15.10.2019
142 Rain 2 983 96 9000 10 60 14:37 15.10.2019
143 Rain 2 983 96 9000 10 60 14:37 15.10.2019
144 Rain 2 983 96 9000 10 60 14:19 15.10.2019
145 Rain 3 983 96 10000 11 70 13:43 15.10.2019
146 Rain 3 983 96 10000 11 70 13:43 15.10.2019
147 Rain 3 983 96 10000 11 70 13:21 15.10.2019
148 Rain 3 984 96 10000 12 80 12:57 15.10.2019
149 Rain 3 984 96 10000 12 80 12:38 15.10.2019
150 Rain 3 984 90 10000 12 80 12:20 15.10.2019
151 Rain 3 984 90 10000 16 90 11:43 15.10.2019
152 Rain 3 984 90 10000 16 90 11:20 15.10.2019
153 Clouds 3 984 90 10000 13 80 10:56 15.10.2019
154 Clouds 3 984 86 10000 13 80 10:38 15.10.2019
155 Clouds 3 984 86 10000 13 80 10:18 15.10.2019
156 Rain 2 984 93 10000 11 70 09:55 15.10.2019
157 -273 0 0 0 0 0 09:55 15.10.2019
158 Rain 2 984 93 10000 11 70 09:36 15.10.2019
159 Rain 2 984 93 10000 11 70 09:36 15.10.2019
160 Rain 2 984 93 10000 11 70 09:18 15.10.2019
161 Rain 3 984 94 10000 12 80 08:41 15.10.2019
162 Rain 3 984 94 10000 12 80 08:20 15.10.2019
163 Clouds 3 984 94 10000 12 80 07:48 15.10.2019
164 Clouds 3 985 94 10000 13 70 07:23 15.10.2019
165 Clouds 3 985 94 10000 10 70 06:58 15.10.2019
166 Rain 3 985 94 10000 10 60 06:40 15.10.2019
167 Rain 3 985 86 10000 10 70 05:58 15.10.2019
168 Rain 3 984 86 10000 15 90 05:37 15.10.2019
169 Rain 3 984 86 6000 16 90 04:53 15.10.2019
170 Rain 3 984 86 9000 12 80 04:20 15.10.2019
171 Rain 3 984 93 8000 8 90 03:35 15.10.2019
172 Rain 3 985 93 9000 9 100 02:19 15.10.2019
173 Rain 4 985 93 9000 12 100 01:41 15.10.2019
174 Clouds 4 984 86 10000 15 100 01:18 15.10.2019
175 Clouds 4 985 86 10000 13 110 00:26 15.10.2019
176 Rain 3 985 93 6000 14 110 23:59 14.10.2019
177 Rain 3 985 86 8000 13 100 23:38 14.10.2019
178 Rain 3 985 86 8000 13 100 23:19 14.10.2019
179 Rain 3 985 86 8000 13 100 23:19 14.10.2019
180 Rain 3 986 93 7000 13 100 22:40 14.10.2019
181 Rain 3 986 86 6000 12 110 22:21 14.10.2019
182 Rain 2 987 93 6000 12 100 21:59 14.10.2019
183 Rain 2 987 93 6000 12 100 21:40 14.10.2019
184 Rain 2 987 93 6000 12 100 21:40 14.10.2019
185 Rain 2 987 93 6000 12 100 21:21 14.10.2019
186 Rain 2 987 93 6000 11 100 20:58 14.10.2019
187 Rain 2 987 93 6000 11 100 20:38 14.10.2019
188 Rain 2 987 93 6000 11 100 20:19 14.10.2019
189 Rain 3 987 93 7000 12 110 19:56 14.10.2019
190 Rain 3 987 93 7000 12 110 19:37 14.10.2019
191 Rain 3 987 93 7000 12 110 19:19 14.10.2019
192 Rain 3 988 93 9000 8 110 18:57 14.10.2019
193 Rain 3 988 93 9000 8 110 18:37 14.10.2019
194 Rain 3 988 93 9000 8 110 18:18 14.10.2019
195 Rain 3 989 93 9000 5 120 17:41 14.10.2019
196 Rain 3 989 93 9000 5 120 17:23 14.10.2019
197 Rain 2 990 93 10000 1 80 16:54 14.10.2019
198 Rain 2 990 93 10000 1 80 16:36 14.10.2019
199 Rain 2 990 93 10000 1 80 16:18 14.10.2019
200 Rain 2 991 93 10000 1 70 15:40 14.10.2019
201 Rain 2 991 93 10000 1 70 15:21 14.10.2019
202 Clouds 3 992 93 10000 3 70 14:44 14.10.2019
203 Clouds 3 992 93 10000 3 70 14:25 14.10.2019
204 Clear 2 993 93 10000 4 100 13:58 14.10.2019
205 Clear 2 993 93 10000 4 100 13:40 14.10.2019
206 Clear 2 993 93 10000 4 100 13:20 14.10.2019
207 Clear 2 993 93 10000 4 100 13:20 14.10.2019
208 Clear 2 993 93 10000 5 110 12:41 14.10.2019
209 Clear 2 993 89 10000 5 110 12:21 14.10.2019
210 Clear 2 993 80 10000 3 110 11:55 14.10.2019
211 Clear 2 993 80 10000 3 110 11:36 14.10.2019
212 Clear 2 993 80 10000 3 110 11:18 14.10.2019
213 Clear 3 994 74 10000 5 140 10:44 14.10.2019
214 Clear 3 994 74 10000 5 140 10:44 14.10.2019
215 Clear 3 994 74 10000 5 140 10:21 14.10.2019
216 Clear 3 994 89 10000 6 150 09:59 14.10.2019
217 Clear 3 994 89 10000 6 150 09:38 14.10.2019
218 Clear 3 994 87 10000 6 150 09:20 14.10.2019
219 Clear 3 994 86 10000 7 160 08:48 14.10.2019
220 Clear 3 994 86 10000 7 160 08:23 14.10.2019
221 Clouds 3 993 93 10000 7 150 07:44 14.10.2019
222 Clouds 3 993 93 10000 7 150 07:22 14.10.2019
223 Clouds 3 993 100 9000 7 140 06:55 14.10.2019
224 Clouds 4 993 93 9000 8 140 06:27 14.10.2019
225 Rain 4 993 93 3900 12 130 05:52 14.10.2019
226 Rain 3 994 93 5000 10 130 04:51 14.10.2019
227 Rain 3 995 93 7000 12 120 03:48 14.10.2019
228 Rain 3 996 93 5000 13 120 03:22 14.10.2019
229 Rain 3 998 86 5000 14 120 01:52 14.10.2019
230 Rain 3 999 86 5000 14 120 01:18 14.10.2019
231 Clouds 3 1000 86 10000 12 120 00:36 14.10.2019
232 Clouds 3 1000 86 10000 12 120 00:18 14.10.2019
233 Clouds 3 1000 86 10000 12 120 23:40 13.10.2019
234 Clouds 3 1001 86 10000 13 120 23:19 13.10.2019
235 Clouds 3 1002 86 10000 14 120 22:54 13.10.2019
236 Clouds 3 1002 86 10000 14 130 22:36 13.10.2019
237 Clouds 3 1002 86 10000 14 130 22:18 13.10.2019
238 Clouds 3 1002 86 10000 14 130 22:18 13.10.2019
239 Clouds 3 1003 86 10000 14 120 21:55 13.10.2019
240 Clouds 3 1003 86 10000 14 120 21:36 13.10.2019
241 Clouds 3 1003 81 10000 14 120 21:18 13.10.2019
242 Clouds 3 1003 81 10000 14 120 21:18 13.10.2019
243 Rain 3 1005 86 10000 12 120 20:55 13.10.2019
244 Rain 3 1005 86 10000 12 120 20:55 13.10.2019
245 Rain 3 1005 86 10000 12 120 20:36 13.10.2019
246 Rain 3 1005 86 10000 12 120 20:18 13.10.2019
247 Clouds 3 1005 86 10000 13 120 19:40 13.10.2019
248 Clouds 3 1005 86 10000 13 120 19:22 13.10.2019
249 Clouds 3 1006 86 10000 12 120 18:59 13.10.2019
250 Clouds 3 1006 86 10000 12 120 18:38 13.10.2019
251 Clouds 3 1006 86 10000 12 120 18:20 13.10.2019
252 Clouds 3 1008 83 10000 11 120 17:59 13.10.2019
253 Clouds 3 1008 83 10000 11 120 17:40 13.10.2019
254 Clouds 3 1008 83 10000 11 120 17:22 13.10.2019
255 Clouds 3 1008 83 10000 11 120 16:43 13.10.2019
256 Clouds 3 1008 83 10000 11 120 16:19 13.10.2019
257 Clouds 3 1009 86 10000 12 130 15:57 13.10.2019
258 Clouds 3 1009 86 10000 12 130 15:39 13.10.2019
259 Clouds 3 1009 86 10000 12 130 15:20 13.10.2019
260 Clear 3 1010 86 10000 12 140 14:58 13.10.2019
261 Clear 3 1010 86 10000 12 140 14:39 13.10.2019
262 Clear 3 1010 86 10000 12 140 14:20 13.10.2019
263 Clear 3 1011 86 10000 10 140 13:55 13.10.2019
264 Clear 3 1011 86 10000 10 140 13:37 13.10.2019
265 Clear 3 1011 86 10000 10 140 13:37 13.10.2019
266 Clear 3 1011 86 10000 10 140 13:18 13.10.2019
267 Clear 3 1011 86 10000 10 140 13:18 13.10.2019
268 Clear 2 1011 93 10000 9 140 12:55 13.10.2019
269 Clear 2 1011 93 10000 9 140 12:55 13.10.2019
270 Clear 2 1011 93 10000 9 140 12:36 13.10.2019
271 Clear 2 1011 93 10000 9 140 12:36 13.10.2019
272 Clear 2 1011 93 10000 9 140 12:18 13.10.2019
273 Clear 2 1012 85 10000 9 130 11:54 13.10.2019
274 Clear 2 1012 85 10000 9 130 11:36 13.10.2019
275 Clear 2 1012 85 10000 9 130 11:18 13.10.2019
276 Clear 2 1013 80 10000 8 140 10:41 13.10.2019
277 Clear 2 1013 80 10000 8 140 10:22 13.10.2019
278 Clear 2 1013 80 10000 8 140 10:22 13.10.2019
279 Clear 2 1013 80 10000 8 140 10:22 13.10.2019
280 Clouds 2 1014 80 10000 6 120 09:40 13.10.2019
281 Clouds 2 1014 80 10000 6 120 09:21 13.10.2019
282 Clouds 1 1014 80 10000 6 110 08:57 13.10.2019
283 Clouds 1 1014 80 10000 6 110 08:27 13.10.2019
284 Clouds 1 1015 80 10000 4 110 07:56 13.10.2019
285 Clouds 1 1015 80 10000 4 110 07:38 13.10.2019
286 Clouds 1 1016 80 10000 5 120 06:55 13.10.2019
287 Clouds 1 1016 80 10000 5 120 06:26 13.10.2019
288 Clear 2 1016 69 10000 5 130 05:29 13.10.2019
289 Clear 3 1017 59 10000 5 120 04:38 13.10.2019
290 Clear 2 1018 64 10000 5 120 03:37 13.10.2019
291 Clear 2 1018 64 10000 5 120 02:32 13.10.2019
292 Clear 1 1019 74 10000 5 110 01:51 13.10.2019
293 Clear 1 1019 74 10000 5 110 01:21 13.10.2019
294 Clear 0 1019 82 10000 6 100 00:43 13.10.2019
295 Clear 0 1019 84 10000 6 100 00:20 13.10.2019
296 Clear 0 1019 84 10000 6 110 23:54 12.10.2019
297 -273 0 0 0 0 0 23:54 12.10.2019
298 Clear 0 1019 84 10000 6 110 23:36 12.10.2019
299 Clear 0 1019 84 10000 6 110 23:36 12.10.2019
300 Clear 0 1019 84 10000 6 110 23:18 12.10.2019
301 Clear -2 1019 79 10000 6 110 22:54 12.10.2019
302 Clear -2 1019 79 10000 6 110 22:36 12.10.2019
303 Clear -2 1019 79 10000 6 110 22:18 12.10.2019
304 Clear -3 1020 79 10000 5 100 21:41 12.10.2019
305 Clear -3 1020 79 10000 5 100 21:23 12.10.2019
306 Clear -3 1020 79 10000 2 120 20:56 12.10.2019
307 Clear -3 1020 79 10000 2 120 20:38 12.10.2019
308 Clear -3 1020 79 10000 2 120 20:38 12.10.2019
309 Clear -3 1020 79 10000 2 120 20:20 12.10.2019
310 Clear -5 1020 85 10000 3 110 19:37 12.10.2019
311 Clear -5 1020 85 10000 3 110 19:18 12.10.2019
312 Clear -3 1021 79 10000 3 120 18:44 12.10.2019
313 Clear -3 1021 79 10000 3 120 18:26 12.10.2019
314 -273 0 0 0 0 0 17:56 12.10.2019
315 Clear -2 1021 79 10000 1 160 17:56 12.10.2019
316 Clear -2 1021 79 10000 1 160 17:37 12.10.2019
317 Clear -2 1021 79 10000 1 160 17:18 12.10.2019
318 Clear -3 1021 86 10000 4 160 16:41 12.10.2019
319 Clear -3 1021 86 10000 4 160 16:21 12.10.2019
320 Clear -3 1021 86 10000 4 170 15:57 12.10.2019
321 Clear -3 1021 86 10000 4 170 15:38 12.10.2019
322 Clear -3 1021 86 10000 4 170 15:19 12.10.2019
323 Clear -2 1021 79 10000 4 170 14:41 12.10.2019
324 Clear -2 1021 79 10000 4 170 14:21 12.10.2019
325 Clear -2 1021 79 10000 4 170 14:21 12.10.2019
326 Clear -2 1022 79 10000 4 170 13:52 12.10.2019
327 Clear -2 1022 79 10000 4 170 13:33 12.10.2019
328 Clear -2 1022 86 10000 4 160 12:59 12.10.2019
329 Clear -2 1022 86 10000 4 160 12:38 12.10.2019
330 Clear -2 1022 86 10000 4 160 12:20 12.10.2019
331 Clear -1 1021 80 10000 2 110 11:47 12.10.2019
332 Clear -1 1021 80 10000 2 110 11:26 12.10.2019
333 Clear -1 1021 80 10000 2 140 10:59 12.10.2019
334 Clear -1 1021 80 10000 2 140 10:40 12.10.2019
335 Clear -1 1021 80 10000 2 140 10:21 12.10.2019
336 Clear -1 1021 80 10000 4 160 09:57 12.10.2019
337 -273 0 0 0 0 0 09:57 12.10.2019
338 Clear -1 1021 80 10000 4 160 09:38 12.10.2019
339 Clear -1 1021 80 10000 4 160 09:19 12.10.2019
340 Clear -1 1021 80 10000 2 170 08:45 12.10.2019
341 Clear -1 1021 80 10000 2 170 08:25 12.10.2019
342 Clear -1 1021 80 10000 3 170 07:59 12.10.2019
343 Clear -1 1021 80 10000 3 170 07:31 12.10.2019
344 Clear 0 1022 85 10000 4 170 06:37 12.10.2019
345 Clear -1 1022 86 10000 5 160 05:44 12.10.2019
346 Clear 0 1022 84 10000 5 180 04:43 12.10.2019
347 Clear -1 1022 80 10000 5 180 03:56 12.10.2019
348 Clear -2 1022 86 10000 5 180 02:50 12.10.2019
349 Clear -2 1022 86 10000 6 180 01:35 12.10.2019
350 Clear -2 1022 86 10000 6 170 00:56 12.10.2019
351 Clear -2 1022 86 10000 6 170 00:38 12.10.2019
352 Clear -2 1022 86 10000 3 170 23:55 11.10.2019
353 Clear -2 1022 86 10000 3 170 23:37 11.10.2019
354 Clear -2 1022 86 10000 3 170 23:18 11.10.2019
355 Clear -5 1022 85 10000 2 140 22:39 11.10.2019
356 Clear -5 1022 85 10000 2 140 22:20 11.10.2019
357 Clear -5 1022 92 10000 2 160 21:55 11.10.2019
358 Clear -5 1022 92 10000 2 160 21:36 11.10.2019
359 Clear -5 1022 92 10000 2 160 21:18 11.10.2019
360 Clear -7 1022 92 10000 2 150 20:42 11.10.2019
361 Clear -7 1022 92 10000 2 150 20:24 11.10.2019
362 Clear -7 1022 92 10000 2 130 19:56 11.10.2019
363 Clear -7 1022 92 10000 2 130 19:38 11.10.2019
364 Clear -8 1022 92 10000 2 130 19:18 11.10.2019
365 Clear -8 1022 92 10000 2 130 19:18 11.10.2019
366 Clear -8 1022 92 10000 2 120 18:56 11.10.2019
367 Clear -8 1022 92 10000 2 120 18:37 11.10.2019
368 Clear -8 1022 92 10000 2 120 18:18 11.10.2019
369 Clear -8 1023 92 10000 2 120 17:57 11.10.2019
370 Clear -8 1023 92 10000 2 120 17:37 11.10.2019
371 Clear -8 1023 92 10000 2 120 17:18 11.10.2019
372 Clear -8 1023 92 10000 2 110 16:41 11.10.2019
373 Clear -8 1023 92 10000 2 110 16:21 11.10.2019
374 Clear -8 1022 85 10000 3 110 15:59 11.10.2019
375 Clear -8 1022 85 10000 3 110 15:59 11.10.2019
376 Clear -8 1022 85 10000 3 110 15:38 11.10.2019
377 Clear -8 1022 85 10000 3 110 15:38 11.10.2019
378 Clear -8 1022 85 10000 3 110 15:19 11.10.2019
379 Clear -8 1023 85 10000 2 140 14:47 11.10.2019
380 Clear -8 1023 85 10000 2 140 14:29 11.10.2019
381 Clear -7 1023 85 10000 2 110 13:57 11.10.2019
382 Clear -7 1023 85 10000 2 110 13:38 11.10.2019
383 Clear -7 1023 85 10000 2 110 13:19 11.10.2019
384 Clear -10 1023 85 10000 3 90 12:56 11.10.2019
385 Clear -10 1023 85 10000 3 90 12:38 11.10.2019
386 Clear -10 1023 85 10000 3 90 12:18 11.10.2019
387 Clear -9 1023 92 10000 1 70 11:41 11.10.2019
388 Clear -9 1023 92 10000 1 70 11:22 11.10.2019
389 Clear -9 1023 92 10000 1 70 11:22 11.10.2019
390 Clear -7 1023 85 10000 1 60 10:58 11.10.2019
391 Clear -7 1023 85 10000 1 60 10:40 11.10.2019
392 Clear -7 1023 85 10000 1 60 10:22 11.10.2019
393 Clear -6 1022 85 10000 2 350 09:56 11.10.2019
394 Clear -6 1022 85 10000 2 350 09:37 11.10.2019
395 Clear -6 1022 85 10000 2 350 09:19 11.10.2019
396 Clear -7 1022 92 10000 2 40 08:55 11.10.2019
397 Clear -7 1022 92 10000 2 40 08:36 11.10.2019
398 Clear -7 1022 92 10000 2 40 08:18 11.10.2019
399 Clear -5 1022 85 10000 3 360 07:44 11.10.2019
400 Clear -4 1022 85 10000 3 360 07:25 11.10.2019
401 Clear -3 1022 79 10000 4 350 06:48 11.10.2019
402 Clear -2 1022 74 10000 3 350 06:23 11.10.2019
403 Clear -2 1022 74 10000 3 350 05:39 11.10.2019
404 Clear -2 1022 74 10000 3 360 04:59 11.10.2019
405 Clear -2 1022 74 10000 2 360 04:24 11.10.2019
406 Clear -2 1022 79 10000 2 340 02:40 11.10.2019
407 Clouds -3 1022 86 10000 2 350 00:50 11.10.2019
408 Clouds -3 1022 86 10000 2 350 00:29 11.10.2019
409 Clouds -5 1022 85 10000 2 10 23:44 10.10.2019
410 Clear -5 1022 85 10000 2 10 23:22 10.10.2019
411 Clear -6 1022 85 10000 2 10 22:58 10.10.2019
412 Clear -7 1022 85 10000 2 30 22:39 10.10.2019
413 Clear -7 1022 85 10000 2 30 22:21 10.10.2019
414 Clear -9 1022 85 10000 3 30 21:58 10.10.2019
415 Clear -9 1022 85 10000 3 30 21:58 10.10.2019
416 Clear -9 1022 85 10000 3 30 21:39 10.10.2019
417 Clear -9 1022 85 10000 3 30 21:21 10.10.2019
418 Clear -9 1022 85 10000 3 30 21:21 10.10.2019
419 Clouds -8 1022 92 10000 3 30 20:43 10.10.2019
420 Clouds -8 1022 92 10000 3 30 20:22 10.10.2019
421 Clouds -6 1023 85 10000 2 340 19:59 10.10.2019
422 Clouds -6 1023 85 10000 2 340 19:41 10.10.2019
423 Clouds -6 1023 85 10000 2 340 19:21 10.10.2019
424 Clouds -6 1023 92 10000 2 20 18:59 10.10.2019
425 Clouds -6 1023 92 10000 2 20 18:40 10.10.2019
426 Clouds -6 1023 92 10000 2 20 18:20 10.10.2019
427 Clouds -7 1023 85 10000 2 30 17:55 10.10.2019
428 Clouds -7 1023 85 10000 2 30 17:55 10.10.2019
429 Clouds -7 1023 85 10000 2 30 17:37 10.10.2019
430 Clouds -7 1023 85 10000 2 30 17:18 10.10.2019
431 Clouds -6 1023 85 10000 1 60 16:46 10.10.2019
432 Clouds -6 1023 85 10000 1 60 16:26 10.10.2019
433 Clear -8 1023 85 10000 3 50 15:58 10.10.2019
434 Clear -8 1023 85 0 2.68 20 15:38 10.10.2019
435 Clear -9 1023 85 10000 3 50 15:19 10.10.2019
436 Clear -9 1023 85 10000 3 50 14:55 10.10.2019
437 Clear -9 1023 85 0 3.58 40 14:36 10.10.2019
438 Clear -7 1024 85 10000 3 10 14:18 10.10.2019
439 Clear -7 1024 85 10000 3 10 13:42 10.10.2019
440 Clear -7 1024 85 10000 3 10 13:24 10.10.2019
441 Clear -9 1024 85 10000 2 60 12:57 10.10.2019
442 Clear -9 1024 85 10000 2 60 12:57 10.10.2019
443 Clear -9 1024 85 10000 2 60 12:39 10.10.2019
444 Clear -9 1024 85 10000 2 60 12:20 10.10.2019
445 Clear -9 1024 85 10000 2 60 12:20 10.10.2019
446 Clear -9 1024 85 10000 2 70 11:57 10.10.2019
447 Clouds -9 1024 92 10000 2 50 11:38 10.10.2019
448 Clouds -8 1024 92 10000 2 50 11:19 10.10.2019
449 Clouds -6 1024 85 10000 2 350 10:44 10.10.2019
450 Clouds -6 1024 85 10000 2 350 10:26 10.10.2019
451 Clouds -6 1024 85 10000 2 350 09:56 10.10.2019
452 Clouds -5 1024 79 10000 2 350 09:38 10.10.2019
453 Clouds -4 1024 79 10000 2 350 09:20 10.10.2019
454 Clouds -7 1024 85 10000 3 10 08:57 10.10.2019
455 Clear -6 1024 85 10000 4 10 08:37 10.10.2019
456 Clear -6 1024 85 10000 4 10 08:18 10.10.2019
457 Clear -4 1024 79 10000 4 360 07:44 10.10.2019
458 Clear -3 1024 73 10000 3 360 07:21 10.10.2019
459 Clear -2 1024 68 10000 3 340 06:48 10.10.2019
460 Clear -2 1024 68 10000 3 360 06:29 10.10.2019
461 Clear -1 1024 63 10000 4 350 05:28 10.10.2019
462 Clear -1 1024 63 10000 4 340 04:47 10.10.2019
463 Clear -1 1025 63 10000 4 340 04:26 10.10.2019
464 Clear -3 1025 74 10000 3 340 01:44 10.10.2019
465 Clear -3 1025 74 10000 3 340 01:44 10.10.2019
466 Clear -3 1025 73 10000 3 340 01:25 10.10.2019
467 Clear -3 1025 79 10000 2 350 00:54 10.10.2019
468 Clear -3 1025 79 10000 2 350 00:54 10.10.2019
469 Clear -4 1025 79 10000 3 350 00:22 10.10.2019
470 Clear -4 1024 79 10000 3 350 23:40 09.10.2019
471 Clear -5 1024 85 10000 3 320 23:21 09.10.2019
472 Clear -5 1024 85 10000 2 360 22:56 09.10.2019
473 Clear -5 1024 85 10000 3 10 22:37 09.10.2019
474 Clear -5 1024 85 10000 3 10 22:19 09.10.2019
475 Clear -5 1023 85 10000 3 10 21:40 09.10.2019
476 Clear -5 1023 85 10000 3 10 21:21 09.10.2019
477 Clear -4 1022 85 10000 5 340 20:56 09.10.2019
478 Clear -4 1022 85 10000 5 340 20:38 09.10.2019
479 Clear -4 1022 85 10000 5 340 20:19 09.10.2019
480 Clear -4 1022 85 10000 6 320 19:58 09.10.2019
481 Clear -4 1022 85 10000 6 320 19:39 09.10.2019
482 Clear -4 1022 85 10000 6 320 19:20 09.10.2019
483 Clear -4 1022 85 10000 5 320 18:38 09.10.2019
484 Clear -4 1022 85 10000 5 320 18:19 09.10.2019
485 Clear -3 1021 86 10000 6 310 17:57 09.10.2019
486 Clear -3 1021 86 10000 6 310 17:37 09.10.2019
487 Clear -3 1021 86 10000 6 310 17:19 09.10.2019
488 Clear -3 1021 86 10000 6 310 17:19 09.10.2019
489 Clear -3 1021 86 10000 6 310 16:55 09.10.2019
490 Clear -3 1021 86 10000 6 310 16:36 09.10.2019
491 Clear -3 1021 86 10000 6 310 16:18 09.10.2019
492 Clear -2 1020 86 10000 4 320 15:55 09.10.2019
493 Clear -2 1020 86 10000 4 320 15:36 09.10.2019
494 Clear -2 1020 86 10000 4 320 15:36 09.10.2019
495 Clear -2 1020 86 10000 4 320 15:18 09.10.2019
496 Clear -2 1020 86 10000 4 320 15:18 09.10.2019
497 Clear -2 1020 86 10000 1 340 14:41 09.10.2019
498 Clear -2 1020 86 10000 1 340 14:18 09.10.2019
499 -273 0 0 0 0 0 13:55 09.10.2019
500 Clear -1 1019 86 10000 2 330 13:36 09.10.2019
501 Clear -1 1019 86 10000 2 330 13:18 09.10.2019
502 Clear 0 1018 86 10000 3 10 12:42 09.10.2019
503 Clear 0 1018 79 10000 3 10 12:22 09.10.2019
504 Clear 0 1017 79 10000 1 120 11:57 09.10.2019
505 Clear 0 1017 79 10000 1 120 11:39 09.10.2019
506 Clear 0 1017 79 10000 1 120 11:20 09.10.2019
507 Clear 0 1016 79 10000 3 360 10:55 09.10.2019
508 Clear 0 1016 79 10000 3 360 10:37 09.10.2019
509 Clear 0 1016 79 10000 3 360 10:18 09.10.2019
510 Clouds 0 1014 79 10000 3 300 09:42 09.10.2019
511 Clouds 0 1014 75 10000 3 300 09:19 09.10.2019
512 Clouds 1 1013 86 10000 4 20 08:56 09.10.2019
513 Clouds 1 1013 86 10000 4 20 08:37 09.10.2019
514 Clouds 1 1013 86 10000 4 20 08:18 09.10.2019
515 Clouds 1 1013 86 10000 4 20 08:18 09.10.2019
516 Clouds 2 1012 78 10000 4 360 07:43 09.10.2019
517 Clouds 2 1011 78 10000 5 340 07:23 09.10.2019
518 Clouds 2 1011 78 10000 5 340 06:52 09.10.2019
519 Clouds 2 1010 78 10000 4 340 06:20 09.10.2019
520 Clouds 2 1009 78 10000 6 340 05:46 09.10.2019
521 Clouds 2 1009 78 10000 6 340 05:46 09.10.2019
522 Clouds 3 1007 78 10000 7 330 04:27 09.10.2019
523 Clouds 2 1006 80 10000 6 320 02:54 09.10.2019
524 Clouds 1 1005 80 10000 7 310 01:44 09.10.2019
525 Clouds 1 1005 80 10000 7 300 01:21 09.10.2019
526 Clouds 1 1004 80 10000 7 300 00:58 09.10.2019
527 Clouds 0 1004 80 10000 7 300 00:40 09.10.2019
528 Clouds 0 1004 81 10000 7 300 00:21 09.10.2019
529 Clouds 0 1004 81 10000 6 290 23:57 08.10.2019
530 Clouds 0 1004 81 10000 6 290 23:36 08.10.2019
531 Clouds 0 1004 81 10000 6 290 23:18 08.10.2019
532 Clouds -1 1003 92 10000 8 290 22:39 08.10.2019
533 Clouds -1 1003 92 10000 8 290 22:20 08.10.2019
534 Clouds -1 1002 92 10000 8 280 21:57 08.10.2019
535 Clouds -1 1002 92 10000 8 280 21:39 08.10.2019
536 Clouds -1 1002 92 10000 8 280 21:19 08.10.2019
537 Clouds -1 1002 86 10000 10 290 20:56 08.10.2019
538 Clouds -1 1002 86 10000 10 290 20:38 08.10.2019
539 Clouds -1 1002 86 10000 10 290 20:20 08.10.2019
540 Clouds -1 1001 86 10000 11 290 19:58 08.10.2019
541 Clouds -1 1001 86 10000 11 290 19:58 08.10.2019
542 Clouds -1 1001 86 10000 11 290 19:40 08.10.2019
543 Clouds -1 1001 86 10000 11 290 19:21 08.10.2019
544 Clouds -1 1001 86 10000 11 290 19:21 08.10.2019
545 Clouds -2 1001 92 10000 10 290 18:55 08.10.2019
546 Clouds -2 1001 92 10000 10 290 18:55 08.10.2019
547 Clouds -2 1001 92 10000 10 290 18:36 08.10.2019
548 Clouds -2 1001 92 10000 10 290 18:18 08.10.2019
549 Clouds -1 1000 86 10000 10 290 17:40 08.10.2019
550 Clouds -1 1000 86 10000 10 290 17:21 08.10.2019
551 Clouds -1 999 86 10000 10 290 16:59 08.10.2019
552 Clouds -1 999 86 10000 10 290 16:40 08.10.2019
553 Clouds -1 999 86 10000 10 290 16:22 08.10.2019
554 Clouds -1 999 92 10000 10 290 15:41 08.10.2019
555 Clouds -1 999 92 10000 10 290 15:22 08.10.2019
556 Clouds 0 998 90 10000 7 290 14:59 08.10.2019
557 Clouds 0 998 90 10000 7 290 14:41 08.10.2019
558 Clouds 0 998 90 10000 7 290 14:21 08.10.2019
559 Mist 0 998 90 2800 7 300 13:57 08.10.2019
560 Mist 0 998 90 2800 7 300 13:38 08.10.2019
561 Mist 0 998 90 2800 7 300 13:19 08.10.2019
562 Fog 1 997 100 900 5 330 12:58 08.10.2019
563 Fog 1 997 100 900 5 330 12:38 08.10.2019
564 Fog 1 997 100 900 5 330 12:18 08.10.2019
565 Fog 1 996 97 800 6 350 11:42 08.10.2019
566 Fog 1 996 97 800 6 350 11:24 08.10.2019
567 Fog 1 996 97 800 6 350 11:24 08.10.2019
568 Clouds 1 995 100 10000 3 350 10:58 08.10.2019
569 Clouds 1 995 100 10000 3 350 10:38 08.10.2019
570 Clouds 1 995 100 10000 3 350 10:19 08.10.2019
571 Fog 2 995 93 8000 3 320 09:56 08.10.2019
572 Fog 2 995 93 8000 3 320 09:37 08.10.2019
573 Fog 2 995 93 8000 3 320 09:19 08.10.2019
574 Fog 2 994 100 300 4 340 08:42 08.10.2019
575 Fog 2 994 100 300 4 340 08:23 08.10.2019
576 Fog 2 994 100 300 4 340 08:23 08.10.2019
577 Fog 2 994 100 300 4 340 08:23 08.10.2019
578 Fog 3 994 93 650 3 330 07:45 08.10.2019
579 Fog 3 993 100 350 3 340 07:21 08.10.2019
580 Fog 3 993 100 10000 3 340 06:53 08.10.2019
581 Fog 4 993 93 10000 2 10 06:29 08.10.2019
582 Fog 4 993 93 10000 3 20 05:55 08.10.2019
583 Fog 4 993 93 10000 3 20 05:55 08.10.2019
584 Rain 5 992 93 10000 3 10 05:36 08.10.2019
585 Clouds 5 992 86 10000 2 60 04:31 08.10.2019
586 Clouds 6 992 87 10000 3 110 03:29 08.10.2019
587 Clouds 5 992 86 10000 2 100 02:37 08.10.2019
588 Rain 5 992 93 10000 1 100 01:47 08.10.2019
589 Rain 5 993 86 10000 3 100 01:28 08.10.2019
590 Rain 4 993 93 10000 4 110 00:48 08.10.2019
591 Rain 4 992 93 10000 4 100 00:21 08.10.2019
592 Rain 4 992 93 10000 5 100 23:41 07.10.2019
593 Rain 4 992 93 10000 4 100 23:20 07.10.2019
594 Rain 4 992 93 10000 4 100 23:20 07.10.2019
595 Rain 4 992 93 9000 5 110 22:57 07.10.2019
596 Rain 4 993 93 10000 5 100 22:39 07.10.2019
597 Rain 4 993 93 10000 5 100 22:20 07.10.2019
598 Clouds 4 993 93 9000 5 110 21:57 07.10.2019
599 Clouds 4 993 93 9000 5 110 21:38 07.10.2019
600 Clouds 4 993 93 9000 5 110 21:20 07.10.2019
601 Rain 4 993 93 9000 4 120 20:58 07.10.2019
602 Rain 4 993 93 9000 4 120 20:39 07.10.2019
603 Rain 4 993 93 9000 4 120 20:20 07.10.2019
604 Rain 3 993 100 6000 6 110 19:58 07.10.2019
605 Rain 3 993 100 6000 6 110 19:39 07.10.2019
606 Rain 3 993 100 6000 6 110 19:19 07.10.2019
607 Clouds 4 993 93 9000 7 110 18:56 07.10.2019
608 Clouds 4 993 93 9000 7 110 18:56 07.10.2019
609 Clouds 4 993 93 9000 7 110 18:38 07.10.2019
610 Clouds 4 993 93 9000 7 110 18:18 07.10.2019
611 Clouds 4 993 93 9000 7 110 18:18 07.10.2019
612 Fog 4 994 93 9000 8 100 17:43 07.10.2019
613 Fog 4 994 93 9000 8 100 17:20 07.10.2019
614 Rain 3 994 100 3700 7 110 16:57 07.10.2019
615 Rain 3 994 100 3700 7 110 16:38 07.10.2019
616 Rain 3 994 100 3700 7 110 16:20 07.10.2019
617 Clouds 3 995 93 3900 11 110 15:45 07.10.2019
618 Clouds 3 995 93 3900 11 110 15:25 07.10.2019
619 Clouds 2 996 93 6000 14 100 14:55 07.10.2019
620 Clouds 2 996 93 6000 14 100 14:37 07.10.2019
621 Clouds 2 996 93 6000 14 100 14:19 07.10.2019
622 Snow 1 997 100 2400 17 100 13:41 07.10.2019
623 Snow 1 997 100 2400 17 100 13:20 07.10.2019
624 Snow 1 997 97 1400 19 100 12:55 07.10.2019
625 Snow 1 997 97 1400 19 100 12:37 07.10.2019
626 Snow 1 997 95 1400 19 100 12:19 07.10.2019
627 Snow 1 999 95 1900 22 100 11:57 07.10.2019
628 Snow 1 999 95 1900 22 100 11:37 07.10.2019
629 Snow 1 999 95 1900 22 100 11:18 07.10.2019
630 Snow 1 1001 95 2100 21 100 10:41 07.10.2019
631 Snow 1 1001 95 2100 21 100 10:41 07.10.2019
632 Snow 1 1001 95 2100 21 100 10:41 07.10.2019
633 Snow 1 1001 95 2100 21 100 10:20 07.10.2019
634 Snow 1 1002 95 3000 20 110 09:42 07.10.2019
635 Snow 1 1002 90 3000 20 110 09:23 07.10.2019
636 Snow 1 1004 90 3200 17 100 08:57 07.10.2019
637 Snow 1 1004 90 3200 17 100 08:57 07.10.2019
638 Snow 1 1004 89 3200 17 100 08:38 07.10.2019
639 Snow 1 1004 89 3200 17 100 08:19 07.10.2019
640 Snow 0 1006 89 2500 19 100 07:41 07.10.2019
641 Snow 0 1007 89 1100 19 110 07:23 07.10.2019
642 Snow 0 1008 89 1300 17 110 06:54 07.10.2019
643 Snow 0 1009 89 1700 14 120 06:34 07.10.2019
644 Snow 1 1010 86 3300 11 110 05:49 07.10.2019
645 Snow 1 1011 80 1900 10 110 05:23 07.10.2019
646 Clouds 1 1013 80 10000 7 100 04:28 07.10.2019
647 Clouds 1 1014 80 10000 8 110 03:45 07.10.2019
648 Clouds 1 1015 74 10000 7 120 03:21 07.10.2019
649 Clouds 1 1016 74 10000 5 120 02:22 07.10.2019
650 Clouds 0 1017 82 10000 5 110 01:52 07.10.2019
651 Clear 0 1018 83 10000 6 110 01:22 07.10.2019
652 Clear -1 1018 80 10000 6 120 00:41 07.10.2019
653 Clear -1 1018 80 10000 5 110 00:22 07.10.2019
654 Clear -1 1019 80 10000 6 100 23:54 06.10.2019
655 Clear -2 1019 86 10000 6 120 23:36 06.10.2019
656 Clear -2 1019 86 10000 6 120 23:18 06.10.2019
657 Clear -2 1020 79 10000 4.07 59.906 22:41 06.10.2019
658 Clouds -6 1020 92 10000 2 150 22:22 06.10.2019
659 Clouds -8 1020 92 10000 2 30 21:58 06.10.2019
660 Clouds -8 1020 92 10000 2 30 21:38 06.10.2019
661 Clouds -8 1020 92 10000 2 30 21:19 06.10.2019
662 Clouds -9 1021 92 10000 3 30 20:58 06.10.2019
663 Clouds -9 1021 92 10000 3 30 20:58 06.10.2019
664 Clouds -9 1021 92 10000 3 30 20:40 06.10.2019
665 Clouds -9 1021 92 10000 3 30 20:21 06.10.2019
666 Fog -11 1022 92 10000 2 40 19:58 06.10.2019
667 Fog -11 1022 92 10000 2 40 19:38 06.10.2019
668 Fog -11 1022 92 10000 2 40 19:19 06.10.2019
669 Clear -12 1022 92 10000 1 50 18:57 06.10.2019
670 Clear -12 1022 92 10000 1 50 18:39 06.10.2019
671 Clear -12 1022 92 10000 1 50 18:19 06.10.2019
672 Clear -11 1022 92 10000 1 40 17:58 06.10.2019
673 Clear -11 1022 92 10000 1 40 17:39 06.10.2019
674 Clear -11 1022 92 10000 1 40 17:19 06.10.2019
675 Clear -8 1023 92 10000 2 310 16:42 06.10.2019
676 Clear -8 1023 92 10000 2 310 16:24 06.10.2019
677 Clear -8 1023 92 10000 3 330 15:58 06.10.2019
678 Clear -8 1023 92 10000 3 330 15:39 06.10.2019
679 Clear -8 1023 92 10000 3 330 15:18 06.10.2019
680 Clear -8 1023 92 10000 4 350 14:43 06.10.2019
681 Clear -8 1023 92 10000 4 350 14:24 06.10.2019
682 Clear -6 1023 85 10000 4 10 13:58 06.10.2019
683 Clear -6 1023 85 10000 4 10 13:39 06.10.2019
684 Clear -6 1023 85 10000 4 10 13:20 06.10.2019
685 Clear -6 1023 85 10000 3 10 12:57 06.10.2019
686 Clear -6 1023 85 10000 3 10 12:57 06.10.2019
687 Clear -6 1023 85 10000 3 10 12:57 06.10.2019
688 Clear -6 1023 85 10000 3 10 12:38 06.10.2019
689 Clear -6 1023 85 10000 3 10 12:20 06.10.2019
690 Clear -4 1022 79 10000 4 340 11:56 06.10.2019
691 Clear -4 1022 79 10000 4 340 11:37 06.10.2019
692 Clear -4 1022 79 10000 4 340 11:18 06.10.2019
693 Clear -3 1022 73 10000 5 320 10:43 06.10.2019
694 Clear -3 1022 73 10000 5 320 10:25 06.10.2019
695 Clear -3 1021 79 10000 7 310 09:58 06.10.2019
696 Clear -3 1021 79 10000 7 310 09:39 06.10.2019
697 Clear -3 1021 79 10000 7 310 09:18 06.10.2019
698 Clear -2 1021 74 10000 6 310 08:43 06.10.2019
699 Clear -2 1021 74 10000 6 310 08:20 06.10.2019
700 Clear -1 1019 68 10000 8 320 07:44 06.10.2019
701 Clear -1 1019 68 10000 8 320 07:19 06.10.2019
702 Clear -1 1019 74 10000 10 310 06:20 06.10.2019
703 Clear -1 1019 74 10000 10 300 05:34 06.10.2019
704 Clouds -2 1017 74 10000 12 300 03:42 06.10.2019
705 Clear -2 1017 74 10000 11 300 02:43 06.10.2019
706 Clouds -2 1016 74 10000 11 300 02:21 06.10.2019
707 Clouds -2 1016 74 10000 11 300 01:44 06.10.2019
708 Clouds -2 1016 74 10000 11 300 01:26 06.10.2019
709 Clouds -2 1015 74 10000 11 300 00:52 06.10.2019
710 Clouds -3 1015 79 10000 11 300 00:26 06.10.2019
711 Clouds -3 1014 73 10000 11 300 23:45 05.10.2019
712 Clouds -4 1014 79 10000 11 300 23:22 05.10.2019
713 Clouds -4 1013 79 10000 11 300 22:58 05.10.2019
714 Clouds -4 1013 79 10000 11 300 22:40 05.10.2019
715 Clouds -4 1013 79 10000 11 300 22:20 05.10.2019
716 Clouds -4 1012 79 10000 11 290 21:56 05.10.2019
717 Clouds -4 1012 79 10000 11 290 21:38 05.10.2019
718 Clouds -4 1012 79 10000 11 290 21:18 05.10.2019
719 Clouds -4 1011 73 10000 12 300 20:55 05.10.2019
720 Clouds -4 1011 73 10000 12 300 20:37 05.10.2019
721 Clouds -4 1011 73 10000 12 300 20:18 05.10.2019
722 Clear -4 1010 73 10000 12 290 19:38 05.10.2019
723 Clear -4 1010 73 10000 12 290 19:19 05.10.2019
724 Clear -4 1010 73 10000 12 290 19:19 05.10.2019
725 Clear -4 1009 73 10000 13 290 18:55 05.10.2019
726 Clear -4 1009 73 10000 13 290 18:55 05.10.2019
727 Clear -4 1009 73 10000 13 290 18:37 05.10.2019
728 Clear -4 1009 73 10000 13 290 18:19 05.10.2019
729 Clear -3 1009 73 10000 13 290 17:43 05.10.2019
730 Clear -3 1009 73 10000 13 290 17:25 05.10.2019
731 Clear -3 1008 73 10000 13 290 16:58 05.10.2019
732 Clear -3 1008 73 10000 13 290 16:40 05.10.2019
733 Clear -3 1008 73 10000 13 290 16:21 05.10.2019
734 Clear -3 1008 73 10000 14 290 15:57 05.10.2019
735 Clear -3 1008 73 10000 14 290 15:38 05.10.2019
736 Clear -3 1008 73 10000 14 290 15:20 05.10.2019
737 Clear -3 1007 73 10000 14 290 14:44 05.10.2019
738 Clear -3 1007 73 10000 14 290 14:26 05.10.2019
739 Clear -3 1007 73 10000 14 290 14:26 05.10.2019
740 Clear -2 1007 68 10000 14 290 13:59 05.10.2019
741 Clear -2 1007 68 10000 14 290 13:40 05.10.2019
742 Clear -2 1007 68 10000 14 290 13:20 05.10.2019
743 Clear -2 1006 68 10000 15 290 12:44 05.10.2019
744 Clear -2 1006 68 10000 15 290 12:20 05.10.2019
745 Clear -2 1006 68 10000 14 290 11:45 05.10.2019
746 Clear -2 1006 68 10000 14 290 11:23 05.10.2019
747 Clear -2 1005 74 10000 15 290 10:59 05.10.2019
748 Clear -2 1005 74 10000 15 290 10:41 05.10.2019
749 Clear -2 1005 74 10000 15 290 10:23 05.10.2019
750 Clear -1 1004 68 10000 13 290 09:56 05.10.2019
751 Clear -1 1004 68 10000 13 290 09:38 05.10.2019
752 Clear -1 1004 68 10000 13 290 09:20 05.10.2019
753 Clear -1 1004 68 10000 14 290 08:39 05.10.2019
754 Clear -1 1004 68 10000 14 290 08:19 05.10.2019
755 Clear -1 1003 68 10000 15 290 07:53 05.10.2019
756 Clear -1 1003 68 10000 15 290 07:32 05.10.2019
757 Clear 0 1003 73 10000 14 290 06:57 05.10.2019
758 Clear 0 1003 73 10000 14 290 06:26 05.10.2019
759 Clear 0 1002 72 10000 14 290 05:40 05.10.2019
760 Clouds -1 1001 80 10000 15 280 03:41 05.10.2019
761 Clouds -1 1001 80 10000 15 280 03:22 05.10.2019
762 Clouds -2 999 79 10000 15 280 01:30 05.10.2019
763 Clouds -2 999 79 10000 16 280 00:58 05.10.2019
764 Clouds -2 999 79 10000 16 280 00:40 05.10.2019
765 Clouds -2 999 79 10000 16 280 00:22 05.10.2019
766 Clouds -3 999 86 10000 15 280 23:43 04.10.2019
767 Clouds -3 999 86 10000 15 280 23:24 04.10.2019
768 Clouds -3 998 79 10000 16 280 22:58 04.10.2019
769 Clouds -3 998 79 10000 16 280 22:38 04.10.2019
770 Clouds -3 998 79 10000 16 280 22:19 04.10.2019
771 Clouds -3 997 79 10000 14 270 21:55 04.10.2019
772 Clouds -3 997 79 10000 14 270 21:36 04.10.2019
773 Clouds -3 997 79 10000 14 270 21:18 04.10.2019
774 Clouds -3 997 73 10000 15 280 20:42 04.10.2019
775 Clouds -3 997 73 10000 15 280 20:23 04.10.2019
776 Clouds -3 996 73 10000 15 270 19:58 04.10.2019
777 Clouds -3 996 73 10000 15 270 19:39 04.10.2019
778 Clouds -3 996 73 10000 15 270 19:21 04.10.2019
779 Clouds -3 996 73 10000 14 270 18:56 04.10.2019
780 Clouds -3 996 73 10000 14 270 18:37 04.10.2019
781 Clouds -3 996 73 10000 14 270 18:18 04.10.2019
782 Clouds -3 996 73 10000 14 270 18:18 04.10.2019
783 Clouds -2 996 74 10000 12 270 17:41 04.10.2019
784 Clouds -2 996 74 10000 12 270 17:41 04.10.2019
785 Clouds -2 996 74 10000 12 270 17:22 04.10.2019
786 Clouds -2 996 74 10000 14 270 16:59 04.10.2019
787 Clouds -2 996 74 10000 14 270 16:41 04.10.2019
788 Clouds -2 996 74 10000 14 270 16:19 04.10.2019
789 Clouds -2 996 74 10000 14 270 16:19 04.10.2019
790 Clouds -2 996 74 10000 13 280 15:57 04.10.2019
791 Clouds -2 996 74 10000 13 280 15:39 04.10.2019
792 Clouds -2 996 74 10000 13 280 15:20 04.10.2019
793 Clouds -2 996 74 10000 15 280 14:56 04.10.2019
794 Clouds -2 996 74 10000 15 280 14:38 04.10.2019
795 Clouds -2 996 74 10000 15 280 14:20 04.10.2019
796 Clouds -2 996 74 10000 14 280 13:45 04.10.2019
797 Clouds -2 996 74 10000 14 280 13:22 04.10.2019
798 Clouds -2 995 74 10000 13 280 12:55 04.10.2019
799 Clouds -2 995 74 10000 13 280 12:55 04.10.2019
800 Clouds -2 995 74 10000 13 280 12:36 04.10.2019
801 Clouds -2 995 74 10000 13 280 12:18 04.10.2019
802 Clouds -2 995 68 10000 14 290 11:42 04.10.2019
803 Clouds -2 995 68 10000 14 290 11:22 04.10.2019
804 Clouds -3 995 68 10000 12 280 10:55 04.10.2019
805 Clouds -3 995 68 10000 12 280 10:37 04.10.2019
806 Clouds -3 995 68 10000 12 280 10:18 04.10.2019
807 Clouds -2 995 63 10000 12 290 09:41 04.10.2019
808 Clouds -2 995 63 10000 12 290 09:23 04.10.2019
809 Clouds -2 994 68 10000 13 290 08:45 04.10.2019
810 Clouds -2 994 68 10000 13 290 08:26 04.10.2019
811 Clouds -3 994 73 10000 11 290 07:47 04.10.2019
812 Clouds -3 994 73 10000 11 280 07:26 04.10.2019
813 Clouds -3 994 73 10000 11 290 06:59 04.10.2019
814 Clouds -3 994 73 10000 12 290 06:39 04.10.2019
815 Clouds -3 994 73 10000 12 290 06:21 04.10.2019
816 Clouds -4 994 79 9000 13 280 05:21 04.10.2019
817 Clouds -3 993 79 9000 14 280 04:38 04.10.2019
818 Clouds -4 993 79 9000 11 280 03:28 04.10.2019
819 Clouds -4 993 79 9000 11 280 02:44 04.10.2019
820 Clouds -4 993 79 7000 13 280 01:54 04.10.2019
821 Clouds -5 993 85 6000 14 290 01:26 04.10.2019
822 Clouds -4 993 85 10000 12 280 00:34 04.10.2019
823 Clouds -4 993 85 9000 13 290 23:41 03.10.2019
824 Clouds -4 992 92 6000 12 290 23:22 03.10.2019
825 Clouds -4 992 92 6000 12 290 23:22 03.10.2019
826 Clouds -3 992 86 4400 12 290 22:58 03.10.2019
827 Clouds -3 992 86 4400 12 290 22:58 03.10.2019
828 Clouds -3 992 92 4400 13 290 22:39 03.10.2019
829 Clouds -3 992 92 4400 13 290 22:39 03.10.2019
830 Clouds -3 992 92 4400 13 290 22:39 03.10.2019
831 Clouds -3 992 92 4400 13 290 22:21 03.10.2019
832 Clouds -3 992 92 4400 13 290 22:21 03.10.2019
833 Snow -3 991 92 2600 13 290 21:58 03.10.2019
834 Snow -3 991 92 2600 13 290 21:40 03.10.2019
835 Snow -3 991 92 2600 13 290 21:20 03.10.2019
836 Snow -2 990 92 1300 12 310 20:58 03.10.2019
837 Snow -2 990 92 1300 12 310 20:39 03.10.2019
838 Snow -2 990 92 1300 12 310 20:20 03.10.2019
839 Snow -2 990 100 750 14 320 19:57 03.10.2019
840 Snow -2 990 100 750 14 320 19:39 03.10.2019
841 Snow -2 990 100 750 14 320 19:20 03.10.2019
842 Snow -2 989 92 700 12 340 18:56 03.10.2019
843 Snow -2 989 92 700 12 340 18:37 03.10.2019
844 Snow -2 989 92 700 12 340 18:18 03.10.2019
845 Snow -2 989 92 700 13 350 17:42 03.10.2019
846 Snow -2 989 92 700 13 350 17:22 03.10.2019
847 Snow -2 990 100 800 10 10 16:58 03.10.2019
848 Snow -2 990 100 800 10 10 16:39 03.10.2019
849 Snow -2 990 100 800 10 10 16:21 03.10.2019
850 Snow -2 992 100 450 7 360 15:45 03.10.2019
851 Snow -2 992 100 450 7 360 15:24 03.10.2019
852 Snow 0 993 71 1300 6 60 14:59 03.10.2019
853 Snow 0 993 71 1300 6 60 14:37 03.10.2019
854 Snow 0 993 71 1300 6 60 14:19 03.10.2019
855 Snow 0 995 71 3100 8 80 13:44 03.10.2019
856 Snow 0 995 73 3100 8 80 13:26 03.10.2019
857 Snow 0 996 73 8000 8 90 12:59 03.10.2019
858 Snow 0 996 73 8000 8 90 12:40 03.10.2019
859 Snow 0 996 73 8000 8 90 12:40 03.10.2019
860 Snow 0 996 58 8000 8 90 12:20 03.10.2019
861 Clouds 0 998 58 10000 5 100 11:58 03.10.2019
862 Clouds 0 998 58 10000 5 100 11:58 03.10.2019
863 Clouds 0 998 58 10000 5 100 11:40 03.10.2019
864 Clouds 0 998 58 10000 5 100 11:21 03.10.2019
865 Clouds 0 999 58 10000 3 100 10:57 03.10.2019
866 Clouds 0 999 58 10000 3 100 10:38 03.10.2019
867 Clouds 0 999 58 10000 3 100 10:18 03.10.2019
868 Clouds 0 1000 58 10000 2 150 09:56 03.10.2019
869 Clouds 0 1000 58 10000 2 150 09:37 03.10.2019
870 Clouds 0 1000 59 10000 2 150 09:19 03.10.2019
871 Clouds -1 1001 74 10000 1 70 08:43 03.10.2019
872 Clouds -1 1001 74 10000 1 70 08:24 03.10.2019
873 Clouds -1 1001 74 10000 1 70 08:24 03.10.2019
874 -273 0 0 0 0 0 08:24 03.10.2019
875 Clouds 0 1001 60 10000 2 261.517 07:42 03.10.2019
876 Clouds 0 1001 60 10000 2 261.517 07:20 03.10.2019
877 Clouds 0 1001 60 10000 3 180 06:53 03.10.2019
878 Clouds 0 1002 60 10000 3 220 06:27 03.10.2019
879 Clouds 0 1002 57 10000 3 250 05:49 03.10.2019
880 Clouds 0 1002 57 10000 3 260 05:27 03.10.2019
881 Clouds 1 1002 64 10000 4 260 04:45 03.10.2019
882 Clouds 0 1003 57 10000 5 260 03:54 03.10.2019
883 Clouds 0 1003 61 10000 5 270 03:19 03.10.2019
884 Clouds 1 1003 69 10000 7 270 02:22 03.10.2019
885 Clouds 0 1003 69 10000 8 280 01:40 03.10.2019
886 Clouds 0 1003 62 10000 9 290 00:53 03.10.2019
887 Clouds 0 1003 62 10000 9 280 00:31 03.10.2019
888 Clouds 0 1003 69 10000 9 290 23:55 02.10.2019
889 Clouds 0 1003 69 10000 8 290 23:36 02.10.2019
890 Clouds 0 1003 69 10000 8 290 23:18 02.10.2019
891 Clouds -1 1003 80 10000 7 290 22:41 02.10.2019
892 Clouds -1 1003 80 10000 7 290 22:20 02.10.2019
893 Clouds -2 1002 79 10000 8 290 21:55 02.10.2019
894 Clouds -2 1002 79 10000 8 290 21:55 02.10.2019
895 Clouds -2 1002 79 10000 8 290 21:37 02.10.2019
896 Clouds -2 1002 79 10000 8 290 21:18 02.10.2019
897 Clouds -2 1002 79 10000 8 290 21:18 02.10.2019
898 Clouds -2 1002 86 10000 8 300 20:55 02.10.2019
899 Clouds -2 1002 86 10000 8 300 20:55 02.10.2019
900 Clouds -2 1002 86 10000 8 300 20:54 02.10.2019
901 Clouds -2 1002 86 10000 8 300 20:36 02.10.2019
902 Clouds -2 1002 86 10000 8 300 20:36 02.10.2019
903 Clouds -2 1002 86 10000 8 300 20:18 02.10.2019
904 Clouds -1 1002 80 10000 7 290 19:43 02.10.2019
905 Clouds -1 1002 80 10000 7 290 19:22 02.10.2019
906 Clouds -1 1001 86 10000 7 290 18:57 02.10.2019
907 Clouds -1 1001 86 10000 7 290 18:39 02.10.2019
908 Clouds -1 1001 86 10000 7 290 18:20 02.10.2019
909 Clouds -1 1001 86 10000 8 290 17:57 02.10.2019
910 Clouds -1 1001 86 10000 8 290 17:38 02.10.2019
911 Clouds -1 1001 86 10000 8 290 17:19 02.10.2019
912 Clouds -1 1001 86 10000 7 290 16:45 02.10.2019
913 Clouds -1 1001 86 10000 5 300 16:22 02.10.2019
914 Clouds -1 1001 86 10000 5 300 15:59 02.10.2019
915 Clouds -1 1001 86 10000 5 300 15:40 02.10.2019
916 Clouds -1 1001 86 10000 5 300 15:22 02.10.2019
917 Clouds 0 1001 76 10000 5 290 14:57 02.10.2019
918 Clouds 0 1001 76 10000 5 290 14:39 02.10.2019
919 Clouds 0 1001 76 10000 5 290 14:39 02.10.2019
920 Clouds 0 1001 76 10000 5 290 14:20 02.10.2019
921 Clouds 0 1001 76 10000 2 350 13:45 02.10.2019
922 Clouds 0 1001 76 10000 2 350 13:26 02.10.2019
923 Clouds 0 1000 76 10000 2 310 12:58 02.10.2019
924 Clouds 0 1000 76 10000 2 310 12:38 02.10.2019
925 Clouds 0 1000 75 10000 2 310 12:20 02.10.2019
926 Clouds 1 1000 80 10000 3 320 11:44 02.10.2019
927 Clouds 1 1000 80 10000 3 320 11:23 02.10.2019
928 Clouds 1 1000 86 10000 3 320 10:42 02.10.2019
929 Clouds 1 1000 86 10000 3 320 10:20 02.10.2019
930 Clouds 2 1000 75 10000 2 320 09:59 02.10.2019
931 Clouds 2 1000 75 10000 2 320 09:38 02.10.2019
932 Clouds 2 1000 71 10000 2 320 09:19 02.10.2019
933 Clouds 3 1000 86 10000 2 320 08:45 02.10.2019
934 Clouds 3 1000 86 10000 2 320 08:25 02.10.2019
935 Clouds 3 1000 86 10000 2 320 08:25 02.10.2019
936 Clouds 3 1000 86 10000 2 340 07:59 02.10.2019
937 Clouds 4 1000 80 10000 2 330 07:38 02.10.2019
938 Clouds 4 1000 80 10000 2 330 07:20 02.10.2019
939 Clouds 4 999 80 10000 3 340 06:36 02.10.2019
940 Clouds 5 999 75 10000 3 320 05:55 02.10.2019
941 Clouds 5 999 80 10000 3 300 05:24 02.10.2019
942 Clouds 6 999 75 10000 3 300 04:50 02.10.2019
943 Clouds 6 1000 75 10000 2 270 03:52 02.10.2019
944 Clouds 5 1000 80 10000 4 190 02:41 02.10.2019
945 Clouds 5 1000 80 10000 4 190 02:23 02.10.2019
946 Clouds 6 1000 75 10000 2 220 01:24 02.10.2019
947 Clouds 5 1000 80 10000 2 200 00:49 02.10.2019
948 Clouds 6 1000 70 10000 4 270 00:25 02.10.2019
949 Clouds 5 999 80 10000 4 240 23:43 01.10.2019
950 Clouds 5 999 80 10000 4 240 23:25 01.10.2019
951 Clouds 5 999 80 10000 2 210 22:59 01.10.2019
952 Clouds 5 999 80 10000 4 220 22:39 01.10.2019
953 Clouds 5 999 80 10000 4 220 22:19 01.10.2019
954 Clouds 3 999 93 10000 5 230 21:56 01.10.2019
955 Clouds 3 999 93 10000 5 230 21:37 01.10.2019
956 Clouds 3 999 93 10000 5 230 21:19 01.10.2019
957 Clouds 3 999 93 10000 5 210 20:55 01.10.2019
958 Clouds 3 999 93 10000 5 210 20:36 01.10.2019
959 Clouds 3 999 93 10000 5 210 20:18 01.10.2019
960 Clouds 4 998 93 10000 3 220 19:45 01.10.2019
961 Clouds 4 998 93 10000 3 220 19:27 01.10.2019
962 Rain 4 998 93 10000 4 230 18:59 01.10.2019
963 Rain 4 998 93 10000 4 230 18:40 01.10.2019
964 Rain 4 998 93 10000 4 230 18:21 01.10.2019
965 Rain 4 997 93 10000 5 260 17:57 01.10.2019
966 Rain 4 997 93 10000 5 260 17:38 01.10.2019
967 Rain 4 997 93 10000 5 260 17:19 01.10.2019
968 Clouds 4 997 93 10000 5 260 16:57 01.10.2019
969 Clouds 4 997 93 10000 5 260 16:39 01.10.2019
970 Clouds 4 997 93 10000 5 260 16:20 01.10.2019
971 Clouds 4 996 93 10000 5 220 15:42 01.10.2019
972 Clouds 4 996 93 10000 5 220 15:21 01.10.2019
973 Clouds 7 996 93 10000 7 180 14:41 01.10.2019
974 Clouds 7 996 93 10000 7 180 14:20 01.10.2019
975 Clouds 7 996 93 10000 7 180 14:20 01.10.2019
976 Clouds 9 995 87 10000 10 160 13:57 01.10.2019
977 Clouds 9 995 87 10000 10 160 13:39 01.10.2019
978 Clouds 9 995 87 10000 10 160 13:39 01.10.2019
979 Clouds 9 995 87 10000 10 160 13:20 01.10.2019
980 Clouds 9 995 87 10000 10 160 13:20 01.10.2019
981 Clouds 9 995 87 10000 10 160 13:20 01.10.2019
982 Clouds 9 996 87 10000 9 150 12:57 01.10.2019
983 Clouds 9 996 87 10000 9 150 12:39 01.10.2019
984 Clouds 9 996 87 10000 9 150 12:39 01.10.2019
985 Clouds 9 996 87 10000 9 150 12:18 01.10.2019
986 Clouds 8 997 87 10000 10 120 11:57 01.10.2019
987 Clouds 8 997 87 10000 10 120 11:38 01.10.2019
988 Clouds 8 997 87 10000 10 120 11:18 01.10.2019
989 Clouds 8 997 87 10000 10 120 11:18 01.10.2019
990 Clear 8 997 87 10000 12 130 10:49 01.10.2019
991 Clear 8 997 87 10000 12 130 10:29 01.10.2019
992 Rain 8 998 81 10000 11 130 09:48 01.10.2019
993 -273 0 0 0 0 0 09:27 01.10.2019
994 Clouds 7 999 81 10000 8 130 08:57 01.10.2019
995 Clouds 7 999 81 10000 8 130 08:39 01.10.2019
996 Clouds 7 999 81 10000 8 130 08:39 01.10.2019
997 Clouds 7 999 81 10000 8 130 08:21 01.10.2019
998 Clouds 7 1000 81 10000 5 120 07:43 01.10.2019
999 Clouds 8 1000 81 10000 5 120 07:24 01.10.2019
1000 Rain 7 1001 87 10000 4 110 06:46 01.10.2019
1001 Rain 7 1001 87 10000 4 110 06:18 01.10.2019
1002 Clear 8 1002 75 10000 6 110 05:45 01.10.2019
1003 Clouds 8 1002 75 10000 6 100 04:50 01.10.2019
1004 Clouds 7 1002 75 10000 7 100 04:26 01.10.2019
1005 Clouds 7 1004 70 10000 6 120 02:26 01.10.2019
1006 Clouds 7 1004 70 10000 6 120 01:58 01.10.2019
1007 Clouds 6 1004 75 10000 7 120 00:53 01.10.2019
1008 Clouds 5 1005 80 10000 7 120 00:27 01.10.2019
1009 Clouds 5 1005 80 10000 6 120 23:56 30.09.2019
1010 Clouds 5 1005 80 10000 5 120 23:37 30.09.2019
1011 Clouds 5 1005 80 10000 5 120 23:19 30.09.2019
1012 Clouds 5 1005 80 10000 5 120 23:19 30.09.2019
1013 Clouds 5 1006 75 10000 7 130 22:42 30.09.2019
1014 Clouds 5 1006 75 10000 7 130 22:24 30.09.2019
1015 Clouds 4 1006 80 10000 6 160 21:57 30.09.2019
1016 Clouds 4 1006 80 10000 6 160 21:38 30.09.2019
1017 Clouds 4 1006 80 10000 6 160 21:19 30.09.2019
1018 Clouds 4 1006 80 10000 6 160 21:19 30.09.2019
1019 Clouds 3 1006 86 10000 4 130 20:56 30.09.2019
1020 Clouds 3 1006 86 10000 4 130 20:38 30.09.2019
1021 Clouds 3 1006 86 10000 4 130 20:20 30.09.2019
1022 Clear 2 1006 76 10000 5 120 19:56 30.09.2019
1023 Clear 2 1006 76 10000 5 120 19:56 30.09.2019
1024 Clear 2 1006 76 10000 5 120 19:56 30.09.2019
1025 Clear 2 1006 76 10000 5 120 19:38 30.09.2019
1026 Clear 2 1006 76 10000 5 120 19:19 30.09.2019
1027 Clear 2 1007 76 10000 4 110 18:56 30.09.2019
1028 Clear 2 1007 76 10000 4 110 18:56 30.09.2019
1029 Clear 2 1007 76 10000 4 110 18:37 30.09.2019
1030 Clear 2 1007 76 10000 4 110 18:37 30.09.2019
1031 Clear 2 1007 74 10000 2 140 18:19 30.09.2019
1032 Clear 3 1007 74 10000 2 140 17:41 30.09.2019
1033 Clear 3 1007 74 10000 2 140 17:22 30.09.2019
1034 Clear 3 1007 86 10000 3 160 16:56 30.09.2019
1035 Clear 3 1007 86 10000 3 160 16:38 30.09.2019
1036 Clear 3 1007 86 10000 3 160 16:19 30.09.2019
1037 Clear 3 1007 74 10000 4 160 15:56 30.09.2019
1038 Clear 3 1007 74 10000 4 160 15:37 30.09.2019
1039 Clear 3 1007 70 10000 4 160 15:19 30.09.2019
1040 Clear 2 1007 74 10000 2 150 14:57 30.09.2019
1041 Clear 2 1007 74 10000 2 150 14:37 30.09.2019
1042 Clear 2 1007 74 10000 2 150 14:18 30.09.2019
1043 Clear 0 1007 70 10000 2 110 13:55 30.09.2019
1044 Clear 0 1007 70 10000 2 110 13:36 30.09.2019
1045 Clear 0 1007 72 10000 2 110 13:18 30.09.2019
1046 Clear -1 1007 86 10000 2 100 12:41 30.09.2019
1047 Clear -1 1007 86 10000 2 100 12:21 30.09.2019
1048 Clear -1 1007 86 10000 2 110 11:44 30.09.2019
1049 Clear -1 1007 86 10000 2 110 11:23 30.09.2019
1050 Clear -2 1007 86 10000 1 100 10:59 30.09.2019
1051 Clear -2 1007 86 10000 1 100 10:40 30.09.2019
1052 Clear -2 1007 86 10000 1 100 10:19 30.09.2019
1053 Clear 2 1007 69 10000 2.94 252.811 09:58 30.09.2019
1054 Clear 2 1007 69 10000 2.94 252.811 09:58 30.09.2019
1055 Clear 2 1007 69 10000 2.94 252.811 09:39 30.09.2019
1056 Clear 2 1007 67 10000 3.84 262.003 09:20 30.09.2019
1057 Clear 3 1007 67 10000 1 290 08:46 30.09.2019
1058 Clear 3 1007 67 10000 1 290 08:28 30.09.2019
1059 Clear 3 1006 67 10000 3.96 262.367 07:45 30.09.2019
1060 Clear 4 1006 67 10000 2 280 07:27 30.09.2019
1061 Clear 5 1006 67 10000 2 310 06:56 30.09.2019
1062 Clear 5 1006 67 10000 4 320 06:33 30.09.2019
1063 Clear 5 1006 60 10000 4 320 05:47 30.09.2019
1064 Clouds 5 1005 65 10000 5 310 04:32 30.09.2019
1065 Clouds 5 1005 65 10000 5 310 04:32 30.09.2019
1066 Clouds 4 1005 69 10000 5 310 02:48 30.09.2019
1067 Clouds 3 1005 74 10000 4 320 01:37 30.09.2019
1068 Clear 2 1005 80 10000 3 330 00:42 30.09.2019
1069 Clear 2 1005 80 10000 3 330 00:22 30.09.2019
1070 Clear 1 1004 86 10000 2 10 23:47 29.09.2019
1071 Clear 1 1004 86 10000 2 10 23:27 29.09.2019
1072 Clear 0 1004 78 10000 2 10 22:59 29.09.2019
1073 Clear 0 1004 78 10000 2 10 22:41 29.09.2019
1074 Clear 0 1004 78 10000 2 10 22:23 29.09.2019
1075 Clear -2 1004 92 10000 3 20 21:57 29.09.2019
1076 Clear -2 1004 92 10000 3 20 21:37 29.09.2019
1077 Clear -2 1004 92 10000 3 20 21:19 29.09.2019
1078 Clear -1 1004 92 10000 2 40 20:45 29.09.2019
1079 Clear -1 1004 92 10000 2 40 20:20 29.09.2019
1080 Clear -1 1004 92 10000 2 40 20:20 29.09.2019
1081 Clouds -1 1003 92 10000 1 360 19:59 29.09.2019
1082 Clouds -1 1003 92 10000 1 360 19:38 29.09.2019
1083 Clouds -1 1003 92 10000 1 360 19:19 29.09.2019
1084 Clouds -1 1003 92 10000 1 360 19:19 29.09.2019
1085 Clouds -1 1003 92 10000 2 350 18:56 29.09.2019
1086 Clouds -1 1003 92 10000 2 350 18:38 29.09.2019
1087 Clouds -1 1003 92 10000 2 350 18:38 29.09.2019
1088 Clouds -1 1003 92 10000 2 350 18:19 29.09.2019
1089 Clouds -1 1003 92 10000 2 360 17:58 29.09.2019
1090 Clouds -1 1003 92 10000 2 360 17:40 29.09.2019
1091 Clouds -1 1003 92 10000 2 360 17:20 29.09.2019
1092 Clouds 0 1003 83 10000 2 330 16:59 29.09.2019
1093 Clouds 0 1003 83 10000 2 330 16:40 29.09.2019
1094 Clouds 0 1003 83 10000 2 330 16:19 29.09.2019
1095 Clouds 1 1003 83 10000 1 330 15:57 29.09.2019
1096 Clouds 1 1003 83 10000 1 330 15:37 29.09.2019
1097 Clouds 1 1003 89 10000 1 330 15:18 29.09.2019
1098 Clouds 2 1003 93 10000 2 320 14:55 29.09.2019
1099 Clouds 2 1003 93 10000 2 320 14:36 29.09.2019
1100 Clouds 2 1003 93 10000 2 320 14:18 29.09.2019
1101 Clouds 2 1002 93 10000 3 310 13:42 29.09.2019
1102 Clouds 2 1002 93 10000 3 310 13:19 29.09.2019
1103 Clouds 3 1002 93 10000 2 320 12:58 29.09.2019
1104 Clouds 3 1002 93 10000 2 320 12:40 29.09.2019
1105 Clouds 3 1002 93 10000 2 320 12:21 29.09.2019
1106 Clouds 3 1002 86 10000 4 310 11:58 29.09.2019
1107 Clouds 3 1002 86 10000 4 310 11:40 29.09.2019
1108 Clouds 3 1002 86 10000 4 310 11:19 29.09.2019
1109 Clouds 3 1001 86 10000 4 310 10:57 29.09.2019
1110 Clouds 3 1001 86 10000 4 310 10:37 29.09.2019
1111 Clouds 3 1001 86 10000 4 310 10:19 29.09.2019
1112 Clouds 4 1001 80 10000 4 310 09:55 29.09.2019
1113 Clouds 4 1001 80 10000 4 310 09:37 29.09.2019
1114 Clouds 4 1001 80 10000 4 310 09:18 29.09.2019
1115 Clouds 4 1001 86 10000 4 310 08:42 29.09.2019
1116 Clouds 4 1001 86 10000 4 310 08:21 29.09.2019
1117 Clouds 5 1001 80 10000 3 320 07:43 29.09.2019
1118 Clouds 5 1001 80 10000 3 320 07:25 29.09.2019
1119 Clouds 5 1001 80 10000 4 320 06:45 29.09.2019
1120 Clouds 5 1001 86 10000 4 320 05:47 29.09.2019
1121 Clouds 5 1001 86 10000 4 320 05:47 29.09.2019
1122 Clouds 4 1001 86 10000 4 310 04:41 29.09.2019
1123 Clouds 4 1001 86 10000 4 310 04:23 29.09.2019
1124 Clouds 2 1001 100 10000 2 320 02:51 29.09.2019
1125 Clouds 2 1001 100 10000 2 320 02:18 29.09.2019
1126 Clouds 2 1001 100 10000 3 300 01:32 29.09.2019
1127 Clouds 2 1001 100 10000 3 290 00:53 29.09.2019
1128 Drizzle 2 1001 100 10000 3 310 00:21 29.09.2019
1129 Drizzle 2 1000 100 6000 2 320 23:55 28.09.2019
1130 Drizzle 2 1000 100 6000 2 320 23:36 28.09.2019
1131 Drizzle 2 1000 100 6000 2 320 23:18 28.09.2019
1132 Drizzle 2 1000 93 1800 2 320 22:39 28.09.2019
1133 Drizzle 2 1000 93 1800 2 320 22:21 28.09.2019
1134 Drizzle 2 1000 100 3000 2 310 21:57 28.09.2019
1135 Drizzle 2 1000 100 3000 2 310 21:39 28.09.2019
1136 Drizzle 2 1000 100 3000 2 310 21:21 28.09.2019
1137 Drizzle 3 999 93 4100 4 300 20:57 28.09.2019
1138 Drizzle 3 999 93 4100 4 300 20:38 28.09.2019
1139 Drizzle 4 999 93 4100 4 300 20:18 28.09.2019
1140 Drizzle 4 999 93 2700 1 320 19:56 28.09.2019
1141 Drizzle 4 999 93 2700 1 320 19:37 28.09.2019
1142 Drizzle 4 999 93 2700 1 320 19:37 28.09.2019
1143 Drizzle 4 999 93 2700 1 320 19:19 28.09.2019
1144 Drizzle 4 998 100 650 4.75 267.852 18:54 28.09.2019
1145 Drizzle 4 998 100 650 4.75 267.852 18:36 28.09.2019
1146 Drizzle 4 998 100 650 2.12 267.031 18:18 28.09.2019
1147 Rain 4 998 100 300 3 290 17:42 28.09.2019
1148 Rain 4 998 100 300 3 290 17:22 28.09.2019
1149 Rain 4 998 100 300 3 290 17:22 28.09.2019
1150 Fog 5 997 93 350 2 290 16:58 28.09.2019
1151 Fog 5 997 93 350 2 290 16:38 28.09.2019
1152 Fog 5 997 93 350 2 290 16:20 28.09.2019
1153 Fog 5 997 100 200 1 270 15:41 28.09.2019
1154 Fog 5 997 100 200 1 270 15:22 28.09.2019
1155 Fog 6 996 100 150 1.5 80.456 14:56 28.09.2019
1156 Fog 6 996 100 150 1.5 80.456 14:38 28.09.2019
1157 Fog 6 996 100 150 1.5 80.456 14:19 28.09.2019
1158 Fog 6 996 100 350 1 30 13:56 28.09.2019
1159 Fog 6 996 100 350 1 30 13:37 28.09.2019
1160 Fog 6 996 100 350 1 30 13:19 28.09.2019
1161 Fog 6 996 93 700 2 350 12:40 28.09.2019
1162 Fog 6 996 93 700 2 350 12:19 28.09.2019
1163 Clouds 7 995 93 10000 2 40 11:43 28.09.2019
1164 Clouds 7 995 93 10000 2 40 11:22 28.09.2019
1165 Clouds 7 995 93 10000 2 90 10:59 28.09.2019
1166 Clouds 7 995 93 10000 2 90 10:39 28.09.2019
1167 Clouds 7 995 93 10000 2 90 10:19 28.09.2019
1168 Rain 7 995 93 9000 3 120 09:42 28.09.2019
1169 Rain 7 995 93 9000 3 120 09:23 28.09.2019
1170 Fog 7 995 93 9000 4 110 08:55 28.09.2019
1171 Fog 7 995 93 9000 4 110 08:37 28.09.2019
1172 Fog 7 995 93 9000 4 110 08:18 28.09.2019
1173 Fog 7 995 100 10000 3 120 07:43 28.09.2019
1174 Fog 7 995 93 10000 4 130 07:19 28.09.2019
1175 Fog 8 995 93 10000 4 130 06:52 28.09.2019
1176 Fog 8 995 93 10000 4 130 06:30 28.09.2019
1177 Fog 8 995 93 10000 5 130 05:43 28.09.2019
1178 Fog 8 995 93 10000 5 130 05:20 28.09.2019
1179 Fog 8 995 93 10000 5 130 04:38 28.09.2019
1180 Clouds 8 995 93 10000 6 140 03:49 28.09.2019
1181 Clouds 8 995 93 10000 6 140 03:21 28.09.2019
1182 Fog 8 995 87 10000 5 140 02:44 28.09.2019
1183 Fog 8 995 87 10000 5 140 02:26 28.09.2019
1184 Fog 7 995 93 10000 5 140 01:47 28.09.2019
1185 Fog 7 995 93 10000 5 140 01:26 28.09.2019
1186 Mist 6 995 100 4500 4 160 00:49 28.09.2019
1187 Mist 6 995 100 4500 4 160 00:31 28.09.2019
1188 Mist 6 995 100 4500 4 160 00:31 28.09.2019
1189 Fog 6 994 100 8000 3 140 23:55 27.09.2019
1190 Fog 6 994 100 8000 3 140 23:36 27.09.2019
1191 Fog 6 994 100 8000 3 140 23:18 27.09.2019
1192 Fog 6 994 100 400 4 160 22:41 27.09.2019
1193 Fog 6 994 100 400 4 160 22:19 27.09.2019
1194 Fog 6 994 100 400 4 160 22:19 27.09.2019
1195 Fog 6 993 100 250 5 140 21:55 27.09.2019
1196 Fog 6 993 100 250 5 140 21:37 27.09.2019
1197 Fog 6 993 100 250 5 140 21:18 27.09.2019
1198 Mist 5 993 100 2000 5.62 14.237 20:55 27.09.2019
1199 Mist 5 993 100 2000 6.32 358.567 20:36 27.09.2019
1200 Mist 5 993 100 2000 6.32 358.567 20:18 27.09.2019
1201 Clouds 5 993 100 10000 1 360 19:42 27.09.2019
1202 Clouds 5 993 100 10000 1 360 19:23 27.09.2019
1203 Rain 5 993 93 10000 4 360 18:57 27.09.2019
1204 Rain 5 993 93 10000 4 360 18:38 27.09.2019
1205 Rain 5 993 93 10000 4 360 18:20 27.09.2019
1206 Rain 5 993 93 10000 4 360 18:20 27.09.2019
1207 Rain 5 993 100 10000 6 20 17:40 27.09.2019
1208 Rain 5 993 100 10000 6 20 17:40 27.09.2019
1209 Rain 5 993 100 10000 6 20 17:22 27.09.2019
1210 Rain 5 993 100 10000 5 20 16:59 27.09.2019
1211 Rain 5 993 100 10000 5 20 16:41 27.09.2019
1212 Rain 5 993 100 10000 5 20 16:20 27.09.2019
1213 Rain 5 994 100 10000 5 20 15:58 27.09.2019
1214 Rain 5 994 100 10000 5 20 15:39 27.09.2019
1215 Rain 5 994 100 10000 5 20 15:19 27.09.2019
1216 Clouds 6 995 93 10000 5 30 14:56 27.09.2019
1217 Clouds 6 995 93 10000 5 30 14:37 27.09.2019
1218 Clouds 6 995 93 10000 5 30 14:37 27.09.2019
1219 Clouds 6 995 93 10000 6 80 14:18 27.09.2019
1220 Clouds 7 995 93 10000 6 80 13:55 27.09.2019
1221 Clouds 7 995 93 10000 6 80 13:37 27.09.2019
1222 Clouds 7 995 93 10000 6 80 13:18 27.09.2019
1223 Clouds 7 996 93 10000 6 100 12:42 27.09.2019
1224 Clouds 7 996 93 10000 6 100 12:21 27.09.2019
1225 Clouds 7 996 93 10000 6 100 12:21 27.09.2019
1226 Clouds 7 996 93 10000 6 100 11:40 27.09.2019
1227 Clouds 7 996 93 10000 6 100 11:22 27.09.2019
1228 Clouds 7 996 93 10000 7 100 10:59 27.09.2019
1229 Clouds 7 996 93 10000 7 100 10:40 27.09.2019
1230 Clouds 7 996 93 10000 7 100 10:20 27.09.2019
1231 Fog 7 996 87 10000 9 110 09:43 27.09.2019
1232 Fog 7 996 87 10000 9 110 09:23 27.09.2019
1233 Clouds 7 997 93 10000 9 120 08:58 27.09.2019
1234 Clouds 7 997 93 10000 9 120 08:39 27.09.2019
1235 Clouds 7 997 93 10000 9 120 08:20 27.09.2019
1236 Clouds 7 997 93 10000 10 120 07:46 27.09.2019
1237 Clouds 7 997 93 10000 8 120 07:24 27.09.2019
1238 Clouds 7 997 87 10000 6 120 06:43 27.09.2019
1239 Clouds 8 997 87 10000 6 120 06:25 27.09.2019
1240 Clouds 8 997 87 10000 5 120 05:51 27.09.2019
1241 Clouds 8 997 93 10000 6 120 05:33 27.09.2019
1242 Mist 7 996 100 5000 6 130 03:56 27.09.2019
1243 Mist 7 996 100 1900 8 110 03:34 27.09.2019
1244 Rain 7 996 93 9000 8 100 01:52 27.09.2019
1245 Rain 6 996 93 5000 10 100 01:28 27.09.2019
1246 Rain 6 996 87 10000 15 80 00:30 27.09.2019
1247 Rain 6 996 87 8000 17 80 23:56 26.09.2019
1248 Rain 5 996 86 10000 18 80 23:38 26.09.2019
1249 Rain 5 996 86 10000 18 80 23:18 26.09.2019
1250 Rain 5 996 86 10000 18 80 23:18 26.09.2019
1251 Clouds 5 996 86 10000 21 80 22:57 26.09.2019
1252 Rain 4 996 93 9000 22 90 22:39 26.09.2019
1253 Rain 4 996 93 9000 22 90 22:18 26.09.2019
1254 Rain 3 997 93 10000 22 80 21:56 26.09.2019
1255 Rain 3 997 93 10000 22 80 21:37 26.09.2019
1256 Rain 3 997 93 10000 22 80 21:18 26.09.2019
1257 Rain 3 997 93 8000 22 80 20:58 26.09.2019
1258 Rain 3 997 93 8000 22 80 20:39 26.09.2019
1259 Rain 3 997 93 8000 22 80 20:21 26.09.2019
1260 Rain 2 999 93 5000 20 90 19:41 26.09.2019
1261 Rain 2 1001 93 4700 19 90 19:20 26.09.2019
1262 Rain 3 1001 93 4700 19 90 18:59 26.09.2019
1263 Rain 3 1001 93 4700 19 90 18:41 26.09.2019
1264 Rain 3 1001 93 4700 19 90 18:22 26.09.2019
1265 Rain 4 1002 86 8000 18 90 17:58 26.09.2019
1266 Rain 4 1002 86 8000 18 90 17:37 26.09.2019
1267 Rain 4 1002 86 8000 18 90 17:18 26.09.2019
1268 -273 0 0 0 0 0 16:54 26.09.2019
1269 Rain 4 1003 86 9000 16 90 16:36 26.09.2019
1270 Rain 4 1003 86 9000 16 90 16:18 26.09.2019
1271 Rain 4 1005 86 10000 12 80 15:40 26.09.2019
1272 Rain 4 1005 86 10000 12 80 15:22 26.09.2019
1273 Rain 4 1005 86 10000 12 80 15:22 26.09.2019
1274 Rain 4 1007 86 10000 13 80 14:58 26.09.2019
1275 Rain 4 1007 86 10000 13 80 14:39 26.09.2019
1276 Rain 4 1007 86 10000 13 80 14:21 26.09.2019
1277 Rain 4 1008 86 10000 15 90 13:55 26.09.2019
1278 Rain 4 1008 86 10000 15 90 13:37 26.09.2019
1279 Rain 4 1009 80 10000 12 90 13:18 26.09.2019
1280 Rain 4 1009 80 10000 12 90 12:41 26.09.2019
1281 Rain 4 1009 80 10000 12 90 12:22 26.09.2019
1282 Rain 4 1010 80 10000 12 100 11:55 26.09.2019
1283 Rain 4 1010 80 10000 12 100 11:37 26.09.2019
1284 Rain 4 1010 80 10000 12 100 11:37 26.09.2019
1285 Rain 4 1010 80 10000 12 100 11:19 26.09.2019
1286 Clouds 4 1010 80 10000 6 90 10:42 26.09.2019
1287 Clouds 4 1010 80 10000 6 90 10:42 26.09.2019
1288 Clouds 4 1010 80 10000 6 90 10:23 26.09.2019
1289 Rain 4 1011 77 10000 9 80 09:57 26.09.2019
1290 Rain 4 1011 77 10000 9 80 09:39 26.09.2019
1291 Rain 4 1011 77 10000 9 80 09:39 26.09.2019
1292 Rain 4 1011 76 10000 9 80 09:18 26.09.2019
1293 Clouds 4 1012 77 10000 9 80 08:47 26.09.2019
1294 Clouds 3 1012 77 10000 7 80 08:29 26.09.2019
1295 Clouds 4 1012 80 10000 9 70 07:45 26.09.2019
1296 Clouds 4 1012 80 10000 9 70 07:22 26.09.2019
1297 Rain 4 1013 80 10000 8 80 06:50 26.09.2019
1298 Clouds 4 1013 80 10000 8 90 06:28 26.09.2019
1299 Rain 4 1013 80 10000 10 90 05:52 26.09.2019
1300 Rain 5 1013 75 10000 12 90 05:26 26.09.2019
1301 Rain 6 1014 70 10000 10 100 03:27 26.09.2019
1302 Clouds 5 1014 75 10000 11 100 01:56 26.09.2019
1303 Clouds 5 1014 75 10000 10 100 01:38 26.09.2019
1304 Clouds 5 1014 75 10000 10 100 01:19 26.09.2019
1305 Clouds 5 1014 75 10000 7 100 00:41 26.09.2019
1306 Clouds 5 1014 75 10000 7 100 00:21 26.09.2019
1307 Clouds 4 1015 80 10000 7 100 23:43 25.09.2019
1308 Clouds 4 1015 80 10000 7 100 23:19 25.09.2019
1309 Clouds 3 1015 86 10000 7 100 22:54 25.09.2019
1310 Rain 3 1015 86 10000 6 100 22:36 25.09.2019
1311 Rain 3 1015 86 10000 6 100 22:18 25.09.2019
1312 Rain 2 1015 67 10000 6 100 21:55 25.09.2019
1313 Rain 2 1015 67 10000 6 100 21:36 25.09.2019
1314 Rain 2 1015 67 10000 6 100 21:18 25.09.2019
1315 Clouds 3 1015 67 10000 5 100 20:55 25.09.2019
1316 Clouds 3 1015 66 10000 5 100 20:37 25.09.2019
1317 Clouds 3 1015 66 10000 5 100 20:18 25.09.2019
1318 Clear 2 1014 80 10000 7 110 19:38 25.09.2019
1319 Clear 2 1014 69 10000 1 120 19:20 25.09.2019
1320 Clear 2 1014 69 10000 1 120 18:56 25.09.2019
1321 Clear 2 1014 69 10000 1 120 18:37 25.09.2019
1322 Clear 2 1014 69 10000 1 50 18:18 25.09.2019
1323 Clear 3 1014 69 10000 1 50 17:40 25.09.2019
1324 Clear 3 1014 69 10000 1 50 17:21 25.09.2019
1325 Clear 3 1015 69 10000 1 120 16:57 25.09.2019
1326 Clear 3 1015 69 10000 1 120 16:37 25.09.2019
1327 Clear 3 1015 69 10000 1 120 16:19 25.09.2019
1328 Clear 1 1015 74 10000 3.17 63.613 15:42 25.09.2019
1329 Clear 1 1015 74 10000 2.27 39.105 15:23 25.09.2019
1330 Clear -4 1015 85 10000 2 100 14:59 25.09.2019
1331 Clear -4 1015 85 10000 2 100 14:59 25.09.2019
1332 Clear -4 1015 85 10000 2 100 14:41 25.09.2019
1333 Clear -4 1015 85 10000 2 100 14:22 25.09.2019
1334 Clear -3 1015 86 10000 1 110 13:56 25.09.2019
1335 Clear -3 1015 86 10000 1 110 13:38 25.09.2019
1336 Clear -3 1015 86 10000 1 110 13:19 25.09.2019
1337 Clear -3 1015 92 10000 2 90 12:42 25.09.2019
1338 Clear -3 1015 92 10000 2 90 12:24 25.09.2019
1339 Clear -3 1014 92 10000 2 110 11:59 25.09.2019
1340 Clear -3 1014 92 10000 2 110 11:40 25.09.2019
1341 Clear -3 1014 92 10000 2 110 11:19 25.09.2019
1342 Clear -1 1014 86 10000 2 90 10:46 25.09.2019
1343 Clear 1 1014 86 10000 1 310 10:26 25.09.2019
1344 Clear 1 1014 86 10000 1 310 10:26 25.09.2019
1345 Clear 2 1014 80 10000 2.73 354.619 09:58 25.09.2019
1346 Clear 2 1014 80 10000 2.73 354.619 09:58 25.09.2019
1347 Clear 2 1014 71 10000 1 280 09:38 25.09.2019
1348 Clear 3 1014 64 10000 1 280 09:20 25.09.2019
1349 -273 0 0 0 0 0 08:55 25.09.2019
1350 Clear 3 1013 64 10000 4.46 308.157 08:37 25.09.2019
1351 Clear 3 1013 64 10000 4.46 308.157 08:18 25.09.2019
1352 Clear 4 1012 64 10000 4 290 07:40 25.09.2019
1353 Clear 5 1012 64 10000 4 290 07:22 25.09.2019
1354 Clear 5 1012 60 10000 6 290 06:45 25.09.2019
1355 Clear 6 1012 60 10000 6 290 06:23 25.09.2019
1356 Clear 6 1012 56 10000 5 310 05:37 25.09.2019
1357 Clear 6 1012 60 10000 6 320 04:57 25.09.2019
1358 Clouds 4 1011 69 10000 5 330 02:31 25.09.2019
1359 Clouds 2 1011 80 10000 3 340 00:56 25.09.2019
1360 Clouds 2 1011 57 10000 3 330 00:36 25.09.2019
1361 Clouds 2 1011 70 10000 3 330 00:18 25.09.2019
1362 Clouds 0 1010 70 10000 2 340 23:40 24.09.2019
1363 Clouds 0 1010 70 10000 2 340 23:21 24.09.2019
1364 Clouds -1 1010 92 10000 3 330 22:56 24.09.2019
1365 Clouds -2 1010 92 10000 4 360 22:36 24.09.2019
1366 Clouds -2 1010 92 10000 4 360 22:36 24.09.2019
1367 Clouds -2 1010 92 10000 4 360 22:18 24.09.2019
1368 Clouds -2 1010 92 10000 4 360 22:18 24.09.2019
1369 Clouds -2 1010 92 10000 4 360 22:18 24.09.2019
1370 Fog -3 1009 100 10000 3 10 21:54 24.09.2019
1371 Fog -3 1009 100 10000 3 10 21:36 24.09.2019
1372 Fog -3 1009 100 10000 3 10 21:18 24.09.2019
1373 Fog -3 1009 100 10000 3 10 21:18 24.09.2019
1374 Fog -2 1009 92 10000 2 10 20:54 24.09.2019
1375 Fog -2 1009 92 10000 2 10 20:36 24.09.2019
1376 Fog -2 1009 92 10000 2 10 20:18 24.09.2019
1377 Snow -2 1008 92 10000 1 10 19:41 24.09.2019
1378 Clouds -3 1008 92 10000 1 340 19:19 24.09.2019
1379 Clouds -3 1008 92 10000 1 340 18:56 24.09.2019
1380 Clouds -3 1008 92 10000 1 340 18:38 24.09.2019
1381 Clouds -4 1008 92 10000 2 40 18:20 24.09.2019
1382 Clouds -4 1008 92 10000 2 40 17:55 24.09.2019
1383 Clouds -4 1008 92 10000 2 40 17:37 24.09.2019
1384 Clouds -4 1008 92 10000 2 40 17:19 24.09.2019
1385 Clouds -3 1008 92 10000 3 340 16:42 24.09.2019
1386 Clouds -3 1008 92 10000 3 340 16:20 24.09.2019
1387 Clouds -3 1008 92 10000 2 330 15:57 24.09.2019
1388 Clouds -3 1008 92 10000 2 330 15:38 24.09.2019
1389 Clouds -3 1008 92 10000 2 330 15:19 24.09.2019
1390 Clear -1 1007 86 10000 3 310 14:38 24.09.2019
1391 Clear -1 1007 86 10000 3 310 14:18 24.09.2019
1392 Clear -1 1007 86 10000 1 310 13:45 24.09.2019
1393 Clear -1 1007 86 10000 1 310 13:21 24.09.2019
1394 Clear -2 1007 79 10000 1 20 12:44 24.09.2019
1395 Clear -2 1007 79 10000 1 20 12:23 24.09.2019
1396 Clear 0 1007 81 10000 2 330 11:58 24.09.2019
1397 Clear 0 1007 81 10000 2 330 11:58 24.09.2019
1398 Clear 0 1007 81 10000 2 330 11:40 24.09.2019
1399 Clear 0 1007 81 10000 2 330 11:21 24.09.2019
1400 Clear 2 1007 69 10000 1 310 10:42 24.09.2019
1401 Clear 2 1007 69 10000 1 310 10:22 24.09.2019
1402 Clouds 2 1006 69 10000 3 300 09:59 24.09.2019
1403 Clouds 2 1006 69 10000 3 300 09:41 24.09.2019
1404 Clouds 2 1006 69 10000 3 300 09:20 24.09.2019
1405 Clouds 3 1006 64 10000 2 300 08:57 24.09.2019
1406 Clouds 3 1006 64 10000 2 300 08:38 24.09.2019
1407 Clouds 3 1006 64 10000 2 300 08:19 24.09.2019
1408 Clouds 3 1006 64 10000 2 310 07:46 24.09.2019
1409 Clouds 3 1006 59 10000 3 300 07:24 24.09.2019
1410 Clouds 3 1006 64 10000 4 290 06:51 24.09.2019
1411 Clouds 3 1006 64 10000 4 290 06:32 24.09.2019
1412 Clouds 3 1006 64 10000 5 300 05:51 24.09.2019
1413 Clouds 4 1006 60 10000 5 300 05:18 24.09.2019
1414 Clouds 3 1006 69 10000 6 280 03:44 24.09.2019
1415 Clouds 3 1006 69 10000 6 280 02:47 24.09.2019
1416 Clouds 3 1006 69 10000 6 290 01:55 24.09.2019
1417 Clouds 2 1005 74 10000 6 300 00:43 24.09.2019
1418 Clouds 2 1005 74 10000 6 300 00:25 24.09.2019
1419 Clouds 2 1005 74 10000 6 300 23:56 23.09.2019
1420 Clouds 1 1005 80 10000 6 300 23:38 23.09.2019
1421 Clouds 1 1005 80 10000 6 300 23:20 23.09.2019
1422 Clouds 0 1005 69 10000 6 310 22:39 23.09.2019
1423 Clouds 0 1005 69 10000 6 310 22:20 23.09.2019
1424 Clouds -1 1005 86 10000 3 320 21:57 23.09.2019
1425 Clouds -1 1005 86 10000 3 320 21:39 23.09.2019
1426 Clouds -1 1005 86 10000 3 320 21:19 23.09.2019
1427 Clouds -2 1005 86 10000 5 310 20:41 23.09.2019
1428 Clouds -2 1005 86 10000 5 310 20:20 23.09.2019
1429 Clear -2 1004 92 10000 3 330 19:59 23.09.2019
1430 Clear -2 1004 92 10000 3 330 19:39 23.09.2019
1431 Clear -2 1004 92 10000 3 330 19:21 23.09.2019
1432 Clear -3 1004 92 10000 4 320 18:55 23.09.2019
1433 Clear -3 1004 92 10000 4 320 18:37 23.09.2019
1434 Clear -3 1004 92 10000 4 320 18:37 23.09.2019
1435 Clear -3 1004 92 10000 4 320 18:37 23.09.2019
1436 Clouds -3 1004 92 10000 1 320 18:18 23.09.2019
1437 Clouds -2 1004 92 10000 1 320 17:55 23.09.2019
1438 Clouds -2 1004 92 10000 1 320 17:36 23.09.2019
1439 Clouds -2 1004 92 10000 1 320 17:18 23.09.2019
1440 Clouds -2 1003 92 10000 2 300 16:40 23.09.2019
1441 Clouds -2 1003 92 10000 2 300 16:22 23.09.2019
1442 Clouds -1 1003 86 10000 3 310 15:59 23.09.2019
1443 Clouds -1 1003 86 10000 3 310 15:41 23.09.2019
1444 Clouds -1 1003 86 10000 3 310 15:20 23.09.2019
1445 Clouds 0 1003 82 10000 1 260 14:58 23.09.2019
1446 Clouds 0 1003 82 10000 1 260 14:39 23.09.2019
1447 Clouds 0 1003 82 10000 1 260 14:19 23.09.2019
1448 Clouds 0 1002 82 10000 3 300 13:57 23.09.2019
1449 Clouds 0 1002 82 10000 3 300 13:37 23.09.2019
1450 Clouds 1 1002 80 10000 4 300 13:18 23.09.2019
1451 Clouds 1 1002 80 10000 4 300 13:18 23.09.2019
1452 Clouds 1 1002 80 10000 4 300 12:40 23.09.2019
1453 Clouds 1 1002 80 10000 4 300 12:21 23.09.2019
1454 Clouds 1 1002 80 10000 4 290 11:55 23.09.2019
1455 Clouds 1 1002 80 10000 4 290 11:36 23.09.2019
1456 Clouds 1 1002 80 10000 4 290 11:18 23.09.2019
1457 Clouds 2 1002 74 10000 5 290 10:42 23.09.2019
1458 Clouds 2 1002 74 10000 5 290 10:20 23.09.2019
1459 Clouds 1 1002 80 10000 4 290 09:43 23.09.2019
1460 Clouds 1 1002 80 10000 4 290 09:25 23.09.2019
1461 Clouds 1 1001 69 10000 3 290 08:58 23.09.2019
1462 Clouds 1 1001 69 10000 3 290 08:38 23.09.2019
1463 Clouds 1 1001 69 10000 3 290 08:18 23.09.2019
1464 Clouds 1 1001 69 10000 3 290 08:18 23.09.2019
1465 Clouds 1 1001 69 10000 3 290 08:18 23.09.2019
1466 Clouds 3 1001 59 10000 5 300 07:34 23.09.2019
1467 Clouds 3 1001 59 10000 5 300 06:58 23.09.2019
1468 Clouds 3 1001 59 10000 4 310 06:20 23.09.2019
1469 Clouds 3 1001 64 10000 4 290 05:28 23.09.2019
1470 Clouds 3 1001 59 10000 5 300 04:56 23.09.2019
1471 Clouds 3 1001 59 10000 4 320 03:59 23.09.2019
1472 Clouds 1 1001 74 10000 2 310 01:25 23.09.2019
1473 Clouds 0 1001 49 10000 4 320 00:26 23.09.2019
1474 Clouds 0 1001 62 10000 3 320 23:58 22.09.2019
1475 Clouds 0 1001 86 10000 2 300 23:40 22.09.2019
1476 Clouds -1 1001 86 10000 2 300 23:21 22.09.2019
1477 Clouds -1 1002 86 10000 2 300 22:55 22.09.2019
1478 Clouds -2 1001 92 10000 3.83 295.776 22:37 22.09.2019
1479 Clouds -2 1001 92 10000 3.83 295.776 22:18 22.09.2019
1480 Clouds -2 1001 86 10000 2 360 21:42 22.09.2019
1481 Clouds -2 1001 86 10000 2 360 21:42 22.09.2019
1482 Clouds -2 1001 86 10000 2 360 21:20 22.09.2019
1483 Clouds -4 1001 92 10000 2 350 20:45 22.09.2019
1484 Clouds -4 1001 92 10000 2 350 20:45 22.09.2019
1485 Clouds -4 1001 92 10000 2 350 20:27 22.09.2019
1486 Clear -5 1001 92 10000 1 300 19:59 22.09.2019
1487 Clear -5 1001 92 10000 1 300 19:40 22.09.2019
1488 Clear -5 1001 92 10000 1 300 19:40 22.09.2019
1489 Clear -4 1001 92 10000 3.84 288.624 19:20 22.09.2019
1490 Clear -3 1001 92 10000 3.84 288.624 18:57 22.09.2019
1491 Clear -3 1001 92 10000 3.84 288.624 18:38 22.09.2019
1492 Clear -3 1002 92 10000 4.27 279.348 18:18 22.09.2019
1493 Clear -3 1002 92 10000 4.27 279.348 17:46 22.09.2019
1494 Clear -3 1002 92 10000 4.27 279.348 17:27 22.09.2019
1495 Clear -2 1002 86 10000 2 320 16:57 22.09.2019
1496 Clear -2 1002 86 10000 2 320 16:57 22.09.2019
1497 Clear -2 1002 86 10000 2 320 16:39 22.09.2019
1498 Clear -2 1002 86 10000 2 320 16:20 22.09.2019
1499 Clear -2 1002 86 10000 2 110 15:45 22.09.2019
1500 Clear -2 1002 86 10000 2 110 15:26 22.09.2019
1501 Clear -1 1002 86 10000 3.73 298.805 14:55 22.09.2019
1502 Clear -1 1002 86 10000 3.73 298.805 14:37 22.09.2019
1503 Clear -1 1002 86 10000 3.73 298.805 14:19 22.09.2019
1504 Clear -3 1003 92 10000 1 330 13:42 22.09.2019
1505 Clear -3 1003 92 10000 1 330 13:24 22.09.2019
1506 Clouds -1 1003 86 10000 2 300 12:57 22.09.2019
1507 Clouds -1 1003 86 10000 2 300 12:57 22.09.2019
1508 Clouds -1 1003 86 10000 2 300 12:57 22.09.2019
1509 Clouds -1 1003 86 10000 2 300 12:39 22.09.2019
1510 Clouds -2 1003 79 10000 3 320 12:19 22.09.2019
1511 Clouds -2 1003 79 10000 3 320 11:56 22.09.2019
1512 Clouds -2 1003 79 10000 3 320 11:37 22.09.2019
1513 Clouds -2 1003 79 10000 3 320 11:18 22.09.2019
1514 Clouds -1 1003 74 10000 3 340 10:42 22.09.2019
1515 Clouds -1 1003 74 10000 3 340 10:20 22.09.2019
1516 Clouds -1 1003 74 10000 3 340 09:43 22.09.2019
1517 Clouds -1 1003 74 10000 3 340 09:22 22.09.2019
1518 Clouds 0 1002 53 10000 2 340 08:58 22.09.2019
1519 Clouds 0 1002 54 10000 2 340 08:40 22.09.2019
1520 Clouds 0 1002 54 10000 2 340 08:22 22.09.2019
1521 Clouds 0 1002 54 10000 2 340 08:22 22.09.2019
1522 Clouds 3 1002 55 10000 5 310 07:44 22.09.2019
1523 Clouds 3 1002 55 10000 5 310 07:44 22.09.2019
1524 Clouds 3 1002 55 10000 5 310 07:26 22.09.2019
1525 Clouds 3 1002 55 10000 5 310 06:58 22.09.2019
1526 Clouds 3 1002 55 10000 5 310 06:34 22.09.2019
1527 Clouds 3 1003 55 10000 6 310 04:41 22.09.2019
1528 Clouds 3 1003 55 10000 7 320 02:45 22.09.2019
1529 Clouds 3 1003 55 10000 7 320 02:24 22.09.2019
1530 Clouds 3 1003 64 10000 7 320 01:38 22.09.2019
1531 Clouds 2 1003 64 10000 8 320 00:46 22.09.2019
1532 Clouds 2 1003 64 10000 8 320 00:27 22.09.2019
1533 Clouds 2 1003 69 10000 7 320 23:51 21.09.2019
1534 Clouds 2 1003 69 10000 7 320 23:33 21.09.2019
1535 Clouds 1 1003 80 10000 6 310 22:43 21.09.2019
1536 Clouds 1 1003 80 10000 6 310 22:43 21.09.2019
1537 Clouds 1 1003 80 10000 6 310 22:24 21.09.2019
1538 Clear -2 1003 92 10000 2 350 21:58 21.09.2019
1539 Clear -2 1003 92 10000 2 350 21:40 21.09.2019
1540 Clear -2 1003 92 10000 2 350 21:19 21.09.2019
1541 Clouds -2 1003 86 10000 4 350 20:55 21.09.2019
1542 Clouds -2 1003 86 10000 4 350 20:36 21.09.2019
1543 Clouds -2 1003 86 10000 4 350 20:18 21.09.2019
1544 Clouds -2 1003 86 10000 4 350 19:42 21.09.2019
1545 Clouds -1 1003 69 10000 4 340 19:19 21.09.2019
1546 Clouds 0 1003 69 10000 4 340 18:40 21.09.2019
1547 Clouds 0 1003 71 10000 4 340 18:21 21.09.2019
1548 Clouds 1 1003 80 10000 5 320 17:43 21.09.2019
1549 Clouds 1 1003 80 10000 5 320 17:23 21.09.2019
1550 Clouds 1 1003 80 10000 5 320 16:57 21.09.2019
1551 Clouds 1 1003 80 10000 5 320 16:37 21.09.2019
1552 Clouds 1 1003 80 10000 5 320 16:19 21.09.2019
1553 Clouds 1 1004 80 10000 6 310 15:43 21.09.2019
1554 Clouds 1 1004 80 10000 6 310 15:22 21.09.2019
1555 Clouds 1 1004 80 10000 5 310 14:48 21.09.2019
1556 Clouds 1 1004 80 10000 5 310 14:29 21.09.2019
1557 Clouds 0 1004 71 10000 3 310 13:50 21.09.2019
1558 Clouds 0 1004 72 10000 3 310 13:29 21.09.2019
1559 Clouds 1 1004 74 10000 3 340 12:59 21.09.2019
1560 Clouds 1 1004 74 10000 3 340 12:41 21.09.2019
1561 Clouds 1 1004 74 10000 3 340 12:21 21.09.2019
1562 Clouds 1 1004 74 10000 5 330 11:59 21.09.2019
1563 Clouds 1 1004 74 10000 5 330 11:41 21.09.2019
1564 Clouds 1 1004 74 10000 5 330 11:21 21.09.2019
1565 Clouds 2 1004 69 10000 5 330 10:41 21.09.2019
1566 Clouds 2 1004 69 10000 5 330 10:22 21.09.2019
1567 Clouds 3 1004 59 10000 5 330 09:57 21.09.2019
1568 Clouds 3 1004 59 10000 5 330 09:38 21.09.2019
1569 Clouds 3 1004 59 10000 5 330 09:20 21.09.2019
1570 Clouds 4 1004 55 10000 5 320 08:51 21.09.2019
1571 Clouds 4 1004 55 10000 5 320 08:25 21.09.2019
1572 Clouds 4 1004 55 10000 5 320 07:40 21.09.2019
1573 Clouds 4 1003 55 10000 5 330 07:21 21.09.2019
1574 Clouds 4 1003 55 10000 5 330 06:47 21.09.2019
1575 Clouds 4 1003 55 10000 5 330 06:26 21.09.2019
1576 Clouds 4 1004 69 10000 4 340 04:49 21.09.2019
1577 Clouds 4 1004 69 10000 4 340 04:49 21.09.2019
1578 Clouds 4 1004 69 10000 4 340 04:31 21.09.2019
1579 Clouds 4 1005 69 10000 5 330 02:27 21.09.2019
1580 Clouds 2 1005 80 10000 4 330 01:52 21.09.2019
1581 Clouds 2 1005 80 10000 4 330 01:33 21.09.2019
1582 Clouds 1 1005 86 10000 4 320 00:39 21.09.2019
1583 Clouds 1 1005 86 10000 4 320 00:18 21.09.2019
1584 Clouds 1 1006 86 10000 3 320 23:42 20.09.2019
1585 Clouds 1 1006 86 10000 3 320 23:22 20.09.2019
1586 Clouds 0 1006 67 10000 1 10 22:41 20.09.2019
1587 Clouds 0 1006 67 10000 1 10 22:23 20.09.2019
1588 Clouds -1 1006 92 10000 2 360 21:56 20.09.2019
1589 Clouds -1 1006 92 10000 2 360 21:37 20.09.2019
1590 Clouds -1 1006 92 10000 2 360 21:18 20.09.2019
1591 Clear -6 1006 92 10000 3 40 20:54 20.09.2019
1592 Clear -6 1006 92 10000 3 40 20:36 20.09.2019
1593 Clear -6 1006 92 10000 3 40 20:36 20.09.2019
1594 Clear -6 1006 92 10000 3 40 20:18 20.09.2019
1595 Clear -3 1006 86 10000 3 330 19:41 20.09.2019
1596 Clear -4 1006 85 10000 3 30 19:20 20.09.2019
1597 Clear -4 1006 85 10000 3 30 18:40 20.09.2019
1598 Clear -4 1006 85 10000 3 30 18:21 20.09.2019
1599 Clear -5 1006 85 10000 2 70 17:59 20.09.2019
1600 Clear -5 1006 85 10000 2 70 17:41 20.09.2019
1601 Clear -5 1006 85 10000 2 70 17:23 20.09.2019
1602 Clear -5 1007 92 10000 3 20 16:43 20.09.2019
1603 Clear -5 1007 92 10000 3 20 16:21 20.09.2019
1604 Clear -3 1007 79 10000 3.75 305.145 15:58 20.09.2019
1605 Clouds -3 1007 79 0 3.75 305.145 15:39 20.09.2019
1606 Clear -5 1007 85 10000 2 80 15:21 20.09.2019
1607 Clear -5 1007 85 10000 2 80 14:42 20.09.2019
1608 Clear -5 1007 85 10000 2 80 14:19 20.09.2019
1609 Clear -5 1007 85 10000 2 80 14:19 20.09.2019
1610 Clouds 1 1008 72 0 4.33 314.747 13:48 20.09.2019
1611 Clouds 1 1008 72 0 4.33 314.747 13:48 20.09.2019
1612 Clear -4 1007 85 10000 3 90 13:28 20.09.2019
1613 Clear -4 1007 85 10000 3 90 12:58 20.09.2019
1614 Clear -4 1007 85 10000 3 90 12:37 20.09.2019
1615 Clear -3 1007 79 10000 2 100 12:19 20.09.2019
1616 Clear -3 1007 79 10000 2 100 12:19 20.09.2019
1617 Clear -3 1007 79 10000 2 100 11:49 20.09.2019
1618 Clear -3 1007 79 10000 2 100 11:21 20.09.2019
1619 Clear -3 1007 86 10000 2 90 10:57 20.09.2019
1620 Clear -3 1007 86 10000 2 90 10:57 20.09.2019
1621 Clear -3 1007 86 10000 2 90 10:39 20.09.2019
1622 Clear -3 1007 86 10000 2 90 10:19 20.09.2019
1623 Clear -2 1007 79 10000 1 70 09:38 20.09.2019
1624 Clear -2 1007 79 10000 1 70 09:18 20.09.2019
1625 Clear 4 1007 64 10000 1 310 08:43 20.09.2019
1626 Clear 4 1007 64 10000 1 310 08:25 20.09.2019
1627 Clear 5 1007 60 10000 1 300 07:48 20.09.2019
1628 Clear 5 1007 60 10000 2 300 07:28 20.09.2019
1629 Clear 6 1007 52 10000 3 320 06:48 20.09.2019
1630 Clear 6 1007 52 10000 3 320 06:30 20.09.2019
1631 Clear 6 1008 56 10000 2 330 05:57 20.09.2019
1632 Clouds 5 1008 65 10000 3 320 03:51 20.09.2019
1633 Clouds 5 1008 65 10000 3 330 03:25 20.09.2019
1634 Clouds 2 1008 80 10000 3 350 01:45 20.09.2019
1635 Clouds 2 1008 80 10000 3 350 01:45 20.09.2019
1636 Clouds 2 1008 80 10000 3 350 01:27 20.09.2019
1637 Clouds 1 1009 86 10000 2 360 00:32 20.09.2019
1638 Clouds 1 1008 86 10000 2 40 23:46 19.09.2019
1639 Clouds 1 1008 86 10000 2 40 23:46 19.09.2019
1640 Clouds 1 1008 86 10000 2 40 23:24 19.09.2019
1641 Clouds 0 1008 63 10000 2 360 22:57 19.09.2019
1642 Fog 0 1008 63 10000 2 30 22:38 19.09.2019
1643 Fog 0 1008 63 10000 2 30 22:20 19.09.2019
1644 Clouds -2 1008 92 10000 1 350 21:56 19.09.2019
1645 Clouds -2 1008 92 10000 1 350 21:38 19.09.2019
1646 Clouds -2 1008 92 10000 1 350 21:19 19.09.2019
1647 Clear -4 1008 92 10000 2 30 20:43 19.09.2019
1648 Clear -4 1008 92 10000 2 30 20:23 19.09.2019
1649 Fog -4 1008 100 10000 3 50 19:57 19.09.2019
1650 Fog -4 1008 100 10000 3 50 19:39 19.09.2019
1651 Clear -4 1008 92 10000 2 40 19:21 19.09.2019
1652 Clear -4 1008 92 10000 2 40 18:55 19.09.2019
1653 Clear -4 1008 92 10000 2 40 18:37 19.09.2019
1654 Clear -1 1008 86 10000 1 10 18:18 19.09.2019
1655 Clear -1 1008 86 10000 1 10 18:18 19.09.2019
1656 Clear -1 1008 86 10000 1 10 17:42 19.09.2019
1657 Clear -1 1008 86 10000 1 10 17:23 19.09.2019
1658 Clear -2 1008 92 10000 2 350 16:58 19.09.2019
1659 Clear -2 1008 92 10000 2 350 16:39 19.09.2019
1660 Clear -2 1008 92 10000 2 350 16:18 19.09.2019
1661 Clear -1 1008 92 10000 3 10 15:39 19.09.2019
1662 Clear -1 1008 92 10000 3 10 15:19 19.09.2019
1663 Clear 0 1008 87 10000 3 340 14:42 19.09.2019
1664 Clear 0 1008 87 10000 3 340 14:24 19.09.2019
1665 Clouds 1 1008 87 10000 2 20 13:59 19.09.2019
1666 Clouds 1 1008 87 10000 2 20 13:40 19.09.2019
1667 Clouds 1 1008 87 10000 2 20 13:20 19.09.2019
1668 Clouds 2 1008 93 10000 5 10 12:40 19.09.2019
1669 Rain 2 1008 93 10000 3 360 12:20 19.09.2019
1670 Rain 2 1008 93 10000 3 360 12:20 19.09.2019
1671 Rain 3 1008 93 10000 3 360 11:57 19.09.2019
1672 Rain 3 1008 93 10000 3 360 11:39 19.09.2019
1673 Rain 3 1008 93 10000 3 360 11:20 19.09.2019
1674 Rain 3 1008 93 10000 2 30 10:56 19.09.2019
1675 Rain 3 1008 93 10000 2 30 10:56 19.09.2019
1676 Rain 3 1008 93 10000 2 30 10:36 19.09.2019
1677 Rain 3 1008 93 10000 2 30 10:18 19.09.2019
1678 Rain 3 1008 93 10000 3 30 09:41 19.09.2019
1679 Rain 3 1008 93 10000 3 30 09:21 19.09.2019
1680 Rain 5 1008 75 10000 1 340 08:56 19.09.2019
1681 Rain 5 1008 75 10000 1 340 08:29 19.09.2019
1682 Clouds 5 1008 75 10000 1 210 07:57 19.09.2019
1683 Clouds 5 1008 75 10000 1 210 07:57 19.09.2019
1684 Clouds 5 1008 75 10000 1 230 07:38 19.09.2019
1685 Clouds 5 1008 75 10000 1 230 07:38 19.09.2019
1686 Clouds 5 1008 75 10000 3.72 359.291 07:20 19.09.2019
1687 Clouds 5 1008 75 10000 1 150 06:45 19.09.2019
1688 Clouds 5 1008 75 10000 1 150 06:25 19.09.2019
1689 Clouds 5 1008 75 10000 1 180 05:50 19.09.2019
1690 Clouds 5 1008 75 10000 1 180 05:50 19.09.2019
1691 Clouds 5 1008 86 10000 4.13 358.68 04:39 19.09.2019
1692 Rain 4 1008 80 10000 1 290 03:22 19.09.2019
1693 Clouds 4 1008 80 10000 1 190 01:53 19.09.2019
1694 Clouds 4 1008 80 10000 2 330 01:21 19.09.2019
1695 Clouds 4 1008 80 10000 1 340 00:49 19.09.2019
1696 Clouds 4 1008 80 10000 1 340 00:25 19.09.2019
1697 Clouds 3 1008 86 10000 1 350 23:39 18.09.2019
1698 Clouds 3 1008 86 10000 1 350 23:21 18.09.2019
1699 Clouds 3 1008 86 10000 3.17 265.679 22:43 18.09.2019
1700 Clouds 3 1008 86 10000 3.17 265.679 22:20 18.09.2019
1701 Clouds 3 1008 71 10000 3.17 265.679 21:58 18.09.2019
1702 Clouds 3 1008 71 10000 3.17 265.679 21:40 18.09.2019
1703 Clouds 3 1008 85 10000 2.2 270.365 21:19 18.09.2019
1704 Clouds 2 1007 85 10000 1 80 20:58 18.09.2019
1705 Clouds 2 1007 85 10000 1 80 20:40 18.09.2019
1706 Clear 1 1008 85 10000 1 70 20:22 18.09.2019
1707 Clear 1 1008 85 10000 1 70 20:22 18.09.2019
1708 Clear 1 1008 85 10000 1 70 19:58 18.09.2019
1709 Clear 1 1008 85 10000 1 70 19:39 18.09.2019
1710 Clouds 0 1008 85 10000 1 90 19:19 18.09.2019
1711 Clouds 0 1008 85 10000 1 90 18:56 18.09.2019
1712 Clouds 0 1008 85 10000 1 90 18:37 18.09.2019
1713 Clouds 0 1008 79 10000 1 90 18:19 18.09.2019
1714 Clouds 2 1008 79 10000 1 60 17:58 18.09.2019
1715 Clouds 2 1008 79 10000 1 60 17:39 18.09.2019
1716 Clouds 2 1008 79 10000 1 60 17:19 18.09.2019
1717 Clouds -1 1008 92 10000 2 20 16:56 18.09.2019
1718 Clouds -1 1008 92 10000 2 20 16:56 18.09.2019
1719 Clouds -1 1008 92 10000 2 20 16:37 18.09.2019
1720 Clouds -1 1008 92 10000 2 20 16:18 18.09.2019
1721 Clouds -1 1008 92 10000 1 60 15:55 18.09.2019
1722 Clouds -1 1008 92 10000 1 60 15:36 18.09.2019
1723 Clouds -1 1008 92 10000 1 60 15:18 18.09.2019
1724 Clouds 1 1008 86 10000 2 70 14:57 18.09.2019
1725 Clouds 1 1008 86 10000 2 70 14:37 18.09.2019
1726 Clouds 1 1008 86 10000 2 70 14:19 18.09.2019
1727 Clouds -1 1009 86 10000 1 90 13:42 18.09.2019
1728 Clouds -1 1009 86 10000 1 80 13:19 18.09.2019
1729 Clouds -1 1009 86 10000 1 80 12:55 18.09.2019
1730 Clouds -1 1009 86 10000 1 40 12:36 18.09.2019
1731 Clouds 1 1009 80 10000 2 50 12:18 18.09.2019
1732 Clouds 2 1009 74 10000 2 340 11:39 18.09.2019
1733 Clouds 2 1009 74 10000 2 340 11:39 18.09.2019
1734 Clouds 3 1009 74 10000 2 340 11:19 18.09.2019
1735 Clouds 4 1010 65 10000 2.31 269.454 10:40 18.09.2019
1736 Clouds 4 1010 65 10000 2.31 269.454 10:40 18.09.2019
1737 Clouds 5 1010 65 10000 2.31 269.454 10:21 18.09.2019
1738 Clouds 5 1010 65 10000 2.31 269.454 09:58 18.09.2019
1739 Clouds 5 1010 65 10000 2.31 269.454 09:58 18.09.2019
1740 Clouds 5 1010 69 10000 1 50 09:39 18.09.2019
1741 Clouds 5 1010 64 10000 1 50 09:21 18.09.2019
1742 Clouds 5 1010 60 10000 1 360 08:45 18.09.2019
1743 Clouds 6 1010 60 10000 1 360 08:26 18.09.2019
1744 Clouds 6 1010 60 10000 1 360 08:26 18.09.2019
1745 Clouds 6 1010 66 10000 2 20 07:59 18.09.2019
1746 Clouds 6 1011 66 10000 1 350 07:41 18.09.2019
1747 Clouds 6 1011 66 10000 1 350 07:22 18.09.2019
1748 Clouds 6 1011 66 10000 3 40 06:41 18.09.2019
1749 Clouds 6 1011 60 10000 3 20 05:54 18.09.2019
1750 Clouds 6 1012 59 10000 4 40 05:21 18.09.2019
1751 Clouds 6 1013 61 10000 6 30 03:23 18.09.2019
1752 Clouds 6 1013 61 10000 5 30 02:39 18.09.2019
1753 Clouds 6 1014 60 10000 5 30 01:34 18.09.2019
1754 Clouds 5 1014 65 10000 1 140 00:50 18.09.2019
1755 Clouds 5 1014 65 10000 1 140 00:25 18.09.2019
1756 Clouds 5 1015 80 10000 4 20 23:47 17.09.2019
1757 Clouds 4 1015 80 10000 4 20 23:23 17.09.2019
1758 Clouds 5 1015 69 10000 2 40 22:44 17.09.2019
1759 Clouds 4 1015 69 10000 2 40 22:25 17.09.2019
1760 Clouds 1 1016 86 10000 3 30 21:56 17.09.2019
1761 Clouds 1 1016 86 10000 3 30 21:37 17.09.2019
1762 Clouds 1 1016 86 10000 3 30 21:37 17.09.2019
1763 Clouds 1 1016 86 10000 3 30 21:19 17.09.2019
1764 Clouds 1 1016 80 10000 4 30 20:59 17.09.2019
1765 Clouds 1 1016 80 10000 4 30 20:41 17.09.2019
1766 Clouds 1 1016 80 10000 4 30 20:22 17.09.2019
1767 Clouds 2 1016 80 10000 4 30 19:59 17.09.2019
1768 Clouds 2 1016 80 10000 4 30 19:39 17.09.2019
1769 Clouds 2 1016 80 10000 4 30 19:39 17.09.2019
1770 Clouds 2 1016 74 10000 3 30 19:20 17.09.2019
1771 Clouds 3 1016 74 10000 3 30 18:57 17.09.2019
1772 Clouds 3 1016 74 10000 3 30 18:57 17.09.2019
1773 Clouds 3 1016 74 10000 3 30 18:39 17.09.2019
1774 Clouds 4 1016 77 10000 3 40 18:21 17.09.2019
1775 Clouds 4 1016 77 10000 3 40 17:46 17.09.2019
1776 Clouds 4 1016 77 10000 3 40 17:21 17.09.2019
1777 Clouds 4 1016 77 10000 3 40 17:20 17.09.2019
1778 Clouds 4 1016 77 10000 7 80 16:59 17.09.2019
1779 Clouds 4 1016 77 10000 7 80 16:40 17.09.2019
1780 Clouds 4 1016 77 10000 7 80 16:40 17.09.2019
1781 Clouds 4 1016 77 10000 7 80 16:22 17.09.2019
1782 Clouds 4 1016 77 10000 7 80 16:22 17.09.2019
1783 Clouds 4 1017 77 10000 6 90 15:40 17.09.2019
1784 Clouds 4 1017 73 10000 6 90 15:21 17.09.2019
1785 Clouds 4 1017 73 10000 6 90 15:21 17.09.2019
1786 Clouds 4 1017 73 10000 6 90 15:21 17.09.2019
1787 Clouds 4 1017 80 10000 6 80 14:58 17.09.2019
1788 Clouds 4 1017 80 10000 6 80 14:40 17.09.2019
1789 Clouds 4 1017 80 10000 6 80 14:19 17.09.2019
1790 Clouds 5 1017 73 10000 4 70 13:57 17.09.2019
1791 Clouds 5 1017 73 10000 4 70 13:39 17.09.2019
1792 Clouds 5 1017 74 10000 4 70 13:21 17.09.2019
1793 Clouds 6 1017 70 10000 8 80 12:43 17.09.2019
1794 Clouds 6 1017 70 10000 8 80 12:20 17.09.2019
1795 Clouds 6 1017 70 10000 8 90 11:57 17.09.2019
1796 Clouds 6 1017 70 10000 8 90 11:38 17.09.2019
1797 Clouds 6 1017 70 10000 8 90 11:38 17.09.2019
1798 Clouds 6 1017 70 10000 8 90 11:18 17.09.2019
1799 Clouds 6 1017 70 10000 8 90 11:18 17.09.2019
1800 Clouds 6 1018 70 10000 7 70 10:41 17.09.2019
1801 Clouds 6 1018 70 10000 7 70 10:21 17.09.2019
1802 Clouds 6 1018 70 10000 6 70 09:56 17.09.2019
1803 Clouds 6 1018 70 10000 6 70 09:37 17.09.2019
1804 Clouds 6 1018 70 10000 6 70 09:19 17.09.2019
1805 Clouds 6 1018 70 10000 6 70 09:19 17.09.2019
1806 Clouds 7 1018 65 10000 4 70 08:43 17.09.2019
1807 Clouds 7 1018 65 10000 4 70 08:25 17.09.2019
1808 Clouds 7 1018 65 10000 4 70 08:25 17.09.2019
1809 Clouds 7 1018 65 10000 5 90 07:46 17.09.2019
1810 Clouds 7 1018 65 10000 5 90 07:28 17.09.2019
1811 Clouds 7 1018 65 10000 4 90 06:59 17.09.2019
1812 Clouds 7 1018 65 10000 4 90 06:36 17.09.2019
1813 Clouds 7 1018 65 10000 3 90 05:56 17.09.2019
1814 Clouds 7 1018 70 10000 4 60 05:33 17.09.2019
1815 Clouds 7 1019 65 10000 6 80 04:19 17.09.2019
1816 Clouds 7 1019 62 10000 5 90 02:40 17.09.2019
1817 Clouds 7 1020 62 10000 5 90 01:52 17.09.2019
1818 Clouds 8 1019 64 10000 6 50 00:58 17.09.2019
1819 Clouds 8 1019 64 10000 6 50 00:58 17.09.2019
1820 Clouds 7 1020 69 10000 7 40 23:55 16.09.2019
1821 Clouds 7 1020 65 10000 6 70 23:36 16.09.2019
1822 Clouds 7 1020 65 10000 6 70 23:18 16.09.2019
1823 Clouds 7 1020 70 10000 4 80 22:41 16.09.2019
1824 Clouds 7 1020 70 10000 4 80 22:23 16.09.2019
1825 Clouds 5 1019 75 10000 1 120 21:58 16.09.2019
1826 Clouds 5 1019 75 10000 1 120 21:38 16.09.2019
1827 Clouds 5 1019 75 10000 1 120 21:20 16.09.2019
1828 Clouds 6 1019 75 10000 3 110 20:55 16.09.2019
1829 Clouds 6 1019 75 10000 3 110 20:37 16.09.2019
1830 Clouds 6 1019 75 10000 3 110 20:18 16.09.2019
1831 Clouds 7 1019 70 10000 4 80 19:42 16.09.2019
1832 Clouds 6 1019 75 10000 4 110 19:21 16.09.2019
1833 Clouds 6 1019 75 10000 4 110 18:59 16.09.2019
1834 Clouds 6 1019 75 10000 4 110 18:41 16.09.2019
1835 Clouds 6 1019 75 10000 4 110 18:21 16.09.2019
1836 Clouds 6 1018 70 10000 3 90 17:43 16.09.2019
1837 Clouds 6 1018 70 10000 3 90 17:24 16.09.2019
1838 Clouds 7 1018 70 10000 3 40 16:58 16.09.2019
1839 Clouds 7 1018 70 10000 3 40 16:39 16.09.2019
1840 Clouds 7 1018 70 10000 3 40 16:21 16.09.2019
1841 Clouds 6 1018 75 10000 1 40 15:56 16.09.2019
1842 Clouds 6 1018 75 10000 1 40 15:37 16.09.2019
1843 Clouds 6 1018 75 10000 1 40 15:19 16.09.2019
1844 Clouds 5 1018 80 10000 1 140 14:56 16.09.2019
1845 Clouds 5 1018 80 10000 1 140 14:37 16.09.2019
1846 Clouds 5 1018 80 10000 1 140 14:19 16.09.2019
1847 Clear 7 1017 75 10000 2 160 13:40 16.09.2019
1848 Clear 7 1017 75 10000 2 160 13:21 16.09.2019
1849 Clear 6 1017 87 10000 1 90 12:48 16.09.2019
1850 Clear 6 1017 87 10000 1 90 12:29 16.09.2019
1851 Clear 5 1016 86 10000 5 100 11:58 16.09.2019
1852 Clear 5 1016 86 10000 5 100 11:40 16.09.2019
1853 Clear 5 1016 86 10000 5 100 11:21 16.09.2019
1854 Clear 5 1016 80 10000 5 100 10:40 16.09.2019
1855 Clear 5 1016 80 10000 5 100 10:40 16.09.2019
1856 Clear 5 1016 80 10000 5 100 10:40 16.09.2019
1857 Clear 5 1016 80 10000 5 100 10:21 16.09.2019
1858 Clear 7 1015 75 10000 4.52 83.812 09:58 16.09.2019
1859 Clear 7 1015 75 10000 4.52 83.812 09:40 16.09.2019
1860 Clear 7 1015 75 10000 4.52 83.812 09:40 16.09.2019
1861 Clear 7 1015 75 10000 2.11 63.702 09:20 16.09.2019
1862 Clear 10 1015 61 10000 2.11 63.702 08:47 16.09.2019
1863 Clear 10 1015 61 10000 1 330 08:28 16.09.2019
1864 Clear 11 1015 57 10000 2 340 07:57 16.09.2019
1865 Clear 11 1015 57 10000 2 340 07:38 16.09.2019
1866 Clear 11 1014 54 10000 3 350 07:20 16.09.2019
1867 Clear 11 1014 54 10000 3 350 07:20 16.09.2019
1868 Clear 12 1014 54 10000 3 340 06:46 16.09.2019
1869 Clear 12 1014 54 10000 3 340 06:46 16.09.2019
1870 Clear 12 1014 54 10000 3 340 06:28 16.09.2019
1871 Clouds 12 1014 54 10000 3 340 05:54 16.09.2019
1872 Clouds 12 1014 54 10000 4 350 05:35 16.09.2019
1873 Clouds 12 1014 54 10000 3 340 04:55 16.09.2019
1874 Clouds 11 1014 57 10000 4 320 03:31 16.09.2019
1875 Clear 9 1013 66 10000 2 350 00:44 16.09.2019
1876 Clear 9 1013 66 10000 2 350 00:26 16.09.2019
1877 Clouds 7 1013 75 10000 2 10 23:45 15.09.2019
1878 Clouds 7 1013 75 10000 2 10 23:22 15.09.2019
1879 Clouds 6 1013 81 10000 2 50 22:59 15.09.2019
1880 Clouds 5 1013 86 10000 2 50 22:38 15.09.2019
1881 Clouds 5 1013 86 10000 2 50 22:18 15.09.2019
1882 Clouds 3 1013 93 10000 1 30 21:56 15.09.2019
1883 Clouds 3 1013 93 10000 1 30 21:37 15.09.2019
1884 Clouds 3 1013 93 10000 1 30 21:19 15.09.2019
1885 Clouds 1 1012 87 10000 2 340 20:45 15.09.2019
1886 Clouds 1 1012 87 10000 2 340 20:26 15.09.2019
1887 Clouds 1 1012 87 10000 2 340 20:26 15.09.2019
1888 Clear 0 1012 87 10000 1 30 19:56 15.09.2019
1889 Clear 0 1012 87 10000 1 30 19:37 15.09.2019
1890 Clear 0 1011 87 10000 3 360 19:19 15.09.2019
1891 Clear 0 1011 87 10000 3 360 18:40 15.09.2019
1892 Clear 0 1011 81 10000 3 360 18:20 15.09.2019
1893 Clouds 1 1011 81 10000 1 360 17:43 15.09.2019
1894 Clouds 1 1011 81 10000 1 360 17:22 15.09.2019
1895 Clouds 1 1011 81 10000 2 30 16:58 15.09.2019
1896 Clouds 1 1011 81 10000 2 30 16:40 15.09.2019
1897 Clouds 1 1011 81 10000 2 30 16:22 15.09.2019
1898 Clouds 5 1011 86 10000 2 330 15:56 15.09.2019
1899 Clouds 5 1011 86 10000 2 330 15:38 15.09.2019
1900 Clouds 5 1011 86 10000 2 330 15:19 15.09.2019
1901 Clouds 6 1011 87 10000 2 350 14:55 15.09.2019
1902 Clouds 6 1011 87 10000 2 350 14:37 15.09.2019
1903 Clouds 6 1011 87 10000 2 350 14:18 15.09.2019
1904 Clouds 6 1011 87 10000 3 340 13:43 15.09.2019
1905 Clouds 6 1011 87 10000 3 340 13:21 15.09.2019
1906 Clouds 6 1010 87 10000 3 350 12:42 15.09.2019
1907 Clouds 6 1010 87 10000 3 350 12:24 15.09.2019
1908 Clouds 7 1010 81 10000 1 320 11:58 15.09.2019
1909 Clouds 7 1010 81 10000 1 320 11:40 15.09.2019
1910 Clouds 7 1010 81 10000 1 320 11:20 15.09.2019
1911 Clouds 7 1010 81 10000 1 330 10:42 15.09.2019
1912 Clouds 7 1010 81 10000 1 330 10:22 15.09.2019
1913 Clouds 7 1010 81 10000 2 360 09:58 15.09.2019
1914 Clouds 7 1010 81 10000 2 360 09:37 15.09.2019
1915 Clouds 7 1010 81 10000 2 360 09:19 15.09.2019
1916 Clouds 8 1010 70 10000 2 360 08:45 15.09.2019
1917 Clouds 8 1010 70 10000 2 360 08:26 15.09.2019
1918 Clouds 9 1010 66 10000 3 360 07:48 15.09.2019
1919 Clouds 9 1010 66 10000 3 10 07:26 15.09.2019
1920 Clouds 9 1010 66 10000 3 350 06:39 15.09.2019
1921 Clouds 9 1011 70 10000 4 20 03:31 15.09.2019
1922 Clouds 9 1012 70 10000 3 30 02:33 15.09.2019
1923 Clouds 9 1012 70 10000 3 30 01:39 15.09.2019
1924 Clouds 9 1012 70 10000 3 30 01:19 15.09.2019
1925 Clouds 8 1012 75 10000 2.21 45.698 00:43 15.09.2019
1926 Clouds 8 1012 75 10000 3.48 80.928 00:21 15.09.2019
1927 Clouds 8 1013 81 10000 1 10 23:58 14.09.2019
1928 Clouds 8 1013 81 10000 1 10 23:58 14.09.2019
1929 Clouds 8 1013 81 10000 1 10 23:39 14.09.2019
1930 Clouds 8 1013 81 10000 1 10 23:21 14.09.2019
1931 Clouds 7 1013 81 10000 1 330 22:59 14.09.2019
1932 Clouds 7 1013 81 10000 1 330 22:40 14.09.2019
1933 Clouds 7 1013 81 10000 1 330 22:40 14.09.2019
1934 Clouds 7 1013 87 10000 3.48 80.928 22:19 14.09.2019
1935 Clouds 7 1013 87 10000 3.48 80.928 22:19 14.09.2019
1936 Clouds 7 1013 87 10000 3.48 80.928 21:41 14.09.2019
1937 Clouds 7 1013 87 10000 2.69 81.113 21:22 14.09.2019
1938 Clouds 6 1013 81 10000 1 70 20:59 14.09.2019
1939 Clouds 6 1013 81 10000 1 70 20:40 14.09.2019
1940 Clouds 6 1013 81 10000 1 70 20:22 14.09.2019
1941 Clouds 6 1013 81 10000 1 70 20:22 14.09.2019
1942 Clouds 6 1013 81 10000 2 90 19:52 14.09.2019
1943 Clouds 6 1013 81 10000 2 90 19:23 14.09.2019
1944 Clouds 7 1013 75 10000 2 110 18:59 14.09.2019
1945 Clouds 7 1013 75 10000 2 110 18:40 14.09.2019
1946 Clouds 7 1013 75 10000 2 110 18:21 14.09.2019
1947 Clouds 7 1014 75 10000 2 140 17:58 14.09.2019
1948 Clouds 7 1014 75 10000 2 140 17:39 14.09.2019
1949 Clouds 7 1014 75 10000 2 140 17:21 14.09.2019
1950 Clouds 6 1014 87 10000 1 100 16:43 14.09.2019
1951 Clouds 6 1014 87 10000 1 100 16:21 14.09.2019
1952 Clouds 7 1014 75 10000 2 80 15:43 14.09.2019
1953 Clouds 7 1014 75 10000 2 80 15:24 14.09.2019
1954 Clouds 8 1014 70 10000 1 80 14:59 14.09.2019
1955 Clouds 8 1014 70 10000 1 80 14:40 14.09.2019
1956 Clouds 8 1014 70 10000 1 80 14:19 14.09.2019
1957 Clouds 8 1014 70 10000 1 50 13:47 14.09.2019
1958 Clouds 8 1014 70 10000 1 50 13:22 14.09.2019
1959 Clouds 8 1014 70 10000 1 50 13:22 14.09.2019
1960 Clouds 8 1014 70 10000 1 120 12:48 14.09.2019
1961 Clouds 8 1014 70 10000 1 120 12:26 14.09.2019
1962 Clouds 8 1014 70 10000 1 50 11:42 14.09.2019
1963 Clouds 8 1014 70 10000 1 50 11:42 14.09.2019
1964 Clouds 8 1014 70 10000 1 50 11:21 14.09.2019
1965 Clouds 8 1013 70 10000 1 70 10:57 14.09.2019
1966 Clouds 8 1013 81 10000 1.41 346.495 10:36 14.09.2019
1967 Clouds 8 1013 81 10000 1.41 346.495 10:18 14.09.2019
1968 Clouds 8 1013 75 10000 1.41 346.495 09:56 14.09.2019
1969 Clouds 9 1013 70 10000 1 270 09:37 14.09.2019
1970 Clouds 9 1013 70 10000 1 270 09:18 14.09.2019
1971 Clouds 9 1013 76 10000 1 250 08:41 14.09.2019
1972 Clouds 9 1013 76 10000 1 250 08:23 14.09.2019
1973 Clouds 9 1013 81 10000 1.75 56.419 07:44 14.09.2019
1974 Clouds 9 1013 81 10000 1.75 56.419 07:44 14.09.2019
1975 Clouds 9 1013 81 10000 1.75 56.419 07:26 14.09.2019
1976 Rain 9 1013 76 10000 1 120 06:38 14.09.2019
1977 Rain 9 1013 76 10000 2 80 05:57 14.09.2019
1978 Clouds 10 1012 76 10000 2 10 04:44 14.09.2019
1979 Clouds 9 1012 81 10000 4 20 03:33 14.09.2019
1980 Clouds 9 1012 81 10000 4 30 02:51 14.09.2019
1981 Clouds 8 1011 87 10000 3 10 01:46 14.09.2019
1982 Clouds 8 1011 87 10000 3 10 01:21 14.09.2019
1983 Clouds 8 1011 81 10000 5 10 00:56 14.09.2019
1984 Clouds 8 1011 87 10000 5 10 00:37 14.09.2019
1985 Clouds 7 1010 87 10000 4 20 00:18 14.09.2019
1986 Clouds 7 1010 87 10000 4 20 00:18 14.09.2019
1987 Clouds 7 1010 87 10000 4 10 23:37 13.09.2019
1988 Clouds 7 1010 87 10000 4 10 23:18 13.09.2019
1989 Clouds 7 1010 87 10000 4.95 14.432 22:56 13.09.2019
1990 Clouds 7 1010 87 10000 4.95 14.432 22:56 13.09.2019
1991 Clouds 6 1010 93 10000 2 20 22:37 13.09.2019
1992 Clouds 6 1010 93 10000 2 20 22:37 13.09.2019
1993 Clouds 6 1010 93 10000 2 20 22:19 13.09.2019
1994 Clouds 6 1010 93 10000 3 10 21:40 13.09.2019
1995 Clouds 6 1010 93 10000 3 10 21:19 13.09.2019
1996 Clear 6 1009 93 10000 3 360 20:58 13.09.2019
1997 Clear 6 1009 93 10000 3 360 20:38 13.09.2019
1998 Clear 6 1009 93 10000 3 360 20:20 13.09.2019
1999 Clear 7 1008 87 10000 4 360 19:55 13.09.2019
2000 Clear 7 1008 87 10000 4 360 19:37 13.09.2019
2001 Clear 6 1008 93 10000 7 20 19:18 13.09.2019
2002 Clear 6 1008 93 10000 7 20 19:18 13.09.2019
2003 Clear 6 1008 93 10000 7 20 18:39 13.09.2019
2004 Clear 6 1007 93 10000 7 360 18:20 13.09.2019
2005 Clear 6 1007 93 10000 7 360 17:58 13.09.2019
2006 Clear 6 1007 93 10000 7 360 17:37 13.09.2019
2007 Clear 6 1007 93 10000 7 360 17:18 13.09.2019
2008 Clouds 7 1007 87 10000 7 360 16:40 13.09.2019
2009 Clouds 7 1007 87 10000 7 360 16:20 13.09.2019
2010 Clouds 7 1007 87 10000 7 360 16:20 13.09.2019
2011 Rain 6 1006 93 10000 4 350 15:46 13.09.2019
2012 Rain 6 1006 93 10000 4 350 15:27 13.09.2019
2013 Clear 7 1006 93 10000 3 10 14:57 13.09.2019
2014 Clear 7 1006 93 10000 3 10 14:39 13.09.2019
2015 Clear 7 1006 93 10000 3 10 14:19 13.09.2019
2016 Clear 7 1006 93 10000 3 10 14:19 13.09.2019
2017 Clear 7 1005 87 10000 5 10 13:45 13.09.2019
2018 Clear 7 1005 87 10000 5 10 13:23 13.09.2019
2019 Clear 7 1004 93 10000 6 10 12:56 13.09.2019
2020 Clear 7 1004 93 10000 6 10 12:38 13.09.2019
2021 Rain 7 1004 93 10000 7 20 12:20 13.09.2019
2022 Rain 7 1004 93 10000 7 20 11:54 13.09.2019
2023 Rain 7 1004 93 10000 7 20 11:18 13.09.2019
2024 Rain 7 1003 93 10000 7 20 10:38 13.09.2019
2025 Rain 7 1003 93 10000 7 20 10:19 13.09.2019
2026 Rain 7 1002 93 10000 7 20 09:44 13.09.2019
2027 Rain 7 1002 93 10000 7 20 09:24 13.09.2019
2028 Rain 8 1001 87 10000 7 10 08:58 13.09.2019
2029 Rain 8 1001 87 10000 7 10 08:40 13.09.2019
2030 Rain 8 1001 87 10000 7 10 08:40 13.09.2019
2031 Rain 8 1001 87 10000 7 10 08:20 13.09.2019
2032 Rain 8 1000 93 10000 8 10 07:45 13.09.2019
2033 Rain 8 1000 93 10000 8 10 07:27 13.09.2019
2034 Rain 8 999 93 9000 7 10 06:47 13.09.2019
2035 Rain 9 998 87 10000 8 10 05:49 13.09.2019
2036 Rain 9 998 87 10000 7 10 04:57 13.09.2019
2037 Rain 9 997 87 9000 9 10 03:40 13.09.2019
2038 Rain 8 997 93 9000 11 10 02:20 13.09.2019
2039 Rain 8 997 93 9000 11 10 01:52 13.09.2019
2040 Rain 8 997 93 10000 10 10 01:33 13.09.2019
2041 Rain 8 997 93 10000 10 10 01:33 13.09.2019
2042 Rain 8 996 87 10000 9 360 00:47 13.09.2019
2043 Rain 8 996 87 10000 9 360 00:21 13.09.2019
2044 Rain 7 996 93 9000 9 360 23:38 12.09.2019
2045 Rain 7 996 93 9000 9 360 23:19 12.09.2019
2046 Rain 7 995 93 9000 9 10 22:42 12.09.2019
2047 Rain 7 995 93 9000 9 10 22:23 12.09.2019
2048 Rain 7 995 93 10000 9 10 21:57 12.09.2019
2049 Rain 7 995 93 10000 9 10 21:38 12.09.2019
2050 Rain 7 995 93 10000 9 10 21:38 12.09.2019
2051 Rain 7 995 93 10000 9 10 21:20 12.09.2019
2052 Rain 7 994 93 10000 7 10 20:56 12.09.2019
2053 Rain 7 994 93 10000 7 10 20:38 12.09.2019
2054 Rain 7 994 93 10000 7 10 20:20 12.09.2019
2055 Rain 7 994 93 10000 9 10 19:54 12.09.2019
2056 Rain 7 994 93 10000 9 10 19:36 12.09.2019
2057 Rain 7 993 93 10000 9 10 19:18 12.09.2019
2058 Rain 7 993 93 10000 9 10 18:38 12.09.2019
2059 Rain 7 993 93 10000 8 10 18:19 12.09.2019
2060 Rain 7 993 93 10000 8 10 17:57 12.09.2019
2061 Rain 7 993 93 10000 8 10 17:38 12.09.2019
2062 Rain 7 993 93 10000 8 10 17:19 12.09.2019
2063 Rain 7 993 93 10000 6 10 16:42 12.09.2019
2064 Rain 7 993 93 10000 6 10 16:22 12.09.2019
2065 Rain 7 993 93 10000 7 20 15:55 12.09.2019
2066 Rain 7 993 93 10000 7 20 15:36 12.09.2019
2067 Rain 7 993 93 10000 7 20 15:18 12.09.2019
2068 Rain 8 992 87 10000 6 20 14:41 12.09.2019
2069 Rain 8 992 87 10000 6 20 14:21 12.09.2019
2070 Rain 8 992 93 10000 8 10 13:40 12.09.2019
2071 Rain 8 992 93 10000 8 10 13:22 12.09.2019
2072 Rain 8 992 93 10000 7 10 12:49 12.09.2019
2073 Rain 8 992 93 10000 7 10 12:20 12.09.2019
2074 Rain 8 992 93 10000 7 20 12:00 12.09.2019
2075 Rain 8 992 93 10000 7 20 11:41 12.09.2019
2076 Rain 8 992 93 10000 7 20 11:21 12.09.2019
2077 Rain 9 991 87 10000 6 20 10:57 12.09.2019
2078 Rain 9 991 87 10000 6 20 10:39 12.09.2019
2079 Rain 9 991 87 10000 6 20 10:20 12.09.2019
2080 Clouds 9 991 87 10000 5 10 09:43 12.09.2019
2081 Clouds 9 991 87 10000 5 10 09:20 12.09.2019
2082 Clouds 9 990 87 10000 7 20 08:45 12.09.2019
2083 Clouds 9 990 87 10000 7 20 08:25 12.09.2019
2084 Clouds 9 990 87 10000 7 10 07:56 12.09.2019
2085 Clouds 9 990 87 10000 7 20 07:38 12.09.2019
2086 Rain 9 990 87 9000 7 20 07:18 12.09.2019
2087 Rain 9 990 87 9000 7 20 06:46 12.09.2019
2088 Rain 9 990 87 10000 8 30 06:19 12.09.2019
2089 Rain 9 990 87 10000 8 30 05:47 12.09.2019
2090 Rain 9 990 87 10000 8 30 05:27 12.09.2019
2091 Rain 9 989 87 10000 9 40 03:59 12.09.2019
2092 Rain 9 989 81 10000 10 40 01:45 12.09.2019
2093 Rain 9 989 81 10000 10 40 01:27 12.09.2019
2094 Clouds 9 989 87 10000 10 30 00:50 12.09.2019
2095 Rain 9 989 87 10000 10 30 00:31 12.09.2019
2096 Clouds 9 989 81 10000 10 40 23:55 11.09.2019
2097 Clouds 9 989 81 10000 10 40 23:36 11.09.2019
2098 Clouds 9 989 81 10000 10 40 23:18 11.09.2019
2099 Rain 8 989 87 10000 10 30 22:55 11.09.2019
2100 Clouds 8 989 87 10000 8 30 22:36 11.09.2019
2101 Clouds 8 989 87 10000 8 30 22:18 11.09.2019
2102 Clouds 8 990 87 10000 10 20 21:41 11.09.2019
2103 Clouds 8 990 87 10000 10 20 21:22 11.09.2019
2104 Clouds 8 990 81 10000 10 30 20:56 11.09.2019
2105 Clouds 8 990 81 10000 10 30 20:38 11.09.2019
2106 Clouds 8 990 81 10000 10 30 20:19 11.09.2019
2107 Clouds 8 990 87 10000 9 30 19:56 11.09.2019
2108 Clouds 8 990 87 10000 9 30 19:37 11.09.2019
2109 Clouds 8 990 81 10000 6 40 19:19 11.09.2019
2110 Clouds 8 990 81 10000 6 40 18:44 11.09.2019
2111 Clouds 8 990 81 10000 6 40 18:26 11.09.2019
2112 Rain 8 990 81 10000 6 50 18:00 11.09.2019
2113 Rain 8 990 81 10000 6 50 17:41 11.09.2019
2114 Rain 8 990 81 10000 6 50 17:22 11.09.2019
2115 Rain 8 991 87 10000 5 50 16:57 11.09.2019
2116 Rain 8 991 87 10000 5 50 16:38 11.09.2019
2117 Rain 8 991 87 10000 5 50 16:19 11.09.2019
2118 Rain 8 991 87 10000 9 60 15:47 11.09.2019
2119 Rain 8 991 87 10000 9 60 15:24 11.09.2019
2120 Rain 8 991 87 10000 9 70 14:58 11.09.2019
2121 Rain 8 991 87 10000 9 70 14:39 11.09.2019
2122 Rain 8 991 87 10000 9 70 14:20 11.09.2019
2123 Rain 8 992 87 10000 9 70 13:57 11.09.2019
2124 Rain 8 992 87 10000 9 70 13:37 11.09.2019
2125 Rain 8 993 87 10000 10 80 13:18 11.09.2019
2126 Rain 8 993 87 10000 10 80 12:42 11.09.2019
2127 Rain 8 993 87 10000 10 80 12:21 11.09.2019
2128 Rain 8 993 87 10000 9 80 11:56 11.09.2019
2129 Rain 8 993 87 10000 9 80 11:37 11.09.2019
2130 Rain 8 993 87 10000 9 80 11:18 11.09.2019
2131 Rain 8 993 87 10000 9 80 11:18 11.09.2019
2132 Rain 8 994 87 10000 8 80 10:41 11.09.2019
2133 Rain 8 994 87 10000 8 80 10:22 11.09.2019
2134 Rain 8 994 87 8000 9 80 09:57 11.09.2019
2135 Rain 8 994 87 8000 9 80 09:37 11.09.2019
2136 Rain 8 994 87 8000 9 80 09:18 11.09.2019
2137 Clouds 8 994 87 10000 8 70 08:40 11.09.2019
2138 Clouds 8 994 87 10000 8 70 08:21 11.09.2019
2139 Rain 9 995 81 10000 8 70 07:49 11.09.2019
2140 Rain 9 995 81 10000 10 80 07:23 11.09.2019
2141 Clouds 9 995 81 10000 9 90 06:54 11.09.2019
2142 Clouds 9 996 81 10000 10 90 06:35 11.09.2019
2143 Rain 9 996 81 10000 11 90 05:50 11.09.2019
2144 Rain 9 996 81 10000 11 90 05:30 11.09.2019
2145 Rain 10 997 76 10000 9 90 04:51 11.09.2019
2146 Rain 9 997 81 9000 8 110 03:40 11.09.2019
2147 Rain 9 997 81 9000 8 110 03:40 11.09.2019
2148 Rain 10 998 76 8000 8 110 02:58 11.09.2019
2149 Clouds 11 998 71 10000 8 120 02:28 11.09.2019
2150 Clouds 11 999 76 10000 6 110 01:21 11.09.2019
2151 Clouds 10 999 87 10000 6 120 00:31 11.09.2019
2152 Clouds 10 999 87 10000 7 120 23:58 10.09.2019
2153 Rain 10 999 93 10000 7 120 23:39 10.09.2019
2154 Rain 9 999 93 10000 7 120 23:20 10.09.2019
2155 Clouds 9 1000 93 10000 7 110 22:41 10.09.2019
2156 Clouds 9 1000 93 10000 7 110 22:21 10.09.2019
2157 Clouds 9 1000 87 10000 6 100 21:57 10.09.2019
2158 Clouds 9 1000 87 10000 6 100 21:38 10.09.2019
2159 Clouds 9 1000 87 10000 6 100 21:20 10.09.2019
2160 Clouds 9 1000 93 10000 5 110 20:58 10.09.2019
2161 Clouds 9 1000 93 10000 5 110 20:40 10.09.2019
2162 Clouds 9 1000 93 10000 5 110 20:22 10.09.2019
2163 Rain 9 1000 93 10000 5 100 19:57 10.09.2019
2164 Rain 9 1000 93 10000 5 100 19:38 10.09.2019
2165 Rain 8 1001 93 10000 8 100 19:20 10.09.2019
2166 Rain 8 1001 93 10000 8 100 18:58 10.09.2019
2167 Rain 8 1001 93 10000 8 100 18:39 10.09.2019
2168 Rain 8 1001 93 10000 8 100 18:21 10.09.2019
2169 Clouds 8 1001 93 10000 9 110 17:54 10.09.2019
2170 Clouds 8 1001 93 10000 9 110 17:36 10.09.2019
2171 Clouds 8 1001 93 10000 9 110 17:36 10.09.2019
2172 Clouds 8 1001 93 10000 9 110 17:18 10.09.2019
2173 Clouds 8 1001 87 10000 8 110 16:55 10.09.2019
2174 Clouds 8 1001 87 10000 8 110 16:55 10.09.2019
2175 Clouds 8 1001 87 10000 8 110 16:55 10.09.2019
2176 Clouds 8 1001 87 10000 8 110 16:36 10.09.2019
2177 Clouds 8 1001 87 10000 8 110 16:18 10.09.2019
2178 Clouds 8 1001 87 10000 8 110 16:18 10.09.2019
2179 Clouds 8 1002 87 10000 6 100 15:42 10.09.2019
2180 Clouds 8 1002 87 10000 6 100 15:21 10.09.2019
2181 Clouds 8 1002 87 10000 6 110 14:43 10.09.2019
2182 Clouds 8 1002 87 10000 6 110 14:43 10.09.2019
2183 Clouds 8 1002 87 10000 6 110 14:25 10.09.2019
2184 Clouds 8 1002 87 10000 5 100 13:59 10.09.2019
2185 Clouds 8 1002 87 10000 5 100 13:40 10.09.2019
2186 Clouds 8 1002 87 10000 5 100 13:40 10.09.2019
2187 Clouds 8 1002 87 10000 5 100 13:22 10.09.2019
2188 Clouds 8 1002 87 10000 5 100 13:22 10.09.2019
2189 Clouds 8 1003 87 10000 2 60 12:49 10.09.2019
2190 Clouds 8 1003 87 10000 2 60 12:27 10.09.2019
2191 Clouds 8 1003 87 10000 4 120 11:57 10.09.2019
2192 Clouds 8 1003 87 10000 4 120 11:39 10.09.2019
2193 Clouds 9 1003 81 10000 3 120 11:20 10.09.2019
2194 Clouds 9 1003 81 10000 3 120 10:42 10.09.2019
2195 Clouds 9 1003 81 10000 3 150 10:19 10.09.2019
2196 Clouds 9 1003 81 10000 3 150 09:57 10.09.2019
2197 Clouds 9 1003 81 10000 3 150 09:39 10.09.2019
2198 Clouds 9 1004 81 10000 3 130 09:19 10.09.2019
2199 Clouds 9 1004 81 10000 3 130 08:45 10.09.2019
2200 Clouds 9 1004 81 10000 3 130 08:27 10.09.2019
2201 Clouds 10 1004 76 10000 4 140 07:46 10.09.2019
2202 Clouds 10 1004 76 10000 4 140 07:27 10.09.2019
2203 Clouds 10 1004 76 10000 5 130 06:56 10.09.2019
2204 Clouds 11 1004 71 10000 5 120 06:36 10.09.2019
2205 Clouds 11 1005 66 10000 5 140 05:48 10.09.2019
2206 Clouds 11 1005 71 10000 5 160 03:58 10.09.2019
2207 Clouds 11 1005 71 10000 5 160 02:24 10.09.2019
2208 Clouds 11 1005 71 10000 5 160 02:24 10.09.2019
2209 Clouds 11 1005 71 10000 4 150 01:59 10.09.2019
2210 Clouds 11 1005 71 10000 4 150 01:59 10.09.2019
2211 Clouds 11 1005 71 10000 4 150 01:59 10.09.2019
2212 Clouds 10 1006 76 10000 4 150 01:41 10.09.2019
2213 Clouds 10 1006 81 10000 5 140 01:21 10.09.2019
2214 Clouds 10 1006 81 10000 5 140 01:21 10.09.2019
2215 Clouds 10 1006 81 10000 4 140 00:28 10.09.2019
2216 Clouds 10 1006 81 10000 4 130 23:48 09.09.2019
2217 Fog 10 1006 81 10000 3 120 23:20 09.09.2019
2218 Fog 10 1006 81 10000 3 120 22:58 09.09.2019
2219 Fog 10 1006 87 10000 4 100 22:39 09.09.2019
2220 Fog 8 1006 93 10000 2 100 22:21 09.09.2019
2221 Fog 8 1006 93 10000 2 100 21:58 09.09.2019
2222 Fog 8 1006 93 10000 2 100 21:40 09.09.2019
2223 Fog 7 1006 87 10000 3 90 21:21 09.09.2019
2224 Fog 6 1006 87 10000 3 90 20:57 09.09.2019
2225 Fog 6 1006 87 10000 3 90 20:37 09.09.2019
2226 Fog 5 1006 86 10000 2 80 20:19 09.09.2019
2227 Fog 5 1006 86 10000 2 80 19:58 09.09.2019
2228 Fog 5 1006 86 10000 2 80 19:39 09.09.2019
2229 Clear 4 1006 93 10000 2 90 19:20 09.09.2019
2230 Clear 4 1006 93 10000 2 90 19:20 09.09.2019
2231 Clear 4 1006 93 10000 2 90 18:58 09.09.2019
2232 Clear 4 1006 93 10000 2 90 18:40 09.09.2019
2233 Clear 5 1006 86 10000 2 90 18:21 09.09.2019
2234 Clear 5 1006 86 10000 2 90 17:58 09.09.2019
2235 Clear 5 1006 86 10000 2 90 17:40 09.09.2019
2236 Clear 5 1007 93 10000 2 90 17:21 09.09.2019
2237 Clear 5 1007 93 10000 2 90 16:56 09.09.2019
2238 Clear 5 1007 93 10000 2 90 16:38 09.09.2019
2239 Clear 7 1007 81 10000 2 110 16:19 09.09.2019
2240 Clear 9 1007 81 10000 2 110 15:56 09.09.2019
2241 Clear 9 1007 81 10000 2 110 15:56 09.09.2019
2242 Clear 9 1007 81 10000 2 110 15:37 09.09.2019
2243 Clear 9 1007 87 10000 2 120 15:18 09.09.2019
2244 Clear 9 1007 87 10000 2 120 14:55 09.09.2019
2245 Clear 9 1007 87 10000 2 120 14:37 09.09.2019
2246 Clear 9 1007 87 10000 2 120 14:37 09.09.2019
2247 Clear 7 1006 87 10000 3 110 14:18 09.09.2019
2248 Clear 6 1006 87 10000 3 110 13:44 09.09.2019
2249 Clear 6 1006 81 10000 2 120 13:20 09.09.2019
2250 Clear 7 1006 81 10000 2 120 12:58 09.09.2019
2251 Clear 7 1006 81 10000 2 120 12:38 09.09.2019
2252 Clear 9 1006 71 10000 2 120 12:19 09.09.2019
2253 Clear 9 1006 71 10000 2 120 12:19 09.09.2019
2254 Clear 10 1006 71 10000 2 120 11:46 09.09.2019
2255 Clear 10 1006 71 10000 2 120 11:23 09.09.2019
2256 Clear 7 1006 81 10000 3 110 10:58 09.09.2019
2257 Clear 7 1006 81 10000 3 110 10:40 09.09.2019
2258 Clear 9 1006 76 10000 3.75 184.126 10:20 09.09.2019
2259 Clear 10 1006 76 10000 3.75 184.126 09:56 09.09.2019
2260 Clear 10 1006 76 10000 3.75 184.126 09:37 09.09.2019
2261 Clear 11 1006 66 10000 1 320 09:19 09.09.2019
2262 Clear 12 1006 66 10000 1 320 08:38 09.09.2019
2263 Clear 12 1006 66 10000 1 300 08:20 09.09.2019
2264 Clear 12 1006 66 10000 1 350 07:46 09.09.2019
2265 Clear 12 1006 54 10000 2 10 07:22 09.09.2019
2266 Clear 13 1006 54 10000 2 10 06:56 09.09.2019
2267 Clear 13 1006 54 10000 2 10 06:56 09.09.2019
2268 Clear 13 1006 54 10000 2 20 06:32 09.09.2019
2269 Clear 13 1006 58 10000 2 360 04:55 09.09.2019
2270 Clear 13 1006 58 10000 2 360 04:55 09.09.2019
2271 Clouds 12 1006 62 10000 5 360 02:43 09.09.2019
2272 Clouds 11 1006 71 10000 4 360 02:19 09.09.2019
2273 Clouds 10 1006 81 10000 3 350 00:41 09.09.2019
2274 Clouds 9 1006 87 10000 2 360 00:21 09.09.2019
2275 Clouds 9 1006 87 10000 2 360 23:44 08.09.2019
2276 Clouds 9 1006 87 10000 2 360 23:23 08.09.2019
2277 Clouds 8 1006 93 10000 3 350 22:56 08.09.2019
2278 Clouds 8 1006 93 10000 2 340 22:37 08.09.2019
2279 Clouds 7 1005 100 10000 2 30 22:19 08.09.2019
2280 Clouds 7 1005 100 10000 2 30 21:42 08.09.2019
2281 Clouds 7 1005 100 10000 2 30 21:42 08.09.2019
2282 Clouds 7 1005 100 10000 2 30 21:22 08.09.2019
2283 Fog 7 1005 93 10000 2 350 20:58 08.09.2019
2284 Fog 7 1005 93 10000 2 350 20:39 08.09.2019
2285 Rain 7 1005 93 10000 3 350 20:20 08.09.2019
2286 Rain 7 1005 93 10000 3 350 19:58 08.09.2019
2287 Rain 7 1005 93 10000 3 350 19:38 08.09.2019
2288 Rain 7 1005 93 10000 2 30 19:19 08.09.2019
2289 Rain 7 1005 93 10000 2 30 18:57 08.09.2019
2290 Rain 7 1005 93 10000 2 30 18:38 08.09.2019
2291 Clouds 7 1005 93 10000 2 20 18:18 08.09.2019
2292 Clouds 7 1005 93 10000 2 20 17:54 08.09.2019
2293 Clouds 7 1005 93 10000 2 20 17:36 08.09.2019
2294 Clouds 7 1005 93 10000 5 10 17:18 08.09.2019
2295 Clouds 7 1005 93 10000 5 10 16:43 08.09.2019
2296 Clouds 6 1005 93 10000 1 60 16:22 08.09.2019
2297 Clouds 6 1005 93 10000 1 60 15:58 08.09.2019
2298 Clouds 6 1005 93 10000 1 60 15:40 08.09.2019
2299 Clouds 6 1004 100 10000 1 360 15:21 08.09.2019
2300 Clouds 7 1004 100 10000 1 360 14:55 08.09.2019
2301 Clouds 7 1004 100 10000 1 360 14:36 08.09.2019
2302 Rain 7 1004 93 10000 1.63 175.257 14:18 08.09.2019
2303 Rain 8 1004 93 10000 1.63 175.257 13:55 08.09.2019
2304 Rain 8 1004 93 10000 1.63 175.257 13:36 08.09.2019
2305 Rain 8 1004 93 10000 1.53 171.257 13:18 08.09.2019
2306 Rain 8 1004 93 10000 1.53 171.257 12:41 08.09.2019
2307 Rain 8 1004 93 10000 1 120 12:23 08.09.2019
2308 Rain 8 1004 93 10000 1 120 11:58 08.09.2019
2309 Rain 8 1004 93 10000 1 120 11:38 08.09.2019
2310 Rain 8 1004 93 10000 1 120 11:38 08.09.2019
2311 Rain 8 1004 93 10000 1 120 11:38 08.09.2019
2312 Clouds 9 1004 87 10000 3.29 31.364 11:19 08.09.2019
2313 Clouds 9 1004 87 10000 3.29 31.364 10:55 08.09.2019
2314 Clouds 9 1004 87 10000 3.29 31.364 10:37 08.09.2019
2315 Clouds 10 1004 81 10000 2 20 10:18 08.09.2019
2316 Clouds 10 1004 81 10000 2 20 09:38 08.09.2019
2317 Clouds 11 1004 66 10000 3 20 09:20 08.09.2019
2318 Clouds 11 1004 66 10000 3 20 08:56 08.09.2019
2319 Clouds 11 1004 66 10000 3 20 08:37 08.09.2019
2320 Clouds 12 1003 58 10000 3 60 08:18 08.09.2019
2321 Clouds 13 1003 58 10000 3 60 07:39 08.09.2019
2322 Clouds 14 1003 50 10000 6 30 07:20 08.09.2019
2323 Clouds 14 1003 50 10000 6 30 06:47 08.09.2019
2324 Clouds 14 1003 50 10000 3 40 06:18 08.09.2019
2325 Clouds 14 1003 50 10000 3 40 05:36 08.09.2019
2326 Clouds 13 1003 58 10000 5 20 03:53 08.09.2019
2327 Clouds 14 1003 58 10000 5 20 02:55 08.09.2019
2328 Clouds 13 1004 62 10000 4 20 02:26 08.09.2019
2329 Clouds 12 1004 62 10000 5 10 01:39 08.09.2019
2330 Clouds 12 1004 66 10000 6 10 01:18 08.09.2019
2331 Clear 11 1004 71 10000 6 360 00:42 08.09.2019
2332 Clear 11 1004 71 10000 6 360 00:23 08.09.2019
2333 Clear 10 1004 76 10000 5 360 23:38 07.09.2019
2334 Clear 9 1004 81 10000 5 360 23:19 07.09.2019
2335 Clear 8 1004 81 10000 5 360 22:57 07.09.2019
2336 Clear 8 1004 81 10000 5 360 22:38 07.09.2019
2337 Clear 7 1005 87 10000 4 360 22:19 07.09.2019
2338 Clear 7 1005 87 10000 4 360 21:42 07.09.2019
2339 Clear 7 1005 87 10000 4 360 21:23 07.09.2019
2340 Clouds 8 1005 75 10000 3 30 20:57 07.09.2019
2341 Clouds 8 1005 75 10000 3 30 20:37 07.09.2019
2342 Clouds 7 1005 81 10000 3 40 20:18 07.09.2019
2343 Clouds 7 1005 81 10000 3 40 19:54 07.09.2019
2344 Clouds 7 1005 81 10000 3 40 19:36 07.09.2019
2345 Clear 6 1005 81 10000 4 30 19:18 07.09.2019
2346 Clear 6 1005 81 10000 4 30 18:54 07.09.2019
2347 Clear 6 1005 81 10000 4 30 18:36 07.09.2019
2348 Clear 6 1005 81 10000 4 40 18:18 07.09.2019
2349 Clear 6 1005 81 10000 4 40 17:54 07.09.2019
2350 Clear 6 1005 81 10000 4 40 17:36 07.09.2019
2351 Clouds 5 1005 93 10000 5 20 17:18 07.09.2019
2352 Clouds 4 1005 93 10000 5 20 16:42 07.09.2019
2353 Clouds 3 1006 93 10000 2 50 16:20 07.09.2019
2354 Clouds 2 1006 93 10000 2 50 15:49 07.09.2019
2355 Clouds 2 1006 93 10000 2 50 15:26 07.09.2019
2356 Clouds 4 1006 93 10000 2 50 14:58 07.09.2019
2357 Clouds 4 1006 93 10000 2 50 14:37 07.09.2019
2358 Clouds 3 1006 93 10000 2 90 14:19 07.09.2019
2359 Clouds 2 1006 93 10000 2 90 13:58 07.09.2019
2360 Clouds 2 1006 93 10000 2 90 13:40 07.09.2019
2361 Clouds 2 1006 93 10000 2 90 13:40 07.09.2019
2362 Clear 1 1006 78 10000 3 90 13:22 07.09.2019
2363 Clear 1 1006 78 10000 3 90 12:45 07.09.2019
2364 Clear 1 1006 78 10000 3 90 12:26 07.09.2019
2365 Clear 2 1006 73 10000 2 110 11:58 07.09.2019
2366 Clear 2 1006 73 10000 2 110 11:39 07.09.2019
2367 Clear 4 1006 86 10000 2 120 11:19 07.09.2019
2368 Clear 5 1006 93 10000 1 160 10:41 07.09.2019
2369 Clear 5 1006 93 10000 1 160 10:41 07.09.2019
2370 Clear 7 1006 93 10000 1 160 10:22 07.09.2019
2371 Clear 8 1006 87 10000 2 160 09:56 07.09.2019
2372 Clear 8 1006 87 10000 1 150 09:38 07.09.2019
2373 Clouds 8 1006 87 10000 2 190 09:20 07.09.2019
2374 Clouds 8 1006 87 10000 2 190 09:20 07.09.2019
2375 Clouds 9 1006 87 10000 3 180 08:44 07.09.2019
2376 Clouds 9 1006 87 10000 3 180 08:26 07.09.2019
2377 Clouds 10 1006 81 10000 4 170 07:48 07.09.2019
2378 Clouds 10 1006 81 10000 4 170 07:28 07.09.2019
2379 Clouds 11 1006 66 10000 5 180 06:53 07.09.2019
2380 Clouds 11 1006 76 10000 5 180 06:21 07.09.2019
2381 Clouds 11 1006 76 10000 5 180 05:31 07.09.2019
2382 Clouds 11 1006 71 10000 5 200 04:23 07.09.2019
2383 Clouds 11 1006 76 10000 4 180 02:50 07.09.2019
2384 Clouds 11 1007 66 10000 2 180 02:20 07.09.2019
2385 Clouds 12 1007 66 10000 2 180 01:26 07.09.2019
2386 Clouds 11 1007 76 10000 3 110 00:44 07.09.2019
2387 Clear 11 1006 66 10000 4 100 00:21 07.09.2019
2388 Clear 11 1006 66 10000 4 100 23:41 06.09.2019
2389 Clear 11 1006 66 10000 4 100 23:22 06.09.2019
2390 Clear 11 1006 66 10000 4 100 23:22 06.09.2019
2391 Clear 10 1006 76 10000 5 100 22:58 06.09.2019
2392 Clear 10 1006 76 10000 5 100 22:39 06.09.2019
2393 Clear 8 1006 87 10000 2 80 22:19 06.09.2019
2394 Clear 7 1006 87 10000 2 80 21:58 06.09.2019
2395 Clear 7 1006 87 10000 2 80 21:58 06.09.2019
2396 Clear 7 1006 87 10000 2 80 21:58 06.09.2019
2397 Clear 7 1006 87 10000 2 80 21:39 06.09.2019
2398 Clear 5 1006 93 10000 3 80 21:21 06.09.2019
2399 Clear 3 1006 93 10000 3 80 20:58 06.09.2019
2400 Clear 3 1006 93 10000 3 80 20:39 06.09.2019
2401 Clear 2 1006 93 10000 2 80 20:21 06.09.2019
2402 Clear 2 1006 93 10000 2 80 20:21 06.09.2019
2403 Clear 2 1006 93 10000 2 80 19:57 06.09.2019
2404 Clear 2 1006 93 10000 2 80 19:39 06.09.2019
2405 Clear 2 1006 100 10000 3 90 19:20 06.09.2019
2406 Clear 2 1006 100 10000 3 90 18:46 06.09.2019
2407 Clear 2 1006 100 10000 3 90 18:25 06.09.2019
2408 Clear 2 1006 93 10000 3 90 17:59 06.09.2019
2409 Clear 2 1006 93 10000 3 90 17:59 06.09.2019
2410 Clear 2 1006 93 10000 3 90 17:38 06.09.2019
2411 Clear 3 1006 93 10000 2 80 17:19 06.09.2019
2412 Clear 3 1006 93 10000 2 80 16:41 06.09.2019
2413 Clear 4 1006 93 10000 2 90 16:19 06.09.2019
2414 Clear 4 1006 93 10000 2 90 15:44 06.09.2019
2415 Clear 4 1006 93 10000 2 90 15:26 06.09.2019
2416 Clear 5 1006 93 10000 2 100 14:59 06.09.2019
2417 Clear 5 1006 93 10000 2 100 14:39 06.09.2019
2418 Clear 6 1006 87 10000 2 110 14:18 06.09.2019
2419 Clear 7 1006 87 10000 2 110 13:43 06.09.2019
2420 Clear 6 1006 86 10000 3 90 13:22 06.09.2019
2421 Clear 5 1006 86 10000 3 90 12:39 06.09.2019
2422 Clear 5 1006 86 10000 2 80 12:21 06.09.2019
2423 Clear 5 1006 86 10000 2 80 11:57 06.09.2019
2424 Clear 5 1006 86 10000 2 80 11:39 06.09.2019
2425 Clear 5 1006 86 10000 2 80 11:39 06.09.2019
2426 Clear 4 1005 93 10000 3 90 11:20 06.09.2019
2427 Clear 3 1005 93 10000 3 90 10:42 06.09.2019
2428 Clear 3 1005 93 10000 3 90 10:22 06.09.2019
2429 Clear 9 1005 76 10000 3.31 158.086 09:58 06.09.2019
2430 Clear 9 1005 76 10000 3.31 158.086 09:37 06.09.2019
2431 Clouds 10 1005 71 10000 1 250 09:19 06.09.2019
2432 Clouds 11 1005 71 10000 1 250 08:44 06.09.2019
2433 Clouds 11 1005 71 10000 1 250 08:26 06.09.2019
2434 Clouds 11 1005 66 10000 2 250 07:51 06.09.2019
2435 Clouds 11 1005 66 10000 2 250 07:28 06.09.2019
2436 Clouds 12 1005 62 10000 2 260 06:59 06.09.2019
2437 Clouds 12 1005 62 10000 2 250 06:33 06.09.2019
2438 Clouds 12 1005 58 10000 2 340 05:45 06.09.2019
2439 Clouds 12 1005 58 10000 2 290 04:55 06.09.2019
2440 Clouds 11 1005 66 10000 2 260 04:25 06.09.2019
2441 Clouds 10 1006 71 10000 1 280 02:46 06.09.2019
2442 Clouds 10 1006 71 10000 1 310 00:58 06.09.2019
2443 Clouds 9 1006 76 10000 2.28 271.907 00:22 06.09.2019
2444 Clouds 9 1006 81 10000 2.28 271.907 23:41 05.09.2019
2445 Clouds 9 1006 81 10000 2.28 271.907 23:22 05.09.2019
2446 Clouds 8 1006 87 10000 2.28 271.907 22:46 05.09.2019
2447 Clouds 8 1006 87 10000 2.28 271.907 22:46 05.09.2019
2448 Clouds 8 1006 87 10000 2.28 271.907 22:26 05.09.2019
2449 Clouds 7 1005 93 10000 1 50 21:58 05.09.2019
2450 Clouds 7 1005 93 10000 1 50 21:39 05.09.2019
2451 Clouds 6 1005 93 10000 1 90 21:20 05.09.2019
2452 Clouds 6 1005 93 10000 1 90 21:20 05.09.2019
2453 Clouds 6 1005 93 10000 1 90 20:58 05.09.2019
2454 Clouds 6 1005 93 10000 1 90 20:39 05.09.2019
2455 Clouds 6 1005 93 10000 1 100 20:20 05.09.2019
2456 Clouds 6 1005 93 10000 1 100 19:57 05.09.2019
2457 Clouds 6 1005 93 10000 1 100 19:39 05.09.2019
2458 Clouds 6 1005 87 10000 1 100 19:20 05.09.2019
2459 Clouds 7 1005 87 10000 1 100 18:45 05.09.2019
2460 Clouds 7 1005 87 10000 1 100 18:27 05.09.2019
2461 Clouds 6 1005 93 10000 2 90 17:59 05.09.2019
2462 Clouds 6 1005 93 10000 2 90 17:39 05.09.2019
2463 Clouds 6 1005 93 10000 2 90 17:39 05.09.2019
2464 Clouds 6 1005 93 10000 3.06 276.545 17:21 05.09.2019
2465 Clouds 6 1005 93 10000 3.06 276.545 16:57 05.09.2019
2466 Clouds 6 1005 93 10000 3.06 276.545 16:57 05.09.2019
2467 Clouds 6 1005 93 10000 3.06 276.545 16:39 05.09.2019
2468 Clouds 6 1005 93 10000 1 90 16:18 05.09.2019
2469 Clouds 6 1005 93 10000 1 90 15:40 05.09.2019
2470 Clouds 6 1005 93 10000 1 110 15:19 05.09.2019
2471 Clouds 6 1005 93 10000 1 110 15:19 05.09.2019
2472 Clouds 6 1005 93 10000 1 110 15:19 05.09.2019
2473 Clouds 6 1005 93 10000 1 110 14:57 05.09.2019
2474 Clouds 6 1005 93 10000 1 110 14:57 05.09.2019
2475 Clouds 6 1005 93 10000 1 110 14:38 05.09.2019
2476 Clouds 6 1005 87 10000 1 100 14:18 05.09.2019
2477 Clouds 6 1005 87 10000 1 100 13:43 05.09.2019
2478 Clouds 6 1005 93 10000 1 120 13:21 05.09.2019
2479 Clouds 6 1005 93 10000 1 120 12:45 05.09.2019
2480 Clouds 6 1005 93 10000 1 120 12:26 05.09.2019
2481 Clouds 6 1005 87 10000 1 140 11:58 05.09.2019
2482 Clouds 6 1005 87 10000 1 140 11:39 05.09.2019
2483 Clouds 6 1005 87 10000 2.34 257.724 11:18 05.09.2019
2484 Clouds 7 1005 87 10000 2.34 257.724 10:42 05.09.2019
2485 Clouds 7 1005 87 10000 2.34 257.724 10:22 05.09.2019
2486 Clouds 7 1005 87 10000 2.34 257.724 10:22 05.09.2019
2487 Rain 7 1005 93 10000 1 50 09:58 05.09.2019
2488 Rain 7 1005 93 10000 1 50 09:39 05.09.2019
2489 Rain 7 1005 93 10000 2 10 09:18 05.09.2019
2490 Rain 7 1005 93 10000 2 10 09:18 05.09.2019
2491 Rain 7 1005 93 10000 2 10 09:18 05.09.2019
2492 Rain 7 1005 93 10000 2 10 08:45 05.09.2019
2493 Rain 7 1005 93 10000 2 10 08:26 05.09.2019
2494 Rain 7 1005 81 10000 2 350 07:46 05.09.2019
2495 Rain 8 1005 81 10000 2 350 07:27 05.09.2019
2496 Rain 8 1005 81 10000 2 350 06:57 05.09.2019
2497 Clouds 9 1005 76 10000 3 350 06:31 05.09.2019
2498 Rain 9 1005 70 10000 2 350 05:50 05.09.2019
2499 Rain 9 1005 70 10000 2 350 05:30 05.09.2019
2500 Clouds 8 1005 81 10000 2 340 04:50 05.09.2019
2501 Clouds 8 1005 81 10000 2 340 04:25 05.09.2019
2502 Clouds 8 1005 81 10000 2 330 03:38 05.09.2019
2503 Clouds 8 1005 87 10000 3 330 02:46 05.09.2019
2504 Clouds 8 1005 87 10000 3 330 02:26 05.09.2019
2505 Clouds 8 1005 87 10000 2 360 01:37 05.09.2019
2506 Clouds 7 1005 93 10000 2 350 00:44 05.09.2019
2507 Rain 7 1005 93 10000 2 10 00:21 05.09.2019
2508 Clouds 7 1005 93 10000 2 360 23:55 04.09.2019
2509 Clouds 7 1005 93 10000 2 360 23:36 04.09.2019
2510 Clouds 7 1005 93 10000 2 360 23:18 04.09.2019
2511 Fog 7 1005 93 10000 2 360 22:40 04.09.2019
2512 Fog 7 1005 93 10000 1 330 22:19 04.09.2019
2513 Fog 7 1005 93 10000 1 330 21:40 04.09.2019
2514 Fog 6 1005 93 10000 4 20 21:20 04.09.2019
2515 Fog 6 1005 93 10000 4 20 20:57 04.09.2019
2516 Fog 6 1005 93 10000 4 20 20:39 04.09.2019
2517 Fog 6 1005 93 10000 1 340 20:19 04.09.2019
2518 Fog 6 1005 93 10000 1 340 19:56 04.09.2019
2519 Fog 6 1005 93 10000 1 340 19:38 04.09.2019
2520 Fog 6 1005 93 10000 1 50 19:19 04.09.2019
2521 Fog 6 1005 93 10000 1 50 18:38 04.09.2019
2522 Clouds 6 1005 93 10000 1.83 20.406 18:20 04.09.2019
2523 Clouds 6 1005 93 10000 1.83 20.406 17:42 04.09.2019
2524 Clouds 6 1005 93 10000 1.83 20.406 17:24 04.09.2019
2525 Clouds 6 1005 93 10000 2 20 16:58 04.09.2019
2526 Clouds 6 1005 93 10000 2 20 16:40 04.09.2019
2527 Clouds 6 1005 93 10000 2 20 16:40 04.09.2019
2528 Clouds 6 1005 93 10000 2 20 16:22 04.09.2019
2529 Clouds 6 1005 93 10000 1 50 15:56 04.09.2019
2530 Clouds 6 1005 93 10000 1 50 15:38 04.09.2019
2531 Clouds 5 1005 100 10000 2 30 15:20 04.09.2019
2532 Clouds 5 1005 100 10000 2 30 14:55 04.09.2019
2533 Clouds 5 1005 100 10000 2 30 14:36 04.09.2019
2534 Rain 6 1005 93 10000 1 30 14:18 04.09.2019
2535 Rain 6 1005 93 10000 1 30 13:40 04.09.2019
2536 Rain 6 1005 93 10000 1 10 13:21 04.09.2019
2537 Rain 6 1005 93 10000 1 10 12:56 04.09.2019
2538 Rain 6 1005 93 10000 1 10 12:37 04.09.2019
2539 Rain 6 1005 93 10000 1 10 12:37 04.09.2019
2540 Rain 6 1005 93 10000 3 20 12:18 04.09.2019
2541 Rain 6 1005 93 10000 3 20 11:41 04.09.2019
2542 Rain 6 1005 87 10000 2 20 11:21 04.09.2019
2543 Rain 7 1005 87 10000 2 20 10:59 04.09.2019
2544 Rain 7 1005 87 10000 2 20 10:40 04.09.2019
2545 Rain 7 1005 93 10000 3 10 10:21 04.09.2019
2546 Rain 7 1005 93 10000 3 10 09:46 04.09.2019
2547 Rain 7 1005 93 10000 3 10 09:22 04.09.2019
2548 Rain 7 1005 93 10000 1 360 08:58 04.09.2019
2549 Rain 7 1005 93 10000 3 360 08:39 04.09.2019
2550 Clouds 7 1005 81 10000 3 10 08:19 04.09.2019
2551 Rain 8 1004 87 10000 1 20 07:46 04.09.2019
2552 Rain 8 1004 87 10000 1 20 07:28 04.09.2019
2553 Rain 8 1004 81 10000 4 20 06:39 04.09.2019
2554 Clouds 9 1004 76 10000 4 10 04:57 04.09.2019
2555 Clouds 9 1004 70 10000 4 20 04:25 04.09.2019
2556 Rain 7 1004 87 10000 5 20 03:45 04.09.2019
2557 Rain 7 1004 87 10000 6 10 01:22 04.09.2019
2558 Rain 7 1004 87 10000 5 10 00:50 04.09.2019
2559 Rain 7 1004 87 10000 5 10 00:32 04.09.2019
2560 Rain 6 1004 87 10000 3 360 23:54 03.09.2019
2561 Rain 6 1004 87 10000 3 360 23:28 03.09.2019
2562 Rain 6 1004 87 10000 3 360 22:58 03.09.2019
2563 Rain 5 1004 93 10000 5 10 22:39 03.09.2019
2564 Rain 5 1004 86 10000 6 360 22:21 03.09.2019
2565 Rain 5 1004 86 10000 6 360 21:56 03.09.2019
2566 Rain 5 1004 86 10000 6 360 21:36 03.09.2019
2567 Rain 5 1003 86 10000 4 360 21:18 03.09.2019
2568 Rain 5 1003 86 10000 4 360 20:42 03.09.2019
2569 Clear 5 1003 80 10000 5 360 20:24 03.09.2019
2570 Clear 5 1003 80 10000 5 360 19:56 03.09.2019
2571 Clear 5 1003 80 10000 5 360 19:38 03.09.2019
2572 Clear 6 1003 75 10000 6 10 19:18 03.09.2019
2573 Clear 6 1003 75 10000 6 10 18:44 03.09.2019
2574 Clear 5 1003 80 10000 6 10 18:26 03.09.2019
2575 Clear 5 1003 80 10000 6 10 17:58 03.09.2019
2576 Clear 5 1003 80 10000 6 10 17:40 03.09.2019
2577 Clear 6 1003 75 10000 6 10 17:19 03.09.2019
2578 Clear 6 1003 75 10000 6 10 16:56 03.09.2019
2579 Clear 6 1003 75 10000 6 10 16:37 03.09.2019
2580 Clear 6 1002 75 10000 6 10 16:19 03.09.2019
2581 Clear 6 1002 75 10000 6 10 15:40 03.09.2019
2582 Clear 6 1002 81 10000 3 50 15:21 03.09.2019
2583 Clear 6 1002 81 10000 3 50 14:58 03.09.2019
2584 Clear 6 1002 81 10000 3 50 14:40 03.09.2019
2585 Clear 6 1003 75 10000 3 360 14:20 03.09.2019
2586 Clear 6 1003 75 10000 3 360 14:20 03.09.2019
2587 Clear 6 1003 75 10000 3 360 13:56 03.09.2019
2588 Clear 6 1003 75 10000 3 360 13:37 03.09.2019
2589 Clear 6 1002 75 10000 4 360 13:19 03.09.2019
2590 Clear 6 1002 75 10000 4 360 13:19 03.09.2019
2591 Clear 7 1002 75 10000 4 360 12:49 03.09.2019
2592 Clear 7 1002 75 10000 4 360 12:30 03.09.2019
2593 Clear 6 1002 75 10000 4 20 11:59 03.09.2019
2594 Clear 6 1002 75 10000 4 20 11:38 03.09.2019
2595 Clear 7 1002 70 10000 4 20 11:19 03.09.2019
2596 Clear 8 1002 70 10000 4 20 10:55 03.09.2019
2597 Clear 8 1002 70 10000 4 20 10:36 03.09.2019
2598 Clear 9 1002 61 10000 5 40 10:18 03.09.2019
2599 Clear 10 1002 61 10000 5 40 09:42 03.09.2019
2600 Clear 10 1002 61 10000 5 40 09:24 03.09.2019
2601 Clear 11 1001 62 10000 4 10 08:41 03.09.2019
2602 Clear 11 1001 62 10000 4 10 08:22 03.09.2019
2603 Clear 11 1001 62 10000 4 10 07:58 03.09.2019
2604 Clear 11 1001 66 10000 5 20 07:37 03.09.2019
2605 Clear 11 1001 66 10000 4 10 07:19 03.09.2019
2606 Clear 11 1001 62 10000 4 10 06:43 03.09.2019
2607 Clear 10 1001 66 10000 4 360 04:41 03.09.2019
2608 Clear 9 1001 70 10000 6 360 03:33 03.09.2019
2609 Clouds 8 1001 81 10000 6 10 02:40 03.09.2019
2610 Clouds 8 1001 81 10000 6 10 02:22 03.09.2019
2611 Clouds 8 1001 81 10000 7 10 01:46 03.09.2019
2612 Clouds 8 1001 81 10000 7 10 01:25 03.09.2019
2613 Clouds 7 1001 87 10000 8 10 00:37 03.09.2019
2614 Clouds 7 1001 87 10000 8 20 23:59 02.09.2019
2615 Clouds 7 1001 87 10000 9 10 23:38 02.09.2019
2616 Clouds 6 1001 93 10000 9 10 23:19 02.09.2019
2617 Clouds 6 1001 93 10000 9 10 22:56 02.09.2019
2618 Clouds 6 1001 93 10000 9 10 22:56 02.09.2019
2619 Clouds 6 1001 93 10000 8 10 22:37 02.09.2019
2620 Clouds 6 1001 93 10000 7 10 22:18 02.09.2019
2621 Clouds 6 1001 93 10000 7 10 22:18 02.09.2019
2622 Clouds 6 1001 93 10000 7 10 21:56 02.09.2019
2623 Clouds 6 1001 93 10000 7 10 21:37 02.09.2019
2624 Rain 6 1001 87 10000 8 20 21:19 02.09.2019
2625 Rain 6 1001 87 10000 8 20 20:42 02.09.2019
2626 Rain 6 1000 87 10000 7 30 20:23 02.09.2019
2627 Rain 6 1000 87 10000 7 30 19:59 02.09.2019
2628 Rain 6 1000 87 10000 7 30 19:41 02.09.2019
2629 Rain 5 1000 100 10000 6 10 19:23 02.09.2019
2630 Rain 5 1000 100 10000 6 10 18:57 02.09.2019
2631 Rain 5 1000 100 10000 6 10 18:37 02.09.2019
2632 Clouds 6 1000 93 10000 6 20 18:19 02.09.2019
2633 Clouds 6 1000 93 10000 6 20 17:55 02.09.2019
2634 Clouds 6 1000 93 10000 6 20 17:37 02.09.2019
2635 Clouds 6 1000 93 10000 5 20 17:18 02.09.2019
2636 Clouds 6 1000 93 10000 5 20 16:41 02.09.2019
2637 Clouds 6 1000 93 10000 5 10 16:21 02.09.2019
2638 Clouds 6 1000 93 10000 5 10 15:54 02.09.2019
2639 Clouds 6 1000 93 10000 5 10 15:36 02.09.2019
2640 Rain 6 1000 93 10000 5 10 15:18 02.09.2019
2641 Rain 6 1000 93 10000 5 10 14:55 02.09.2019
2642 Rain 6 1000 93 10000 5 10 14:36 02.09.2019
2643 Rain 6 1000 87 10000 6 20 14:18 02.09.2019
2644 Rain 7 1000 87 10000 6 20 13:41 02.09.2019
2645 Rain 7 1000 75 10000 7 10 13:23 02.09.2019
2646 Rain 8 1000 75 10000 7 10 12:45 02.09.2019
2647 Rain 8 1000 75 10000 7 10 12:26 02.09.2019
2648 Clear 8 1000 75 10000 4 30 11:59 02.09.2019
2649 Clear 8 1000 75 10000 4 30 11:40 02.09.2019
2650 Clear 8 999 70 10000 6 30 11:21 02.09.2019
2651 Clear 9 999 70 10000 6 30 10:58 02.09.2019
2652 Clear 9 999 76 10000 5 30 10:39 02.09.2019
2653 Clear 9 1000 76 10000 4 20 10:20 02.09.2019
2654 Clear 9 1000 76 10000 4 20 09:57 02.09.2019
2655 Clouds 10 999 71 10000 5 20 09:37 02.09.2019
2656 Clouds 10 999 66 10000 6 30 09:18 02.09.2019
2657 Clouds 12 999 62 10000 7 20 08:39 02.09.2019
2658 Clouds 13 999 62 10000 4 10 08:18 02.09.2019
2659 Clouds 13 999 58 10000 4 10 07:41 02.09.2019
2660 Clouds 13 1000 62 10000 5 360 07:21 02.09.2019
2661 Clouds 13 1000 58 10000 6 10 06:48 02.09.2019
2662 Clouds 13 1000 58 10000 6 10 06:29 02.09.2019
2663 Clouds 12 1000 66 10000 5 20 05:49 02.09.2019
2664 Clouds 12 1000 71 10000 5 10 05:19 02.09.2019
2665 Clouds 11 1001 66 10000 5 20 04:21 02.09.2019
2666 Clouds 11 1001 76 10000 5 30 01:48 02.09.2019
2667 Clouds 11 1002 76 10000 5 360 00:53 02.09.2019
2668 Clouds 11 1002 76 10000 5 360 00:32 02.09.2019
2669 Clouds 10 1002 87 10000 4 360 23:48 01.09.2019
2670 Clouds 9 1002 87 10000 4 360 23:23 01.09.2019
2671 Clouds 8 1002 93 10000 4 360 22:59 01.09.2019
2672 Fog 8 1002 87 10000 4 360 22:40 01.09.2019
2673 Mist 8 1003 93 2800 4 20 22:20 01.09.2019
2674 Mist 8 1003 93 2800 4 20 21:57 01.09.2019
2675 Mist 8 1003 93 2800 4 20 21:39 01.09.2019
2676 Clouds 7 1003 87 10000 4 20 21:21 01.09.2019
2677 Clouds 7 1003 87 10000 4 20 20:57 01.09.2019
2678 Clouds 7 1003 87 10000 4 20 20:38 01.09.2019
2679 Clouds 7 1003 87 10000 4 20 20:38 01.09.2019
2680 Clouds 7 1003 87 10000 5 10 20:18 01.09.2019
2681 Clouds 7 1003 87 10000 5 10 20:18 01.09.2019
2682 Clouds 7 1003 87 10000 5 10 19:58 01.09.2019
2683 Clouds 7 1003 87 10000 5 10 19:58 01.09.2019
2684 Clouds 7 1003 87 10000 5 10 19:37 01.09.2019
2685 Clear 7 1003 87 10000 4 10 19:19 01.09.2019
2686 Clear 8 1003 87 10000 4 10 18:43 01.09.2019
2687 Clear 9 1003 81 10000 3 20 18:25 01.09.2019
2688 Clear 9 1003 81 10000 3 20 17:56 01.09.2019
2689 Clear 9 1003 81 10000 3 20 17:38 01.09.2019
2690 Clear 9 1003 87 10000 5 10 17:19 01.09.2019
2691 Clear 9 1003 87 10000 5 10 17:19 01.09.2019
2692 Clear 9 1003 87 10000 5 10 16:41 01.09.2019
2693 Clear 8 1004 93 10000 1 60 16:19 01.09.2019
2694 Clear 8 1004 93 10000 1 60 15:49 01.09.2019
2695 Clear 8 1004 93 10000 1 60 15:31 01.09.2019
2696 Clouds 7 1004 100 10000 3 360 14:59 01.09.2019
2697 Clouds 7 1004 100 10000 3 360 14:40 01.09.2019
2698 Clouds 7 1004 100 10000 3 360 14:40 01.09.2019
2699 Clouds 7 1004 100 10000 1 20 14:21 01.09.2019
2700 Clouds 7 1004 100 10000 1 20 13:56 01.09.2019
2701 Clouds 7 1004 100 10000 1 20 13:37 01.09.2019
2702 Clouds 7 1005 100 10000 1 80 13:19 01.09.2019
2703 Clouds 8 1005 100 10000 1 80 12:41 01.09.2019
2704 Clouds 8 1005 100 10000 1 40 12:23 01.09.2019
2705 Clouds 8 1005 100 10000 1 40 11:41 01.09.2019
2706 Clouds 8 1005 100 10000 1 40 11:41 01.09.2019
2707 Rain 9 1005 93 10000 1 330 11:20 01.09.2019
2708 Rain 10 1005 93 10000 1 330 10:59 01.09.2019
2709 Rain 10 1005 93 10000 1 330 10:41 01.09.2019
2710 Rain 11 1005 87 10000 1 230 10:21 01.09.2019
2711 Rain 11 1005 87 10000 1 230 09:43 01.09.2019
2712 Rain 11 1005 87 10000 1 230 09:25 01.09.2019
2713 Rain 11 1005 87 10000 2 200 08:44 01.09.2019
2714 Rain 11 1005 87 10000 2 200 08:24 01.09.2019
2715 Rain 11 1006 87 10000 3 170 07:51 01.09.2019
2716 Rain 11 1006 87 10000 3 170 07:33 01.09.2019
2717 Clouds 12 1006 76 10000 2 160 06:47 01.09.2019
2718 Clouds 12 1006 76 10000 2 160 06:26 01.09.2019
2719 Rain 12 1006 76 10000 2 190 05:56 01.09.2019
2720 Rain 12 1006 76 10000 2 190 05:56 01.09.2019
2721 Clouds 12 1006 76 10000 2 270 04:32 01.09.2019
2722 Clouds 12 1007 76 10000 1 220 03:42 01.09.2019
2723 Rain 12 1007 76 10000 2 180 02:58 01.09.2019
2724 Rain 12 1007 76 10000 2 180 02:28 01.09.2019
2725 Rain 11 1008 81 10000 4 30 01:51 01.09.2019
2726 Rain 11 1008 81 10000 4 30 01:51 01.09.2019
2727 Clouds 11 1008 76 10000 5 30 01:23 01.09.2019
2728 Clouds 12 1008 76 10000 5 30 00:46 01.09.2019
2729 Clouds 12 1008 76 10000 4 10 00:22 01.09.2019
2730 Clouds 12 1008 76 10000 4 10 23:54 31.08.2019
2731 Clouds 12 1008 76 10000 4 10 23:36 31.08.2019
2732 Clouds 11 1008 76 10000 3 30 23:18 31.08.2019
2733 Clouds 11 1008 76 10000 3 30 23:18 31.08.2019
2734 Clouds 11 1008 76 10000 3 30 22:44 31.08.2019
2735 Clouds 11 1008 76 10000 3 30 22:25 31.08.2019
2736 Clouds 10 1008 87 10000 2 30 21:57 31.08.2019
2737 Clouds 10 1008 87 10000 2 30 21:38 31.08.2019
2738 Clouds 9 1008 87 10000 4 20 21:19 31.08.2019
2739 Clouds 9 1008 87 10000 4 20 20:47 31.08.2019
2740 Clouds 9 1008 87 10000 4 20 20:29 31.08.2019
2741 Clouds 8 1009 87 10000 2 40 19:56 31.08.2019
2742 Clouds 8 1009 87 10000 2 40 19:38 31.08.2019
2743 Clouds 8 1009 87 10000 2 40 19:38 31.08.2019
2744 Clouds 8 1009 87 10000 2 30 19:20 31.08.2019
2745 Clouds 8 1009 87 10000 2 30 18:40 31.08.2019
2746 Clouds 7 1009 93 10000 2 30 18:21 31.08.2019
2747 Clouds 7 1009 93 10000 2 30 17:58 31.08.2019
2748 Clouds 7 1009 93 10000 2 30 17:37 31.08.2019
2749 Clouds 7 1009 93 10000 2 30 17:37 31.08.2019
2750 Clouds 7 1010 87 10000 2 40 17:19 31.08.2019
2751 Clouds 7 1010 87 10000 2 40 17:19 31.08.2019
2752 Clouds 8 1010 87 10000 2 40 16:58 31.08.2019
2753 Clouds 8 1010 87 10000 2 40 16:40 31.08.2019
2754 Clouds 8 1010 87 10000 1 70 16:21 31.08.2019
2755 Clouds 8 1010 87 10000 1 70 16:21 31.08.2019
2756 Clouds 8 1010 87 10000 1 70 15:57 31.08.2019
2757 Clouds 8 1010 87 10000 1 70 15:36 31.08.2019
2758 Clouds 8 1010 81 10000 3 30 15:18 31.08.2019
2759 Clouds 9 1010 81 10000 3 30 14:41 31.08.2019
2760 Clouds 9 1010 81 10000 3 30 14:22 31.08.2019
2761 Clouds 9 1010 81 10000 1 90 13:42 31.08.2019
2762 Clouds 9 1011 81 10000 3 10 13:23 31.08.2019
2763 Clouds 9 1011 81 10000 3 10 12:59 31.08.2019
2764 Clouds 9 1011 81 10000 3 10 12:40 31.08.2019
2765 Clouds 9 1011 81 10000 1 30 12:20 31.08.2019
2766 Clouds 9 1011 81 10000 1 30 11:56 31.08.2019
2767 Clouds 9 1011 81 10000 1 30 11:38 31.08.2019
2768 Clouds 10 1011 76 10000 1 50 11:20 31.08.2019
2769 Clouds 10 1011 76 10000 1 50 10:43 31.08.2019
2770 Clouds 11 1011 66 10000 2 110 10:19 31.08.2019
2771 Clouds 11 1011 66 10000 2 110 10:19 31.08.2019
2772 Clouds 12 1011 66 10000 2 110 09:59 31.08.2019
2773 Clouds 12 1011 66 10000 2 110 09:38 31.08.2019
2774 Clouds 11 1011 71 10000 3 100 09:19 31.08.2019
2775 Clouds 11 1011 71 10000 3 100 08:43 31.08.2019
2776 Clouds 11 1011 71 10000 3 100 08:25 31.08.2019
2777 Clouds 12 1011 71 10000 5 100 07:42 31.08.2019
2778 Clouds 12 1011 66 10000 5 100 07:23 31.08.2019
2779 Clouds 13 1011 66 10000 5 100 06:49 31.08.2019
2780 Clouds 13 1012 71 10000 2 30 06:21 31.08.2019
2781 Clouds 13 1012 71 10000 2 30 05:34 31.08.2019
2782 Clouds 13 1012 71 10000 4 50 04:36 31.08.2019
2783 Clouds 13 1012 76 10000 4 20 03:50 31.08.2019
2784 Rain 13 1013 71 10000 4 50 02:50 31.08.2019
2785 Clouds 13 1013 71 10000 4 70 01:56 31.08.2019
2786 Clouds 13 1013 71 10000 4 70 01:36 31.08.2019
2787 Clouds 13 1013 71 10000 6 90 01:18 31.08.2019
2788 Clouds 13 1013 71 10000 6 90 00:41 31.08.2019
2789 Clouds 12 1013 71 10000 6 90 00:23 31.08.2019
2790 Clouds 12 1013 71 10000 6 90 23:40 30.08.2019
2791 Clouds 11 1013 81 10000 6 80 23:18 30.08.2019
2792 Clouds 11 1013 81 10000 6 80 22:43 30.08.2019
2793 Clouds 11 1013 81 10000 6 80 22:25 30.08.2019
2794 Clouds 11 1013 81 10000 6 90 21:59 30.08.2019
2795 Clouds 11 1013 81 10000 6 90 21:38 30.08.2019
2796 Clouds 11 1013 87 10000 6 100 21:20 30.08.2019
2797 Clouds 11 1013 87 10000 6 100 21:20 30.08.2019
2798 Clouds 11 1013 87 10000 6 100 20:59 30.08.2019
2799 Clouds 11 1013 87 10000 6 100 20:41 30.08.2019
2800 Clouds 10 1013 87 10000 8 100 20:21 30.08.2019
2801 Clouds 10 1013 87 10000 8 100 19:59 30.08.2019
2802 Clouds 10 1013 87 10000 8 100 19:39 30.08.2019
2803 Clouds 10 1013 87 10000 8 100 19:19 30.08.2019
2804 Clouds 10 1013 93 10000 7 100 18:55 30.08.2019
2805 Clouds 10 1013 93 10000 7 100 18:55 30.08.2019
2806 Clouds 10 1013 93 10000 7 100 18:37 30.08.2019
2807 Clouds 10 1013 93 10000 7 100 18:37 30.08.2019
2808 Clear 10 1014 87 10000 4 90 18:18 30.08.2019
2809 Clear 10 1014 87 10000 4 90 17:55 30.08.2019
2810 Clear 10 1014 87 10000 4 90 17:55 30.08.2019
2811 Clear 10 1014 87 10000 4 90 17:37 30.08.2019
2812 Clouds 10 1014 93 10000 6 100 17:18 30.08.2019
2813 Clouds 10 1014 93 10000 6 100 16:43 30.08.2019
2814 Clouds 10 1014 93 10000 6 100 16:22 30.08.2019
2815 Clouds 11 1014 87 10000 5 100 15:44 30.08.2019
2816 Clouds 11 1014 87 10000 5 100 15:24 30.08.2019
2817 Clouds 11 1014 87 10000 5 100 15:24 30.08.2019
2818 Clouds 11 1014 87 10000 4 90 14:57 30.08.2019
2819 Clouds 11 1014 87 10000 4 90 14:38 30.08.2019
2820 Rain 10 1014 93 10000 5 100 14:20 30.08.2019
2821 Rain 10 1014 93 10000 5 100 13:43 30.08.2019
2822 Clouds 11 1014 87 10000 6 120 13:23 30.08.2019
2823 Clouds 11 1014 87 10000 6 120 12:55 30.08.2019
2824 Clouds 11 1014 87 10000 6 120 12:36 30.08.2019
2825 Clouds 11 1014 87 10000 6 120 12:18 30.08.2019
2826 Clouds 11 1014 87 10000 6 120 11:41 30.08.2019
2827 Clouds 11 1014 87 10000 6 120 11:23 30.08.2019
2828 Rain 11 1014 93 6000 6 120 10:39 30.08.2019
2829 Rain 11 1014 93 6000 5 100 10:21 30.08.2019
2830 Rain 11 1014 93 6000 5 100 09:58 30.08.2019
2831 Rain 11 1014 87 10000 4 100 09:38 30.08.2019
2832 Rain 11 1014 87 10000 4 100 09:19 30.08.2019
2833 Clouds 11 1014 87 10000 4 100 08:44 30.08.2019
2834 Clouds 11 1014 87 10000 4 100 08:44 30.08.2019
2835 Clouds 11 1014 87 10000 4 100 08:25 30.08.2019
2836 Rain 11 1014 87 10000 4 100 07:58 30.08.2019
2837 Rain 11 1014 87 7000 4 100 07:38 30.08.2019
2838 Rain 11 1014 87 5000 5 90 07:20 30.08.2019
2839 Rain 11 1014 87 10000 6 80 06:43 30.08.2019
2840 Rain 11 1014 87 10000 6 80 06:24 30.08.2019
2841 Clouds 11 1014 81 10000 6 80 05:40 30.08.2019
2842 Clouds 12 1015 81 10000 6 100 03:58 30.08.2019
2843 Clouds 12 1015 81 10000 6 100 03:58 30.08.2019
2844 Rain 12 1015 81 10000 6 110 03:37 30.08.2019
2845 Rain 12 1015 81 10000 6 110 03:37 30.08.2019
2846 Rain 12 1015 87 9000 6 100 02:45 30.08.2019
2847 Rain 12 1015 87 9000 6 100 02:45 30.08.2019
2848 Rain 12 1015 87 9000 6 100 02:22 30.08.2019
2849 Rain 11 1015 87 10000 4 70 00:58 30.08.2019
2850 Rain 11 1015 81 10000 5 90 00:26 30.08.2019
2851 Rain 11 1015 81 10000 2 80 23:56 29.08.2019
2852 Rain 11 1015 87 10000 4 80 23:37 29.08.2019
2853 Rain 11 1015 81 9000 6 90 23:19 29.08.2019
2854 Rain 11 1015 81 10000 5 80 22:42 29.08.2019
2855 Rain 11 1015 81 10000 5 80 22:42 29.08.2019
2856 Rain 11 1015 81 10000 5 80 22:23 29.08.2019
2857 Rain 11 1015 81 10000 5 80 22:23 29.08.2019
2858 Rain 10 1015 87 10000 5 80 21:43 29.08.2019
2859 Rain 10 1015 87 10000 5 80 21:22 29.08.2019
2860 Clouds 10 1015 81 10000 6 100 20:59 29.08.2019
2861 Clouds 10 1015 81 10000 6 100 20:41 29.08.2019
2862 Clouds 10 1015 81 10000 6 100 20:20 29.08.2019
2863 Clouds 10 1015 87 10000 4 80 19:58 29.08.2019
2864 Clouds 10 1015 87 10000 4 80 19:39 29.08.2019
2865 Clouds 10 1015 87 10000 4 80 19:21 29.08.2019
2866 Clouds 10 1015 87 10000 3 80 18:42 29.08.2019
2867 Clouds 10 1015 87 10000 3 80 18:20 29.08.2019
2868 Clouds 10 1015 87 10000 3 60 17:56 29.08.2019
2869 Clouds 10 1015 87 10000 3 60 17:38 29.08.2019
2870 Clouds 10 1015 87 10000 3 60 17:19 29.08.2019
2871 Clouds 10 1015 87 10000 2 70 16:57 29.08.2019
2872 Clouds 10 1015 87 0 3.58 90 16:38 29.08.2019
2873 Clouds 10 1015 87 10000 2 60 16:20 29.08.2019
2874 Clouds 10 1015 87 10000 2 60 15:39 29.08.2019
2875 Clouds 10 1015 87 10000 2 100 15:20 29.08.2019
2876 Clouds 10 1015 87 10000 2 100 14:50 29.08.2019
2877 Clouds 10 1015 87 10000 2 100 14:24 29.08.2019
2878 Clouds 10 1015 87 10000 6 110 13:59 29.08.2019
2879 Clouds 10 1015 87 10000 6 110 13:39 29.08.2019
2880 Clouds 11 1015 81 10000 3 90 13:20 29.08.2019
2881 Clouds 11 1015 81 10000 3 90 12:59 29.08.2019
2882 Clouds 11 1015 81 10000 3 90 12:39 29.08.2019
2883 Rain 11 1015 87 10000 6 120 12:21 29.08.2019
2884 Rain 11 1015 87 10000 6 120 11:59 29.08.2019
2885 Rain 11 1015 87 10000 6 120 11:39 29.08.2019
2886 Clouds 11 1014 87 10000 5 100 11:19 29.08.2019
2887 Clouds 11 1014 87 10000 5 100 10:45 29.08.2019
2888 Clouds 11 1014 87 10000 5 100 10:25 29.08.2019
2889 Clouds 11 1014 87 10000 5 100 09:56 29.08.2019
2890 Clouds 11 1014 87 10000 5 100 09:38 29.08.2019
2891 Rain 11 1014 81 9000 6 90 09:18 29.08.2019
2892 Rain 12 1014 81 9000 6 90 08:41 29.08.2019
2893 Rain 12 1014 81 9000 6 90 08:22 29.08.2019
2894 Clouds 12 1014 81 10000 6 90 07:52 29.08.2019
2895 Clouds 12 1014 87 10000 6 100 07:30 29.08.2019
2896 Rain 12 1014 87 10000 4 120 06:54 29.08.2019
2897 Rain 13 1014 87 10000 4 120 06:33 29.08.2019
2898 Rain 13 1014 87 6000 2 120 05:48 29.08.2019
2899 Rain 12 1014 87 9000 2 80 04:51 29.08.2019
2900 Rain 13 1014 87 9000 2 80 04:30 29.08.2019
2901 Rain 14 1014 76 10000 3 150 03:35 29.08.2019
2902 Clouds 13 1014 82 10000 1 110 01:53 29.08.2019
2903 Rain 12 1014 87 10000 2 90 01:34 29.08.2019
2904 Rain 12 1014 87 10000 2 90 01:34 29.08.2019
2905 Rain 12 1014 87 10000 4 100 00:46 29.08.2019
2906 Rain 13 1014 67 10000 5 90 00:21 29.08.2019
2907 Rain 14 1014 67 10000 5 90 23:57 28.08.2019
2908 Clouds 14 1014 67 10000 5 90 23:38 28.08.2019
2909 Clouds 13 1014 71 10000 4 100 23:19 28.08.2019
2910 Clouds 13 1014 76 10000 3 80 22:39 28.08.2019
2911 Clear 13 1014 82 10000 4 80 22:19 28.08.2019
2912 Clear 13 1014 82 10000 4 80 21:59 28.08.2019
2913 Clear 13 1014 82 10000 4 80 21:41 28.08.2019
2914 Clear 13 1013 76 10000 6 100 21:22 28.08.2019
2915 Clear 13 1013 76 10000 6 100 20:56 28.08.2019
2916 Clear 13 1013 76 10000 6 100 20:38 28.08.2019
2917 Clear 12 1013 81 10000 4 70 20:19 28.08.2019
2918 Clear 12 1013 81 10000 4 70 19:42 28.08.2019
2919 Clear 12 1013 76 10000 7 110 19:21 28.08.2019
2920 Clear 13 1013 76 10000 7 110 18:57 28.08.2019
2921 Clear 13 1013 76 10000 7 110 18:37 28.08.2019
2922 Clear 12 1013 81 10000 5 100 18:19 28.08.2019
2923 Clear 12 1013 81 10000 5 100 17:38 28.08.2019
2924 Clear 12 1013 81 10000 5 100 17:19 28.08.2019
2925 Clear 12 1013 81 10000 5 100 16:45 28.08.2019
2926 Clear 12 1013 81 10000 5 100 16:23 28.08.2019
2927 Clouds 12 1013 81 10000 4 110 15:59 28.08.2019
2928 Clouds 12 1013 81 10000 4 110 15:38 28.08.2019
2929 Clear 13 1013 71 10000 3 120 15:19 28.08.2019
2930 Clear 14 1013 71 10000 3 120 14:57 28.08.2019
2931 Clear 13 1013 71 10000 3 120 14:38 28.08.2019
2932 Clear 13 1013 76 10000 4 110 14:20 28.08.2019
2933 Clear 13 1013 76 10000 4 110 13:58 28.08.2019
2934 Clear 13 1013 76 10000 4 110 13:38 28.08.2019
2935 Clouds 13 1013 71 10000 3 110 13:19 28.08.2019
2936 Clouds 13 1013 71 10000 3 110 12:42 28.08.2019
2937 Clouds 14 1013 71 10000 4 120 12:23 28.08.2019
2938 Clouds 14 1013 71 10000 4 120 11:56 28.08.2019
2939 Clouds 14 1013 71 10000 4 120 11:56 28.08.2019
2940 Clouds 14 1013 71 10000 4 120 11:37 28.08.2019
2941 Clouds 14 1012 71 10000 6 110 11:18 28.08.2019
2942 Clouds 14 1012 71 10000 6 110 10:41 28.08.2019
2943 Clouds 14 1012 71 10000 6 110 10:22 28.08.2019
2944 Clear 15 1012 67 10000 6 110 09:59 28.08.2019
2945 Clear 15 1012 67 10000 6 110 09:41 28.08.2019
2946 Clouds 15 1012 67 10000 6 90 09:19 28.08.2019
2947 Clouds 15 1012 67 10000 6 90 08:39 28.08.2019
2948 Clear 16 1012 63 10000 3 110 08:20 28.08.2019
2949 Clear 16 1012 67 10000 4 150 07:43 28.08.2019
2950 Clear 16 1012 67 10000 4 150 07:24 28.08.2019
2951 Clear 16 1012 63 10000 5 150 06:56 28.08.2019
2952 Clear 16 1012 63 10000 3 140 06:37 28.08.2019
2953 Clear 16 1012 63 10000 3 150 05:44 28.08.2019
2954 Clouds 15 1012 67 10000 4 150 03:32 28.08.2019
2955 Clouds 15 1012 67 10000 3 160 01:37 28.08.2019
2956 Clouds 14 1012 71 10000 2 150 01:18 28.08.2019
2957 Clouds 13 1012 82 10000 3 160 00:41 28.08.2019
2958 Clouds 13 1012 82 10000 3 160 23:59 27.08.2019
2959 Clouds 13 1012 82 10000 2 160 23:40 27.08.2019
2960 Clouds 13 1012 82 10000 2 160 23:40 27.08.2019
2961 Clouds 12 1012 87 10000 3 160 23:21 27.08.2019
2962 Clouds 12 1012 87 10000 3 160 22:54 27.08.2019
2963 Clouds 12 1012 87 10000 2 170 22:36 27.08.2019
2964 Clouds 12 1011 87 10000 2 170 22:18 27.08.2019
2965 Clouds 12 1011 87 10000 2 170 21:54 27.08.2019
2966 Clouds 12 1011 87 10000 2 170 21:36 27.08.2019
2967 Clouds 12 1011 81 10000 1 160 21:18 27.08.2019
2968 Clouds 12 1011 81 10000 1 160 20:41 27.08.2019
2969 Clouds 11 1011 87 10000 2 150 20:21 27.08.2019
2970 Clouds 11 1011 87 10000 2 150 19:58 27.08.2019
2971 Clouds 11 1011 87 10000 2 150 19:39 27.08.2019
2972 Clouds 11 1011 87 10000 2 140 19:21 27.08.2019
2973 Clouds 11 1011 87 10000 2 140 18:43 27.08.2019
2974 Clouds 10 1011 87 10000 1 130 18:19 27.08.2019
2975 Clouds 10 1011 87 10000 1 130 17:59 27.08.2019
2976 Clouds 10 1011 87 10000 1 130 17:41 27.08.2019
2977 Clouds 10 1011 87 10000 1 130 17:22 27.08.2019
2978 Fog 9 1011 81 10000 1 150 16:47 27.08.2019
2979 Fog 9 1011 81 10000 1 150 16:28 27.08.2019
2980 Clear 10 1011 87 10000 2 160 15:58 27.08.2019
2981 Clear 10 1011 87 10000 2 160 15:39 27.08.2019
2982 Clear 9 1011 87 10000 2 130 15:21 27.08.2019
2983 Clear 9 1011 87 10000 2 130 14:55 27.08.2019
2984 Clear 9 1011 87 10000 2 130 14:37 27.08.2019
2985 Clear 8 1011 87 10000 2 120 14:18 27.08.2019
2986 Clear 8 1011 87 10000 2 120 13:41 27.08.2019
2987 Clear 8 1010 87 10000 2 110 13:21 27.08.2019
2988 Clear 8 1010 87 10000 2 110 12:42 27.08.2019
2989 Clear 8 1010 81 10000 2 110 12:21 27.08.2019
2990 Clear 8 1010 81 10000 2 110 12:21 27.08.2019
2991 Clear 8 1010 81 10000 2 110 11:58 27.08.2019
2992 Clear 8 1010 81 10000 2 110 11:40 27.08.2019
2993 Clear 10 1010 81 10000 1 130 11:21 27.08.2019
2994 Clear 10 1010 81 10000 1 130 10:41 27.08.2019
2995 Clouds 13 1010 62 10000 5.17 222.734 10:20 27.08.2019
2996 Clouds 15 1010 62 10000 5.17 222.734 09:56 27.08.2019
2997 Clouds 15 1010 62 10000 5.17 222.734 09:37 27.08.2019
2998 Clouds 15 1009 62 10000 1 300 09:19 27.08.2019
2999 Clouds 15 1009 62 10000 1 300 08:45 27.08.2019
3000 Clouds 15 1009 62 10000 1 300 08:24 27.08.2019
3001 Clouds 16 1009 59 10000 3 280 07:55 27.08.2019
3002 Clouds 17 1009 51 10000 2 280 07:36 27.08.2019
3003 Clouds 17 1009 51 10000 2 280 07:36 27.08.2019
3004 Clouds 17 1009 55 10000 1 270 07:18 27.08.2019
3005 Clouds 16 1009 59 10000 1 280 06:44 27.08.2019
3006 Clear 16 1009 59 10000 2 310 06:19 27.08.2019
3007 Clear 16 1009 59 10000 2 310 06:19 27.08.2019
3008 Clear 17 1009 55 10000 2 320 05:26 27.08.2019
3009 Clear 16 1010 59 10000 2 280 03:43 27.08.2019
3010 Clear 15 1010 62 10000 3 300 02:40 27.08.2019
3011 Clear 15 1010 62 10000 3 240 01:46 27.08.2019
3012 Clear 15 1010 62 10000 3 270 01:24 27.08.2019
3013 Clear 15 1010 62 10000 5 280 00:49 27.08.2019
3014 Clear 15 1010 62 10000 5 280 00:28 27.08.2019
3015 Clear 13 1010 71 10000 2 340 23:40 26.08.2019
3016 Clear 13 1010 71 10000 2 340 23:22 26.08.2019
3017 Clear 12 1010 76 10000 2 350 22:59 26.08.2019
3018 Clear 13 1010 71 10000 3 350 22:37 26.08.2019
3019 Clear 12 1010 76 10000 3 360 22:18 26.08.2019
3020 Clear 12 1010 76 10000 3 360 21:39 26.08.2019
3021 Clear 12 1010 76 10000 3 360 21:21 26.08.2019
3022 Clear 11 1010 87 10000 3 20 20:58 26.08.2019
3023 Clear 11 1010 87 10000 3 20 20:58 26.08.2019
3024 Clear 11 1010 87 10000 3 20 20:39 26.08.2019
3025 Clear 11 1010 87 10000 3 20 20:20 26.08.2019
3026 Clear 9 1009 93 10000 3 10 19:56 26.08.2019
3027 Clear 9 1009 93 10000 3 10 19:38 26.08.2019
3028 Clear 9 1009 93 10000 3 10 19:18 26.08.2019
3029 Clouds 10 1009 87 10000 2 10 18:39 26.08.2019
3030 Clouds 10 1009 87 10000 2 10 18:20 26.08.2019
3031 Clear 10 1009 93 10000 2 20 17:59 26.08.2019
3032 Clear 10 1009 93 10000 2 20 17:40 26.08.2019
3033 Clear 10 1009 93 10000 2 20 17:19 26.08.2019
3034 Clear 9 1009 93 10000 1 10 16:56 26.08.2019
3035 Clear 9 1009 93 10000 1 10 16:38 26.08.2019
3036 Clear 9 1009 93 10000 1 10 16:18 26.08.2019
3037 Clear 9 1009 93 10000 1 10 16:18 26.08.2019
3038 Clear 10 1009 93 10000 1 60 15:42 26.08.2019
3039 Clear 10 1009 93 10000 1 60 15:22 26.08.2019
3040 Clear 8 1009 93 10000 1 70 14:56 26.08.2019
3041 Clear 8 1009 93 10000 1 70 14:37 26.08.2019
3042 Clear 8 1009 93 10000 1 70 14:18 26.08.2019
3043 Clear 10 1009 93 10000 1 50 13:40 26.08.2019
3044 Clear 10 1009 93 10000 1 50 13:21 26.08.2019
3045 Clear 12 1009 81 10000 1 280 12:43 26.08.2019
3046 Clear 12 1009 81 10000 1 280 12:25 26.08.2019
3047 Clear 10 1008 87 10000 2 110 11:56 26.08.2019
3048 Clear 10 1008 87 10000 2 110 11:37 26.08.2019
3049 Clear 10 1008 87 10000 2 110 11:18 26.08.2019
3050 Clear 13 1008 76 10000 2 100 10:44 26.08.2019
3051 Clear 13 1008 76 10000 2 100 10:24 26.08.2019
3052 Clear 16 1008 67 10000 2 150 09:59 26.08.2019
3053 Clear 16 1008 67 10000 2 150 09:39 26.08.2019
3054 Clear 16 1008 67 10000 2 150 09:21 26.08.2019
3055 Clear 17 1008 63 10000 1 200 08:55 26.08.2019
3056 Clear 17 1008 63 10000 1 200 08:36 26.08.2019
3057 Clear 17 1008 63 10000 1 200 08:18 26.08.2019
3058 Clear 17 1008 59 10000 1 190 07:41 26.08.2019
3059 Clear 17 1008 59 10000 1 190 07:41 26.08.2019
3060 Clear 18 1008 59 10000 1 190 07:22 26.08.2019
3061 Clear 17 1008 67 10000 2 160 06:45 26.08.2019
3062 Clear 17 1008 67 10000 2 160 06:24 26.08.2019
3063 Clear 18 1009 63 10000 1 220 05:49 26.08.2019
3064 Clear 17 1009 63 10000 3.92 218.774 04:31 26.08.2019
3065 Clear 16 1009 67 10000 1 210 02:56 26.08.2019
3066 Clear 16 1009 67 10000 1 310 01:40 26.08.2019
3067 Clear 16 1009 67 10000 1 310 01:21 26.08.2019
3068 Clear 15 1010 72 10000 1 300 00:41 26.08.2019
3069 Clear 15 1010 72 10000 1 300 00:22 26.08.2019
3070 Clear 15 1010 76 10000 2 330 23:43 25.08.2019
3071 Clear 14 1010 76 10000 2 330 23:19 25.08.2019
3072 Clouds 13 1010 87 10000 2 320 22:56 25.08.2019
3073 Clear 13 1010 87 10000 1 10 22:38 25.08.2019
3074 Clear 13 1010 87 10000 1 10 22:19 25.08.2019
3075 Clear 11 1010 87 10000 3 330 21:56 25.08.2019
3076 Clear 11 1010 87 10000 3 330 21:37 25.08.2019
3077 Clear 11 1010 87 10000 3 330 21:18 25.08.2019
3078 Clear 11 1010 87 10000 2 360 20:40 25.08.2019
3079 Clear 11 1010 87 10000 2 360 20:20 25.08.2019
3080 Clear 12 1009 81 10000 2 340 19:58 25.08.2019
3081 Clear 12 1009 81 10000 2 340 19:38 25.08.2019
3082 Clear 12 1009 81 10000 2 340 19:19 25.08.2019
3083 Clear 11 1009 93 10000 1 270 18:57 25.08.2019
3084 Clear 11 1009 93 10000 1 270 18:39 25.08.2019
3085 Clear 11 1010 87 10000 1 310 18:20 25.08.2019
3086 Clear 12 1010 87 10000 1 310 17:43 25.08.2019
3087 Clear 12 1010 87 10000 1 310 17:25 25.08.2019
3088 Clear 13 1010 82 10000 2.95 272.935 16:54 25.08.2019
3089 Clear 13 1010 82 10000 2.95 272.935 16:36 25.08.2019
3090 Clear 13 1010 82 10000 2.95 272.935 16:18 25.08.2019
3091 Clear 10 1010 87 10000 1 40 15:42 25.08.2019
3092 Clear 10 1010 87 10000 1 40 15:23 25.08.2019
3093 Clear 9 1010 93 10000 1 110 14:42 25.08.2019
3094 Clear 9 1010 93 10000 1 110 14:24 25.08.2019
3095 Clear 12 1009 87 10000 2 140 13:56 25.08.2019
3096 Clear 12 1009 87 10000 2 140 13:37 25.08.2019
3097 Clear 12 1009 87 10000 2 140 13:18 25.08.2019
3098 Clear 11 1009 93 10000 1 180 12:42 25.08.2019
3099 Clear 11 1009 93 10000 1 180 12:24 25.08.2019
3100 Rain 13 1009 82 10000 2 150 11:58 25.08.2019
3101 Rain 13 1009 82 10000 2 150 11:38 25.08.2019
3102 Rain 13 1009 82 10000 2 150 11:20 25.08.2019
3103 Clear 14 1009 82 10000 1 160 10:56 25.08.2019
3104 Clear 14 1009 82 10000 1 160 10:37 25.08.2019
3105 Clear 14 1009 82 10000 1 160 10:19 25.08.2019
3106 Clear 14 1009 82 10000 1 180 09:43 25.08.2019
3107 Clear 14 1009 82 10000 1 180 09:24 25.08.2019
3108 Clear 15 1009 77 10000 1 240 08:47 25.08.2019
3109 Clear 16 1009 72 10000 4.16 254.431 08:29 25.08.2019
3110 Clear 16 1009 72 10000 1 260 07:54 25.08.2019
3111 Clear 17 1009 63 10000 1 290 07:32 25.08.2019
3112 Clear 17 1009 63 10000 1 290 07:32 25.08.2019
3113 Clouds 17 1009 59 10000 2 280 06:39 25.08.2019
3114 Clouds 18 1009 59 10000 2 270 05:27 25.08.2019
3115 Clouds 18 1010 63 10000 2 280 03:48 25.08.2019
3116 Clouds 17 1010 63 10000 3 280 02:44 25.08.2019
3117 Clouds 17 1010 63 10000 3 280 02:20 25.08.2019
3118 Clouds 15 1011 77 10000 3 290 00:56 25.08.2019
3119 Clouds 15 1011 77 10000 3 290 00:24 25.08.2019
3120 Clear 15 1011 72 10000 2 300 23:58 24.08.2019
3121 Clear 15 1011 72 10000 2 300 23:40 24.08.2019
3122 Clear 15 1011 72 10000 2 300 23:22 24.08.2019
3123 Clear 13 1011 82 10000 1 300 22:54 24.08.2019
3124 Clear 13 1011 82 10000 1 300 22:36 24.08.2019
3125 Clear 13 1011 82 10000 1 300 22:18 24.08.2019
3126 Clouds 10 1012 93 10000 1 200 21:42 24.08.2019
3127 Clouds 10 1012 93 10000 1 200 21:42 24.08.2019
3128 Clouds 10 1012 93 10000 1 200 21:42 24.08.2019
3129 Clouds 10 1012 93 10000 1 200 21:23 24.08.2019
3130 Clouds 10 1012 87 10000 2 170 20:58 24.08.2019
3131 Clouds 10 1012 87 10000 2 170 20:40 24.08.2019
3132 Clouds 10 1012 87 10000 2 170 20:20 24.08.2019
3133 Clouds 10 1012 87 10000 3 170 19:58 24.08.2019
3134 Clouds 10 1012 87 10000 3 170 19:39 24.08.2019
3135 Clouds 10 1012 87 10000 3 170 19:21 24.08.2019
3136 Clouds 10 1012 87 10000 4 190 18:46 24.08.2019
3137 Clouds 10 1012 87 10000 4 190 18:25 24.08.2019
3138 Clouds 11 1012 81 10000 3 180 17:57 24.08.2019
3139 Clouds 11 1012 81 10000 3 180 17:39 24.08.2019
3140 Clouds 11 1012 81 10000 3 180 17:21 24.08.2019
3141 Clear 12 1012 76 10000 4 170 16:40 24.08.2019
3142 Clear 12 1012 76 10000 4 170 16:19 24.08.2019
3143 Clear 12 1013 76 10000 3 160 15:44 24.08.2019
3144 Clear 12 1013 76 10000 3 160 15:26 24.08.2019
3145 Clear 12 1013 76 10000 2 140 14:59 24.08.2019
3146 Clear 12 1013 76 10000 2 140 14:40 24.08.2019
3147 Clear 12 1013 76 10000 2 140 14:19 24.08.2019
3148 Clear 12 1014 71 10000 3 130 13:54 24.08.2019
3149 Clear 12 1014 71 10000 3 130 13:36 24.08.2019
3150 Clear 12 1014 71 10000 3 130 13:18 24.08.2019
3151 Clear 12 1014 71 10000 4 150 12:41 24.08.2019
3152 Clear 12 1014 71 10000 4 150 12:22 24.08.2019
3153 Clear 12 1014 71 10000 3 130 11:54 24.08.2019
3154 Clear 12 1014 71 10000 3 130 11:36 24.08.2019
3155 Clear 12 1014 71 10000 3 130 11:18 24.08.2019
3156 Clear 13 1014 62 10000 2 140 10:40 24.08.2019
3157 Clear 13 1014 62 10000 2 140 10:21 24.08.2019
3158 Clear 13 1014 62 10000 2 160 09:43 24.08.2019
3159 Clear 13 1014 62 10000 2 160 09:19 24.08.2019
3160 Clear 13 1015 62 10000 3 170 08:43 24.08.2019
3161 Clear 13 1015 62 10000 3 170 08:25 24.08.2019
3162 Clouds 14 1015 58 10000 2 210 07:53 24.08.2019
3163 Clouds 14 1015 58 10000 2 210 07:31 24.08.2019
3164 Clouds 15 1016 54 10000 3 270 06:53 24.08.2019
3165 Clouds 15 1016 54 10000 3 270 06:23 24.08.2019
3166 Clouds 15 1017 51 10000 4 290 05:39 24.08.2019
3167 Clouds 14 1018 67 10000 2 270 03:50 24.08.2019
3168 Clouds 14 1018 67 10000 2 270 03:31 24.08.2019
3169 Clouds 13 1018 71 10000 3 280 02:23 24.08.2019
3170 Clouds 13 1019 71 10000 3 270 01:29 24.08.2019
3171 Clouds 13 1019 76 10000 2 300 00:49 24.08.2019
3172 Clouds 13 1019 76 10000 2 300 00:24 24.08.2019
3173 Fog 12 1019 81 10000 1 320 23:47 23.08.2019
3174 Fog 12 1019 81 10000 1 320 23:23 23.08.2019
3175 Fog 10 1019 93 10000 2.7 239.447 22:58 23.08.2019
3176 Fog 10 1019 93 10000 2.7 239.447 22:40 23.08.2019
3177 Fog 10 1019 93 10000 2.7 239.447 22:20 23.08.2019
3178 Fog 9 1020 93 9000 2.64 243.202 21:37 23.08.2019
3179 Fog 9 1020 93 9000 2.38 261.084 21:19 23.08.2019
3180 Fog 6 1020 93 10000 1 80 20:53 23.08.2019
3181 Fog 6 1020 93 10000 1 80 20:35 23.08.2019
3182 Fog 2 1020 100 10000 3 90 19:54 23.08.2019
3183 Fog 2 1020 100 10000 3 90 19:54 23.08.2019
3184 Fog 2 1020 100 10000 3 90 19:36 23.08.2019
3185 Fog 2 1020 100 10000 3 90 19:18 23.08.2019
3186 Fog 2 1020 100 10000 3 90 19:18 23.08.2019
3187 Clouds 2 1020 93 10000 2 80 18:42 23.08.2019
3188 Clouds 2 1020 93 10000 2 80 18:24 23.08.2019
3189 Fog 1 1020 100 9000 2 40 17:46 23.08.2019
3190 Fog 1 1020 100 9000 2 40 17:28 23.08.2019
3191 Clear 2 1020 93 10000 2 30 16:59 23.08.2019
3192 Clear 2 1020 93 10000 2 30 16:40 23.08.2019
3193 Clear 2 1020 93 10000 2 30 16:22 23.08.2019
3194 Clear 3 1020 93 10000 2 50 15:41 23.08.2019
3195 Clear 3 1020 93 10000 2 50 15:22 23.08.2019
3196 Clear 4 1020 93 10000 1 60 14:58 23.08.2019
3197 Clear 4 1020 93 10000 1 60 14:39 23.08.2019
3198 Clear 4 1020 93 10000 1 60 14:20 23.08.2019
3199 Clouds 4 1020 93 10000 2 50 13:56 23.08.2019
3200 Clouds 4 1020 93 10000 2 50 13:37 23.08.2019
3201 Clouds 4 1020 93 10000 2 50 13:19 23.08.2019
3202 Clouds 4 1020 93 10000 2 50 13:19 23.08.2019
3203 Clouds 5 1020 93 10000 1 10 12:42 23.08.2019
3204 Clouds 5 1020 93 10000 1 10 12:24 23.08.2019
3205 Clouds 9 1020 87 10000 3.68 247.568 11:59 23.08.2019
3206 Clouds 9 1020 87 10000 3.68 247.568 11:41 23.08.2019
3207 Clouds 9 1020 87 10000 3.68 247.568 11:41 23.08.2019
3208 Clouds 9 1020 87 10000 3.68 247.568 11:20 23.08.2019
3209 Clouds 11 1020 81 10000 1 270 10:58 23.08.2019
3210 Clouds 11 1020 81 10000 1 270 10:58 23.08.2019
3211 Clouds 11 1020 81 10000 1 270 10:40 23.08.2019
3212 Clouds 11 1020 81 10000 1 270 10:21 23.08.2019
3213 Clouds 12 1020 76 10000 4 270 09:45 23.08.2019
3214 Clouds 12 1020 76 10000 4 270 09:45 23.08.2019
3215 Clouds 12 1020 76 10000 4 270 09:26 23.08.2019
3216 Clouds 12 1020 76 10000 5 270 08:57 23.08.2019
3217 Clouds 12 1020 76 10000 5 290 08:38 23.08.2019
3218 Clouds 12 1020 76 10000 5 290 08:18 23.08.2019
3219 Clouds 12 1020 71 10000 5 270 07:41 23.08.2019
3220 Clouds 13 1020 71 10000 5 270 07:23 23.08.2019
3221 Clouds 13 1020 62 10000 4 300 06:44 23.08.2019
3222 Clouds 13 1020 62 10000 4 300 06:23 23.08.2019
3223 Clouds 13 1020 66 10000 4 290 05:46 23.08.2019
3224 Clouds 13 1020 66 10000 4 290 05:27 23.08.2019
3225 Clouds 12 1020 71 10000 3 260 04:19 23.08.2019
3226 Clouds 11 1020 76 10000 2 250 02:49 23.08.2019
3227 Clouds 11 1020 76 10000 3 300 02:22 23.08.2019
3228 Clouds 10 1020 76 10000 2 240 01:38 23.08.2019
3229 Clouds 10 1020 71 10000 2.01 278.928 00:44 23.08.2019
3230 Clouds 10 1020 71 10000 0.77 30.412 00:19 23.08.2019
3231 Clouds 10 1020 81 10000 2 80 23:45 22.08.2019
3232 Clouds 9 1020 81 10000 2 80 23:23 22.08.2019
3233 Clouds 9 1019 81 10000 3 100 22:55 22.08.2019
3234 Rain 9 1019 81 10000 3 90 22:37 22.08.2019
3235 Rain 9 1019 81 10000 3 90 22:19 22.08.2019
3236 Rain 9 1019 81 10000 3 90 22:19 22.08.2019
3237 -273 0 0 0 0 0 21:42 22.08.2019
3238 Clouds 9 1018 76 10000 5 80 21:23 22.08.2019
3239 Clear 9 1017 76 10000 8 100 20:59 22.08.2019
3240 Clear 9 1017 76 10000 8 100 20:41 22.08.2019
3241 Clear 9 1017 76 10000 8 100 20:20 22.08.2019
3242 Clouds 9 1017 81 10000 8 100 19:59 22.08.2019
3243 Clouds 9 1017 81 10000 8 100 19:40 22.08.2019
3244 Clouds 9 1017 81 10000 8 100 19:21 22.08.2019
3245 Clear 9 1016 81 10000 11 110 18:59 22.08.2019
3246 Clear 9 1016 81 10000 11 110 18:40 22.08.2019
3247 Clear 9 1016 81 10000 11 110 18:20 22.08.2019
3248 Clear 10 1015 76 10000 11 100 17:57 22.08.2019
3249 Clear 10 1015 76 10000 11 100 17:57 22.08.2019
3250 Clear 10 1015 76 10000 11 100 17:39 22.08.2019
3251 Clear 10 1015 71 10000 11 100 17:19 22.08.2019
3252 Clear 10 1015 71 10000 11 100 16:56 22.08.2019
3253 Clear 10 1015 71 10000 11 100 16:37 22.08.2019
3254 Clear 10 1015 71 10000 11 100 16:19 22.08.2019
3255 Clear 10 1015 71 10000 11 100 16:19 22.08.2019
3256 Clear 11 1014 76 10000 11 110 15:42 22.08.2019
3257 Clear 11 1014 76 10000 11 110 15:42 22.08.2019
3258 Clear 11 1014 76 10000 11 110 15:42 22.08.2019
3259 Clear 11 1014 76 10000 11 110 15:42 22.08.2019
3260 Clear 11 1014 76 10000 11 110 15:24 22.08.2019
3261 Clear 11 1014 76 10000 11 110 15:24 22.08.2019
3262 Clear 11 1014 76 10000 11 110 15:24 22.08.2019
3263 Clear 13 1013 71 10000 2 160 14:59 22.08.2019
3264 Clear 13 1013 71 10000 2 160 14:41 22.08.2019
3265 Clear 13 1013 71 10000 2 160 14:21 22.08.2019
3266 Clear 13 1013 71 10000 3 170 13:58 22.08.2019
3267 Clear 13 1013 71 10000 3 170 13:39 22.08.2019
3268 Clear 13 1013 71 10000 3 170 13:19 22.08.2019
3269 Clear 14 1013 67 10000 2 110 12:56 22.08.2019
3270 Clear 14 1013 67 10000 2 110 12:37 22.08.2019
3271 Clear 14 1013 67 10000 2 110 12:19 22.08.2019
3272 Clear 14 1012 67 10000 0.72 302.803 11:42 22.08.2019
3273 Clear 14 1012 67 10000 0.72 302.803 11:20 22.08.2019
3274 Clear 14 1012 67 10000 3 130 10:58 22.08.2019
3275 Clear 14 1012 67 10000 3 130 10:40 22.08.2019
3276 Clear 14 1012 67 10000 3 130 10:21 22.08.2019
3277 Clear 15 1011 62 10000 2 150 09:56 22.08.2019
3278 Clear 15 1011 62 10000 2 170 09:38 22.08.2019
3279 Clear 16 1011 59 10000 4 140 09:20 22.08.2019
3280 Clear 16 1011 51 10000 1 360 08:42 22.08.2019
3281 Clear 17 1011 51 10000 1 360 08:22 22.08.2019
3282 Clear 19 1010 40 10000 3 340 07:58 22.08.2019
3283 Clear 19 1010 40 10000 3 340 07:39 22.08.2019
3284 Clear 19 1010 45 10000 2 340 07:19 22.08.2019
3285 Clear 19 1011 48 10000 2 10 06:47 22.08.2019
3286 Clear 19 1011 48 10000 2 10 06:22 22.08.2019
3287 Clear 19 1010 48 10000 3 20 05:29 22.08.2019
3288 Clear 18 1010 55 10000 5 360 03:44 22.08.2019
3289 Clear 16 1010 63 10000 4 330 02:37 22.08.2019
3290 Clear 15 1011 67 10000 3 330 01:39 22.08.2019
3291 Clear 14 1011 71 10000 4 340 00:57 22.08.2019
3292 Clear 13 1011 76 10000 4 300 00:39 22.08.2019
3293 Clouds 13 1011 76 10000 3 300 00:20 22.08.2019
3294 Clouds 12 1011 81 10000 4 300 23:42 21.08.2019
3295 Clouds 12 1011 81 10000 4 300 23:24 21.08.2019
3296 Clouds 12 1011 76 10000 2 300 22:58 21.08.2019
3297 Clouds 12 1011 76 10000 3 320 22:40 21.08.2019
3298 Clouds 12 1011 76 10000 3 320 22:20 21.08.2019
3299 Clear 11 1012 87 10000 1 320 21:56 21.08.2019
3300 Clear 11 1012 87 10000 1 320 21:38 21.08.2019
3301 Clear 11 1012 87 10000 1 320 21:38 21.08.2019
3302 Clear 11 1012 87 10000 1 320 21:19 21.08.2019
3303 Clear 7 1012 93 10000 3.62 271.823 20:56 21.08.2019
3304 Clear 7 1012 93 10000 3.62 271.823 20:38 21.08.2019
3305 Clear 5 1012 93 10000 1 80 20:20 21.08.2019
3306 Clear 3 1012 93 10000 1 80 19:43 21.08.2019
3307 Clear 3 1012 93 10000 1 80 19:24 21.08.2019
3308 Clear 4 1013 86 10000 2 90 18:58 21.08.2019
3309 Clear 4 1013 86 10000 2 90 18:39 21.08.2019
3310 Clear 4 1013 93 10000 1 100 18:20 21.08.2019
3311 Clear 4 1013 93 10000 1 100 17:45 21.08.2019
3312 Clear 4 1013 93 10000 1 100 17:23 21.08.2019
3313 Fog 4 1013 93 10000 3.52 268.357 16:58 21.08.2019
3314 Fog 4 1013 93 10000 3.52 268.357 16:40 21.08.2019
3315 Fog 4 1013 93 10000 3.52 268.357 16:20 21.08.2019
3316 Fog 5 1014 93 10000 1 90 15:58 21.08.2019
3317 Fog 5 1014 93 10000 1 90 15:38 21.08.2019
3318 Fog 5 1014 93 10000 1 90 15:20 21.08.2019
3319 Clear 5 1014 86 10000 1 90 14:56 21.08.2019
3320 Clear 5 1014 86 10000 1 90 14:38 21.08.2019
3321 Clear 5 1014 86 10000 1 90 14:19 21.08.2019
3322 Clear 5 1015 93 10000 2 90 13:43 21.08.2019
3323 Clear 5 1015 93 10000 2 90 13:21 21.08.2019
3324 Clear 6 1015 87 10000 2 80 12:58 21.08.2019
3325 Clear 6 1015 87 10000 2 80 12:40 21.08.2019
3326 Clear 6 1015 87 10000 2 80 12:20 21.08.2019
3327 Clear 6 1015 87 10000 2 80 12:20 21.08.2019
3328 Clear 7 1016 87 10000 2 90 11:56 21.08.2019
3329 Clear 7 1016 87 10000 2 90 11:37 21.08.2019
3330 Clear 7 1016 87 10000 2 90 11:19 21.08.2019
3331 Clear 9 1016 81 10000 1 80 10:56 21.08.2019
3332 Clear 9 1016 81 10000 1 80 10:37 21.08.2019
3333 Clear 9 1016 81 10000 1 80 10:19 21.08.2019
3334 Clear 13 1016 66 10000 2 300 09:42 21.08.2019
3335 Clear 13 1016 66 10000 2 300 09:23 21.08.2019
3336 Clear 15 1017 58 10000 3 290 08:57 21.08.2019
3337 Clear 15 1017 58 10000 3 290 08:38 21.08.2019
3338 Clear 15 1017 58 10000 3 290 08:19 21.08.2019
3339 Clear 15 1017 58 10000 3 290 07:40 21.08.2019
3340 Clear 15 1017 58 10000 3 290 07:20 21.08.2019
3341 Clear 15 1018 58 10000 4 300 06:47 21.08.2019
3342 Clear 15 1018 58 10000 4 300 06:21 21.08.2019
3343 Clear 15 1018 58 10000 5 300 05:38 21.08.2019
3344 Clear 15 1018 58 10000 5 300 05:18 21.08.2019
3345 Clear 15 1020 51 10000 3 330 03:23 21.08.2019
3346 Clear 14 1021 54 10000 4 340 01:42 21.08.2019
3347 Clear 14 1021 54 10000 4 350 00:44 21.08.2019
3348 Clear 14 1021 54 10000 4 350 00:24 21.08.2019
3349 Clear 13 1022 58 10000 4 360 23:56 20.08.2019
3350 Clear 13 1022 62 10000 4 10 23:38 20.08.2019
3351 Clear 13 1022 62 10000 4 10 23:18 20.08.2019
3352 Clear 12 1022 71 10000 3 10 22:55 20.08.2019
3353 Clear 11 1022 76 10000 3 350 22:36 20.08.2019
3354 Clear 11 1022 76 10000 3 350 22:18 20.08.2019
3355 Clear 6 1023 87 10000 2 340 21:56 20.08.2019
3356 Clear 6 1023 87 10000 2 340 21:37 20.08.2019
3357 Clear 6 1023 87 10000 2 340 21:18 20.08.2019
3358 Clear 5 1023 80 10000 1 350 20:42 20.08.2019
3359 Clear 5 1023 80 10000 1 350 20:42 20.08.2019
3360 Clear 5 1023 80 10000 1 350 20:42 20.08.2019
3361 Clear 5 1023 80 10000 1 350 20:24 20.08.2019
3362 Clear 2 1023 80 10000 2 60 19:54 20.08.2019
3363 Clear 2 1023 80 10000 2 60 19:36 20.08.2019
3364 Clear 2 1023 80 10000 2 60 19:36 20.08.2019
3365 Clear 1 1024 80 10000 2 80 19:18 20.08.2019
3366 Clear 1 1024 80 10000 2 80 18:54 20.08.2019
3367 Clear 1 1024 80 10000 2 80 18:54 20.08.2019
3368 Clouds 8 1023 80 0 1.17 296.084 18:36 20.08.2019
3369 Clear 1 1024 81 10000 3 60 18:18 20.08.2019
3370 Clear 1 1024 81 10000 3 60 17:39 20.08.2019
3371 Clear 2 1024 93 10000 3 80 17:20 20.08.2019
3372 Clear 2 1024 93 10000 3 80 16:47 20.08.2019
3373 Clear 2 1024 93 10000 3 80 16:28 20.08.2019
3374 Clear 3 1025 86 10000 2 100 15:59 20.08.2019
3375 Clear 3 1025 86 10000 2 100 15:41 20.08.2019
3376 Clear 5 1025 80 10000 2 70 15:18 20.08.2019
3377 Clear 5 1025 80 10000 2 70 14:44 20.08.2019
3378 Clear 5 1025 80 10000 2 70 14:22 20.08.2019
3379 Clear 6 1025 81 10000 2 120 13:59 20.08.2019
3380 Clear 6 1025 81 10000 2 120 13:40 20.08.2019
3381 Clear 6 1025 81 10000 2 90 13:21 20.08.2019
3382 Clear 7 1025 81 10000 2 90 12:55 20.08.2019
3383 Clear 7 1025 81 10000 2 90 12:36 20.08.2019
3384 Clear 7 1025 75 10000 3 110 12:18 20.08.2019
3385 Clear 8 1025 75 10000 3 110 11:42 20.08.2019
3386 Clear 8 1025 75 10000 3 110 11:22 20.08.2019
3387 Clear 10 1025 87 10000 1 150 10:58 20.08.2019
3388 Clear 10 1025 87 10000 1 150 10:39 20.08.2019
3389 Clear 10 1025 87 10000 1 150 10:39 20.08.2019
3390 Clouds 11 1025 76 10000 1 130 10:21 20.08.2019
3391 Clouds 12 1025 76 10000 1 130 09:58 20.08.2019
3392 Clouds 12 1025 76 10000 1 130 09:40 20.08.2019
3393 Clouds 12 1024 71 10000 4 60 09:21 20.08.2019
3394 Clouds 13 1024 71 10000 4 60 08:42 20.08.2019
3395 Clouds 13 1024 71 10000 4 60 08:24 20.08.2019
3396 Clouds 14 1024 58 10000 4 40 07:57 20.08.2019
3397 Clouds 14 1024 58 10000 4 40 07:57 20.08.2019
3398 Clouds 14 1024 58 10000 4 40 07:57 20.08.2019
3399 Clouds 14 1024 58 10000 4 50 07:38 20.08.2019
3400 Clouds 14 1024 58 10000 6 60 07:20 20.08.2019
3401 Clouds 14 1024 62 10000 5 40 06:44 20.08.2019
3402 Clouds 14 1024 58 10000 5 50 06:20 20.08.2019
3403 Clouds 14 1024 58 10000 6 60 05:42 20.08.2019
3404 Clouds 14 1024 58 10000 5 50 04:26 20.08.2019
3405 Clouds 14 1024 67 10000 2 30 02:50 20.08.2019
3406 Clouds 14 1024 71 10000 4 80 01:53 20.08.2019
3407 Clouds 13 1023 76 10000 2 50 01:21 20.08.2019
3408 Clouds 14 1023 76 10000 4 30 00:45 20.08.2019
3409 Clouds 14 1023 76 10000 4 30 00:24 20.08.2019
3410 Clouds 13 1023 87 10000 6 30 23:45 19.08.2019
3411 Clouds 12 1023 87 10000 4 20 23:19 19.08.2019
3412 Clouds 12 1023 87 10000 4 20 22:58 19.08.2019
3413 Clouds 11 1023 100 10000 4 10 22:40 19.08.2019
3414 Clouds 10 1022 100 10000 3 10 22:20 19.08.2019
3415 Clouds 10 1022 100 10000 3 10 21:57 19.08.2019
3416 Clouds 10 1022 100 10000 3 10 21:38 19.08.2019
3417 Fog 9 1022 100 10000 6 10 21:19 19.08.2019
3418 Fog 9 1022 100 10000 6 10 20:54 19.08.2019
3419 Fog 9 1022 100 10000 6 10 20:36 19.08.2019
3420 Fog 10 1022 100 9000 4 340 20:18 19.08.2019
3421 Fog 10 1022 100 9000 4 340 19:54 19.08.2019
3422 Fog 10 1022 100 9000 4 340 19:36 19.08.2019
3423 Fog 10 1022 100 9000 4 340 19:36 19.08.2019
3424 Fog 10 1022 100 6000 3 350 19:18 19.08.2019
3425 Fog 10 1022 100 6000 3 350 18:40 19.08.2019
3426 Fog 11 1022 100 550 3 340 18:22 19.08.2019
3427 Fog 11 1022 100 550 3 340 17:56 19.08.2019
3428 Fog 11 1022 100 550 3 340 17:38 19.08.2019
3429 Fog 11 1022 100 1300 3 330 17:19 19.08.2019
3430 Fog 11 1022 100 1300 3 330 16:54 19.08.2019
3431 Fog 11 1022 100 1300 3 330 16:36 19.08.2019
3432 Fog 11 1022 100 1300 3 330 16:18 19.08.2019
3433 Fog 11 1022 100 1300 3 330 16:18 19.08.2019
3434 Rain 11 1022 93 3100 2 350 15:43 19.08.2019
3435 Rain 11 1022 93 3100 2 350 15:19 19.08.2019
3436 Fog 10 1022 100 8000 1 20 14:44 19.08.2019
3437 Fog 10 1022 100 8000 1 20 14:24 19.08.2019
3438 Clouds 11 1023 93 10000 2 360 13:58 19.08.2019
3439 Clouds 11 1023 93 10000 2 360 13:40 19.08.2019
3440 Clouds 11 1023 93 10000 2 360 13:20 19.08.2019
3441 Clouds 11 1023 93 10000 2 360 13:20 19.08.2019
3442 Fog 11 1023 100 10000 3 330 12:58 19.08.2019
3443 Fog 11 1023 100 10000 3 330 12:40 19.08.2019
3444 Fog 11 1023 100 10000 3 330 12:20 19.08.2019
3445 Fog 11 1023 100 10000 2 330 11:41 19.08.2019
3446 Fog 11 1023 100 10000 2 330 11:23 19.08.2019
3447 Fog 12 1024 93 9000 4 310 10:58 19.08.2019
3448 Fog 12 1024 93 9000 4 310 10:39 19.08.2019
3449 Fog 12 1024 93 9000 4 310 10:19 19.08.2019
3450 Rain 12 1024 100 9000 3 320 09:54 19.08.2019
3451 Rain 12 1024 100 9000 3 320 09:36 19.08.2019
3452 Rain 12 1024 100 9000 3 320 09:18 19.08.2019
3453 Rain 13 1024 87 10000 3 310 08:41 19.08.2019
3454 Rain 13 1024 87 10000 3 310 08:20 19.08.2019
3455 Clouds 13 1024 87 10000 4 310 07:52 19.08.2019
3456 Clouds 14 1024 82 10000 4 310 07:32 19.08.2019
3457 Clouds 14 1024 82 10000 3 310 06:59 19.08.2019
3458 Clouds 14 1025 82 10000 4 300 06:36 19.08.2019
3459 Clouds 14 1025 82 10000 3 270 05:26 19.08.2019
3460 Clouds 14 1025 82 10000 2 260 04:33 19.08.2019
3461 Clouds 13 1026 87 10000 2 200 03:25 19.08.2019
3462 Clouds 12 1026 87 10000 2 190 02:30 19.08.2019
3463 Fog 13 1027 82 10000 2 170 01:36 19.08.2019
3464 Fog 12 1027 87 10000 2 180 00:46 19.08.2019
3465 Fog 12 1027 87 10000 2 180 00:23 19.08.2019
3466 Fog 12 1027 87 10000 4 150 23:43 18.08.2019
3467 Fog 12 1027 87 10000 4 150 23:22 18.08.2019
3468 Fog 12 1027 87 10000 3 140 22:59 18.08.2019
3469 Fog 11 1028 93 10000 4 120 22:39 18.08.2019
3470 Fog 11 1028 93 10000 4 120 22:21 18.08.2019
3471 Fog 10 1028 93 10000 7 110 21:56 18.08.2019
3472 Clouds 10 1028 93 10000 8 110 21:37 18.08.2019
3473 Clouds 10 1028 93 10000 8 110 21:19 18.08.2019
3474 Fog 10 1028 93 10000 7 100 20:45 18.08.2019
3475 Fog 10 1028 93 10000 7 100 20:26 18.08.2019
3476 Clouds 9 1029 93 10000 5 110 19:59 18.08.2019
3477 Clouds 9 1029 93 10000 5 110 19:40 18.08.2019
3478 Clouds 9 1029 93 10000 5 110 19:40 18.08.2019
3479 Clouds 9 1029 93 10000 5 110 19:22 18.08.2019
3480 Rain 9 1029 93 10000 6 120 18:54 18.08.2019
3481 Rain 9 1029 93 10000 6 120 18:36 18.08.2019
3482 Rain 9 1029 93 10000 6 120 18:36 18.08.2019
3483 Rain 9 1029 93 10000 6 120 18:18 18.08.2019
3484 Rain 9 1030 93 9000 3 150 17:43 18.08.2019
3485 Rain 9 1030 93 9000 3 150 17:19 18.08.2019
3486 Rain 9 1030 93 9000 3 150 17:19 18.08.2019
3487 Rain 9 1030 100 10000 5 140 16:59 18.08.2019
3488 Rain 9 1030 100 10000 5 140 16:40 18.08.2019
3489 Rain 9 1030 100 10000 5 140 16:20 18.08.2019
3490 Rain 9 1030 100 2200 7 150 15:58 18.08.2019
3491 Rain 9 1030 100 2200 7 150 15:38 18.08.2019
3492 Rain 9 1030 100 2200 7 150 15:20 18.08.2019
3493 Rain 9 1030 100 2200 7 150 15:20 18.08.2019
3494 Rain 9 1030 100 2200 7 150 15:20 18.08.2019
3495 Rain 10 1031 93 3900 6 130 14:56 18.08.2019
3496 Rain 10 1031 93 3900 6 130 14:37 18.08.2019
3497 Rain 10 1031 93 3900 6 130 14:37 18.08.2019
3498 Rain 10 1031 93 3900 6 130 14:18 18.08.2019
3499 Rain 10 1031 93 8000 6 120 13:43 18.08.2019
3500 Rain 10 1031 93 8000 6 120 13:24 18.08.2019
3501 Rain 10 1031 93 10000 3 300 12:59 18.08.2019
3502 Rain 10 1031 93 10000 3 300 12:39 18.08.2019
3503 Rain 10 1031 93 10000 3 300 12:21 18.08.2019
3504 Rain 10 1031 93 10000 3 300 12:21 18.08.2019
3505 Rain 10 1031 93 9000 9 110 11:44 18.08.2019
3506 Rain 10 1031 93 9000 9 110 11:23 18.08.2019
3507 Rain 10 1031 93 10000 9 110 10:59 18.08.2019
3508 Rain 10 1031 93 10000 9 110 10:40 18.08.2019
3509 Rain 10 1031 93 10000 9 110 10:40 18.08.2019
3510 Rain 10 1032 93 10000 4 100 10:19 18.08.2019
3511 Rain 10 1032 93 10000 4 100 09:45 18.08.2019
3512 Rain 10 1032 93 10000 4 100 09:21 18.08.2019
3513 Rain 10 1032 87 10000 4 60 08:45 18.08.2019
3514 Rain 10 1032 87 10000 4 60 08:25 18.08.2019
3515 Rain 10 1033 93 9000 8 100 07:59 18.08.2019
3516 Rain 10 1033 93 9000 8 100 07:41 18.08.2019
3517 Rain 10 1033 93 9000 8 100 07:22 18.08.2019
3518 Rain 10 1032 93 7000 11 100 05:45 18.08.2019
3519 Rain 10 1033 93 10000 4 40 04:44 18.08.2019
3520 Rain 10 1034 93 9000 8 100 03:22 18.08.2019
3521 Mist 10 1034 93 3300 6 100 02:45 18.08.2019
3522 Mist 10 1034 93 3300 6 100 02:18 18.08.2019
3523 Rain 10 1034 87 10000 8 100 01:29 18.08.2019
3524 Clouds 10 1035 87 10000 11 110 00:43 18.08.2019
3525 Clouds 10 1035 87 10000 11 110 00:24 18.08.2019
3526 Fog 10 1035 87 10000 12 100 23:58 17.08.2019
3527 Fog 10 1035 87 10000 12 100 23:58 17.08.2019
3528 Fog 10 1035 87 10000 12 100 23:39 17.08.2019
3529 Fog 10 1035 87 10000 12 100 23:21 17.08.2019
3530 Fog 10 1035 87 9000 2 50 22:59 17.08.2019
3531 Fog 10 1035 87 9000 2 50 22:41 17.08.2019
3532 Fog 10 1035 87 9000 2 50 22:23 17.08.2019
3533 Clouds 10 1035 87 10000 2 60 21:55 17.08.2019
3534 Clouds 10 1035 87 10000 2 60 21:37 17.08.2019
3535 Rain 9 1035 93 10000 7 100 21:19 17.08.2019
3536 Rain 9 1035 93 10000 7 100 20:39 17.08.2019
3537 Rain 9 1035 93 10000 7 100 20:20 17.08.2019
3538 Rain 9 1035 93 10000 5 50 19:56 17.08.2019
3539 Rain 9 1035 93 10000 5 50 19:38 17.08.2019
3540 Rain 9 1035 93 10000 5 50 19:19 17.08.2019
3541 Rain 9 1035 93 10000 9 90 18:41 17.08.2019
3542 Rain 9 1035 93 10000 8 90 18:19 17.08.2019
3543 Rain 9 1035 93 10000 8 90 17:56 17.08.2019
3544 Rain 9 1035 93 10000 8 90 17:38 17.08.2019
3545 Rain 9 1035 93 10000 8 90 17:20 17.08.2019
3546 Rain 10 1035 87 10000 7 90 16:44 17.08.2019
3547 Rain 10 1035 87 10000 7 90 16:26 17.08.2019
3548 Rain 10 1035 81 10000 8 100 15:58 17.08.2019
3549 Rain 10 1035 81 10000 8 100 15:39 17.08.2019
3550 Rain 10 1035 81 10000 8 100 15:20 17.08.2019
3551 Rain 10 1035 81 10000 8 100 15:20 17.08.2019
3552 Rain 10 1036 81 10000 6 100 14:41 17.08.2019
3553 Rain 10 1036 81 10000 6 100 14:41 17.08.2019
3554 Rain 10 1036 81 10000 6 100 14:41 17.08.2019
3555 Rain 10 1036 81 10000 6 100 14:23 17.08.2019
3556 Clear 10 1036 81 10000 8 100 13:49 17.08.2019
3557 Clear 10 1036 81 10000 8 100 13:23 17.08.2019
3558 Rain 10 1036 81 10000 8 100 12:59 17.08.2019
3559 Rain 10 1036 81 10000 8 100 12:41 17.08.2019
3560 Rain 10 1036 81 10000 8 100 12:19 17.08.2019
3561 Clear 10 1036 81 10000 8 100 11:56 17.08.2019
3562 Clear 10 1036 81 10000 8 100 11:36 17.08.2019
3563 Clear 10 1036 81 10000 8 100 11:18 17.08.2019
3564 Clouds 10 1036 76 10000 8 100 10:39 17.08.2019
3565 Clouds 10 1036 76 10000 8 100 10:19 17.08.2019
3566 Clouds 10 1035 76 10000 5 90 09:49 17.08.2019
3567 Clouds 10 1035 76 10000 5 90 09:30 17.08.2019
3568 Clouds 11 1035 71 10000 8 100 08:54 17.08.2019
3569 Clouds 11 1035 71 10000 8 100 08:25 17.08.2019
3570 Clouds 11 1035 71 10000 8 110 07:52 17.08.2019
3571 Clouds 11 1035 71 10000 8 110 07:22 17.08.2019
3572 Clouds 11 1035 71 10000 6 110 06:54 17.08.2019
3573 Clouds 12 1035 66 10000 7 90 05:55 17.08.2019
3574 Clouds 12 1035 66 10000 8 110 04:30 17.08.2019
3575 Clouds 13 1035 62 10000 8 100 03:35 17.08.2019
3576 Clouds 12 1034 62 10000 8 90 01:48 17.08.2019
3577 Clouds 12 1034 62 10000 8 90 01:29 17.08.2019
3578 Clouds 11 1033 66 10000 7 90 00:55 17.08.2019
3579 Clouds 11 1033 66 10000 7 90 00:31 17.08.2019
3580 Clear 11 1033 62 10000 6 80 23:52 16.08.2019
3581 Clear 11 1033 62 10000 6 80 23:30 16.08.2019
3582 Clear 11 1033 62 10000 6 80 22:58 16.08.2019
3583 Clear 11 1033 62 10000 6 80 22:39 16.08.2019
3584 Clear 11 1033 62 10000 6 80 22:19 16.08.2019
3585 Clear 10 1032 61 10000 1 40 21:42 16.08.2019
3586 Clear 10 1032 61 10000 1 40 21:21 16.08.2019
3587 Clear 9 1031 66 10000 3 10 20:57 16.08.2019
3588 Clear 9 1031 66 10000 3 10 20:39 16.08.2019
3589 Clear 9 1031 66 10000 3 10 20:19 16.08.2019
3590 Clear 8 1031 70 10000 3 20 19:44 16.08.2019
3591 Clear 8 1031 70 10000 3 20 19:23 16.08.2019
3592 Clear 9 1030 61 10000 3 40 18:55 16.08.2019
3593 Clear 9 1030 61 10000 3 40 18:36 16.08.2019
3594 Clear 8 1030 70 10000 2 40 18:18 16.08.2019
3595 Clear 8 1030 70 10000 2 40 17:43 16.08.2019
3596 Clear 8 1030 70 10000 2 40 17:24 16.08.2019
3597 Clear 8 1030 75 10000 2 60 16:56 16.08.2019
3598 Clear 8 1030 75 10000 2 60 16:37 16.08.2019
3599 Clear 8 1030 75 10000 2 60 16:18 16.08.2019
3600 Clear 7 1028 81 10000 2 50 15:41 16.08.2019
3601 Clear 7 1028 81 10000 2 50 15:22 16.08.2019
3602 Clear 9 1029 76 10000 3 120 14:58 16.08.2019
3603 Clear 9 1029 76 10000 3 120 14:39 16.08.2019
3604 Clear 9 1029 76 10000 3 120 14:19 16.08.2019
3605 Clear 9 1028 76 10000 2 140 13:57 16.08.2019
3606 Clear 9 1028 76 10000 2 140 13:37 16.08.2019
3607 Clear 9 1028 76 10000 2 140 13:19 16.08.2019
3608 Clear 6 1027 75 10000 1 80 12:39 16.08.2019
3609 Clear 6 1027 75 10000 1 80 12:20 16.08.2019
3610 Clear 7 1027 70 10000 2 60 11:42 16.08.2019
3611 Clear 7 1027 70 10000 2 60 11:24 16.08.2019
3612 Clear 9 1027 70 10000 3 30 10:54 16.08.2019
3613 Clear 9 1027 70 10000 3 30 10:36 16.08.2019
3614 Clear 9 1027 70 10000 3 30 10:18 16.08.2019
3615 Clear 12 1026 54 10000 3 10 09:38 16.08.2019
3616 Clear 12 1026 54 10000 3 10 09:18 16.08.2019
3617 Clear 13 1026 47 10000 4 20 08:56 16.08.2019
3618 Clear 13 1026 47 10000 5 20 08:37 16.08.2019
3619 Clear 13 1026 47 10000 5 20 08:18 16.08.2019
3620 Clear 13 1025 47 10000 4 20 07:42 16.08.2019
3621 Clear 13 1025 47 10000 4 20 07:24 16.08.2019
3622 Clear 13 1025 43 10000 6 10 06:33 16.08.2019
3623 Clouds 13 1025 43 10000 6 10 05:43 16.08.2019
3624 Clouds 13 1025 47 10000 6 10 04:33 16.08.2019
3625 Clouds 12 1025 54 10000 6 350 03:18 16.08.2019
3626 Clouds 10 1025 66 10000 6 350 01:43 16.08.2019
3627 Clouds 9 1025 66 10000 6 350 01:21 16.08.2019
3628 Clouds 7 1025 70 10000 5 330 00:43 16.08.2019
3629 Clouds 7 1025 70 10000 5 330 00:22 16.08.2019
3630 Clouds 6 1024 75 10000 4 340 23:45 15.08.2019
3631 Clouds 6 1024 75 10000 4 340 23:22 15.08.2019
3632 Clouds 6 1024 75 10000 5 340 22:58 15.08.2019
3633 Clouds 5 1024 75 10000 5 10 22:40 15.08.2019
3634 Clouds 5 1024 75 10000 5 10 22:21 15.08.2019
3635 Clouds 5 1023 80 10000 6 340 21:56 15.08.2019
3636 Clouds 5 1023 80 10000 6 340 21:38 15.08.2019
3637 Clouds 5 1023 80 10000 6 340 21:18 15.08.2019
3638 Clouds 2 1023 72 10000 3 20 20:43 15.08.2019
3639 Clouds 2 1023 72 10000 3 20 20:22 15.08.2019
3640 Clear 0 1022 72 10000 3 40 19:58 15.08.2019
3641 Clear 0 1022 72 10000 3 40 19:39 15.08.2019
3642 Clear 0 1022 72 10000 3 40 19:21 15.08.2019
3643 Clear 0 1022 72 10000 3 40 19:21 15.08.2019
3644 Clear -2 1022 92 10000 3 30 18:47 15.08.2019
3645 Clear -2 1022 92 10000 3 30 18:23 15.08.2019
3646 Clear -1 1022 86 10000 4 20 17:58 15.08.2019
3647 Clear -1 1022 86 10000 4 20 17:38 15.08.2019
3648 Clear -1 1022 86 10000 4 20 17:19 15.08.2019
3649 Clear 0 1022 73 10000 3 20 16:57 15.08.2019
3650 Clear 0 1022 73 10000 3 20 16:38 15.08.2019
3651 Clear 0 1022 73 10000 3 20 16:20 15.08.2019
3652 Clear 2 1021 80 10000 3 10 15:38 15.08.2019
3653 Clear 2 1021 80 10000 3 10 15:20 15.08.2019
3654 Clear 0 1021 68 10000 3 30 14:56 15.08.2019
3655 Clear 0 1021 68 10000 3 30 14:37 15.08.2019
3656 Clear 0 1021 68 10000 3 30 14:18 15.08.2019
3657 Clouds 1 1021 80 10000 3 20 13:55 15.08.2019
3658 Clouds 1 1021 80 10000 3 20 13:55 15.08.2019
3659 Clouds 1 1021 80 10000 3 20 13:37 15.08.2019
3660 Clouds 1 1021 80 10000 3 20 13:19 15.08.2019
3661 Clouds 1 1021 80 10000 3 20 13:19 15.08.2019
3662 Clouds 4 1020 68 10000 3 10 12:40 15.08.2019
3663 Clouds 4 1020 63 10000 3 10 12:20 15.08.2019
3664 Clouds 5 1020 63 10000 4 10 11:57 15.08.2019
3665 Clouds 5 1020 63 10000 4 10 11:57 15.08.2019
3666 Clouds 5 1020 63 10000 4 10 11:38 15.08.2019
3667 Clouds 5 1020 63 10000 4 10 11:19 15.08.2019
3668 Clouds 6 1020 63 10000 3 330 10:58 15.08.2019
3669 Clouds 6 1020 63 10000 3 330 10:37 15.08.2019
3670 Clouds 6 1020 63 10000 3 330 10:37 15.08.2019
3671 Clouds 6 1020 63 10000 3 330 10:18 15.08.2019
3672 Clouds 8 1019 63 10000 5 330 09:43 15.08.2019
3673 Clouds 8 1019 47 10000 5 330 09:22 15.08.2019
3674 Clouds 9 1018 57 10000 6 330 08:39 15.08.2019
3675 Clouds 9 1018 57 10000 6 330 08:21 15.08.2019
3676 Clouds 10 1018 53 10000 5 330 07:58 15.08.2019
3677 Clouds 10 1018 57 10000 5 340 07:39 15.08.2019
3678 Clouds 10 1018 57 10000 5 340 07:20 15.08.2019
3679 Clouds 11 1018 50 10000 4 340 06:48 15.08.2019
3680 Clouds 11 1017 50 10000 5 320 06:25 15.08.2019
3681 Clouds 11 1017 50 10000 5 330 05:30 15.08.2019
3682 Clouds 11 1017 50 10000 6 320 04:57 15.08.2019
3683 Clouds 10 1017 57 10000 7 310 03:57 15.08.2019
3684 Clouds 10 1017 53 10000 7 310 03:19 15.08.2019
3685 Clouds 10 1016 53 10000 7 310 02:34 15.08.2019
3686 Clouds 9 1016 61 10000 6 310 01:44 15.08.2019
3687 Clouds 9 1016 61 10000 6 330 00:58 15.08.2019
3688 Clouds 8 1016 65 10000 6 330 00:37 15.08.2019
3689 Clouds 8 1016 65 10000 6 330 00:19 15.08.2019
3690 Clouds 8 1015 65 10000 6 330 23:56 14.08.2019
3691 Clouds 8 1015 65 10000 6 330 23:37 14.08.2019
3692 Clouds 8 1015 65 10000 6 330 23:18 14.08.2019
3693 Clouds 7 1015 75 10000 6 350 22:42 14.08.2019
3694 Clouds 7 1015 75 10000 6 350 22:23 14.08.2019
3695 Clouds 5 1014 80 10000 6 340 21:57 14.08.2019
3696 Clouds 5 1014 80 10000 6 340 21:39 14.08.2019
3697 Clouds 5 1014 80 10000 6 340 21:21 14.08.2019
3698 Clouds 4 1013 86 10000 5 330 20:57 14.08.2019
3699 Clouds 4 1013 86 10000 5 330 20:39 14.08.2019
3700 Clouds 4 1012 80 10000 5 330 20:19 14.08.2019
3701 Clouds 4 1012 80 10000 5 330 19:54 14.08.2019
3702 Clouds 4 1012 80 10000 5 330 19:36 14.08.2019
3703 Clouds 5 1012 80 10000 5 330 19:18 14.08.2019
3704 Clouds 5 1012 80 10000 5 330 19:18 14.08.2019
3705 Clouds 5 1012 80 10000 5 330 18:43 14.08.2019
3706 Clouds 5 1012 80 10000 5 330 18:24 14.08.2019
3707 Clouds 7 1011 87 10000 5 330 17:59 14.08.2019
3708 Clouds 7 1011 87 10000 5 330 17:40 14.08.2019
3709 Clouds 7 1011 87 10000 5 330 17:22 14.08.2019
3710 Rain 7 1010 93 10000 5 340 16:57 14.08.2019
3711 Rain 7 1010 93 10000 5 340 16:57 14.08.2019
3712 Rain 7 1010 93 10000 5 340 16:39 14.08.2019
3713 Rain 7 1010 93 10000 5 340 16:19 14.08.2019
3714 Rain 8 1010 93 10000 6 320 15:43 14.08.2019
3715 Rain 8 1010 93 10000 6 320 15:43 14.08.2019
3716 Rain 8 1010 93 10000 6 320 15:43 14.08.2019
3717 Rain 8 1010 93 10000 6 320 15:19 14.08.2019
3718 Rain 8 1010 87 10000 5 330 14:57 14.08.2019
3719 Rain 8 1010 87 10000 5 330 14:39 14.08.2019
3720 Rain 8 1010 87 10000 5 330 14:19 14.08.2019
3721 Clouds 11 1009 87 10000 2 340 13:44 14.08.2019
3722 Clouds 11 1009 87 10000 2 340 13:24 14.08.2019
3723 Clouds 12 1008 81 10000 5 280 12:59 14.08.2019
3724 Clouds 12 1008 81 10000 5 280 12:40 14.08.2019
3725 Clouds 12 1008 81 10000 5 280 12:22 14.08.2019
3726 Clouds 12 1008 93 10000 5 260 11:57 14.08.2019
3727 Clouds 12 1008 93 10000 5 260 11:57 14.08.2019
3728 Clouds 12 1008 93 10000 5 260 11:39 14.08.2019
3729 Clouds 12 1008 93 10000 5 260 11:21 14.08.2019
3730 Clouds 13 1008 87 10000 2 230 10:45 14.08.2019
3731 Clouds 13 1008 87 10000 2 230 10:25 14.08.2019
3732 Clouds 13 1007 87 10000 2 180 09:58 14.08.2019
3733 Clouds 13 1007 87 10000 2 180 09:39 14.08.2019
3734 Clouds 13 1007 87 10000 2 180 09:19 14.08.2019
3735 Clouds 14 1007 82 10000 2 200 08:40 14.08.2019
3736 Clouds 14 1007 82 10000 2 200 08:21 14.08.2019
3737 Clouds 14 1007 76 10000 3 170 07:53 14.08.2019
3738 Clouds 14 1007 82 10000 2 180 07:33 14.08.2019
3739 Rain 13 1007 76 10000 3 170 06:47 14.08.2019
3740 Rain 14 1007 76 10000 2 190 05:54 14.08.2019
3741 Clouds 14 1006 82 10000 3 190 05:28 14.08.2019
3742 Rain 13 1006 87 10000 3 190 03:38 14.08.2019
3743 Clouds 13 1006 82 10000 4 180 02:34 14.08.2019
3744 Clouds 14 1006 82 10000 4 160 01:54 14.08.2019
3745 Clouds 14 1006 82 10000 3 170 01:21 14.08.2019
3746 Clouds 12 1005 76 10000 1 60 23:56 13.08.2019
3747 Clouds 12 1005 87 10000 2 50 23:37 13.08.2019
3748 Clouds 12 1005 87 10000 2 50 23:18 13.08.2019
3749 Clouds 12 1005 87 10000 4 110 22:42 13.08.2019
3750 Clouds 12 1005 87 10000 4 110 22:24 13.08.2019
3751 Clouds 12 1004 81 10000 2 110 21:59 13.08.2019
3752 Clouds 12 1004 81 10000 2 110 21:39 13.08.2019
3753 Clouds 12 1004 81 10000 2 110 21:20 13.08.2019
3754 Clouds 11 1004 87 10000 2 110 20:58 13.08.2019
3755 Clouds 11 1004 87 10000 2 110 20:40 13.08.2019
3756 Clouds 11 1004 87 10000 2 110 20:19 13.08.2019
3757 Clouds 11 1004 87 10000 2 70 19:55 13.08.2019
3758 Clouds 11 1004 87 10000 2 70 19:37 13.08.2019
3759 Clouds 11 1004 87 10000 2 70 19:18 13.08.2019
3760 Clouds 11 1003 87 10000 4 110 18:41 13.08.2019
3761 Clouds 11 1003 87 10000 4 110 18:22 13.08.2019
3762 Clouds 10 1003 93 10000 4 90 17:44 13.08.2019
3763 Clouds 10 1003 93 10000 4 90 17:25 13.08.2019
3764 Clouds 10 1003 93 10000 3 100 16:59 13.08.2019
3765 Clouds 10 1003 93 10000 3 100 16:59 13.08.2019
3766 Clouds 10 1003 93 10000 3 100 16:40 13.08.2019
3767 Clouds 10 1003 93 10000 3 100 16:21 13.08.2019
3768 Clear 11 1003 87 10000 4 110 15:59 13.08.2019
3769 Clear 11 1003 87 10000 4 110 15:38 13.08.2019
3770 Clear 11 1003 87 10000 4 110 15:19 13.08.2019
3771 Clouds 10 1003 93 10000 5 90 14:45 13.08.2019
3772 Clouds 10 1003 93 10000 5 90 14:20 13.08.2019
3773 Clouds 10 1003 93 10000 6 90 13:58 13.08.2019
3774 Clouds 10 1003 93 10000 6 90 13:40 13.08.2019
3775 Clouds 10 1003 93 10000 6 90 13:20 13.08.2019
3776 Clouds 10 1003 93 10000 8 90 12:56 13.08.2019
3777 Clouds 10 1003 93 10000 8 90 12:38 13.08.2019
3778 Clouds 10 1003 93 10000 8 90 12:19 13.08.2019
3779 Fog 10 1003 93 10000 7 110 11:42 13.08.2019
3780 Fog 10 1003 93 10000 7 110 11:22 13.08.2019
3781 Fog 10 1003 100 10000 8 100 10:58 13.08.2019
3782 Fog 10 1003 100 10000 8 100 10:38 13.08.2019
3783 Fog 10 1003 100 10000 8 100 10:19 13.08.2019
3784 Fog 11 1003 93 9000 9 110 09:46 13.08.2019
3785 Fog 11 1003 93 9000 9 110 09:25 13.08.2019
3786 Fog 11 1003 93 6000 9 110 08:59 13.08.2019
3787 Fog 11 1003 93 6000 9 110 08:39 13.08.2019
3788 Fog 11 1003 93 6000 9 110 08:20 13.08.2019
3789 Fog 11 1003 93 9000 6 110 07:47 13.08.2019
3790 Fog 11 1003 93 7000 7 110 07:28 13.08.2019
3791 Fog 11 1003 93 10000 4 100 06:44 13.08.2019
3792 Clouds 11 1003 93 10000 4 100 05:59 13.08.2019
3793 Clouds 12 1003 87 10000 6 100 05:32 13.08.2019
3794 Rain 11 1003 93 3200 7 110 02:22 13.08.2019
3795 Rain 11 1003 93 4200 7 120 01:46 13.08.2019
3796 Rain 11 1003 93 6000 8 120 00:52 13.08.2019
3797 Rain 11 1003 93 8000 8 110 00:22 13.08.2019
3798 Fog 11 1003 93 7000 8 110 23:47 12.08.2019
3799 Rain 11 1003 93 5000 6 110 23:21 12.08.2019
3800 Rain 11 1003 93 10000 7 120 22:56 12.08.2019
3801 Rain 10 1003 100 10000 6 120 22:38 12.08.2019
3802 Rain 10 1003 100 10000 6 120 22:18 12.08.2019
3803 Clouds 10 1003 93 10000 7 110 21:54 12.08.2019
3804 Clouds 10 1003 93 10000 7 110 21:36 12.08.2019
3805 Clouds 10 1003 93 10000 7 110 21:18 12.08.2019
3806 Clouds 10 1003 93 10000 5 120 20:42 12.08.2019
3807 Clouds 10 1003 93 10000 5 120 20:21 12.08.2019
3808 Clouds 10 1003 93 10000 6 120 19:59 12.08.2019
3809 Clouds 10 1003 93 10000 6 120 19:39 12.08.2019
3810 Clouds 10 1003 93 10000 6 120 19:21 12.08.2019
3811 Clouds 10 1003 93 10000 6 110 18:59 12.08.2019
3812 Clouds 10 1003 93 10000 6 110 18:40 12.08.2019
3813 Clouds 10 1003 93 10000 6 110 18:21 12.08.2019
3814 Clouds 10 1003 93 10000 7 100 17:56 12.08.2019
3815 Clouds 10 1003 93 10000 7 100 17:56 12.08.2019
3816 Clouds 10 1003 93 10000 7 100 17:38 12.08.2019
3817 Clouds 10 1003 93 10000 7 100 17:20 12.08.2019
3818 Clouds 10 1003 93 10000 6 90 16:55 12.08.2019
3819 Clouds 10 1003 93 10000 6 90 16:37 12.08.2019
3820 Clouds 10 1003 93 10000 6 90 16:18 12.08.2019
3821 Clouds 10 1003 93 10000 6 90 16:18 12.08.2019
3822 Fog 10 1004 93 9000 5 90 15:42 12.08.2019
3823 Fog 10 1004 93 9000 5 90 15:41 12.08.2019
3824 Fog 10 1004 93 9000 5 90 15:21 12.08.2019
3825 -273 0 0 0 0 0 14:56 12.08.2019
3826 -273 0 0 0 0 0 14:56 12.08.2019
3827 -273 0 0 0 0 0 14:38 12.08.2019
3828 Mist 10 1004 93 4600 4 100 14:38 12.08.2019
3829 Mist 10 1004 93 4600 4 100 14:18 12.08.2019
3830 Fog 10 1004 93 8000 4 110 13:43 12.08.2019
3831 Fog 10 1004 93 8000 4 110 13:24 12.08.2019
3832 Fog 10 1004 100 9000 5 110 12:58 12.08.2019
3833 Fog 10 1004 100 9000 5 110 12:58 12.08.2019
3834 Fog 10 1004 100 9000 5 110 12:39 12.08.2019
3835 Fog 10 1004 100 9000 5 110 12:18 12.08.2019
3836 Clouds 10 1004 93 10000 6 100 11:42 12.08.2019
3837 Clouds 10 1004 93 10000 6 100 11:42 12.08.2019
3838 Clouds 10 1004 93 10000 6 100 11:23 12.08.2019
3839 Clouds 11 1005 93 10000 6 100 10:43 12.08.2019
3840 Clouds 11 1005 93 10000 6 100 10:23 12.08.2019
3841 Fog 11 1005 93 8000 4 100 09:56 12.08.2019
3842 Fog 11 1005 93 8000 4 100 09:56 12.08.2019
3843 Fog 11 1005 93 8000 4 100 09:38 12.08.2019
3844 Fog 11 1005 93 8000 4 100 09:19 12.08.2019
3845 Fog 11 1005 93 9000 4 100 08:58 12.08.2019
3846 Fog 11 1005 93 9000 4 100 08:39 12.08.2019
3847 Fog 11 1005 93 9000 4 100 08:20 12.08.2019
3848 Fog 11 1005 93 6000 5 100 07:52 12.08.2019
3849 Fog 11 1005 93 5000 6 100 07:28 12.08.2019
3850 Fog 12 1005 87 5000 7 100 06:52 12.08.2019
3851 Fog 11 1006 93 8000 7 100 05:40 12.08.2019
3852 Rain 12 1007 87 5000 7 80 02:44 12.08.2019
3853 Mist 12 1007 93 3600 7 90 01:55 12.08.2019
3854 Mist 12 1007 87 2900 8 90 01:21 12.08.2019
3855 Rain 12 1008 87 2400 8 90 00:58 12.08.2019
3856 Rain 12 1008 93 2300 8 90 00:39 12.08.2019
3857 Rain 12 1008 93 2300 8 90 00:20 12.08.2019
3858 Rain 12 1008 87 2400 9 90 23:55 11.08.2019
3859 Rain 12 1008 87 2900 8 90 23:37 11.08.2019
3860 Rain 12 1008 87 2900 8 90 23:18 11.08.2019
3861 Rain 11 1008 93 3800 9 90 22:40 11.08.2019
3862 Rain 11 1008 93 3800 9 90 22:20 11.08.2019
3863 Rain 11 1009 93 9000 10 90 21:59 11.08.2019
3864 Rain 11 1009 93 9000 10 90 21:41 11.08.2019
3865 Rain 11 1009 93 9000 10 90 21:22 11.08.2019
3866 Rain 11 1009 93 6000 11 90 20:57 11.08.2019
3867 Rain 11 1009 93 6000 11 90 20:39 11.08.2019
3868 Rain 11 1009 93 6000 11 90 20:20 11.08.2019
3869 Rain 11 1010 87 5000 10 80 19:44 11.08.2019
3870 Rain 11 1010 87 5000 10 80 19:19 11.08.2019
3871 Fog 11 1010 87 10000 7 70 18:42 11.08.2019
3872 Fog 11 1010 87 10000 7 70 18:23 11.08.2019
3873 Clouds 11 1011 87 10000 6 60 17:59 11.08.2019
3874 Clouds 11 1011 87 10000 6 60 17:41 11.08.2019
3875 Clouds 11 1011 87 10000 6 60 17:20 11.08.2019
3876 Clouds 11 1012 87 10000 3 30 16:57 11.08.2019
3877 Clouds 11 1012 87 10000 3 30 16:38 11.08.2019
3878 Clouds 11 1012 87 10000 3 30 16:20 11.08.2019
3879 Clouds 11 1012 87 10000 8 80 15:44 11.08.2019
3880 Clouds 11 1012 87 10000 8 80 15:25 11.08.2019
3881 Clouds 11 1013 87 10000 9 80 14:59 11.08.2019
3882 Clouds 11 1013 87 10000 9 80 14:39 11.08.2019
3883 Clouds 11 1013 87 10000 9 80 14:20 11.08.2019
3884 Clouds 11 1014 87 10000 4 60 13:44 11.08.2019
3885 Clouds 11 1014 87 10000 4 60 13:26 11.08.2019
3886 Clouds 12 1014 87 10000 6 80 12:56 11.08.2019
3887 Clouds 12 1014 87 10000 6 80 12:37 11.08.2019
3888 Clouds 12 1014 87 10000 6 80 12:18 11.08.2019
3889 Clouds 12 1015 87 10000 6 90 11:39 11.08.2019
3890 Clouds 12 1015 87 10000 6 90 11:21 11.08.2019
3891 Clouds 12 1015 87 10000 7 80 10:55 11.08.2019
3892 Clouds 12 1015 87 10000 7 80 10:37 11.08.2019
3893 Clouds 12 1015 87 10000 7 80 10:19 11.08.2019
3894 Clouds 13 1015 82 10000 5 80 09:42 11.08.2019
3895 Clouds 13 1015 82 10000 5 80 09:23 11.08.2019
3896 Clouds 14 1016 76 10000 5 90 08:49 11.08.2019
3897 Clouds 14 1016 76 10000 5 90 08:30 11.08.2019
3898 Clouds 15 1016 72 10000 7 90 07:59 11.08.2019
3899 Clouds 15 1016 72 10000 7 90 07:31 11.08.2019
3900 Clouds 16 1016 72 10000 6 90 06:46 11.08.2019
3901 Clouds 16 1016 72 10000 6 90 06:28 11.08.2019
3902 Clouds 16 1017 72 10000 8 90 04:40 11.08.2019
3903 Clouds 16 1018 67 10000 6 80 02:50 11.08.2019
3904 Clouds 16 1018 67 10000 4 70 01:57 11.08.2019
3905 Clouds 16 1018 63 10000 5 90 01:30 11.08.2019
3906 Clouds 16 1019 67 10000 6 100 00:56 11.08.2019
3907 Clouds 15 1019 67 10000 4 90 00:35 11.08.2019
3908 Clouds 16 1019 67 10000 1 340 23:50 10.08.2019
3909 Clouds 15 1019 72 10000 2 340 23:30 10.08.2019
3910 Clouds 13 1019 87 10000 2 330 22:56 10.08.2019
3911 Clouds 13 1019 87 10000 2 330 22:36 10.08.2019
3912 Clouds 13 1019 87 10000 2 330 22:18 10.08.2019
3913 Clouds 12 1020 93 10000 2 330 21:40 10.08.2019
3914 Clouds 12 1020 93 10000 2 330 21:21 10.08.2019
3915 -273 0 0 0 0 0 21:21 10.08.2019
3916 Clouds 11 1020 93 10000 1 350 20:57 10.08.2019
3917 Clouds 11 1020 93 10000 1 350 20:39 10.08.2019
3918 Clouds 11 1020 93 10000 1 350 20:19 10.08.2019
3919 Clouds 11 1020 93 10000 1 10 19:43 10.08.2019
3920 Clouds 11 1020 93 10000 1 10 19:24 10.08.2019
3921 Clouds 11 1020 93 10000 2 10 18:43 10.08.2019
3922 Clouds 11 1020 93 10000 2 10 18:25 10.08.2019
3923 Clouds 12 1020 87 10000 1 360 17:57 10.08.2019
3924 Clouds 12 1020 87 10000 1 360 17:38 10.08.2019
3925 Clouds 12 1020 87 10000 1 360 17:19 10.08.2019
3926 Clouds 11 1020 93 10000 0.48 31.491 16:43 10.08.2019
3927 Clouds 11 1020 93 10000 0.48 31.491 16:24 10.08.2019
3928 Clouds 11 1021 93 10000 1 70 15:48 10.08.2019
3929 Clouds 11 1021 93 10000 1 70 15:22 10.08.2019
3930 Clouds 11 1021 93 10000 0.91 225.669 14:44 10.08.2019
3931 Clouds 11 1021 93 10000 0.91 225.669 14:21 10.08.2019
3932 Clouds 11 1021 93 10000 1 120 13:41 10.08.2019
3933 Clouds 11 1021 93 10000 1 120 13:20 10.08.2019
3934 Clouds 11 1021 93 10000 2 60 12:55 10.08.2019
3935 Clouds 11 1021 93 10000 2 60 12:37 10.08.2019
3936 Clouds 11 1021 93 10000 2 60 12:19 10.08.2019
3937 Clouds 11 1021 93 10000 3 130 11:42 10.08.2019
3938 Clouds 11 1021 93 10000 3 130 11:22 10.08.2019
3939 Clouds 12 1021 87 10000 1 70 10:57 10.08.2019
3940 Clouds 12 1021 87 10000 1 70 10:37 10.08.2019
3941 Clouds 12 1021 87 10000 1 70 10:19 10.08.2019
3942 Clouds 12 1021 87 10000 2 80 09:43 10.08.2019
3943 Clouds 12 1021 87 10000 2 80 09:23 10.08.2019
3944 Clouds 12 1021 87 10000 2 90 08:42 10.08.2019
3945 Clouds 12 1021 87 10000 2 90 08:22 10.08.2019
3946 Clouds 12 1021 87 10000 2 110 07:54 10.08.2019
3947 Clouds 12 1021 87 10000 2 110 07:29 10.08.2019
3948 Clouds 12 1021 87 10000 3 190 06:52 10.08.2019
3949 Clouds 12 1021 87 10000 3 190 06:30 10.08.2019
3950 Clouds 12 1021 87 10000 4 180 05:44 10.08.2019
3951 Clouds 12 1021 87 10000 4 180 05:44 10.08.2019
3952 Clouds 12 1021 87 10000 4 180 05:18 10.08.2019
3953 Clouds 12 1021 87 10000 3 190 03:32 10.08.2019
3954 Clouds 12 1021 87 10000 1 320 02:38 10.08.2019
3955 Clouds 12 1021 87 10000 1 270 01:44 10.08.2019
3956 Clouds 12 1021 87 10000 1 270 01:24 10.08.2019
3957 Fog 14 1021 76 10000 4 110 00:58 10.08.2019
3958 Fog 14 1021 76 10000 4 110 00:40 10.08.2019
3959 Fog 14 1021 76 10000 4 110 00:18 10.08.2019
3960 Clouds 14 1021 76 10000 3 110 23:39 09.08.2019
3961 Clouds 14 1021 76 10000 3 110 23:20 09.08.2019
3962 Clouds 14 1021 76 10000 3 110 23:20 09.08.2019
3963 Clouds 13 1021 82 10000 1 360 22:55 09.08.2019
3964 Clouds 13 1021 82 10000 1 360 22:55 09.08.2019
3965 Clouds 13 1021 82 10000 1 360 22:37 09.08.2019
3966 Clouds 13 1021 82 10000 1 360 22:18 09.08.2019
3967 Clouds 12 1021 87 10000 2 10 21:40 09.08.2019
3968 Clouds 12 1021 87 10000 2 10 21:21 09.08.2019
3969 Clouds 11 1020 87 10000 3 120 20:57 09.08.2019
3970 Clouds 11 1020 87 10000 3 120 20:39 09.08.2019
3971 Clouds 11 1020 87 10000 3 120 20:18 09.08.2019
3972 Clouds 11 1020 87 10000 4 80 19:43 09.08.2019
3973 Clouds 11 1020 87 10000 4 80 19:22 09.08.2019
3974 Clouds 9 1020 93 10000 2 110 18:58 09.08.2019
3975 Clouds 9 1020 93 10000 2 110 18:38 09.08.2019
3976 Clouds 9 1020 93 10000 2 110 18:19 09.08.2019
3977 Clear 10 1020 87 10000 4 90 17:43 09.08.2019
3978 Clear 10 1020 87 10000 4 90 17:43 09.08.2019
3979 Clear 10 1020 87 10000 4 90 17:24 09.08.2019
3980 -273 0 0 0 0 0 16:56 09.08.2019
3981 Clear 10 1020 87 10000 3 90 16:37 09.08.2019
3982 Clear 10 1020 87 10000 3 90 16:18 09.08.2019
3983 Clouds 11 1020 87 10000 2 30 15:42 09.08.2019
3984 Clouds 11 1020 87 10000 2 30 15:21 09.08.2019
3985 Clouds 12 1020 81 10000 3 70 14:58 09.08.2019
3986 Clouds 12 1020 81 10000 3 70 14:38 09.08.2019
3987 Clouds 12 1020 81 10000 3 70 14:20 09.08.2019
3988 Clear 12 1020 81 10000 6 100 13:46 09.08.2019
3989 Clear 12 1020 81 10000 6 100 13:21 09.08.2019
3990 Clouds 11 1021 87 10000 4 70 12:56 09.08.2019
3991 Clouds 11 1021 87 10000 4 70 12:37 09.08.2019
3992 Clouds 11 1021 87 10000 4 70 12:18 09.08.2019
3993 Clouds 12 1021 81 10000 6 110 11:41 09.08.2019
3994 Clouds 12 1021 81 10000 6 110 11:21 09.08.2019
3995 Clouds 12 1020 87 10000 5 100 10:54 09.08.2019
3996 Clouds 12 1020 87 10000 5 100 10:36 09.08.2019
3997 Clouds 12 1020 87 10000 5 100 10:18 09.08.2019
3998 -273 0 0 0 0 0 09:41 09.08.2019
3999 Clouds 14 1020 76 10000 5 100 09:19 09.08.2019
4000 Clouds 15 1020 72 10000 2 130 08:45 09.08.2019
4001 Clouds 15 1020 72 10000 2 130 08:25 09.08.2019
4002 Clouds 15 1020 72 10000 3 120 07:56 09.08.2019
4003 Clouds 16 1020 72 10000 3 100 07:37 09.08.2019
4004 Clouds 16 1020 72 10000 3 100 07:19 09.08.2019
4005 Rain 14 1021 76 10000 5 150 06:44 09.08.2019
4006 Rain 14 1021 76 10000 5 150 06:21 09.08.2019
4007 Clouds 14 1021 76 10000 4 160 05:37 09.08.2019
4008 Clouds 14 1021 76 10000 4 150 02:28 09.08.2019
4009 Clouds 12 1021 87 10000 5 160 01:24 09.08.2019
4010 Clouds 13 1021 82 10000 5 160 00:42 09.08.2019
4011 Clouds 13 1021 82 10000 5 160 00:23 09.08.2019
4012 Clouds 13 1021 87 10000 2 280 23:57 08.08.2019
4013 Clouds 13 1021 87 10000 2 360 23:37 08.08.2019
4014 Clouds 13 1021 87 10000 2 360 23:19 08.08.2019
4015 Clouds 13 1021 87 10000 2 50 22:55 08.08.2019
4016 Clouds 12 1021 93 10000 1 80 22:36 08.08.2019
4017 Clouds 12 1021 93 10000 1 80 22:18 08.08.2019
4018 Clouds 12 1021 87 10000 2 90 21:42 08.08.2019
4019 Clouds 12 1021 87 10000 2 90 21:23 08.08.2019
4020 Clouds 13 1021 76 10000 3 120 20:57 08.08.2019
4021 Clouds 13 1021 76 10000 3 120 20:39 08.08.2019
4022 Clouds 13 1021 76 10000 3 120 20:39 08.08.2019
4023 Clouds 13 1021 76 10000 3 120 20:19 08.08.2019
4024 Clouds 11 1020 87 10000 2 200 19:48 08.08.2019
4025 Clouds 11 1020 87 10000 2 200 19:29 08.08.2019
4026 Clouds 12 1020 81 10000 2.36 148.707 18:57 08.08.2019
4027 Clouds 12 1020 81 10000 2.36 148.707 18:36 08.08.2019
4028 Clouds 12 1020 76 10000 4 100 18:18 08.08.2019
4029 Clouds 12 1020 76 10000 4 100 18:18 08.08.2019
4030 Clouds 13 1020 76 10000 4 100 17:42 08.08.2019
4031 Clouds 13 1020 76 10000 4 100 17:24 08.08.2019
4032 Clouds 13 1020 82 10000 5 110 16:57 08.08.2019
4033 Clouds 13 1020 82 10000 5 110 16:39 08.08.2019
4034 Clouds 13 1020 82 10000 5 110 16:39 08.08.2019
4035 Clouds 13 1020 82 10000 5 110 16:20 08.08.2019
4036 Clouds 13 1020 82 10000 5 100 15:57 08.08.2019
4037 Clouds 13 1020 82 10000 5 100 15:37 08.08.2019
4038 Clouds 13 1020 82 10000 5 100 15:19 08.08.2019
4039 Clouds 13 1020 76 10000 6 100 14:38 08.08.2019
4040 Clouds 13 1020 76 10000 6 100 14:19 08.08.2019
4041 Clouds 15 1020 67 10000 4 120 13:42 08.08.2019
4042 Clouds 15 1020 67 10000 4 120 13:23 08.08.2019
4043 Clouds 13 1020 76 10000 6 100 12:58 08.08.2019
4044 Clouds 13 1020 76 10000 6 100 12:38 08.08.2019
4045 Clouds 13 1020 76 10000 8 110 12:18 08.08.2019
4046 Clouds 14 1020 76 10000 8 110 11:43 08.08.2019
4047 Clouds 14 1020 76 10000 8 110 11:24 08.08.2019
4048 Clouds 13 1020 76 10000 8 100 10:42 08.08.2019
4049 Clouds 13 1020 76 10000 8 100 10:22 08.08.2019
4050 Clouds 14 1020 76 10000 7 100 09:58 08.08.2019
4051 Clouds 14 1020 76 10000 7 100 09:39 08.08.2019
4052 Clouds 14 1020 76 10000 7 100 09:20 08.08.2019
4053 Clouds 13 1020 82 10000 9 100 08:42 08.08.2019
4054 Clouds 13 1020 82 10000 9 100 08:21 08.08.2019
4055 Clouds 13 1020 82 10000 9 100 08:21 08.08.2019
4056 Clouds 13 1020 82 10000 8 100 07:56 08.08.2019
4057 Clouds 13 1020 82 10000 8 100 07:56 08.08.2019
4058 Clouds 12 1021 87 10000 5 80 07:37 08.08.2019
4059 Clouds 12 1021 87 10000 5 80 07:18 08.08.2019
4060 Clouds 13 1021 82 10000 6 100 06:41 08.08.2019
4061 Clouds 13 1021 82 10000 8 100 05:57 08.08.2019
4062 Clouds 13 1021 82 10000 8 100 05:39 08.08.2019
4063 Clouds 15 1021 72 10000 7 100 03:59 08.08.2019
4064 Clouds 15 1021 72 10000 9 110 03:39 08.08.2019
4065 Clouds 13 1022 71 10000 6 100 01:42 08.08.2019
4066 Clouds 13 1022 82 10000 8 100 00:57 08.08.2019
4067 Clouds 13 1022 76 10000 7 90 00:21 08.08.2019
4068 Clouds 12 1022 76 10000 8 100 23:23 07.08.2019
4069 Clouds 11 1021 81 10000 7 100 23:00 07.08.2019
4070 Clouds 11 1022 81 10000 7 90 22:41 07.08.2019
4071 Clouds 11 1022 81 10000 7 90 22:21 07.08.2019
4072 Clear 11 1021 81 10000 7 110 21:58 07.08.2019
4073 Clear 11 1021 81 10000 7 110 21:40 07.08.2019
4074 Clear 11 1021 81 10000 7 110 21:21 07.08.2019
4075 Clear 10 1021 87 10000 3 60 20:59 07.08.2019
4076 Clear 10 1021 87 10000 3 60 20:40 07.08.2019
4077 Clear 10 1021 87 10000 3 60 20:20 07.08.2019
4078 Clear 10 1021 87 10000 3 60 20:20 07.08.2019
4079 Fog 9 1021 87 10000 4 80 19:55 07.08.2019
4080 Fog 9 1021 87 10000 4 80 19:36 07.08.2019
4081 Fog 9 1021 87 10000 4 80 19:18 07.08.2019
4082 Fog 8 1021 93 10000 4 90 18:40 07.08.2019
4083 Fog 8 1021 93 10000 4 90 18:20 07.08.2019
4084 Clear 8 1021 87 10000 9 90 17:55 07.08.2019
4085 Clear 8 1021 87 10000 9 90 17:55 07.08.2019
4086 Clear 8 1021 87 10000 9 90 17:37 07.08.2019
4087 Clear 8 1021 87 10000 9 90 17:19 07.08.2019
4088 Clear 8 1021 87 10000 8 90 16:56 07.08.2019
4089 Clear 8 1021 87 10000 8 90 16:38 07.08.2019
4090 Clear 8 1021 87 10000 8 90 16:19 07.08.2019
4091 Clear 9 1021 81 10000 5 70 15:43 07.08.2019
4092 Clear 9 1021 81 10000 5 70 15:21 07.08.2019
4093 Clear 10 1021 76 10000 8 100 14:50 07.08.2019
4094 Clear 10 1021 76 10000 8 100 14:31 07.08.2019
4095 Clear 10 1020 76 10000 9 110 13:59 07.08.2019
4096 Clear 10 1020 76 10000 9 110 13:59 07.08.2019
4097 Clear 10 1020 76 10000 9 110 13:40 07.08.2019
4098 Clear 10 1020 76 10000 9 110 13:19 07.08.2019
4099 Fog 11 1020 71 10000 4 120 12:57 07.08.2019
4100 Fog 11 1020 71 10000 4 120 12:38 07.08.2019
4101 Fog 11 1020 71 10000 4 120 12:19 07.08.2019
4102 Fog 15 1020 47 10000 6 80 11:58 07.08.2019
4103 Fog 15 1020 47 10000 6 80 11:40 07.08.2019
4104 Fog 15 1020 47 10000 6 80 11:18 07.08.2019
4105 Fog 13 1020 66 10000 9 90 10:41 07.08.2019
4106 Fog 13 1020 66 10000 9 90 10:20 07.08.2019
4107 Fog 13 1020 71 10000 9 100 09:59 07.08.2019
4108 Fog 13 1020 71 10000 9 100 09:39 07.08.2019
4109 Fog 13 1020 71 10000 9 100 09:18 07.08.2019
4110 Fog 17 1019 55 10000 1 220 08:45 07.08.2019
4111 Fog 17 1019 55 10000 1 220 08:24 07.08.2019
4112 Fog 19 1019 42 10000 1 150 07:51 07.08.2019
4113 Fog 18 1019 52 10000 3 90 07:30 07.08.2019
4114 Clear 18 1019 52 10000 6 110 06:47 07.08.2019
4115 Clear 18 1019 52 10000 6 110 06:22 07.08.2019
4116 Clear 19 1019 48 10000 4 120 05:42 07.08.2019
4117 Clear 20 1020 52 10000 5 150 04:37 07.08.2019
4118 Clear 19 1020 55 10000 5 150 02:58 07.08.2019
4119 Clear 19 1020 55 10000 6 150 02:38 07.08.2019
4120 Clear 19 1019 52 10000 6 140 01:51 07.08.2019
4121 Clear 17 1020 67 10000 6 150 00:57 07.08.2019
4122 Clear 17 1020 63 10000 5 140 00:24 07.08.2019
4123 Clear 17 1020 63 10000 5 150 23:59 06.08.2019
4124 Clear 16 1020 67 10000 4 140 23:38 06.08.2019
4125 Clear 16 1020 67 10000 4 140 23:20 06.08.2019
4126 Clear 16 1019 67 10000 4 170 22:40 06.08.2019
4127 Clear 16 1019 67 10000 4 170 22:21 06.08.2019
4128 Clear 14 1019 76 10000 3 170 21:57 06.08.2019
4129 Clear 14 1019 76 10000 3 170 21:38 06.08.2019
4130 Clear 14 1019 76 10000 3 170 21:19 06.08.2019
4131 Clear 14 1019 76 10000 3 170 21:19 06.08.2019
4132 Clear 15 1019 72 10000 2 160 20:46 06.08.2019
4133 Clear 15 1019 72 10000 2 160 20:28 06.08.2019
4134 Clear 14 1019 71 10000 3 170 19:57 06.08.2019
4135 Clear 14 1019 71 10000 3 170 19:38 06.08.2019
4136 Clear 14 1019 71 10000 3 170 19:19 06.08.2019
4137 Clear 14 1018 71 10000 3 140 18:43 06.08.2019
4138 Clear 14 1018 71 10000 3 140 18:25 06.08.2019
4139 Clear 13 1018 71 10000 3 140 17:58 06.08.2019
4140 Clear 13 1018 71 10000 3 140 17:38 06.08.2019
4141 Clear 13 1018 71 10000 3 140 17:19 06.08.2019
4142 Clear 14 1018 71 10000 4 140 16:54 06.08.2019
4143 Clear 14 1018 71 10000 4 140 16:36 06.08.2019
4144 Clear 14 1018 71 10000 4 140 16:18 06.08.2019
4145 Clear 14 1018 71 10000 4 120 15:55 06.08.2019
4146 Clear 14 1018 71 10000 4 120 15:36 06.08.2019
4147 Clear 14 1018 71 10000 4 120 15:18 06.08.2019
4148 Clouds 15 1018 67 10000 5 120 14:40 06.08.2019
4149 Clouds 15 1018 67 10000 5 120 14:40 06.08.2019
4150 Clouds 15 1018 67 10000 5 120 14:21 06.08.2019
4151 Clear 15 1018 67 10000 7 100 13:55 06.08.2019
4152 Clear 15 1018 67 10000 7 100 13:37 06.08.2019
4153 Clear 15 1018 67 10000 7 100 13:18 06.08.2019
4154 Clear 15 1017 62 10000 7 100 12:41 06.08.2019
4155 Clear 15 1017 62 10000 7 100 12:22 06.08.2019
4156 Clear 15 1018 62 10000 8 110 11:46 06.08.2019
4157 Clear 15 1018 62 10000 8 110 11:22 06.08.2019
4158 Clouds 15 1017 62 10000 8 100 10:59 06.08.2019
4159 Clouds 15 1017 62 10000 8 100 10:40 06.08.2019
4160 Clouds 15 1017 62 10000 8 100 10:22 06.08.2019
4161 Clouds 14 1017 67 10000 9 100 09:43 06.08.2019
4162 Clouds 14 1017 67 10000 9 100 09:23 06.08.2019
4163 Clouds 14 1017 67 10000 5 110 08:56 06.08.2019
4164 Clouds 14 1017 67 10000 5 110 08:37 06.08.2019
4165 Clouds 14 1017 67 10000 5 110 08:19 06.08.2019
4166 Clouds 14 1017 71 10000 4 120 07:31 06.08.2019
4167 Clouds 15 1017 67 10000 5 140 06:45 06.08.2019
4168 Clouds 15 1017 67 10000 5 140 06:26 06.08.2019
4169 Clouds 14 1017 71 10000 5 140 05:46 06.08.2019
4170 Clouds 12 1018 81 10000 5 140 02:59 06.08.2019
4171 Rain 12 1018 81 10000 6 110 01:46 06.08.2019
4172 Rain 12 1018 81 10000 6 110 01:21 06.08.2019
4173 Clouds 11 1018 87 10000 8 110 00:26 06.08.2019
4174 Clouds 11 1018 81 10000 7 110 23:21 05.08.2019
4175 Clouds 11 1018 81 10000 9 110 22:59 05.08.2019
4176 Clouds 10 1018 87 10000 9 100 22:40 05.08.2019
4177 Clouds 10 1018 87 10000 9 100 22:22 05.08.2019
4178 Clouds 10 1018 87 10000 9 100 22:22 05.08.2019
4179 Clouds 10 1018 81 10000 10 100 21:43 05.08.2019
4180 Clouds 10 1018 81 10000 10 100 21:21 05.08.2019
4181 Clouds 9 1018 87 10000 10 110 20:59 05.08.2019
4182 Clouds 9 1018 87 10000 10 110 20:40 05.08.2019
4183 Clouds 9 1018 87 10000 10 110 20:22 05.08.2019
4184 Clouds 9 1018 87 10000 10 100 19:59 05.08.2019
4185 Clouds 9 1018 87 10000 10 100 19:38 05.08.2019
4186 Clouds 9 1018 87 10000 10 100 19:20 05.08.2019
4187 Clouds 9 1018 87 10000 9 100 18:42 05.08.2019
4188 Clouds 9 1018 87 10000 9 100 18:21 05.08.2019
4189 Clouds 9 1018 87 10000 10 100 17:57 05.08.2019
4190 Clouds 9 1018 87 10000 10 100 17:39 05.08.2019
4191 Clouds 9 1018 87 10000 10 100 17:20 05.08.2019
4192 Clouds 8 1018 87 10000 10 100 16:43 05.08.2019
4193 Clouds 8 1018 87 10000 10 100 16:23 05.08.2019
4194 Clouds 8 1018 87 10000 10 90 15:43 05.08.2019
4195 Clouds 8 1018 87 10000 10 90 15:20 05.08.2019
4196 Clouds 8 1018 93 10000 11 100 14:43 05.08.2019
4197 Clouds 8 1018 93 10000 11 100 14:23 05.08.2019
4198 Clouds 9 1018 81 10000 10 100 13:57 05.08.2019
4199 Clouds 9 1018 81 10000 10 100 13:39 05.08.2019
4200 Clouds 9 1018 81 10000 10 100 13:18 05.08.2019
4201 Clouds 9 1019 81 10000 8 110 12:42 05.08.2019
4202 Clouds 9 1019 81 10000 8 110 12:19 05.08.2019
4203 Rain 9 1019 81 10000 7 110 11:44 05.08.2019
4204 Rain 9 1019 81 10000 7 110 11:25 05.08.2019
4205 Rain 9 1019 81 10000 8 110 10:49 05.08.2019
4206 Rain 9 1019 81 10000 8 110 10:31 05.08.2019
4207 Clouds 10 1019 71 10000 7 110 09:57 05.08.2019
4208 Clouds 10 1019 71 10000 7 110 09:38 05.08.2019
4209 Clouds 10 1019 71 10000 7 110 09:20 05.08.2019
4210 Clouds 10 1019 71 10000 8 120 08:44 05.08.2019
4211 Clouds 10 1019 71 10000 8 120 08:25 05.08.2019
4212 Clouds 10 1019 76 10000 5 130 07:49 05.08.2019
4213 Clouds 10 1019 76 10000 6 110 07:30 05.08.2019
4214 Clouds 11 1019 71 10000 7 120 06:57 05.08.2019
4215 Clouds 11 1019 71 10000 9 120 06:24 05.08.2019
4216 Clouds 12 1020 62 10000 8 120 05:31 05.08.2019
4217 Clouds 12 1020 62 10000 8 110 04:51 05.08.2019
4218 Clouds 12 1020 58 10000 9 110 03:50 05.08.2019
4219 Clouds 12 1020 66 10000 10 110 02:46 05.08.2019
4220 Clouds 11 1021 76 10000 8 120 01:55 05.08.2019
4221 Fog 11 1021 76 10000 10 100 01:22 05.08.2019
4222 Fog 10 1021 87 10000 10 110 00:40 05.08.2019
4223 Fog 10 1021 87 10000 10 110 00:20 05.08.2019
4224 Fog 9 1021 93 10000 10 100 23:43 04.08.2019
4225 Fog 9 1021 93 10000 10 100 23:23 04.08.2019
4226 Fog 9 1021 93 10000 10 100 22:57 04.08.2019
4227 Fog 9 1021 87 9000 10 100 22:38 04.08.2019
4228 Fog 9 1021 87 9000 10 100 22:20 04.08.2019
4229 Fog 8 1020 93 10000 11 100 21:56 04.08.2019
4230 Fog 8 1020 93 10000 11 100 21:37 04.08.2019
4231 Fog 8 1020 93 10000 11 100 21:19 04.08.2019
4232 Rain 9 1020 87 10000 4 70 20:41 04.08.2019
4233 Rain 9 1020 87 10000 4 70 20:19 04.08.2019
4234 Fog 10 1020 76 10000 6 100 19:54 04.08.2019
4235 Fog 10 1020 76 10000 6 100 19:36 04.08.2019
4236 Fog 10 1020 76 10000 6 100 19:18 04.08.2019
4237 Fog 11 1020 76 10000 7 100 18:41 04.08.2019
4238 Fog 11 1020 76 10000 7 100 18:20 04.08.2019
4239 Fog 11 1019 76 10000 9 100 17:44 04.08.2019
4240 Fog 11 1019 76 10000 9 100 17:24 04.08.2019
4241 Clear 11 1019 76 10000 9 100 16:46 04.08.2019
4242 Clear 11 1019 76 10000 9 100 16:27 04.08.2019
4243 Clear 10 1019 76 10000 9 100 15:56 04.08.2019
4244 Clear 10 1019 76 10000 9 100 15:37 04.08.2019
4245 Clear 10 1019 76 10000 9 100 15:19 04.08.2019
4246 Clear 11 1020 66 10000 9 100 14:42 04.08.2019
4247 Clear 11 1020 66 10000 9 100 14:22 04.08.2019
4248 Clear 11 1019 66 10000 8 100 13:46 04.08.2019
4249 Clear 11 1019 66 10000 8 100 13:27 04.08.2019
4250 Clear 11 1019 62 10000 8 100 12:57 04.08.2019
4251 Clear 11 1019 62 10000 8 100 12:39 04.08.2019
4252 Clear 11 1019 62 10000 8 100 12:21 04.08.2019
4253 Clouds 12 1019 58 10000 7 100 11:46 04.08.2019
4254 Clouds 12 1019 58 10000 7 100 11:23 04.08.2019
4255 Clear 12 1019 58 10000 6 100 10:48 04.08.2019
4256 Clear 12 1019 58 10000 6 100 10:23 04.08.2019
4257 Clear 13 1018 54 10000 6 100 09:47 04.08.2019
4258 Clear 13 1018 54 10000 6 100 09:26 04.08.2019
4259 Clear 13 1018 54 10000 5 120 08:59 04.08.2019
4260 Clear 14 1018 50 10000 4 110 08:35 04.08.2019
4261 Clear 14 1018 54 10000 5 110 07:55 04.08.2019
4262 Clear 14 1018 54 10000 5 110 07:29 04.08.2019
4263 Clear 14 1018 58 10000 6 110 06:42 04.08.2019
4264 Clear 14 1018 58 10000 6 110 06:19 04.08.2019
4265 Rain 13 1017 62 10000 3 190 03:37 04.08.2019
4266 Clear 12 1016 62 10000 2 220 01:52 04.08.2019
4267 Clear 13 1016 62 10000 2 200 01:32 04.08.2019
4268 Clear 13 1015 58 10000 2 240 00:42 04.08.2019
4269 Clear 13 1015 58 10000 2 240 00:24 04.08.2019
4270 Clear 12 1015 62 10000 3 210 23:55 03.08.2019
4271 Clouds 13 1015 58 10000 3 190 23:36 03.08.2019
4272 Clouds 13 1015 58 10000 3 190 23:18 03.08.2019
4273 Clouds 11 1014 76 10000 2 180 22:39 03.08.2019
4274 Clouds 11 1014 76 10000 2 180 22:19 03.08.2019
4275 Clouds 9 1014 81 10000 3 150 21:39 03.08.2019
4276 Clouds 9 1014 81 10000 3 150 21:39 03.08.2019
4277 Clouds 9 1014 81 10000 3 150 21:20 03.08.2019
4278 Clouds 8 1013 87 10000 1 240 20:45 03.08.2019
4279 Clouds 8 1013 87 10000 1 240 20:45 03.08.2019
4280 Clouds 8 1013 87 10000 1 240 20:24 03.08.2019
4281 Clouds 4 1012 93 10000 2 120 19:55 03.08.2019
4282 Clouds 4 1012 93 10000 2 120 19:36 03.08.2019
4283 Clouds 4 1012 93 10000 2 120 19:18 03.08.2019
4284 Clouds 2 1011 74 10000 2 110 18:40 03.08.2019
4285 Clouds 2 1011 81 10000 2 110 18:21 03.08.2019
4286 Clouds 7 1011 81 10000 2 130 17:42 03.08.2019
4287 Clouds 7 1011 81 10000 2 130 17:19 03.08.2019
4288 Clouds 5 1010 86 10000 2 150 16:38 03.08.2019
4289 Clouds 5 1010 86 10000 2 150 16:20 03.08.2019
4290 Clouds 4 1009 93 10000 2 140 15:46 03.08.2019
4291 Clouds 4 1009 93 10000 2 140 15:25 03.08.2019
4292 Clouds 6 1009 87 10000 1.96 242.271 14:48 03.08.2019
4293 Clouds 6 1009 87 10000 1.96 242.271 14:24 03.08.2019
4294 Clouds 5 1008 86 10000 1.96 242.271 13:57 03.08.2019
4295 Clouds 5 1008 86 10000 1.96 242.271 13:37 03.08.2019
4296 Clouds 5 1008 86 10000 1.96 242.271 13:37 03.08.2019
4297 Clouds 5 1008 86 10000 2.49 216.083 13:19 03.08.2019
4298 Clouds 7 1007 81 10000 3 40 12:42 03.08.2019
4299 Clouds 7 1007 81 10000 3 40 12:23 03.08.2019
4300 Clouds 6 1006 87 10000 4 30 11:55 03.08.2019
4301 Clouds 6 1006 87 10000 4 30 11:35 03.08.2019
4302 Clouds 7 1006 87 10000 4 40 10:47 03.08.2019
4303 Clouds 7 1006 87 10000 4 40 10:25 03.08.2019
4304 Clouds 9 1005 81 10000 4 360 09:46 03.08.2019
4305 Clouds 9 1005 81 10000 4 360 09:24 03.08.2019
4306 Clouds 9 1004 87 10000 5 340 08:57 03.08.2019
4307 Clouds 9 1004 87 10000 5 340 08:25 03.08.2019
4308 Clouds 9 1003 93 10000 4 320 07:38 03.08.2019
4309 Rain 9 1003 87 10000 4 320 06:48 03.08.2019
4310 Rain 9 1003 87 10000 4 320 06:18 03.08.2019
4311 Rain 7 1003 93 10000 5 360 02:59 03.08.2019
4312 Rain 7 1003 93 10000 5 360 02:23 03.08.2019
4313 Rain 7 1002 93 10000 5 10 00:58 03.08.2019
4314 Rain 7 1002 93 10000 5 10 00:32 03.08.2019
4315 Rain 7 1002 93 10000 7 10 23:42 02.08.2019
4316 Rain 7 1002 93 10000 7 10 23:20 02.08.2019
4317 Rain 7 1002 100 10000 6 10 22:58 02.08.2019
4318 Rain 7 1002 100 10000 6 10 22:40 02.08.2019
4319 Rain 7 1002 100 10000 6 10 22:21 02.08.2019
4320 Rain 7 1002 93 10000 6 20 21:56 02.08.2019
4321 Rain 7 1002 93 10000 6 20 21:37 02.08.2019
4322 Rain 7 1002 93 10000 6 20 21:18 02.08.2019
4323 Rain 8 1002 93 10000 5 20 20:42 02.08.2019
4324 Rain 8 1002 93 10000 5 20 20:22 02.08.2019
4325 Rain 8 1002 93 10000 5 10 19:50 02.08.2019
4326 Rain 8 1002 93 10000 5 10 19:50 02.08.2019
4327 Rain 8 1002 93 10000 5 10 19:30 02.08.2019
4328 Rain 8 1002 93 10000 6 360 18:50 02.08.2019
4329 Rain 8 1002 93 10000 6 360 18:32 02.08.2019
4330 Rain 8 1001 93 10000 6 20 17:56 02.08.2019
4331 Rain 8 1001 93 10000 6 20 17:38 02.08.2019
4332 Rain 8 1001 93 10000 6 20 17:19 02.08.2019
4333 Rain 8 1002 100 10000 4 10 16:39 02.08.2019
4334 Rain 8 1002 100 10000 4 10 16:20 02.08.2019
4335 -273 0 0 0 0 0 15:47 02.08.2019
4336 Rain 8 1002 93 10000 5 30 15:21 02.08.2019
4337 Rain 8 1002 93 10000 5 20 14:59 02.08.2019
4338 Rain 8 1002 93 10000 5 20 14:40 02.08.2019
4339 Rain 8 1002 93 10000 5 20 14:18 02.08.2019
4340 Rain 9 1002 87 10000 2 20 13:45 02.08.2019
4341 Rain 9 1002 87 10000 2 20 13:20 02.08.2019
4342 Rain 9 1002 87 10000 7 70 12:43 02.08.2019
4343 Rain 9 1002 87 10000 7 70 12:19 02.08.2019
4344 Rain 9 1003 87 10000 5 80 11:41 02.08.2019
4345 Rain 10 1003 87 10000 5 80 11:22 02.08.2019
4346 Rain 10 1002 87 10000 7 90 10:45 02.08.2019
4347 Rain 10 1002 87 10000 7 90 10:24 02.08.2019
4348 Rain 10 1003 93 10000 6 90 09:55 02.08.2019
4349 Rain 10 1003 93 10000 5 80 09:37 02.08.2019
4350 Rain 10 1003 93 10000 5 80 09:18 02.08.2019
4351 Rain 10 1003 87 10000 3 80 08:40 02.08.2019
4352 Rain 11 1003 87 10000 3 80 08:18 02.08.2019
4353 Rain 11 1003 87 10000 2 10 07:40 02.08.2019
4354 Rain 11 1003 87 10000 2 10 07:21 02.08.2019
4355 Rain 11 1004 93 9000 2 330 06:33 02.08.2019
4356 Rain 10 1004 93 8000 3 50 05:43 02.08.2019
4357 Rain 11 1005 87 10000 3 70 03:34 02.08.2019
4358 Rain 10 1006 87 9000 3 50 02:38 02.08.2019
4359 Rain 10 1006 81 10000 5 60 01:38 02.08.2019
4360 Rain 10 1006 87 10000 7 90 00:32 02.08.2019
4361 Rain 10 1006 81 10000 6 70 23:44 01.08.2019
4362 Rain 11 1006 81 10000 6 70 23:26 01.08.2019
4363 Clouds 10 1007 87 10000 7 80 22:45 01.08.2019
4364 Clouds 10 1007 87 10000 7 80 22:25 01.08.2019
4365 Rain 10 1007 87 10000 6 70 21:57 01.08.2019
4366 Rain 10 1007 87 10000 6 70 21:39 01.08.2019
4367 Rain 10 1007 87 10000 6 70 21:21 01.08.2019
4368 Rain 10 1007 87 10000 5 80 20:46 01.08.2019
4369 Rain 10 1007 87 10000 5 80 20:23 01.08.2019
4370 Rain 10 1008 87 10000 5 60 19:58 01.08.2019
4371 Rain 10 1008 87 10000 5 60 19:37 01.08.2019
4372 Rain 10 1008 87 10000 5 60 19:18 01.08.2019
4373 Rain 10 1008 87 10000 5 90 18:42 01.08.2019
4374 Rain 10 1008 87 10000 5 90 18:42 01.08.2019
4375 Rain 10 1008 87 10000 5 90 18:23 01.08.2019
4376 Rain 10 1008 87 10000 5 90 18:23 01.08.2019
4377 Rain 10 1009 87 10000 2 80 17:47 01.08.2019
4378 Rain 10 1009 87 10000 2 80 17:29 01.08.2019
4379 Rain 11 1009 81 10000 2 50 16:45 01.08.2019
4380 Rain 11 1009 81 10000 2 50 16:23 01.08.2019
4381 Rain 10 1010 87 10000 3 110 15:46 01.08.2019
4382 Rain 10 1010 87 10000 3 110 15:22 01.08.2019
4383 Rain 10 1010 87 10000 3 110 15:22 01.08.2019
4384 Rain 11 1010 81 10000 2 120 14:59 01.08.2019
4385 Rain 11 1010 81 10000 2 120 14:41 01.08.2019
4386 Rain 11 1010 81 10000 2 120 14:19 01.08.2019
4387 Rain 11 1010 87 10000 2 140 13:56 01.08.2019
4388 Rain 11 1010 87 10000 2 140 13:38 01.08.2019
4389 Rain 11 1010 87 10000 2 140 13:20 01.08.2019
4390 Rain 12 1010 76 10000 3 180 12:41 01.08.2019
4391 Rain 12 1010 76 10000 3 180 12:22 01.08.2019
4392 Rain 12 1010 81 10000 3 160 11:43 01.08.2019
4393 Rain 12 1010 81 10000 3 160 11:24 01.08.2019
4394 Clear 14 1010 58 10000 2 160 10:46 01.08.2019
4395 Clear 14 1010 58 10000 2 160 10:28 01.08.2019
4396 Clear 14 1010 62 10000 2 220 09:59 01.08.2019
4397 Clear 14 1010 62 10000 2 220 09:41 01.08.2019
4398 Clear 14 1010 62 10000 2 220 09:41 01.08.2019
4399 Clear 14 1010 62 10000 2 220 09:22 01.08.2019
4400 Clear 15 1010 58 10000 2 240 08:45 01.08.2019
4401 Clear 15 1010 58 10000 2 240 08:20 01.08.2019
4402 Clear 15 1010 54 10000 3 240 07:50 01.08.2019
4403 Clear 15 1010 54 10000 4 240 07:25 01.08.2019
4404 Clear 15 1010 54 10000 3 250 06:49 01.08.2019
4405 Clear 15 1010 54 10000 3 280 06:27 01.08.2019
4406 Clouds 15 1010 54 10000 6 280 04:24 01.08.2019
4407 Clouds 14 1010 58 10000 4 270 02:35 01.08.2019
4408 Clouds 13 1010 54 10000 6 310 00:49 01.08.2019
4409 Clouds 12 1011 58 10000 4 330 00:25 01.08.2019
4410 Clear 11 1011 66 10000 3 330 23:43 31.07.2019
4411 Clear 11 1011 66 10000 3 330 23:43 31.07.2019
4412 Clear 11 1011 66 10000 3 330 23:21 31.07.2019
4413 Clear 11 1011 62 10000 2 320 22:58 31.07.2019
4414 Clear 10 1011 76 10000 2 350 22:40 31.07.2019
4415 Clear 9 1011 76 10000 2 350 22:21 31.07.2019
4416 Clear 8 1011 75 10000 3 360 21:39 31.07.2019
4417 Clear 8 1011 75 10000 3 360 21:39 31.07.2019
4418 Clear 8 1011 75 10000 3 360 21:20 31.07.2019
4419 Clear 7 1010 81 10000 2 360 20:48 31.07.2019
4420 Clear 7 1010 81 10000 2 360 20:22 31.07.2019
4421 Clear 4 1009 86 10000 1 350 19:43 31.07.2019
4422 Clear 4 1009 86 10000 1 350 19:24 31.07.2019
4423 Clear 3 1009 86 10000 3 10 18:55 31.07.2019
4424 Clear 3 1009 86 10000 3 10 18:37 31.07.2019
4425 Clear 2 1009 86 10000 3 10 18:18 31.07.2019
4426 Clear 2 1009 78 10000 3 10 17:42 31.07.2019
4427 Clear 2 1009 78 10000 3 10 17:20 31.07.2019
4428 Clear 5 1008 86 10000 4 340 16:47 31.07.2019
4429 Clear 5 1008 86 10000 4 340 16:20 31.07.2019
4430 Clear 6 1008 81 10000 3 340 15:46 31.07.2019
4431 Clear 6 1008 81 10000 3 340 15:26 31.07.2019
4432 Clear 5 1008 86 10000 3 350 14:59 31.07.2019
4433 Clear 5 1008 86 10000 3 350 14:40 31.07.2019
4434 Clear 5 1008 86 10000 3 350 14:18 31.07.2019
4435 Clear 7 1007 81 10000 4 350 13:45 31.07.2019
4436 Clear 7 1007 81 10000 4 350 13:26 31.07.2019
4437 Clear 7 1007 87 10000 3 350 12:57 31.07.2019
4438 Clear 7 1007 87 10000 3 350 12:38 31.07.2019
4439 Clear 7 1007 87 10000 3 350 12:18 31.07.2019
4440 Clear 10 1006 76 10000 3 350 11:39 31.07.2019
4441 Clear 10 1006 76 10000 3 350 11:20 31.07.2019
4442 Clear 13 1006 58 10000 4 300 10:44 31.07.2019
4443 Clear 13 1006 58 10000 4 300 10:21 31.07.2019
4444 Clear 14 1006 54 10000 6 300 09:57 31.07.2019
4445 Clear 14 1006 54 10000 6 300 09:38 31.07.2019
4446 Clear 14 1006 54 10000 6 300 09:20 31.07.2019
4447 Clear 15 1005 51 10000 7 300 08:42 31.07.2019
4448 Clear 15 1005 51 10000 7 300 08:22 31.07.2019
4449 Clear 15 1005 47 10000 7 300 07:35 31.07.2019
4450 Clear 16 1005 44 10000 9 280 06:44 31.07.2019
4451 Clouds 16 1005 48 10000 8 280 04:56 31.07.2019
4452 Clouds 16 1005 55 10000 6 290 03:25 31.07.2019
4453 Clear 14 1005 71 10000 3 270 00:20 31.07.2019
4454 Clear 13 1005 76 10000 2 270 23:40 30.07.2019
4455 Clear 13 1005 76 10000 2 270 23:19 30.07.2019
4456 Clouds 12 1005 87 10000 1 330 22:46 30.07.2019
4457 Clouds 12 1005 87 10000 1 330 22:25 30.07.2019
4458 Clouds 11 1005 93 10000 2 340 21:57 30.07.2019
4459 Clouds 11 1005 93 10000 2 340 21:36 30.07.2019
4460 Clouds 11 1005 93 10000 2 340 21:18 30.07.2019
4461 Clouds 11 1005 93 10000 2 40 20:43 30.07.2019
4462 Clouds 11 1005 93 10000 2 40 20:24 30.07.2019
4463 Rain 10 1005 100 5000 1 360 19:59 30.07.2019
4464 Rain 10 1005 100 5000 1 360 19:39 30.07.2019
4465 Rain 10 1005 100 3700 2 30 18:58 30.07.2019
4466 Rain 10 1005 100 3700 2 30 18:39 30.07.2019
4467 Rain 10 1005 100 3700 2 30 18:19 30.07.2019
4468 Clouds 11 1005 93 10000 1 90 17:42 30.07.2019
4469 Clouds 11 1005 93 10000 1 90 17:19 30.07.2019
4470 Clouds 11 1005 93 10000 1 90 17:19 30.07.2019
4471 Rain 11 1005 93 10000 1 120 16:52 30.07.2019
4472 Rain 11 1005 93 10000 1 120 16:21 30.07.2019
4473 Rain 11 1005 93 10000 1 150 15:58 30.07.2019
4474 Rain 11 1005 93 10000 1 150 15:38 30.07.2019
4475 Rain 11 1005 93 10000 1 150 15:19 30.07.2019
4476 Rain 11 1005 93 10000 1 110 14:42 30.07.2019
4477 Rain 11 1005 93 10000 1 110 14:21 30.07.2019
4478 Rain 12 1005 87 10000 1 170 13:47 30.07.2019
4479 Rain 12 1005 87 10000 1 170 13:29 30.07.2019
4480 Clouds 12 1005 87 10000 2 160 12:59 30.07.2019
4481 Clouds 12 1005 87 10000 2 160 12:59 30.07.2019
4482 Clouds 12 1005 87 10000 2 160 12:40 30.07.2019
4483 Clouds 12 1005 87 10000 2 160 12:22 30.07.2019
4484 Clear 12 1005 93 10000 1 160 11:42 30.07.2019
4485 Clear 12 1005 93 10000 1 160 11:20 30.07.2019
4486 Clear 13 1005 87 10000 2 150 10:49 30.07.2019
4487 Clear 13 1005 87 10000 2 150 10:29 30.07.2019
4488 Clear 13 1005 87 10000 3 180 09:55 30.07.2019
4489 Clear 13 1005 87 10000 3 180 09:37 30.07.2019
4490 Clear 13 1005 87 10000 3 180 09:18 30.07.2019
4491 Clear 13 1005 87 10000 3 180 08:32 30.07.2019
4492 Clouds 13 1005 87 10000 4 170 07:50 30.07.2019
4493 Clouds 13 1005 82 10000 1 250 07:31 30.07.2019
4494 Clouds 14 1005 54 10000 1 280 06:48 30.07.2019
4495 Clouds 14 1005 54 10000 1 280 06:28 30.07.2019
4496 Clouds 14 1005 67 10000 2 270 05:34 30.07.2019
4497 Rain 12 1006 81 10000 2 340 03:28 30.07.2019
4498 Rain 12 1005 93 10000 2 290 01:22 30.07.2019
4499 Rain 12 1005 87 10000 2 250 00:25 30.07.2019
4500 Rain 12 1005 87 10000 2 240 23:47 29.07.2019
4501 Rain 12 1005 87 10000 2 250 23:28 29.07.2019
4502 Rain 12 1005 87 10000 2 260 22:58 29.07.2019
4503 Rain 12 1005 87 10000 2 260 22:58 29.07.2019
4504 Rain 12 1005 87 10000 2 230 22:39 29.07.2019
4505 Rain 12 1005 87 10000 2 230 22:20 29.07.2019
4506 Rain 12 1005 87 10000 2 230 22:20 29.07.2019
4507 Rain 11 1005 100 10000 4 170 21:59 29.07.2019
4508 Rain 11 1005 100 10000 4 170 21:41 29.07.2019
4509 Rain 11 1005 100 10000 4 170 21:22 29.07.2019
4510 Rain 11 1004 93 10000 5 160 20:55 29.07.2019
4511 Rain 11 1004 93 10000 5 160 20:37 29.07.2019
4512 Rain 11 1004 93 10000 5 160 20:19 29.07.2019
4513 Rain 11 1004 93 10000 5 180 19:42 29.07.2019
4514 Rain 11 1004 93 10000 5 180 19:21 29.07.2019
4515 Rain 10 1004 100 10000 4 170 18:43 29.07.2019
4516 Rain 10 1004 100 10000 4 170 18:23 29.07.2019
4517 Clouds 11 1004 93 10000 3 170 17:57 29.07.2019
4518 Clouds 11 1004 93 10000 3 170 17:39 29.07.2019
4519 Clouds 11 1004 93 10000 3 170 17:20 29.07.2019
4520 Clouds 11 1004 93 10000 4 170 16:43 29.07.2019
4521 Clouds 11 1004 93 10000 4 170 16:23 29.07.2019
4522 Clouds 11 1004 93 10000 2 160 15:54 29.07.2019
4523 Clouds 11 1004 93 10000 2 160 15:54 29.07.2019
4524 Clouds 11 1004 93 10000 2 160 15:35 29.07.2019
4525 Clouds 11 1003 93 10000 4 170 14:57 29.07.2019
4526 Clouds 11 1003 93 10000 4 170 14:39 29.07.2019
4527 Clouds 11 1003 93 10000 4 170 14:21 29.07.2019
4528 Clouds 12 1003 93 10000 2 170 13:43 29.07.2019
4529 Clouds 12 1003 93 10000 2 170 13:23 29.07.2019
4530 Clouds 12 1003 87 10000 4 180 12:43 29.07.2019
4531 Clouds 12 1003 87 10000 4 180 12:25 29.07.2019
4532 Clouds 12 1002 87 10000 3 170 11:45 29.07.2019
4533 Clouds 13 1002 87 10000 3 170 11:24 29.07.2019
4534 Clouds 13 1002 87 10000 3 180 10:59 29.07.2019
4535 Clouds 13 1002 87 10000 3 170 10:40 29.07.2019
4536 Clouds 13 1002 87 10000 3 170 10:21 29.07.2019
4537 Rain 13 1002 87 10000 3 150 09:41 29.07.2019
4538 Rain 13 1002 87 10000 3 150 09:21 29.07.2019
4539 Rain 13 1001 82 10000 4 170 08:42 29.07.2019
4540 Rain 13 1001 82 10000 4 170 08:22 29.07.2019
4541 Clouds 13 1001 76 10000 4 170 07:45 29.07.2019
4542 Clouds 14 1001 76 10000 4 170 07:24 29.07.2019
4543 Clouds 14 1001 76 10000 5 150 05:52 29.07.2019
4544 Clouds 13 1001 82 10000 5 130 04:59 29.07.2019
4545 Clouds 11 1002 93 10000 6 140 02:43 29.07.2019
4546 Clouds 11 1001 93 10000 7 140 01:47 29.07.2019
4547 Clouds 11 1001 93 10000 6 130 01:26 29.07.2019
4548 Clouds 11 1001 93 10000 7 140 00:52 29.07.2019
4549 Clouds 11 1001 93 10000 6 130 00:23 29.07.2019
4550 Rain 10 1002 100 8000 6 140 23:41 28.07.2019
4551 Rain 10 1002 100 8000 6 140 23:19 28.07.2019
4552 Rain 10 1002 100 10000 7 140 22:43 28.07.2019
4553 Rain 10 1002 100 10000 7 140 22:24 28.07.2019
4554 Fog 11 1003 93 9000 6 140 21:50 28.07.2019
4555 Fog 11 1003 93 9000 6 140 21:20 28.07.2019
4556 Rain 11 1003 93 10000 6 140 20:49 28.07.2019
4557 Rain 11 1003 93 10000 6 140 20:30 28.07.2019
4558 Rain 11 1003 93 9000 5 160 19:57 28.07.2019
4559 Rain 11 1003 93 9000 5 160 19:38 28.07.2019
4560 Rain 11 1003 93 9000 5 160 19:20 28.07.2019
4561 Rain 11 1003 93 10000 5 160 18:45 28.07.2019
4562 Rain 11 1003 93 10000 5 160 18:25 28.07.2019
4563 Rain 11 1003 93 9000 4 140 17:55 28.07.2019
4564 Rain 11 1003 93 9000 4 140 17:37 28.07.2019
4565 Rain 11 1003 93 9000 4 140 17:19 28.07.2019
4566 Rain 12 1004 87 10000 5 150 16:41 28.07.2019
4567 Rain 12 1004 87 10000 5 150 16:22 28.07.2019
4568 Clouds 12 1004 87 10000 4 150 15:44 28.07.2019
4569 Clouds 12 1004 87 10000 4 150 15:24 28.07.2019
4570 Clouds 12 1004 93 10000 4 140 14:39 28.07.2019
4571 Clouds 12 1004 93 10000 4 140 14:20 28.07.2019
4572 Clouds 13 1004 82 10000 6 100 13:56 28.07.2019
4573 Clouds 13 1004 82 10000 6 100 13:56 28.07.2019
4574 Clouds 13 1004 82 10000 6 100 13:56 28.07.2019
4575 Clouds 13 1004 82 10000 6 100 13:37 28.07.2019
4576 Clouds 13 1004 82 10000 6 100 13:19 28.07.2019
4577 Clear 13 1004 82 10000 5 100 12:42 28.07.2019
4578 Clear 13 1004 82 10000 5 100 12:23 28.07.2019
4579 Clear 13 1004 82 10000 5 100 12:23 28.07.2019
4580 Clouds 13 1004 82 10000 5 120 11:49 28.07.2019
4581 Clouds 13 1004 82 10000 5 120 11:28 28.07.2019
4582 Clouds 13 1003 76 10000 8 110 10:43 28.07.2019
4583 Clouds 13 1003 76 10000 8 110 10:23 28.07.2019
4584 Rain 13 1003 76 10000 8 100 10:00 28.07.2019
4585 Rain 13 1003 76 10000 8 100 09:39 28.07.2019
4586 Rain 13 1003 76 10000 8 100 09:20 28.07.2019
4587 Clouds 13 1003 76 10000 9 100 08:41 28.07.2019
4588 Clouds 13 1003 76 10000 9 100 08:21 28.07.2019
4589 Rain 14 1003 67 10000 9 110 07:40 28.07.2019
4590 Rain 14 1003 67 10000 8 100 06:56 28.07.2019
4591 Clouds 13 1003 71 10000 7 120 06:32 28.07.2019
4592 Rain 14 1003 71 10000 8 120 05:19 28.07.2019
4593 Clouds 15 1003 67 10000 6 130 02:25 28.07.2019
4594 Clouds 14 1003 71 10000 6 160 01:32 28.07.2019
4595 Clouds 14 1003 71 10000 5 160 00:52 28.07.2019
4596 Clouds 14 1003 71 10000 5 160 00:25 28.07.2019
4597 Clouds 13 1003 82 10000 6 160 23:52 27.07.2019
4598 Clouds 13 1003 82 10000 6 160 23:27 27.07.2019
4599 Fog 12 1003 87 10000 3 190 22:43 27.07.2019
4600 Fog 12 1003 87 10000 3 190 22:23 27.07.2019
4601 Fog 12 1002 81 10000 3 170 21:47 27.07.2019
4602 Fog 12 1002 81 10000 3 170 21:23 27.07.2019
4603 Clear 12 1002 81 10000 1 160 20:56 27.07.2019
4604 Clear 12 1002 81 10000 1 160 20:37 27.07.2019
4605 Clear 12 1002 81 10000 1 160 20:19 27.07.2019
4606 Clear 8 1002 93 10000 1 100 19:39 27.07.2019
4607 Clear 8 1002 93 10000 1 100 19:21 27.07.2019
4608 Clouds 7 1002 93 10000 2 100 18:46 27.07.2019
4609 Clouds 7 1002 93 10000 2 100 18:28 27.07.2019
4610 Clouds 7 1001 93 10000 3 110 17:50 27.07.2019
4611 Clouds 7 1001 93 10000 3 110 17:32 27.07.2019
4612 Clouds 10 1001 87 10000 2 150 16:55 27.07.2019
4613 Clouds 10 1001 87 10000 2 150 16:37 27.07.2019
4614 Clouds 7 1001 93 10000 2 130 15:56 27.07.2019
4615 Clouds 7 1001 93 10000 2 130 15:36 27.07.2019
4616 Clouds 7 1001 93 10000 2 130 15:18 27.07.2019
4617 Clear 7 1000 93 10000 2 110 14:41 27.07.2019
4618 Clear 7 1000 93 10000 2 110 14:23 27.07.2019
4619 Clear 10 1000 87 10000 1 140 13:46 27.07.2019
4620 Clear 10 1000 87 10000 1 140 13:22 27.07.2019
4621 Clear 9 1000 87 10000 1 120 12:50 27.07.2019
4622 Clear 9 1000 87 10000 1 120 12:27 27.07.2019
4623 Clouds 13 999 71 10000 2 270 11:54 27.07.2019
4624 Clouds 13 999 71 10000 2 270 11:36 27.07.2019
4625 Clouds 13 999 71 10000 2 270 11:18 27.07.2019
4626 Clouds 14 999 67 10000 4 270 10:40 27.07.2019
4627 Clouds 14 999 67 10000 4 270 10:20 27.07.2019
4628 Rain 15 998 58 10000 5 270 09:40 27.07.2019
4629 Rain 15 998 58 10000 5 270 09:22 27.07.2019
4630 -273 0 0 0 0 0 08:48 27.07.2019
4631 Clouds 16 998 48 10000 5 260 08:29 27.07.2019
4632 Clouds 16 998 48 10000 5 260 07:50 27.07.2019
4633 Clouds 16 998 48 10000 5 260 07:27 27.07.2019
4634 Clouds 15 998 51 10000 3 260 06:56 27.07.2019
4635 Clouds 15 998 51 10000 3 260 06:30 27.07.2019
4636 Clouds 15 998 44 10000 4 270 05:51 27.07.2019
4637 Clouds 15 998 44 10000 4 270 05:18 27.07.2019
4638 Clouds 15 997 54 10000 3 280 04:30 27.07.2019
4639 Clouds 14 997 58 10000 3 270 02:58 27.07.2019
4640 Clouds 14 997 58 10000 3 270 02:31 27.07.2019
4641 Clouds 14 997 58 10000 3 300 01:44 27.07.2019
4642 Clouds 13 997 58 10000 3 300 00:59 27.07.2019
4643 Clouds 13 997 58 10000 3 300 00:32 27.07.2019
4644 Clouds 12 997 62 10000 3 300 23:53 26.07.2019
4645 Clouds 12 997 62 10000 3 300 23:32 26.07.2019
4646 Clouds 11 997 76 10000 3 290 22:56 26.07.2019
4647 Clouds 11 997 76 10000 3 290 22:38 26.07.2019
4648 Clouds 11 997 76 10000 3 290 22:20 26.07.2019
4649 Clouds 10 997 81 10000 4 310 21:44 26.07.2019
4650 Clouds 10 997 81 10000 4 310 21:44 26.07.2019
4651 Clouds 10 997 81 10000 4 310 21:19 26.07.2019
4652 Clouds 9 997 81 10000 2 320 20:42 26.07.2019
4653 Clouds 9 997 81 10000 2 320 20:22 26.07.2019
4654 Clouds 7 997 93 10000 3 320 19:43 26.07.2019
4655 Clouds 7 997 93 10000 3 320 19:24 26.07.2019
4656 Clouds 7 997 93 10000 3 320 18:57 26.07.2019
4657 Clouds 7 997 93 10000 3 320 18:37 26.07.2019
4658 Clouds 7 997 93 10000 3 320 18:19 26.07.2019
4659 Clouds 8 997 87 10000 2 310 17:44 26.07.2019
4660 Clouds 8 997 87 10000 2 310 17:19 26.07.2019
4661 Clouds 9 997 81 10000 3 300 16:57 26.07.2019
4662 Clouds 9 997 81 10000 3 300 16:38 26.07.2019
4663 Clouds 9 997 81 10000 3 300 16:19 26.07.2019
4664 Clouds 9 997 87 10000 3 310 15:55 26.07.2019
4665 Clouds 9 997 87 10000 3 310 15:36 26.07.2019
4666 Clouds 9 997 87 10000 3 310 15:18 26.07.2019
4667 Clouds 8 997 87 10000 2 300 14:42 26.07.2019
4668 Clouds 8 997 87 10000 2 300 14:22 26.07.2019
4669 Clouds 9 996 81 10000 5 300 13:42 26.07.2019
4670 Clouds 9 996 81 10000 5 300 13:24 26.07.2019
4671 Clouds 11 996 76 10000 4 290 12:49 26.07.2019
4672 Clouds 11 996 76 10000 4 290 12:20 26.07.2019
4673 Clouds 11 996 71 10000 5 300 11:47 26.07.2019
4674 Clouds 11 996 76 10000 4 300 11:22 26.07.2019
4675 Clouds 11 996 81 10000 4 310 10:58 26.07.2019
4676 Clouds 11 996 71 10000 5 300 10:38 26.07.2019
4677 Clouds 11 996 76 10000 6 300 09:59 26.07.2019
4678 Clouds 11 996 76 10000 6 290 09:41 26.07.2019
4679 Clouds 12 996 76 10000 6 290 09:21 26.07.2019
4680 Rain 12 996 76 10000 6 290 08:40 26.07.2019
4681 Rain 12 996 76 10000 6 290 08:20 26.07.2019
4682 Rain 12 996 76 10000 5 300 07:36 26.07.2019
4683 Rain 12 996 76 10000 5 300 07:18 26.07.2019
4684 Rain 10 996 93 10000 2 360 05:43 26.07.2019
4685 Clouds 13 996 71 10000 8 270 04:30 26.07.2019
4686 Clouds 12 996 76 10000 9 280 03:44 26.07.2019
4687 Clouds 11 996 81 10000 6 290 01:45 26.07.2019
4688 Clouds 10 996 81 10000 6 290 00:50 26.07.2019
4689 Clouds 11 996 81 10000 6 290 00:25 26.07.2019
4690 Clouds 10 996 87 10000 5 290 23:26 25.07.2019
4691 Rain 10 996 87 10000 6 290 22:59 25.07.2019
4692 Rain 10 996 100 10000 6 290 22:41 25.07.2019
4693 Rain 9 996 100 10000 6 290 22:21 25.07.2019
4694 Rain 9 996 100 10000 6 290 22:21 25.07.2019
4695 Rain 9 997 87 10000 2 160 21:47 25.07.2019
4696 Rain 9 997 87 10000 2 160 21:23 25.07.2019
4697 Rain 9 996 93 10000 2 170 20:49 25.07.2019
4698 Rain 9 996 93 10000 2 170 20:31 25.07.2019
4699 Rain 9 996 93 10000 1 140 19:55 25.07.2019
4700 Rain 9 996 93 10000 1 140 19:37 25.07.2019
4701 Rain 9 996 93 10000 1 140 19:19 25.07.2019
4702 Rain 9 996 87 10000 1 130 18:40 25.07.2019
4703 Rain 9 996 87 10000 1 130 18:22 25.07.2019
4704 Clouds 8 997 93 10000 3 110 17:48 25.07.2019
4705 Clouds 8 997 93 10000 3 110 17:30 25.07.2019
4706 Clouds 7 997 93 10000 2 130 16:56 25.07.2019
4707 Clouds 7 997 93 10000 2 130 16:37 25.07.2019
4708 Clouds 7 997 93 10000 2 130 16:18 25.07.2019
4709 Fog 5 997 93 10000 1 100 15:42 25.07.2019
4710 Fog 5 997 93 10000 1 100 15:19 25.07.2019
4711 Fog 6 997 100 10000 1 110 14:42 25.07.2019
4712 Fog 6 997 100 10000 1 110 14:22 25.07.2019
4713 Fog 7 997 100 750 1 130 13:44 25.07.2019
4714 Fog 7 997 100 750 1 130 13:26 25.07.2019
4715 Fog 6 997 100 10000 1 270 12:57 25.07.2019
4716 Fog 6 997 100 10000 1 270 12:28 25.07.2019
4717 Rain 8 997 93 10000 3 110 11:46 25.07.2019
4718 Rain 8 997 93 10000 3 110 11:25 25.07.2019
4719 Clouds 10 997 87 10000 4 110 10:55 25.07.2019
4720 Clouds 10 997 87 10000 4 110 10:36 25.07.2019
4721 Clouds 10 997 87 10000 4 110 10:18 25.07.2019
4722 Clouds 10 997 87 10000 2 150 09:40 25.07.2019
4723 Clouds 10 997 87 10000 2 150 09:18 25.07.2019
4724 Rain 10 997 87 10000 4 140 08:42 25.07.2019
4725 Rain 11 997 87 10000 5 140 07:56 25.07.2019
4726 Rain 11 997 87 10000 5 160 07:34 25.07.2019
4727 Clouds 12 997 81 10000 4 170 06:43 25.07.2019
4728 Clouds 13 997 76 10000 4 190 05:39 25.07.2019
4729 Clouds 13 997 76 10000 4 190 05:20 25.07.2019
4730 Clouds 12 997 71 10000 1 350 04:36 25.07.2019
4731 Clouds 11 999 87 10000 2 340 01:45 25.07.2019
4732 Clouds 11 999 87 10000 2 340 01:18 25.07.2019
4733 Clouds 10 999 93 10000 1.56 319.363 00:20 25.07.2019
4734 Fog 10 999 93 10000 1.56 319.363 23:46 24.07.2019
4735 Fog 10 999 93 10000 1.56 319.363 23:27 24.07.2019
4736 Rain 9 999 100 10000 1.56 319.363 22:55 24.07.2019
4737 Rain 9 999 100 10000 1.56 319.363 22:55 24.07.2019
4738 Rain 9 999 100 3800 1 360 22:36 24.07.2019
4739 Rain 9 999 100 3800 1 360 22:18 24.07.2019
4740 Rain 9 1000 93 10000 1 350 21:42 24.07.2019
4741 Rain 9 1000 93 10000 1 350 21:21 24.07.2019
4742 Rain 9 1000 93 10000 1 350 21:21 24.07.2019
4743 Rain 9 1000 93 10000 1 50 20:55 24.07.2019
4744 Rain 9 1000 93 10000 1 50 20:37 24.07.2019
4745 Rain 9 1000 93 10000 1 50 20:19 24.07.2019
4746 Rain 9 1000 93 10000 2 50 19:42 24.07.2019
4747 Rain 9 1000 93 10000 2 50 19:22 24.07.2019
4748 Rain 8 1000 100 10000 2.12 99.027 18:45 24.07.2019
4749 Rain 8 1000 100 10000 2.2 148.857 18:25 24.07.2019
4750 Rain 8 1001 100 9000 1 160 17:56 24.07.2019
4751 Rain 8 1001 100 9000 1 160 17:37 24.07.2019
4752 Rain 8 1001 100 9000 1 160 17:18 24.07.2019
4753 Rain 9 1001 93 10000 1 100 16:40 24.07.2019
4754 Rain 9 1001 93 10000 1 100 16:40 24.07.2019
4755 Rain 9 1001 93 10000 1 100 16:21 24.07.2019
4756 Rain 8 1001 93 10000 2 70 15:39 24.07.2019
4757 Rain 8 1001 93 10000 2 70 15:21 24.07.2019
4758 Rain 9 1002 93 10000 3 110 14:50 24.07.2019
4759 Clouds 9 1002 93 10000 4 120 14:23 24.07.2019
4760 Clouds 9 1002 93 10000 4 120 13:58 24.07.2019
4761 Clouds 9 1002 93 10000 4 120 13:36 24.07.2019
4762 Clouds 9 1002 93 10000 4 120 13:18 24.07.2019
4763 Rain 10 1003 93 0 3.58 140 12:46 24.07.2019
4764 Rain 10 1003 93 10000 2 140 12:23 24.07.2019
4765 Rain 10 1003 93 10000 2 140 11:38 24.07.2019
4766 Rain 10 1003 93 10000 2 140 11:19 24.07.2019
4767 Rain 10 1002 93 10000 2 130 10:43 24.07.2019
4768 Rain 10 1002 93 10000 2 130 10:24 24.07.2019
4769 Rain 11 1003 93 10000 2 130 09:44 24.07.2019
4770 Rain 11 1003 93 10000 2 130 09:44 24.07.2019
4771 Rain 11 1003 93 10000 2 130 09:24 24.07.2019
4772 Rain 11 1003 87 10000 2 110 08:55 24.07.2019
4773 Rain 12 1003 87 8000 5 70 08:30 24.07.2019
4774 Rain 13 1003 82 10000 4 60 07:51 24.07.2019
4775 Rain 13 1002 82 10000 3 30 07:23 24.07.2019
4776 Rain 13 1003 76 10000 2 310 06:29 24.07.2019
4777 Rain 12 1003 87 10000 2 340 05:33 24.07.2019
4778 Rain 12 1004 76 10000 2 330 01:59 24.07.2019
4779 Rain 12 1004 76 10000 3 350 01:29 24.07.2019
4780 Rain 11 1005 87 10000 4 350 00:57 24.07.2019
4781 Rain 11 1005 87 10000 4 360 00:22 24.07.2019
4782 Rain 10 1005 93 10000 3 350 23:42 23.07.2019
4783 Rain 10 1005 93 10000 3 350 23:23 23.07.2019
4784 Rain 10 1005 93 10000 4 10 22:39 23.07.2019
4785 Rain 9 1005 93 10000 4 10 22:19 23.07.2019
4786 Rain 8 1005 93 10000 3 360 21:58 23.07.2019
4787 Rain 8 1005 93 10000 3 360 21:58 23.07.2019
4788 Rain 8 1005 93 10000 3 360 21:40 23.07.2019
4789 Rain 8 1005 93 10000 3 360 21:40 23.07.2019
4790 Rain 8 1005 93 10000 3 360 21:21 23.07.2019
4791 Rain 8 1005 93 10000 2 360 20:44 23.07.2019
4792 Rain 8 1005 93 10000 2 360 20:21 23.07.2019
4793 Clouds 7 1005 93 10000 3.58 341.272 19:42 23.07.2019
4794 Clouds 7 1005 93 10000 3.58 341.272 19:19 23.07.2019
4795 Clouds 7 1005 87 10000 1 90 18:48 23.07.2019
4796 Clouds 7 1005 87 10000 1 90 18:24 23.07.2019
4797 Clouds 7 1005 87 10000 4.09 330.625 17:45 23.07.2019
4798 Clouds 7 1005 87 10000 4.09 330.625 17:26 23.07.2019
4799 Clear 7 1005 81 10000 1 280 16:58 23.07.2019
4800 Clear 7 1005 81 10000 1 280 16:39 23.07.2019
4801 Clear 7 1005 81 10000 1 280 16:19 23.07.2019
4802 Clear 7 1005 81 10000 3 360 15:45 23.07.2019
4803 Clear 7 1005 81 10000 3 360 15:45 23.07.2019
4804 Clear 7 1005 81 10000 3 360 15:24 23.07.2019
4805 Clouds 7 1005 75 10000 4 360 14:39 23.07.2019
4806 Clouds 7 1005 75 10000 4 360 14:20 23.07.2019
4807 Clouds 8 1005 75 10000 4 360 13:58 23.07.2019
4808 Clouds 8 1005 75 10000 4 360 13:39 23.07.2019
4809 Clouds 8 1005 75 10000 4 360 13:20 23.07.2019
4810 Clear 8 1006 75 10000 4 10 12:48 23.07.2019
4811 Clear 8 1006 75 10000 4 10 12:25 23.07.2019
4812 Clear 10 1006 71 10000 3 360 11:49 23.07.2019
4813 Clear 10 1006 71 10000 3 360 11:31 23.07.2019
4814 Clear 11 1006 66 10000 5 350 10:57 23.07.2019
4815 Clear 11 1006 62 10000 4 350 10:38 23.07.2019
4816 Clear 12 1006 62 10000 4 350 10:20 23.07.2019
4817 Clear 13 1005 54 10000 3 360 09:41 23.07.2019
4818 Clear 13 1005 54 10000 3 360 09:19 23.07.2019
4819 Clouds 13 1005 50 10000 6 350 08:42 23.07.2019
4820 Clouds 14 1005 50 10000 6 350 08:19 23.07.2019
4821 Clouds 14 1005 50 10000 6 350 07:55 23.07.2019
4822 Clear 14 1005 47 10000 6 350 07:33 23.07.2019
4823 Clear 14 1006 50 10000 6 330 06:44 23.07.2019
4824 Clear 14 1006 50 10000 6 330 06:26 23.07.2019
4825 Clouds 13 1006 54 10000 5 360 02:44 23.07.2019
4826 Clouds 13 1006 58 10000 6 350 01:32 23.07.2019
4827 Clouds 11 1006 66 10000 5 340 00:30 23.07.2019
4828 Clear 10 1006 66 10000 4 350 23:43 22.07.2019
4829 Clear 10 1006 66 10000 4 350 23:22 22.07.2019
4830 Clear 10 1006 71 10000 4 360 22:59 22.07.2019
4831 Clear 10 1006 76 10000 5 360 22:41 22.07.2019
4832 Clear 10 1006 76 10000 5 360 22:20 22.07.2019
4833 Clear 10 1005 76 10000 5 330 21:43 22.07.2019
4834 Clear 10 1005 76 10000 5 330 21:22 22.07.2019
4835 Clouds 9 1005 87 10000 3 320 20:49 22.07.2019
4836 Clouds 9 1005 87 10000 3 320 20:30 22.07.2019
4837 Clear 8 1005 93 10000 2 330 19:55 22.07.2019
4838 Clear 8 1005 93 10000 2 330 19:37 22.07.2019
4839 Clear 8 1004 93 10000 3 320 19:18 22.07.2019
4840 Clear 8 1004 93 10000 3 320 18:44 22.07.2019
4841 Clear 8 1004 93 10000 3 320 18:26 22.07.2019
4842 Clear 5 1004 93 10000 3 340 17:44 22.07.2019
4843 Clear 5 1004 93 10000 3 340 17:26 22.07.2019
4844 Clouds 8 1003 87 10000 2 40 16:58 22.07.2019
4845 Clouds 8 1003 87 10000 2 40 16:38 22.07.2019
4846 Clouds 8 1003 87 10000 2 40 16:18 22.07.2019
4847 Clouds 10 1003 87 10000 2 330 15:43 22.07.2019
4848 Clouds 10 1003 87 10000 2 330 15:19 22.07.2019
4849 Clouds 10 1002 93 10000 2 330 14:44 22.07.2019
4850 Clouds 10 1002 93 10000 2 330 14:22 22.07.2019
4851 Clouds 11 1002 93 10000 2 300 13:50 22.07.2019
4852 Clouds 11 1002 93 10000 2 300 13:30 22.07.2019
4853 Rain 11 1001 93 4200 5 240 12:50 22.07.2019
4854 Rain 11 1001 93 4200 5 240 12:31 22.07.2019
4855 Rain 12 1000 93 10000 4 190 11:46 22.07.2019
4856 Rain 12 1000 93 10000 4 190 11:27 22.07.2019
4857 Rain 12 999 93 10000 6 190 10:59 22.07.2019
4858 Rain 12 999 93 10000 6 190 10:34 22.07.2019
4859 Rain 13 998 87 10000 6 200 09:46 22.07.2019
4860 Rain 13 998 87 10000 6 200 09:26 22.07.2019
4861 Rain 12 998 93 10000 5 190 08:59 22.07.2019
4862 Rain 12 998 93 10000 5 190 08:38 22.07.2019
4863 Rain 12 998 93 10000 5 190 08:19 22.07.2019
4864 Rain 12 997 93 10000 5 180 07:46 22.07.2019
4865 Rain 12 997 93 10000 5 180 07:27 22.07.2019
4866 Rain 11 996 93 10000 6 180 04:56 22.07.2019
4867 Rain 12 996 81 10000 7 190 02:59 22.07.2019
4868 Clouds 12 995 81 10000 8 160 00:58 22.07.2019
4869 Rain 12 995 87 10000 10 160 00:39 22.07.2019
4870 Rain 12 995 87 10000 10 160 00:20 22.07.2019
4871 Rain 12 995 87 10000 8 150 23:45 21.07.2019
4872 Rain 12 996 87 10000 8 140 22:57 21.07.2019
4873 Rain 12 996 87 9000 10 160 22:38 21.07.2019
4874 Rain 12 996 87 9000 10 160 22:20 21.07.2019
4875 Rain 12 996 87 10000 9 150 21:49 21.07.2019
4876 Rain 12 996 87 10000 9 150 21:25 21.07.2019
4877 Clouds 13 996 82 10000 6 150 20:57 21.07.2019
4878 Clouds 13 996 82 10000 6 150 20:38 21.07.2019
4879 Clouds 13 996 82 10000 6 150 20:20 21.07.2019
4880 Clouds 12 997 87 10000 9 160 19:47 21.07.2019
4881 Clouds 12 997 87 10000 9 160 19:28 21.07.2019
4882 Clouds 13 997 82 10000 7 150 18:48 21.07.2019
4883 Clouds 13 997 82 10000 7 150 18:26 21.07.2019
4884 Clouds 13 998 87 10000 6 160 17:54 21.07.2019
4885 Clouds 13 998 87 10000 6 160 17:36 21.07.2019
4886 Clouds 13 998 87 10000 6 160 17:18 21.07.2019
4887 Clouds 13 998 87 10000 6 180 16:40 21.07.2019
4888 Clouds 13 998 87 10000 6 180 16:21 21.07.2019
4889 Clouds 13 999 87 10000 6 160 15:39 21.07.2019
4890 Clouds 13 999 87 10000 6 160 15:20 21.07.2019
4891 Clouds 13 999 87 10000 6 160 15:20 21.07.2019
4892 Clouds 13 999 87 10000 6 160 14:42 21.07.2019
4893 Clouds 13 999 87 10000 6 160 14:23 21.07.2019
4894 Clouds 15 999 82 10000 7 160 13:53 21.07.2019
4895 Clouds 15 999 82 10000 7 160 13:32 21.07.2019
4896 Clouds 16 999 87 10000 6 140 12:46 21.07.2019
4897 Clouds 16 999 87 10000 4 120 12:28 21.07.2019
4898 Fog 16 1000 87 10000 4 160 11:56 21.07.2019
4899 Fog 16 1000 87 10000 4 160 11:56 21.07.2019
4900 Fog 16 1000 87 10000 2 130 11:38 21.07.2019
4901 Fog 16 1000 87 10000 2 130 11:19 21.07.2019
4902 Fog 15 1000 100 10000 1 90 10:41 21.07.2019
4903 Fog 15 1000 100 10000 1 90 10:23 21.07.2019
4904 Fog 15 1001 93 10000 4 20 09:45 21.07.2019
4905 Fog 15 1001 93 10000 4 20 09:25 21.07.2019
4906 Rain 15 1002 100 10000 3 360 08:45 21.07.2019
4907 Rain 15 1002 100 10000 3 360 08:45 21.07.2019
4908 Rain 15 1002 100 10000 3 360 08:26 21.07.2019
4909 Clouds 15 1002 100 10000 3 20 07:39 21.07.2019
4910 Clouds 15 1003 100 10000 4 360 06:52 21.07.2019
4911 Rain 15 1004 93 9000 1.2 39.97 05:43 21.07.2019
4912 Rain 18 1004 82 10000 5 150 02:53 21.07.2019
4913 Rain 17 1004 88 10000 7 150 01:19 21.07.2019
4914 Rain 16 1005 93 8000 5 150 00:41 21.07.2019
4915 Rain 16 1005 93 8000 5 150 00:18 21.07.2019
4916 Clouds 15 1006 93 10000 6 170 23:41 20.07.2019
4917 Clouds 15 1006 93 10000 6 170 23:21 20.07.2019
4918 Clouds 15 1006 93 10000 5 170 22:45 20.07.2019
4919 Clouds 15 1006 93 10000 5 170 22:22 20.07.2019
4920 Clouds 15 1006 93 10000 5 180 21:56 20.07.2019
4921 Clouds 15 1006 93 10000 5 180 21:37 20.07.2019
4922 Clouds 15 1006 93 10000 5 180 21:18 20.07.2019
4923 Rain 15 1006 87 10000 3 120 20:40 20.07.2019
4924 Rain 15 1006 87 10000 3 120 20:19 20.07.2019
4925 Rain 15 1007 87 10000 3 120 19:45 20.07.2019
4926 Rain 15 1007 87 10000 3 120 19:20 20.07.2019
4927 Fog 14 1007 93 9000 5 180 18:42 20.07.2019
4928 Fog 14 1007 93 9000 5 180 18:20 20.07.2019
4929 Rain 15 1007 100 5000 5 170 17:53 20.07.2019
4930 Rain 15 1007 100 5000 5 170 17:23 20.07.2019
4931 Rain 15 1007 100 5000 4 130 16:44 20.07.2019
4932 Rain 15 1007 100 5000 4 130 16:26 20.07.2019
4933 Rain 15 1008 93 8000 2 170 15:58 20.07.2019
4934 Rain 15 1008 93 8000 2 170 15:38 20.07.2019
4935 Rain 15 1008 93 8000 2 170 15:20 20.07.2019
4936 Rain 15 1008 93 10000 3 180 14:47 20.07.2019
4937 Rain 15 1008 93 10000 3 180 14:24 20.07.2019
4938 Clouds 15 1008 87 10000 5.11 26.385 13:39 20.07.2019
4939 Clouds 15 1008 87 10000 4.17 38.139 13:20 20.07.2019
4940 Clouds 15 1008 87 10000 1 70 12:57 20.07.2019
4941 Clouds 15 1008 87 10000 1 70 12:26 20.07.2019
4942 Rain 16 1009 87 10000 3 300 11:57 20.07.2019
4943 Rain 16 1009 87 10000 3 300 11:27 20.07.2019
4944 Rain 18 1008 77 10000 3 270 10:58 20.07.2019
4945 Rain 18 1008 77 10000 3 270 10:37 20.07.2019
4946 Rain 18 1008 77 10000 3 270 10:18 20.07.2019
4947 Clouds 18 1008 77 10000 3 270 09:45 20.07.2019
4948 Clouds 18 1008 77 10000 3 270 09:22 20.07.2019
4949 Rain 17 1008 88 10000 3 290 08:45 20.07.2019
4950 Rain 17 1008 88 10000 3 290 08:20 20.07.2019
4951 Rain 19 1008 72 10000 3 270 07:21 20.07.2019
4952 Clouds 19 1008 72 10000 3 280 06:42 20.07.2019
4953 Clouds 19 1008 72 10000 4 290 04:57 20.07.2019
4954 Clouds 19 1008 72 10000 4 290 04:29 20.07.2019
4955 Clouds 18 1009 72 10000 5 200 01:21 20.07.2019
4956 Rain 17 1010 77 10000 5 190 00:47 20.07.2019
4957 Rain 17 1010 77 10000 5 190 00:23 20.07.2019
4958 Clouds 16 1010 82 10000 5 180 23:45 19.07.2019
4959 Clouds 16 1010 82 10000 5 180 23:26 19.07.2019
4960 Clouds 15 1010 82 10000 5 180 22:51 19.07.2019
4961 Clouds 15 1010 82 10000 5 180 22:26 19.07.2019
4962 Clouds 16 1010 77 10000 4 170 21:59 19.07.2019
4963 Clouds 16 1010 77 10000 4 170 21:39 19.07.2019
4964 Clouds 16 1010 77 10000 4 170 21:21 19.07.2019
4965 Clouds 16 1010 77 10000 5 150 20:42 19.07.2019
4966 Clouds 16 1010 77 10000 5 150 20:23 19.07.2019
4967 Clouds 15 1011 77 10000 2 140 19:37 19.07.2019
4968 Rain 14 1011 82 10000 2 130 18:47 19.07.2019
4969 Rain 14 1011 82 10000 2 130 18:25 19.07.2019
4970 Rain 12 1012 93 10000 2 120 17:58 19.07.2019
4971 Rain 12 1012 93 10000 2 120 17:40 19.07.2019
4972 Rain 12 1012 93 10000 2 120 17:21 19.07.2019
4973 Clouds 10 1012 93 10000 2 130 16:42 19.07.2019
4974 Clouds 10 1012 93 10000 2 130 16:18 19.07.2019
4975 Clouds 8 1012 100 10000 2 120 15:47 19.07.2019
4976 Clouds 8 1012 100 10000 2 120 15:29 19.07.2019
4977 Clouds 10 1012 93 10000 1 130 14:47 19.07.2019
4978 Clouds 10 1012 93 10000 1 130 14:27 19.07.2019
4979 Clouds 11 1012 93 10000 1 120 13:58 19.07.2019
4980 Clouds 11 1012 93 10000 1 120 13:39 19.07.2019
4981 Clouds 11 1012 93 10000 1 120 13:20 19.07.2019
4982 Clouds 14 1012 82 10000 1 290 12:45 19.07.2019
4983 Clouds 14 1012 82 10000 1 290 12:26 19.07.2019
4984 Clear 15 1012 82 10000 1 320 11:46 19.07.2019
4985 Clear 15 1012 82 10000 1 320 11:19 19.07.2019
4986 Clouds 17 1012 72 10000 2 310 10:57 19.07.2019
4987 Clouds 17 1012 72 10000 2 310 10:38 19.07.2019
4988 Clouds 17 1012 72 10000 2 310 10:18 19.07.2019
4989 Clouds 17 1011 72 10000 3 310 09:43 19.07.2019
4990 Clouds 17 1011 72 10000 3 310 09:22 19.07.2019
4991 Clouds 17 1011 67 10000 4 310 08:50 19.07.2019
4992 Clouds 18 1011 68 10000 4 320 08:28 19.07.2019
4993 Clouds 18 1011 72 10000 3 260 07:33 19.07.2019
4994 Clouds 18 1011 68 10000 3 260 06:37 19.07.2019
4995 Clouds 18 1011 68 10000 3 240 03:53 19.07.2019
4996 Clouds 18 1010 68 10000 4 270 01:42 19.07.2019
4997 Clouds 17 1010 72 10000 2 290 00:54 19.07.2019
4998 Clouds 16 1010 82 10000 3 270 23:59 18.07.2019
4999 Clouds 16 1010 82 10000 4 270 23:40 18.07.2019
5000 Clouds 16 1010 82 10000 4 270 23:40 18.07.2019
5001 Clouds 16 1010 82 10000 4 270 23:22 18.07.2019
5002 Clouds 15 1009 87 10000 3 260 22:44 18.07.2019
5003 Clouds 15 1009 87 10000 3 260 22:20 18.07.2019
5004 Clouds 14 1009 93 10000 2 250 21:56 18.07.2019
5005 Clouds 14 1009 93 10000 2 250 21:37 18.07.2019
5006 Clouds 14 1009 93 10000 1 350 21:18 18.07.2019
5007 Clouds 14 1009 93 10000 1 350 20:42 18.07.2019
5008 Clouds 14 1009 93 10000 1 350 20:23 18.07.2019
5009 Clouds 13 1008 93 10000 2 340 19:47 18.07.2019
5010 Clouds 13 1008 93 10000 2 340 19:27 18.07.2019
5011 Clouds 13 1008 93 10000 3 310 18:50 18.07.2019
5012 Clouds 13 1008 93 10000 3 310 18:22 18.07.2019
5013 -273 0 0 0 0 0 17:56 18.07.2019
5014 Clouds 12 1008 100 10000 3.95 248.942 17:37 18.07.2019
5015 Clouds 12 1008 100 10000 3.95 248.942 17:19 18.07.2019
5016 Clouds 13 1007 100 10000 2 290 16:49 18.07.2019
5017 Clouds 13 1007 100 10000 2 290 16:49 18.07.2019
5018 Clouds 13 1007 100 10000 2 290 16:25 18.07.2019
5019 Clouds 14 1007 93 10000 3 280 15:56 18.07.2019
5020 Clouds 14 1007 93 10000 3 280 15:36 18.07.2019
5021 Clouds 13 1007 93 10000 3 290 14:56 18.07.2019
5022 Clouds 13 1007 93 10000 3 290 14:37 18.07.2019
5023 Clouds 13 1007 93 10000 3 290 14:37 18.07.2019
5024 Clouds 13 1006 93 10000 3 300 14:19 18.07.2019
5025 Clouds 14 1006 93 10000 3 300 13:38 18.07.2019
5026 Clouds 15 1006 87 10000 2 300 13:19 18.07.2019
5027 Clouds 15 1006 87 10000 2 300 12:44 18.07.2019
5028 Clouds 15 1006 87 0 3.58 290 12:20 18.07.2019
5029 Clouds 14 1005 93 0 1.79 270 11:51 18.07.2019
5030 Clouds 14 1005 93 10000 3 270 11:32 18.07.2019
5031 Clouds 14 1005 93 10000 3 270 10:52 18.07.2019
5032 Clouds 14 1005 93 10000 3 270 10:23 18.07.2019
5033 Rain 14 1005 87 10000 4 260 09:45 18.07.2019
5034 Rain 14 1005 87 10000 4 260 09:23 18.07.2019
5035 Rain 14 1005 93 9000 3 210 08:47 18.07.2019
5036 Rain 14 1004 87 10000 1 210 08:20 18.07.2019
5037 Rain 15 1004 93 10000 1 230 07:39 18.07.2019
5038 Rain 15 1004 87 10000 1 240 07:20 18.07.2019
5039 Rain 16 1004 87 10000 3.19 206.099 06:36 18.07.2019
5040 Rain 16 1004 77 10000 2 240 04:21 18.07.2019
5041 Rain 17 1004 63 10000 5 140 02:52 18.07.2019
5042 Clouds 18 1005 63 10000 6 150 01:38 18.07.2019
5043 Clouds 16 1005 82 10000 5 160 00:28 18.07.2019
5044 Clear 16 1005 82 10000 5 160 23:49 17.07.2019
5045 Clear 15 1005 82 10000 3 170 23:19 17.07.2019
5046 Clear 15 1005 82 10000 3 170 22:55 17.07.2019
5047 Clear 15 1006 82 10000 3 180 22:36 17.07.2019
5048 Rain 15 1005 82 10000 4 180 22:18 17.07.2019
5049 Rain 15 1005 82 10000 4 180 21:41 17.07.2019
5050 Clear 15 1006 77 10000 2 170 21:21 17.07.2019
5051 Clear 15 1006 77 10000 2 170 20:58 17.07.2019
5052 Clear 15 1006 77 10000 2 170 20:39 17.07.2019
5053 Clear 14 1006 82 10000 3.53 173.559 20:20 17.07.2019
5054 Clear 13 1006 82 10000 3.53 173.559 19:43 17.07.2019
5055 Clear 13 1006 71 10000 3 130 19:22 17.07.2019
5056 Clear 13 1006 71 10000 3 130 18:58 17.07.2019
5057 Clear 13 1006 71 10000 3 130 18:39 17.07.2019
5058 Clear 12 1006 81 10000 3 110 18:20 17.07.2019
5059 Clear 11 1006 81 10000 3 110 17:46 17.07.2019
5060 Clear 11 1006 81 10000 3 110 17:24 17.07.2019
5061 Clear 13 1006 76 10000 2 130 16:43 17.07.2019
5062 Clear 13 1006 76 10000 2 130 16:23 17.07.2019
5063 Clear 13 1006 76 10000 2 130 15:52 17.07.2019
5064 Clear 13 1006 76 10000 2 130 15:32 17.07.2019
5065 Clear 12 1006 81 10000 1 140 14:58 17.07.2019
5066 Clear 12 1006 81 10000 1 140 14:40 17.07.2019
5067 Clear 12 1006 81 10000 1 140 14:21 17.07.2019
5068 Clear 14 1006 76 10000 1 200 13:57 17.07.2019
5069 Clear 14 1006 76 10000 1 200 13:36 17.07.2019
5070 Clouds 14 1006 76 0 1.79 260 13:18 17.07.2019
5071 Clouds 12 1006 62 0 1.68 260.269 12:39 17.07.2019
5072 Clear 17 1005 72 10000 3 250 12:20 17.07.2019
5073 Clear 17 1005 72 10000 3 250 11:44 17.07.2019
5074 Clear 17 1005 63 10000 3 260 11:20 17.07.2019
5075 Clear 18 1005 63 10000 3 260 10:50 17.07.2019
5076 Clear 18 1005 63 10000 3 260 10:25 17.07.2019
5077 Clear 20 1005 52 10000 5 270 09:46 17.07.2019
5078 Clear 20 1005 52 10000 5 270 09:28 17.07.2019
5079 Clear 20 1005 45 10000 6 270 08:58 17.07.2019
5080 Clear 20 1005 45 10000 6 270 08:39 17.07.2019
5081 Clear 20 1005 45 10000 6 270 08:21 17.07.2019
5082 Clear 20 1005 45 10000 6 270 08:21 17.07.2019
5083 Clear 20 1005 45 10000 4 280 07:41 17.07.2019
5084 Clear 20 1005 45 10000 4 280 07:22 17.07.2019
5085 Clear 20 1005 45 10000 4 280 07:22 17.07.2019
5086 Clear 20 1005 40 10000 5 270 06:46 17.07.2019
5087 Clear 20 1005 40 10000 5 270 06:46 17.07.2019
5088 Clear 21 1005 40 10000 5 270 06:28 17.07.2019
5089 Clear 20 1004 42 10000 4 250 05:42 17.07.2019
5090 Clear 20 1004 42 10000 4 250 05:23 17.07.2019
5091 Clouds 20 1005 45 10000 5 280 04:29 17.07.2019
5092 Clear 18 1004 52 10000 5 310 02:47 17.07.2019
5093 Clear 18 1004 48 10000 6 320 01:58 17.07.2019
5094 Clear 17 1004 51 10000 7 320 01:24 17.07.2019
5095 Clear 17 1004 55 10000 7 330 00:44 17.07.2019
5096 Clear 17 1004 55 10000 7 330 00:23 17.07.2019
5097 Clear 16 1004 55 10000 7 330 23:49 16.07.2019
5098 Clear 17 1004 55 10000 7 330 23:28 16.07.2019
5099 Clear 15 1004 62 10000 6 330 22:57 16.07.2019
5100 Clear 15 1003 62 10000 6 330 22:39 16.07.2019
5101 Clear 16 1003 72 10000 7 330 22:19 16.07.2019
5102 Clear 16 1003 72 10000 7 330 21:45 16.07.2019
5103 Clear 16 1003 72 10000 7 330 21:21 16.07.2019
5104 Clouds 14 1003 82 10000 5 320 20:57 16.07.2019
5105 Clouds 14 1003 82 10000 5 320 20:38 16.07.2019
5106 Clear 13 1003 87 10000 6 310 20:20 16.07.2019
5107 Clear 13 1003 87 10000 6 310 19:46 16.07.2019
5108 Clear 13 1003 87 10000 6 310 19:27 16.07.2019
5109 Clouds 13 1002 87 10000 3 330 18:46 16.07.2019
5110 Clouds 13 1002 87 10000 5 310 18:21 16.07.2019
5111 Clouds 13 1002 87 10000 5 310 17:58 16.07.2019
5112 Clouds 13 1002 87 10000 5 310 17:38 16.07.2019
5113 Clouds 13 1002 93 10000 5 300 17:20 16.07.2019
5114 Clouds 13 1002 93 10000 5 300 16:40 16.07.2019
5115 Clouds 14 1002 87 10000 6 290 16:19 16.07.2019
5116 Clouds 15 1002 87 10000 6 290 15:41 16.07.2019
5117 Clouds 15 1002 87 10000 6 290 15:21 16.07.2019
5118 Fog 16 1002 77 10000 3 260 14:58 16.07.2019
5119 Fog 16 1002 77 10000 3 260 14:39 16.07.2019
5120 Clouds 16 1001 72 10000 2 230 14:20 16.07.2019
5121 Clouds 17 1001 72 10000 2 230 13:45 16.07.2019
5122 Clouds 17 1001 72 10000 2 230 13:24 16.07.2019
5123 Clear 18 1001 68 10000 3 190 12:54 16.07.2019
5124 Clear 18 1001 68 10000 3 190 12:36 16.07.2019
5125 Clouds 18 1001 63 10000 4 160 12:18 16.07.2019
5126 Clouds 18 1001 63 10000 4 160 11:42 16.07.2019
5127 Clouds 18 1001 63 10000 4 160 11:22 16.07.2019
5128 Clouds 20 1000 60 10000 4 130 10:47 16.07.2019
5129 Clouds 20 1000 60 10000 4 130 10:22 16.07.2019
5130 Clouds 20 1000 56 10000 7 110 09:59 16.07.2019
5131 Clouds 20 1000 56 10000 7 110 09:40 16.07.2019
5132 Clear 20 1000 56 10000 5 120 09:19 16.07.2019
5133 Clear 20 1000 56 10000 5 120 08:42 16.07.2019
5134 Clear 20 1000 56 10000 6 130 08:20 16.07.2019
5135 Clear 20 1000 56 10000 7 140 07:42 16.07.2019
5136 Clear 20 1000 56 10000 7 140 07:24 16.07.2019
5137 Clear 20 1000 56 10000 7 140 06:48 16.07.2019
5138 Clear 21 1000 56 10000 7 140 06:27 16.07.2019
5139 Clear 20 1001 56 10000 8 140 05:37 16.07.2019
5140 Clear 20 1001 56 10000 7 140 05:18 16.07.2019
5141 Clear 20 1001 60 10000 7 130 03:57 16.07.2019
5142 Clear 20 1002 60 10000 6 140 03:21 16.07.2019
5143 Clear 20 1002 64 10000 7 130 02:31 16.07.2019
5144 Clear 20 1002 68 10000 6 140 01:49 16.07.2019
5145 Clear 17 1003 72 10000 6 150 00:47 16.07.2019
5146 Clear 17 1003 72 10000 7 150 00:22 16.07.2019
5147 Clear 17 1003 72 10000 7 150 23:53 15.07.2019
5148 Clear 16 1003 77 10000 6 150 23:34 15.07.2019
5149 Clear 16 1003 77 10000 6 160 22:49 15.07.2019
5150 Clear 16 1003 77 10000 6 160 22:22 15.07.2019
5151 Clouds 15 1003 77 10000 5 160 21:59 15.07.2019
5152 Clouds 15 1003 77 10000 5 160 21:41 15.07.2019
5153 Clouds 14 1003 82 10000 5 180 21:20 15.07.2019
5154 Clouds 14 1003 82 10000 5 180 20:57 15.07.2019
5155 Clouds 14 1003 82 10000 5 180 20:38 15.07.2019
5156 Clouds 14 1004 82 10000 4 170 20:19 15.07.2019
5157 Clouds 14 1004 82 10000 4 170 19:43 15.07.2019
5158 Clouds 14 1003 82 10000 4 150 19:21 15.07.2019
5159 Clouds 14 1003 82 10000 4 150 19:21 15.07.2019
5160 Clouds 14 1003 82 10000 4 150 18:55 15.07.2019
5161 Clouds 14 1003 82 10000 4 150 18:55 15.07.2019
5162 Clouds 14 1003 82 10000 4 150 18:36 15.07.2019
5163 Clouds 15 1004 77 10000 3 150 18:18 15.07.2019
5164 Clouds 15 1004 77 10000 3 150 17:44 15.07.2019
5165 Clouds 15 1004 77 10000 3 150 17:26 15.07.2019
5166 Clouds 14 1004 82 10000 4 120 16:59 15.07.2019
5167 Clouds 14 1004 82 10000 4 120 16:38 15.07.2019
5168 Clouds 14 1004 76 10000 4 140 16:20 15.07.2019
5169 Clouds 14 1004 76 10000 4 140 16:20 15.07.2019
5170 Clouds 14 1004 76 10000 4 140 15:55 15.07.2019
5171 Clouds 14 1004 76 10000 4 140 15:36 15.07.2019
5172 Clouds 15 1004 67 10000 8 100 15:18 15.07.2019
5173 Clouds 16 1004 67 10000 8 100 14:41 15.07.2019
5174 Clouds 16 1004 67 10000 8 100 14:23 15.07.2019
5175 Clouds 15 1004 72 10000 5 110 13:50 15.07.2019
5176 Clouds 15 1004 72 10000 5 110 13:50 15.07.2019
5177 Clouds 15 1004 72 10000 5 110 13:22 15.07.2019
5178 Clouds 15 1005 72 10000 5 100 12:58 15.07.2019
5179 Clouds 15 1005 72 10000 5 100 12:39 15.07.2019
5180 Clouds 13 1005 81 10000 5 120 12:20 15.07.2019
5181 Clouds 12 1005 81 10000 5 120 11:41 15.07.2019
5182 Clouds 12 1005 81 10000 5 120 11:41 15.07.2019
5183 Clouds 12 1005 81 10000 5 120 11:22 15.07.2019
5184 Clouds 13 1005 76 10000 7 120 10:45 15.07.2019
5185 Clouds 13 1005 76 10000 7 120 10:25 15.07.2019
5186 Clouds 12 1005 87 10000 7 110 09:47 15.07.2019
5187 Clouds 12 1005 87 10000 7 110 09:25 15.07.2019
5188 Clouds 12 1005 87 10000 8 150 08:49 15.07.2019
5189 Clouds 12 1005 87 10000 8 150 08:27 15.07.2019
5190 Clouds 12 1005 87 10000 7 140 07:58 15.07.2019
5191 Clouds 13 1005 82 10000 7 140 07:36 15.07.2019
5192 Clouds 13 1006 82 10000 8 150 06:55 15.07.2019
5193 Clouds 13 1006 82 10000 8 150 06:33 15.07.2019
5194 Clouds 13 1006 82 10000 8 150 05:44 15.07.2019
5195 Clouds 13 1006 87 10000 8 150 05:19 15.07.2019
5196 Clouds 13 1006 87 10000 8 150 04:41 15.07.2019
5197 Clouds 13 1007 87 10000 7 150 03:33 15.07.2019
5198 Clouds 13 1007 87 10000 6 150 02:32 15.07.2019
5199 Clouds 13 1007 87 10000 6 150 01:41 15.07.2019
5200 Clouds 13 1008 87 10000 6 140 01:20 15.07.2019
5201 Fog 13 1008 87 10000 7 150 00:46 15.07.2019
5202 Fog 13 1007 87 10000 6 150 00:19 15.07.2019
5203 Fog 13 1007 87 10000 5 130 23:42 14.07.2019
5204 Fog 13 1007 87 10000 5 130 23:21 14.07.2019
5205 Fog 13 1007 87 10000 7 140 22:58 14.07.2019
5206 Fog 13 1007 87 10000 7 110 22:39 14.07.2019
5207 Fog 14 1007 82 10000 6 110 22:21 14.07.2019
5208 Fog 15 1007 82 10000 6 110 21:54 14.07.2019
5209 Fog 15 1007 82 10000 6 110 21:36 14.07.2019
5210 Fog 14 1007 87 10000 3 110 21:18 14.07.2019
5211 Fog 14 1007 87 10000 3 110 20:39 14.07.2019
5212 Fog 14 1007 87 10000 6 120 20:21 14.07.2019
5213 Fog 14 1007 87 10000 6 120 20:21 14.07.2019
5214 Fog 14 1007 87 10000 6 120 19:57 14.07.2019
5215 Fog 14 1007 87 10000 6 120 19:38 14.07.2019
5216 Fog 13 1007 93 10000 6 100 19:19 14.07.2019
5217 Fog 13 1007 93 10000 6 100 18:42 14.07.2019
5218 Fog 14 1007 93 10000 5 110 18:22 14.07.2019
5219 Fog 14 1007 93 10000 5 110 17:58 14.07.2019
5220 Fog 14 1007 93 10000 5 110 17:36 14.07.2019
5221 Clouds 14 1006 93 10000 3 110 17:18 14.07.2019
5222 Clouds 14 1006 93 10000 3 110 16:42 14.07.2019
5223 Clouds 14 1006 93 10000 3 110 16:21 14.07.2019
5224 Clear 16 1006 77 10000 5 100 15:43 14.07.2019
5225 Clear 16 1006 77 10000 5 100 15:23 14.07.2019
5226 Clear 15 1006 82 10000 4 110 14:47 14.07.2019
5227 Clear 15 1005 82 10000 7 110 14:20 14.07.2019
5228 Clear 15 1005 82 10000 7 110 13:47 14.07.2019
5229 Clear 15 1005 82 10000 7 110 13:25 14.07.2019
5230 Clear 16 1005 77 10000 4 110 12:57 14.07.2019
5231 Clear 16 1005 77 10000 4 110 12:39 14.07.2019
5232 Clouds 16 1005 72 10000 4 170 12:19 14.07.2019
5233 Clouds 17 1005 72 10000 4 170 11:49 14.07.2019
5234 Clouds 17 1005 72 10000 4 170 11:49 14.07.2019
5235 Clouds 17 1004 77 10000 9 100 11:20 14.07.2019
5236 Clouds 17 1004 77 10000 9 100 10:46 14.07.2019
5237 Clouds 17 1004 77 10000 9 100 10:21 14.07.2019
5238 Clear 19 1003 72 10000 4 80 09:48 14.07.2019
5239 Clear 19 1003 72 10000 4 80 09:30 14.07.2019
5240 Clear 22 1003 60 10000 5 110 08:48 14.07.2019
5241 Clear 22 1003 60 10000 5 110 08:30 14.07.2019
5242 Clouds 21 1002 68 10000 3 170 07:43 14.07.2019
5243 Clouds 20 1002 68 10000 3 180 07:21 14.07.2019
5244 Clouds 21 1002 64 10000 6 160 05:46 14.07.2019
5245 Clouds 23 1002 56 10000 3 190 03:58 14.07.2019
5246 Clear 23 1002 57 10000 2 250 03:39 14.07.2019
5247 Clear 24 1002 57 10000 2 250 03:21 14.07.2019
5248 Clear 22 1002 64 10000 4 220 02:23 14.07.2019
5249 Clouds 21 1002 73 10000 3 320 01:53 14.07.2019
5250 Clouds 21 1002 73 10000 3 320 01:27 14.07.2019
5251 Rain 18 1002 77 10000 1 20 00:41 14.07.2019
5252 Clear 19 1002 68 10000 3 210 00:20 14.07.2019
5253 Clear 19 1002 68 10000 3 210 23:57 13.07.2019
5254 Clear 19 1002 68 10000 3 210 23:38 13.07.2019
5255 Fog 19 1002 72 10000 2 180 23:20 13.07.2019
5256 Fog 19 1002 72 10000 2 180 22:41 13.07.2019
5257 Fog 19 1002 72 10000 2 180 22:21 13.07.2019
5258 Thunderstorm 18 1002 93 10000 2 270 21:48 13.07.2019
5259 Rain 18 1001 82 10000 2 170 21:21 13.07.2019
5260 Rain 18 1001 82 10000 2 170 20:51 13.07.2019
5261 Rain 18 1001 82 10000 2 170 20:33 13.07.2019
5262 Clear 18 1001 72 10000 1 360 19:50 13.07.2019
5263 Clear 18 1001 72 10000 1 360 19:30 13.07.2019
5264 Clear 16 1001 82 10000 1 130 18:47 13.07.2019
5265 Clear 16 1001 82 10000 1 130 18:28 13.07.2019
5266 Clear 19 1001 63 10000 2 130 17:56 13.07.2019
5267 Clear 19 1001 63 10000 2 130 17:56 13.07.2019
5268 Clear 19 1001 63 10000 2 130 17:37 13.07.2019
5269 Clear 17 1001 77 10000 2 110 17:18 13.07.2019
5270 Clear 15 1001 77 10000 2 110 16:42 13.07.2019
5271 Clear 15 1001 77 10000 2 110 16:23 13.07.2019
5272 Clear 14 1002 76 10000 2 100 15:46 13.07.2019
5273 Clear 14 1002 76 10000 2 100 15:24 13.07.2019
5274 Clear 12 1002 81 10000 2 100 14:47 13.07.2019
5275 Clear 12 1002 81 10000 2 100 14:27 13.07.2019
5276 Clear 12 1002 87 10000 2 100 13:58 13.07.2019
5277 Clear 12 1002 87 10000 2 100 13:39 13.07.2019
5278 Clear 13 1003 82 10000 3 100 13:18 13.07.2019
5279 Clear 14 1003 82 10000 3 100 12:40 13.07.2019
5280 Clear 17 1003 72 10000 2 110 12:22 13.07.2019
5281 Clear 19 1003 72 10000 2 110 11:52 13.07.2019
5282 Clear 21 1003 56 10000 1 100 11:20 13.07.2019
5283 Clear 23 1003 56 10000 1 100 10:46 13.07.2019
5284 Clear 23 1003 56 10000 1 100 10:25 13.07.2019
5285 Clear 24 1003 47 10000 1 310 09:59 13.07.2019
5286 Clear 24 1003 47 10000 1 310 09:41 13.07.2019
5287 Clear 24 1003 50 10000 2 280 09:18 13.07.2019
5288 Clear 24 1003 50 10000 2 280 08:45 13.07.2019
5289 Clear 24 1003 50 10000 2 280 08:26 13.07.2019
5290 Clear 25 1004 47 10000 2 290 07:30 13.07.2019
5291 Clear 25 1004 41 10000 2 270 06:50 13.07.2019
5292 Clear 25 1004 41 10000 2 270 06:22 13.07.2019
5293 Clear 26 1004 39 10000 2 240 05:37 13.07.2019
5294 Clear 25 1005 47 10000 2 270 04:25 13.07.2019
5295 Clear 24 1005 50 10000 2 250 03:59 13.07.2019
5296 Clear 24 1005 50 10000 2 250 03:39 13.07.2019
5297 Clear 21 1006 64 10000 1 250 02:20 13.07.2019
5298 Clear 20 1006 64 10000 1 250 01:43 13.07.2019
5299 Clear 20 1007 72 10000 1 220 01:19 13.07.2019
5300 Clear 20 1007 72 10000 1 220 00:57 13.07.2019
5301 Clear 19 1007 77 10000 2.59 221.492 00:20 13.07.2019
5302 Clear 19 1007 77 10000 2.59 221.492 23:49 12.07.2019
5303 Clear 19 1007 77 10000 2.59 221.492 23:29 12.07.2019
5304 Clear 17 1007 82 10000 2.59 221.492 22:46 12.07.2019
5305 Clear 17 1007 82 10000 2.59 221.492 22:24 12.07.2019
5306 Clear 16 1007 77 10000 1 190 21:57 12.07.2019
5307 Clear 16 1007 77 10000 1 190 21:39 12.07.2019
5308 Clear 15 1007 77 10000 1.6 177.241 21:19 12.07.2019
5309 Clear 15 1007 77 10000 1.6 177.241 21:19 12.07.2019
5310 Clear 15 1007 77 10000 1.6 177.241 20:42 12.07.2019
5311 Clear 15 1007 77 10000 1.6 177.241 20:21 12.07.2019
5312 Clear 13 1007 87 10000 1.6 177.241 19:42 12.07.2019
5313 Clear 13 1007 87 10000 1.6 177.241 19:24 12.07.2019
5314 Clear 14 1007 76 10000 1.6 177.241 18:46 12.07.2019
5315 Clear 14 1007 76 10000 2.26 170.071 18:22 12.07.2019
5316 Clear 12 1008 76 10000 1 110 17:55 12.07.2019
5317 Clear 12 1008 76 10000 1 110 17:30 12.07.2019
5318 Clear 12 1008 76 10000 1 110 17:30 12.07.2019
5319 Clear 12 1008 81 10000 1 110 16:52 12.07.2019
5320 Clear 12 1008 81 10000 1 110 16:25 12.07.2019
5321 Clear 13 1008 76 10000 3 140 15:56 12.07.2019
5322 Clear 14 1008 71 10000 3 150 15:36 12.07.2019
5323 Clear 14 1008 71 10000 2 170 15:18 12.07.2019
5324 Clear 14 1008 76 10000 4 150 14:43 12.07.2019
5325 Clear 11 1008 93 10000 1 20 14:20 12.07.2019
5326 Clear 10 1008 93 10000 1 50 13:43 12.07.2019
5327 Clear 12 1008 82 10000 3 160 13:21 12.07.2019
5328 Clear 13 1008 87 10000 3 170 12:41 12.07.2019
5329 Clear 13 1008 87 10000 3 170 12:23 12.07.2019
5330 Clear 14 1008 77 10000 1 160 11:46 12.07.2019
5331 Clear 15 1008 77 10000 1 160 11:24 12.07.2019
5332 Clear 15 1008 77 10000 4 150 10:58 12.07.2019
5333 Clear 15 1008 77 10000 4 150 10:40 12.07.2019
5334 Clear 16 1008 77 10000 4 150 10:22 12.07.2019
5335 Clear 16 1008 72 10000 6 150 09:51 12.07.2019
5336 Clear 16 1008 72 10000 7 160 09:25 12.07.2019
5337 Clear 17 1008 68 10000 5 150 08:47 12.07.2019
5338 Clear 18 1008 68 10000 5 150 08:23 12.07.2019
5339 Clear 19 1008 56 10000 3 170 07:47 12.07.2019
5340 Clear 20 1008 56 10000 3 170 07:29 12.07.2019
5341 Clear 20 1008 56 10000 3 180 06:30 12.07.2019
5342 Clear 21 1009 46 10000 3 170 05:51 12.07.2019
5343 Clear 22 1009 40 10000 6 160 04:25 12.07.2019
5344 Clear 22 1009 49 10000 3 220 01:51 12.07.2019
5345 Clear 22 1009 49 10000 3 220 01:32 12.07.2019
5346 Clear 22 1010 56 10000 2 240 00:35 12.07.2019
5347 Clear 21 1010 56 10000 1 240 23:57 11.07.2019
5348 Clear 21 1010 56 10000 1 220 23:38 11.07.2019
5349 Clear 20 1010 63 10000 2 210 23:19 11.07.2019
5350 Clear 18 1010 68 10000 1 230 22:43 11.07.2019
5351 Clear 18 1010 68 10000 1 230 22:23 11.07.2019
5352 Clear 18 1010 63 10000 2.39 151.772 21:44 11.07.2019
5353 Clear 17 1010 67 10000 1.84 149.116 21:20 11.07.2019
5354 Clear 16 1010 67 10000 1.84 149.116 20:59 11.07.2019
5355 Clear 16 1010 67 10000 1.84 149.116 20:41 11.07.2019
5356 Clear 16 1010 67 10000 1.84 149.116 20:22 11.07.2019
5357 Clear 15 1010 72 10000 1.84 149.116 19:54 11.07.2019
5358 Clear 15 1010 72 10000 1.84 149.116 19:36 11.07.2019
5359 Clear 14 1010 76 10000 1 180 19:18 11.07.2019
5360 Clear 13 1010 76 10000 1 180 18:39 11.07.2019
5361 Clear 10 1010 87 10000 2 90 18:21 11.07.2019
5362 Clear 8 1010 87 10000 2 90 17:46 11.07.2019
5363 Clear 8 1010 87 10000 2 90 17:28 11.07.2019
5364 Clear 7 1010 87 10000 1 80 16:52 11.07.2019
5365 Clear 7 1010 87 10000 1 80 16:24 11.07.2019
5366 Clear 9 1010 81 10000 2 80 15:55 11.07.2019
5367 Clear 9 1010 81 10000 2 80 15:37 11.07.2019
5368 Clear 9 1010 81 10000 2 80 15:37 11.07.2019
5369 Clear 10 1010 76 10000 3 90 15:19 11.07.2019
5370 Clear 10 1010 76 10000 3 90 14:43 11.07.2019
5371 Clear 10 1010 76 10000 3 90 14:23 11.07.2019
5372 Clear 10 1010 66 10000 3 100 13:47 11.07.2019
5373 Clear 11 1010 66 10000 3 100 13:28 11.07.2019
5374 Clear 14 1010 71 10000 1 140 12:47 11.07.2019
5375 Clear 12 1010 71 10000 1 140 12:28 11.07.2019
5376 Clear 18 1010 48 10000 2 140 11:59 11.07.2019
5377 Clear 17 1010 55 10000 2 140 11:41 11.07.2019
5378 Clear 17 1010 55 10000 2 140 11:22 11.07.2019
5379 Clear 18 1010 48 10000 3 160 10:46 11.07.2019
5380 Clear 20 1010 45 10000 4 160 10:19 11.07.2019
5381 Clear 20 1010 45 10000 4 150 09:48 11.07.2019
5382 Clear 20 1010 45 10000 4 150 09:29 11.07.2019
5383 Clear 20 1010 45 10000 5 150 08:53 11.07.2019
5384 Clear 20 1010 45 10000 5 150 08:27 11.07.2019
5385 Clear 20 1010 45 10000 5 150 07:55 11.07.2019
5386 Clear 20 1011 45 10000 5 150 07:36 11.07.2019
5387 Clear 20 1011 43 10000 6 150 06:41 11.07.2019
5388 Clear 21 1011 43 10000 6 150 05:53 11.07.2019
5389 Clear 21 1011 37 10000 6 150 05:30 11.07.2019
5390 Clear 22 1011 33 10000 6 150 04:55 11.07.2019
5391 Clear 20 1011 52 10000 3 180 02:41 11.07.2019
5392 Clear 20 1011 52 10000 3 180 02:41 11.07.2019
5393 Clear 21 1011 43 10000 3 220 01:41 11.07.2019
5394 Clear 22 1011 40 10000 1 250 00:31 11.07.2019
5395 Clear 21 1012 49 10000 1 260 23:49 10.07.2019
5396 Clear 20 1012 52 10000 1 330 23:20 10.07.2019
5397 Clear 20 1012 52 10000 1 330 22:52 10.07.2019
5398 Clear 20 1012 49 10000 1 320 22:22 10.07.2019
5399 Clear 19 1012 63 10000 1.16 53.179 21:48 10.07.2019
5400 Clear 19 1012 63 10000 1.16 53.179 21:28 10.07.2019
5401 Clear 17 1012 67 10000 1 330 20:58 10.07.2019
5402 Clear 17 1012 67 10000 1 330 20:39 10.07.2019
5403 Clear 17 1012 67 10000 1 330 20:39 10.07.2019
5404 Clear 17 1011 59 10000 1 20 20:19 10.07.2019
5405 Clear 17 1011 59 10000 1 20 19:53 10.07.2019
5406 Clear 17 1011 48 10000 1 30 19:22 10.07.2019
5407 Clear 17 1011 48 10000 1 30 18:59 10.07.2019
5408 Clear 17 1011 48 10000 1 30 18:41 10.07.2019
5409 -273 0 0 0 0 0 18:22 10.07.2019
5410 Clear 12 1011 66 10000 0.65 122.182 17:42 10.07.2019
5411 Clear 12 1011 66 10000 0.65 122.182 17:21 10.07.2019
5412 Clear 10 1011 76 10000 2 80 16:38 10.07.2019
5413 Clear 9 1011 87 10000 3 40 16:19 10.07.2019
5414 Clear 9 1011 87 10000 3 40 15:46 10.07.2019
5415 Clear 9 1011 87 10000 3 40 15:22 10.07.2019
5416 Clear 11 1012 76 10000 1 90 14:41 10.07.2019
5417 Clear 11 1012 76 10000 1 90 14:23 10.07.2019
5418 Clear 13 1012 71 10000 1 80 13:52 10.07.2019
5419 Clear 12 1012 81 10000 1 70 13:19 10.07.2019
5420 Clear 12 1012 81 10000 1 70 12:58 10.07.2019
5421 Clear 12 1012 81 10000 1 70 12:38 10.07.2019
5422 Clear 14 1012 63 10000 1 210 12:19 10.07.2019
5423 Clear 16 1012 63 10000 1 210 11:47 10.07.2019
5424 Clear 16 1012 63 10000 1 210 11:21 10.07.2019
5425 Clear 18 1012 55 10000 2 200 10:50 10.07.2019
5426 Clear 18 1012 55 10000 2 200 10:23 10.07.2019
5427 Clear 19 1012 48 10000 5 160 09:44 10.07.2019
5428 Clear 19 1012 48 10000 5 160 09:21 10.07.2019
5429 Clear 19 1012 52 10000 5 170 08:55 10.07.2019
5430 Clear 21 1012 43 10000 4 190 08:36 10.07.2019
5431 Clear 22 1012 43 10000 3 180 08:18 10.07.2019
5432 Clear 23 1012 40 10000 5 160 07:42 10.07.2019
5433 Clear 23 1012 40 10000 7 150 07:20 10.07.2019
5434 Clear 24 1012 41 10000 6 150 06:00 10.07.2019
5435 Clear 24 1012 41 10000 6 150 05:39 10.07.2019
5436 Clear 24 1012 47 10000 5 190 04:28 10.07.2019
5437 Clear 23 1012 47 10000 3 230 00:49 10.07.2019
5438 Clear 24 1012 47 10000 3 230 00:29 10.07.2019
5439 Clear 22 1013 49 10000 5 160 23:42 09.07.2019
5440 Clear 22 1013 49 10000 5 160 23:22 09.07.2019
5441 Clear 23 1013 53 10000 2 240 22:43 09.07.2019
5442 Clear 22 1013 53 10000 2 240 22:24 09.07.2019
5443 Clear 22 1013 46 10000 2.41 158.98 21:59 09.07.2019
5444 Clear 21 1013 46 10000 2.41 158.98 21:41 09.07.2019
5445 Clear 21 1013 46 10000 0.9 136.443 21:23 09.07.2019
5446 Clear 18 1013 63 10000 1 230 20:43 09.07.2019
5447 Clear 17 1013 63 10000 1 230 20:25 09.07.2019
5448 Clear 16 1012 67 10000 1.01 146.922 19:43 09.07.2019
5449 Clear 16 1012 67 10000 1.01 146.922 19:24 09.07.2019
5450 Clear 15 1012 67 10000 2 120 18:47 09.07.2019
5451 Clear 15 1012 67 10000 2 120 18:26 09.07.2019
5452 Clear 15 1012 67 10000 2 120 18:26 09.07.2019
5453 Clear 11 1012 81 10000 3 80 17:57 09.07.2019
5454 Clear 11 1012 81 10000 3 80 17:39 09.07.2019
5455 Clear 11 1012 76 10000 3 90 17:19 09.07.2019
5456 Clear 11 1012 76 10000 3 90 16:50 09.07.2019
5457 Clear 11 1012 76 10000 3 90 16:25 09.07.2019
5458 Clear 11 1012 76 10000 2 80 15:51 09.07.2019
5459 Clear 11 1012 76 10000 2 80 15:33 09.07.2019
5460 Clear 12 1013 71 10000 2 80 14:58 09.07.2019
5461 Clear 12 1013 71 10000 2 80 14:39 09.07.2019
5462 Clear 12 1013 71 10000 3 90 14:19 09.07.2019
5463 Clear 12 1013 71 10000 3 90 13:45 09.07.2019
5464 Clear 12 1013 71 10000 3 90 13:27 09.07.2019
5465 Clear 13 1013 71 10000 2 90 12:42 09.07.2019
5466 Clear 13 1013 71 10000 2 90 12:23 09.07.2019
5467 Clear 21 1013 37 10000 1 130 11:58 09.07.2019
5468 Clear 21 1013 37 10000 1 130 11:40 09.07.2019
5469 Clear 21 1013 37 10000 1 130 11:21 09.07.2019
5470 Clear 23 1013 27 10000 2.91 230.586 10:55 09.07.2019
5471 Clear 23 1013 27 10000 2.91 230.586 10:33 09.07.2019
5472 Clear 23 1013 27 10000 1 230 09:48 09.07.2019
5473 Clear 23 1013 27 10000 1 230 09:29 09.07.2019
5474 Clear 23 1014 27 10000 2 180 08:57 09.07.2019
5475 Clear 23 1014 27 10000 2 180 08:39 09.07.2019
5476 Fog 17 1016 59 10000 10 110 04:18 05.07.2019
5477 Clear 18 1016 55 10000 9 110 03:38 05.07.2019
5478 Clear 18 1016 55 10000 9 100 03:19 05.07.2019
5479 Clear 18 1015 52 10000 7 100 02:49 05.07.2019
5480 Clear 18 1015 55 10000 8 100 01:52 05.07.2019
5481 Clear 18 1015 55 10000 8 100 01:25 05.07.2019
5482 Clear 17 1015 55 10000 6 100 00:48 05.07.2019
5483 Clear 18 1015 55 10000 6 100 00:27 05.07.2019
5484 Clear 17 1015 59 10000 5 100 23:23 04.07.2019
5485 Clear 17 1015 59 10000 5 100 23:23 04.07.2019
5486 Clear 17 1015 59 10000 5 100 23:23 04.07.2019
5487 Clear 17 1014 55 10000 6 110 22:59 04.07.2019
5488 Clear 16 1014 59 10000 5 100 22:40 04.07.2019
5489 Fog 14 1014 71 10000 3 110 22:19 04.07.2019
5490 Fog 13 1014 71 10000 3 110 21:44 04.07.2019
5491 Fog 13 1014 71 10000 3 110 21:25 04.07.2019
5492 Fog 14 1013 67 10000 3 110 20:58 04.07.2019
5493 Fog 14 1013 67 10000 3 110 20:37 04.07.2019
5494 Fog 13 1013 66 10000 4 110 20:18 04.07.2019
5495 Fog 13 1013 66 10000 4 110 19:41 04.07.2019
5496 Fog 12 1012 76 10000 8 110 19:21 04.07.2019
5497 Fog 11 1012 76 10000 8 110 18:46 04.07.2019
5498 Fog 11 1012 76 10000 8 110 18:28 04.07.2019
5499 Clear 12 1012 71 10000 7 100 17:58 04.07.2019
5500 Clear 12 1012 71 10000 7 100 17:40 04.07.2019
5501 Clear 13 1012 67 10000 7 110 17:18 04.07.2019
5502 Clear 13 1012 67 10000 7 110 17:18 04.07.2019
5503 Clear 13 1012 67 10000 7 110 17:18 04.07.2019
5504 Clear 14 1012 62 10000 6 100 15:45 04.07.2019
5505 Clear 14 1012 62 10000 6 100 15:24 04.07.2019
5506 Clear 16 1011 59 10000 4 90 14:59 04.07.2019
5507 Clear 16 1011 59 10000 4 90 14:39 04.07.2019
5508 Clear 16 1011 55 10000 2 130 14:19 04.07.2019
5509 Clear 17 1011 55 10000 2 130 13:57 04.07.2019
5510 Clear 17 1011 55 10000 2 130 13:56 04.07.2019
5511 Clear 17 1011 55 10000 6 140 13:38 04.07.2019
5512 Clear 17 1011 55 10000 5 130 13:19 04.07.2019
5513 Clear 17 1011 55 10000 6 140 12:38 04.07.2019
5514 Clear 17 1010 52 10000 6 130 12:19 04.07.2019
5515 Clear 18 1010 52 10000 6 110 11:43 04.07.2019
5516 Clear 18 1010 52 10000 8 110 11:20 04.07.2019
5517 Clear 18 1010 52 10000 8 110 11:20 04.07.2019
5518 Clear 18 1010 52 10000 8 110 10:46 04.07.2019
5519 Clear 18 1010 52 10000 8 110 10:27 04.07.2019
5520 Clouds 19 1009 48 10000 7 110 09:57 04.07.2019
5521 Clouds 19 1009 48 10000 8 110 09:38 04.07.2019
5522 Clouds 19 1009 52 10000 7 120 09:19 04.07.2019
5523 Clouds 19 1009 48 10000 7 120 08:44 04.07.2019
5524 Clouds 19 1009 45 10000 8 130 08:18 04.07.2019
5525 Clouds 20 1009 45 10000 7 120 07:39 04.07.2019
5526 Clouds 20 1009 49 10000 7 130 07:19 04.07.2019
5527 Clouds 20 1009 45 10000 7 120 06:32 04.07.2019
5528 Clouds 20 1009 52 10000 7 130 05:43 04.07.2019
5529 Clouds 21 1009 52 10000 6 140 04:28 04.07.2019
5530 Clear 20 1008 56 10000 6 160 02:23 04.07.2019
5531 Clear 19 1008 59 10000 6 160 01:26 04.07.2019
5532 Clear 18 1008 63 10000 4 160 00:51 04.07.2019
5533 Clear 17 1008 72 10000 3 190 23:52 03.07.2019
5534 Clear 19 1008 55 10000 1 220 23:21 03.07.2019
5535 Clear 18 1008 63 10000 4.31 202.085 22:57 03.07.2019
5536 Clear 17 1007 67 10000 1 330 22:38 03.07.2019
5537 Clear 16 1007 72 10000 1 340 22:20 03.07.2019
5538 Clear 16 1007 72 10000 1 340 21:55 03.07.2019
5539 Clear 16 1007 72 10000 1 340 21:36 03.07.2019
5540 Clear 15 1007 77 10000 3.34 245.244 20:55 03.07.2019
5541 Clear 15 1007 77 10000 3.34 245.244 20:36 03.07.2019
5542 Clear 13 1006 87 10000 3.34 245.244 20:18 03.07.2019
5543 Clear 12 1006 87 10000 3.34 245.244 19:44 03.07.2019
5544 Clear 12 1006 87 10000 3.34 245.244 19:25 03.07.2019
5545 Clear 14 1005 76 10000 1 160 18:45 03.07.2019
5546 Clear 13 1005 82 10000 1 90 18:22 03.07.2019
5547 Clear 13 1005 82 10000 1 90 17:49 03.07.2019
5548 Clear 12 1004 87 10000 2 150 17:19 03.07.2019
5549 Clear 12 1004 87 10000 2 150 17:19 03.07.2019
5550 Clear 12 1004 87 10000 2 150 16:57 03.07.2019
5551 Clear 12 1004 87 10000 2 150 16:39 03.07.2019
5552 Clear 12 1004 76 10000 2 180 16:18 03.07.2019
5553 Clear 12 1004 76 10000 2 180 15:44 03.07.2019
5554 Clear 12 1004 76 10000 2 180 15:26 03.07.2019
5555 Clear 12 1004 81 10000 1 140 14:44 03.07.2019
5556 Clear 12 1004 81 10000 1 140 14:22 03.07.2019
5557 Clear 10 1003 87 10000 1 180 13:46 03.07.2019
5558 Clear 10 1003 87 10000 1 180 13:27 03.07.2019
5559 Clear 13 1003 76 10000 1 140 12:52 03.07.2019
5560 Rain 14 1002 82 10000 2 80 12:19 03.07.2019
5561 Rain 14 1002 82 10000 2 80 11:54 03.07.2019
5562 Rain 14 1002 82 10000 2 80 11:36 03.07.2019
5563 Rain 15 1002 72 10000 4 240 11:18 03.07.2019
5564 Rain 15 1002 72 10000 4 240 10:38 03.07.2019
5565 Rain 16 1001 67 10000 3 170 10:20 03.07.2019
5566 Rain 17 1001 67 10000 3 170 09:41 03.07.2019
5567 Rain 16 1001 72 10000 4 190 09:20 03.07.2019
5568 Rain 16 1001 72 10000 4 190 08:52 03.07.2019
5569 Rain 17 1001 67 10000 2 240 08:31 03.07.2019
5570 Rain 17 1001 67 10000 2 240 08:31 03.07.2019
5571 Clouds 18 1001 59 10000 2 260 07:47 03.07.2019
5572 Clouds 18 1001 59 10000 2 260 07:28 03.07.2019
5573 Clouds 18 1001 59 10000 2 280 06:30 03.07.2019
5574 Clear 17 1001 63 10000 3 290 05:39 03.07.2019
5575 Clear 16 1001 67 10000 3 310 04:50 03.07.2019
5576 Clear 16 1002 67 10000 4 310 03:26 03.07.2019
5577 Clear 15 1002 62 10000 4 330 02:27 03.07.2019
5578 Clear 13 1002 71 10000 4 320 01:22 03.07.2019
5579 Clear 12 1003 76 10000 4 340 00:52 03.07.2019
5580 Clear 12 1003 71 10000 4 320 00:33 03.07.2019
5581 Clear 10 1003 81 10000 5 350 23:38 02.07.2019
5582 Clouds 9 1003 81 10000 5 340 23:20 02.07.2019
5583 Clouds 9 1003 81 10000 4 350 22:57 02.07.2019
5584 Clouds 9 1003 81 10000 4 350 22:39 02.07.2019
5585 Clear 9 1004 81 10000 5 10 22:20 02.07.2019
5586 Clear 9 1004 81 10000 5 10 21:47 02.07.2019
5587 Clear 8 1004 93 10000 4 360 21:25 02.07.2019
5588 Clear 7 1004 93 10000 4 360 20:59 02.07.2019
5589 Clear 7 1004 93 10000 4 360 20:40 02.07.2019
5590 Clear 7 1004 93 10000 4 360 20:22 02.07.2019
5591 Clouds 7 1005 87 10000 3 340 19:44 02.07.2019
5592 Fog 6 1005 100 9000 3 360 19:24 02.07.2019
5593 Fog 6 1005 100 9000 3 360 19:24 02.07.2019
5594 Fog 6 1005 100 9000 3 360 18:58 02.07.2019
5595 Fog 6 1005 100 9000 3 360 18:37 02.07.2019
5596 Fog 6 1005 100 9000 3 360 18:18 02.07.2019
5597 Clouds 6 1005 100 10000 3 20 17:37 02.07.2019
5598 Clouds 6 1006 93 10000 2 80 17:19 02.07.2019
5599 Clouds 6 1006 93 10000 2 80 16:45 02.07.2019
5600 Clouds 6 1006 93 10000 2 80 16:26 02.07.2019
5601 Clouds 5 1006 100 10000 3 100 15:42 02.07.2019
5602 Clouds 6 1006 93 10000 5 110 15:24 02.07.2019
5603 Clouds 6 1006 93 10000 5 110 14:49 02.07.2019
5604 Clouds 6 1006 93 10000 5 110 14:30 02.07.2019
5605 Clouds 6 1006 93 10000 6 90 13:45 02.07.2019
5606 Clouds 6 1006 93 10000 6 90 13:20 02.07.2019
5607 Clouds 7 1007 87 10000 7 90 12:46 02.07.2019
5608 Clouds 7 1007 81 10000 9 100 12:25 02.07.2019
5609 Clouds 8 1007 81 10000 9 100 11:57 02.07.2019
5610 Clouds 8 1007 81 10000 9 100 11:39 02.07.2019
5611 Clouds 8 1006 81 10000 9 90 11:18 02.07.2019
5612 Clouds 9 1006 81 10000 9 90 10:45 02.07.2019
5613 Clouds 10 1007 76 10000 10 100 10:24 02.07.2019
5614 Clouds 10 1007 76 10000 10 100 09:44 02.07.2019
5615 Clouds 10 1007 76 10000 10 100 09:21 02.07.2019
5616 Clouds 10 1007 71 10000 11 90 08:42 02.07.2019
5617 Clouds 10 1007 71 10000 11 90 08:42 02.07.2019
5618 Clouds 11 1007 76 10000 11 90 08:21 02.07.2019
5619 Clouds 11 1007 71 10000 12 100 07:53 02.07.2019
5620 Clouds 12 1007 71 10000 12 100 07:21 02.07.2019
5621 Clouds 12 1007 66 10000 11 100 06:50 02.07.2019
5622 Clouds 13 1007 71 10000 12 100 06:26 02.07.2019
5623 Clouds 13 1007 71 10000 12 100 06:26 02.07.2019
5624 Clouds 13 1008 71 10000 9 110 04:57 02.07.2019
5625 Clear 14 1009 71 10000 7 140 02:19 02.07.2019
5626 Clear 13 1010 71 10000 6 140 23:50 01.07.2019
5627 Clear 13 1010 71 10000 5 160 23:22 01.07.2019
5628 Clear 12 1010 76 10000 4 170 22:46 01.07.2019
5629 Clear 12 1010 76 10000 4 170 22:27 01.07.2019
5630 Clear 12 1010 71 10000 5 160 21:48 01.07.2019
5631 Clear 12 1010 71 10000 5 160 21:26 01.07.2019
5632 Clear 11 1010 76 10000 6 160 20:53 01.07.2019
5633 Clouds 11 1010 76 10000 5 160 20:23 01.07.2019
5634 Clouds 11 1010 76 10000 5 160 19:59 01.07.2019
5635 Clouds 11 1010 76 10000 5 160 19:41 01.07.2019
5636 Clouds 11 1010 76 10000 3 150 19:23 01.07.2019
5637 Clouds 11 1010 76 10000 3 150 18:53 01.07.2019
5638 Clouds 11 1010 76 10000 3 150 18:31 01.07.2019
5639 Rain 10 1010 87 10000 7 180 18:00 01.07.2019
5640 Rain 10 1010 87 10000 7 180 17:41 01.07.2019
5641 Rain 10 1010 87 10000 7 180 17:21 01.07.2019
5642 Clear 11 1010 76 10000 6 180 16:47 01.07.2019
5643 Clear 11 1010 76 10000 6 180 16:26 01.07.2019
5644 Clear 11 1010 76 10000 6 180 16:26 01.07.2019
5645 Clear 11 1010 81 10000 4 160 15:55 01.07.2019
5646 Clear 11 1010 81 10000 4 160 15:36 01.07.2019
5647 Clear 11 1010 81 10000 7 190 15:18 01.07.2019
5648 Clear 11 1010 81 10000 7 190 14:42 01.07.2019
5649 Clear 11 1010 81 10000 7 170 14:19 01.07.2019
5650 Clear 12 1010 81 10000 7 170 13:41 01.07.2019
5651 Clear 12 1010 81 10000 7 170 13:22 01.07.2019
5652 Clear 12 1010 81 10000 7 170 12:46 01.07.2019
5653 Clear 12 1010 81 10000 7 170 12:27 01.07.2019
5654 Clear 14 1009 76 10000 6 170 11:59 01.07.2019
5655 Clear 14 1009 76 10000 6 170 11:39 01.07.2019
5656 Clouds 15 1009 62 10000 3 160 11:19 01.07.2019
5657 Clouds 15 1009 62 10000 3 160 10:47 01.07.2019
5658 Clouds 15 1009 62 10000 3 160 10:22 01.07.2019
5659 Rain 14 1009 76 9000 4 200 09:45 01.07.2019
5660 Rain 14 1009 76 9000 4 200 09:27 01.07.2019
5661 Rain 15 1008 67 10000 6 140 08:59 01.07.2019
5662 Rain 15 1008 67 10000 6 140 08:37 01.07.2019
5663 Clouds 16 1008 63 10000 7 140 07:39 01.07.2019
5664 Clouds 16 1008 63 10000 8 150 06:52 01.07.2019
5665 Rain 15 1008 67 10000 9 160 05:34 01.07.2019
5666 Clouds 17 1008 59 10000 6 160 01:28 01.07.2019
5667 Clouds 16 1009 72 10000 5 160 00:44 01.07.2019
5668 Clouds 15 1009 72 10000 5 160 00:24 01.07.2019
5669 Clouds 13 1009 82 10000 5 150 23:39 30.06.2019
5670 Clouds 13 1009 82 10000 4 160 23:19 30.06.2019
5671 Clouds 12 1009 81 10000 4 180 22:43 30.06.2019
5672 Clouds 12 1009 81 10000 4 170 22:20 30.06.2019
5673 Clouds 12 1009 81 10000 4 170 21:41 30.06.2019
5674 Clouds 11 1008 87 10000 4 170 21:19 30.06.2019
5675 Clouds 11 1008 87 10000 4 170 20:55 30.06.2019
5676 Clouds 11 1008 87 10000 4 170 20:36 30.06.2019
5677 Clouds 11 1008 87 10000 1 120 20:18 30.06.2019
5678 Clouds 11 1008 87 10000 1 120 20:18 30.06.2019
5679 Clouds 11 1008 87 10000 1 120 19:43 30.06.2019
5680 Clouds 11 1008 87 10000 1 120 19:24 30.06.2019
5681 Rain 11 1008 81 10000 2 170 18:26 30.06.2019
5682 Clouds 11 1007 81 10000 2 110 17:57 30.06.2019
5683 Clouds 11 1007 81 10000 2 110 17:38 30.06.2019
5684 Clouds 10 1007 87 10000 2 110 17:18 30.06.2019
5685 Clouds 10 1007 87 10000 2 110 16:45 30.06.2019
5686 Clouds 10 1007 87 10000 2 110 16:25 30.06.2019
5687 Clouds 11 1007 76 10000 2 90 15:38 30.06.2019
5688 Clouds 11 1007 76 10000 4 120 15:18 30.06.2019
5689 Clouds 11 1007 76 10000 4 120 14:50 30.06.2019
5690 Clouds 11 1007 76 10000 4 120 14:30 30.06.2019
5691 Rain 11 1007 71 10000 4 140 13:48 30.06.2019
5692 Rain 11 1007 71 10000 4 140 13:29 30.06.2019
5693 Rain 11 1007 71 10000 4 100 12:53 30.06.2019
5694 Rain 11 1007 71 10000 4 100 12:28 30.06.2019
5695 Rain 11 1007 76 10000 3 120 11:58 30.06.2019
5696 Rain 11 1007 76 10000 3 120 11:38 30.06.2019
5697 Rain 11 1007 76 10000 3 120 11:38 30.06.2019
5698 Clouds 11 1007 76 10000 5 110 11:19 30.06.2019
5699 Clouds 11 1007 76 10000 5 110 10:45 30.06.2019
5700 Clouds 11 1007 76 10000 3 140 10:20 30.06.2019
5701 Clouds 11 1007 76 10000 3 140 09:57 30.06.2019
5702 Clouds 11 1007 76 10000 3 140 09:37 30.06.2019
5703 Clouds 11 1007 71 10000 4 140 09:19 30.06.2019
5704 Clouds 12 1007 71 10000 4 140 08:40 30.06.2019
5705 Clouds 12 1007 71 10000 4 140 08:21 30.06.2019
5706 Clouds 12 1006 71 10000 5 160 07:42 30.06.2019
5707 Clouds 12 1006 71 10000 5 170 07:22 30.06.2019
5708 Clouds 12 1006 71 10000 5 170 06:33 30.06.2019
5709 Rain 12 1007 66 10000 5 170 03:32 30.06.2019
5710 Rain 13 1007 66 10000 4 150 01:53 30.06.2019
5711 Clouds 11 1007 76 10000 4 160 00:46 30.06.2019
5712 Clouds 11 1007 76 10000 4 160 00:24 30.06.2019
5713 Clouds 11 1007 76 10000 4 160 23:48 29.06.2019
5714 Clouds 11 1007 76 10000 4 160 23:22 29.06.2019
5715 Clouds 10 1007 81 10000 4 170 22:47 29.06.2019
5716 Clouds 10 1007 81 10000 4 170 22:23 29.06.2019
5717 Clouds 10 1007 87 10000 3 180 21:55 29.06.2019
5718 Clouds 10 1007 87 10000 3 180 21:25 29.06.2019
5719 Clouds 9 1007 93 10000 3 170 20:47 29.06.2019
5720 Clouds 9 1007 93 10000 3 170 20:29 29.06.2019
5721 Clouds 9 1007 93 10000 3 180 19:59 29.06.2019
5722 Clouds 9 1007 93 10000 3 180 19:41 29.06.2019
5723 Clouds 9 1007 93 10000 2 180 19:20 29.06.2019
5724 Clouds 9 1007 93 10000 2 180 19:20 29.06.2019
5725 Clouds 9 1007 93 10000 2 180 18:47 29.06.2019
5726 Clouds 9 1007 93 10000 2 180 18:24 29.06.2019
5727 Clouds 8 1006 100 10000 2 200 17:38 29.06.2019
5728 Clouds 8 1006 93 10000 2 220 17:19 29.06.2019
5729 Clouds 9 1006 93 10000 2 220 16:43 29.06.2019
5730 Clouds 9 1006 87 10000 3 210 16:00 29.06.2019
5731 Clouds 8 1006 87 10000 3 210 15:32 29.06.2019
5732 Clouds 8 1006 93 10000 3 210 14:46 29.06.2019
5733 Clouds 9 1006 93 10000 3 210 14:27 29.06.2019
5734 Rain 9 1005 93 10000 2 170 13:56 29.06.2019
5735 Rain 9 1005 93 10000 2 170 13:37 29.06.2019
5736 Rain 8 1005 100 10000 4 150 13:19 29.06.2019
5737 Rain 9 1005 100 10000 4 150 12:40 29.06.2019
5738 Rain 9 1005 100 10000 4 150 12:22 29.06.2019
5739 Rain 9 1005 87 10000 5 140 11:45 29.06.2019
5740 Rain 9 1005 87 10000 5 140 11:27 29.06.2019
5741 Rain 8 1005 93 5000 6 100 10:51 29.06.2019
5742 Rain 8 1005 93 5000 6 100 10:22 29.06.2019
5743 Rain 9 1006 93 2800 6 110 09:57 29.06.2019
5744 Rain 9 1006 87 10000 8 130 08:55 29.06.2019
5745 Rain 9 1006 87 10000 8 130 08:36 29.06.2019
5746 Clouds 9 1006 87 10000 9 140 07:46 29.06.2019
5747 Clouds 9 1006 81 10000 9 140 06:57 29.06.2019
5748 Clouds 9 1006 81 10000 9 140 06:39 29.06.2019
5749 Clouds 10 1007 76 10000 8 140 06:19 29.06.2019
5750 Clouds 10 1008 71 10000 5 110 01:54 29.06.2019
5751 Clouds 10 1008 76 10000 4 130 00:54 29.06.2019
5752 Clouds 10 1008 76 10000 6 110 23:54 28.06.2019
5753 Clouds 10 1008 76 10000 6 110 23:22 28.06.2019
5754 Clouds 9 1008 81 10000 5 110 22:47 28.06.2019
5755 Clouds 9 1008 81 10000 5 110 22:22 28.06.2019
5756 Clouds 9 1008 81 10000 5 110 21:45 28.06.2019
5757 Clouds 9 1008 81 10000 5 110 21:20 28.06.2019
5758 Clouds 9 1008 81 10000 5 110 20:43 28.06.2019
5759 Clouds 9 1008 81 10000 6 80 20:20 28.06.2019
5760 Clouds 9 1008 81 10000 6 80 19:42 28.06.2019
5761 Clouds 9 1008 81 10000 6 80 19:24 28.06.2019
5762 Clouds 8 1008 81 10000 5 100 18:42 28.06.2019
5763 Clouds 8 1008 76 10000 5 100 18:22 28.06.2019
5764 Clouds 9 1008 76 10000 5 100 17:54 28.06.2019
5765 Clouds 9 1008 76 10000 5 100 17:28 28.06.2019
5766 Clouds 9 1009 76 10000 4 90 16:47 28.06.2019
5767 Clouds 9 1009 76 10000 4 90 16:20 28.06.2019
5768 Clouds 8 1009 81 10000 5 100 15:47 28.06.2019
5769 Clouds 8 1010 81 10000 4 100 15:18 28.06.2019
5770 Clouds 8 1010 81 10000 4 100 14:42 28.06.2019
5771 Clouds 8 1010 81 10000 4 100 14:21 28.06.2019
5772 Clouds 8 1010 87 10000 6 110 13:49 28.06.2019
5773 Clouds 8 1010 87 10000 6 110 13:29 28.06.2019
5774 Clouds 8 1010 87 10000 5 120 12:53 28.06.2019
5775 Clouds 8 1010 87 10000 5 120 12:34 28.06.2019
5776 Clouds 9 1010 81 10000 5 100 11:46 28.06.2019
5777 Clouds 10 1010 81 10000 6 120 11:19 28.06.2019
5778 Clouds 10 1010 81 10000 6 120 10:43 28.06.2019
5779 Clouds 10 1010 81 10000 6 120 10:20 28.06.2019
5780 Clouds 10 1010 76 10000 6 130 09:47 28.06.2019
5781 Clouds 10 1010 76 10000 6 130 09:28 28.06.2019
5782 Clouds 11 1010 71 10000 6 130 08:43 28.06.2019
5783 Clouds 11 1010 71 10000 6 130 08:24 28.06.2019
5784 Clouds 11 1010 71 10000 6 130 07:43 28.06.2019
5785 Clouds 11 1010 71 10000 6 120 06:57 28.06.2019
5786 Clouds 11 1010 71 10000 7 130 04:42 28.06.2019
5787 Clouds 11 1010 71 10000 7 130 01:21 28.06.2019
5788 Clouds 11 1009 71 10000 8 130 00:23 28.06.2019
5789 Clouds 11 1009 76 10000 8 130 23:47 27.06.2019
5790 Clouds 11 1009 76 10000 8 130 23:25 27.06.2019
5791 Clouds 10 1009 81 10000 8 140 22:44 27.06.2019
5792 Clouds 10 1009 81 10000 8 140 22:25 27.06.2019
5793 Clouds 10 1008 76 10000 7 140 21:59 27.06.2019
5794 Clouds 10 1008 76 10000 7 140 21:41 27.06.2019
5795 Clouds 10 1008 76 10000 7 140 21:21 27.06.2019
5796 Clouds 10 1008 76 10000 8 140 20:49 27.06.2019
5797 Clouds 10 1008 76 10000 8 140 20:31 27.06.2019
5798 Clouds 9 1007 81 10000 7 130 19:57 27.06.2019
5799 Clouds 9 1007 81 10000 7 130 19:39 27.06.2019
5800 Clouds 9 1007 81 10000 8 120 19:21 27.06.2019
5801 Clouds 9 1007 81 10000 8 120 18:41 27.06.2019
5802 Clouds 9 1006 87 10000 7 120 18:19 27.06.2019
5803 Clouds 9 1006 87 10000 7 120 17:39 27.06.2019
5804 Clouds 9 1006 87 10000 7 120 17:21 27.06.2019
5805 Rain 8 1006 93 10000 7 120 16:39 27.06.2019
5806 Clouds 8 1006 87 10000 5 80 16:19 27.06.2019
5807 Clouds 8 1006 87 10000 5 80 16:19 27.06.2019
5808 Clouds 7 1006 87 10000 5 80 15:47 27.06.2019
5809 Clouds 7 1006 87 10000 5 80 15:26 27.06.2019
5810 Fog 7 1005 93 10000 4 70 14:52 27.06.2019
5811 Fog 7 1005 93 10000 4 70 14:30 27.06.2019
5812 Fog 7 1006 93 550 7 100 13:56 27.06.2019
5813 Fog 7 1006 93 550 7 100 13:36 27.06.2019
5814 Fog 8 1005 93 10000 9 110 13:18 27.06.2019
5815 Fog 8 1005 93 10000 9 110 12:40 27.06.2019
5816 Fog 8 1005 93 10000 9 110 12:21 27.06.2019
5817 Fog 8 1005 93 9000 7 110 11:42 27.06.2019
5818 Fog 8 1005 93 9000 7 110 11:21 27.06.2019
5819 Fog 8 1004 93 10000 6 110 10:56 27.06.2019
5820 Fog 8 1004 93 10000 6 110 10:36 27.06.2019
5821 Fog 8 1004 93 10000 6 100 10:18 27.06.2019
5822 Fog 9 1004 93 10000 6 100 09:37 27.06.2019
5823 Fog 9 1004 93 9000 6 120 09:19 27.06.2019
5824 Fog 9 1004 93 9000 6 120 08:45 27.06.2019
5825 Fog 9 1004 93 9000 6 120 08:23 27.06.2019
5826 Fog 9 1003 93 9000 10 110 07:39 27.06.2019
5827 Fog 9 1003 93 7000 11 100 06:55 27.06.2019
5828 Rain 10 1003 87 10000 10 100 06:29 27.06.2019
5829 Clouds 11 1003 87 10000 2 100 03:50 27.06.2019
5830 Clouds 10 1003 87 10000 8 80 02:41 27.06.2019
5831 Clouds 8 1004 93 10000 7 10 01:18 27.06.2019
5832 Clouds 7 1004 93 10000 9 10 00:47 27.06.2019
5833 Clouds 7 1004 93 10000 9 10 00:25 27.06.2019
5834 Rain 7 1005 93 10000 9 20 23:45 26.06.2019
5835 Rain 7 1005 93 10000 9 20 23:22 26.06.2019
5836 Rain 7 1005 93 10000 9 20 23:22 26.06.2019
5837 Rain 7 1005 87 10000 9 20 22:55 26.06.2019
5838 Rain 7 1005 93 9000 8 30 22:37 26.06.2019
5839 Rain 8 1006 87 10000 8 40 22:18 26.06.2019
5840 Rain 8 1006 87 10000 8 40 21:41 26.06.2019
5841 Rain 7 1007 93 10000 6 20 21:20 26.06.2019
5842 Rain 7 1007 93 10000 6 20 20:50 26.06.2019
5843 Rain 8 1007 93 10000 6 20 20:31 26.06.2019
5844 Rain 8 1007 87 10000 5 20 19:57 26.06.2019
5845 Rain 8 1007 87 10000 5 20 19:38 26.06.2019
5846 Rain 8 1008 81 10000 4 20 19:19 26.06.2019
5847 Rain 8 1008 81 10000 4 20 18:44 26.06.2019
5848 Rain 8 1008 81 10000 4 20 18:22 26.06.2019
5849 Rain 9 1009 81 10000 6 40 17:53 26.06.2019
5850 Rain 9 1009 81 10000 6 40 17:27 26.06.2019
5851 Rain 9 1010 81 10000 2 50 16:52 26.06.2019
5852 Rain 9 1010 81 10000 2 50 16:30 26.06.2019
5853 Clouds 9 1011 81 10000 2 20 15:58 26.06.2019
5854 Clouds 9 1011 81 10000 2 20 15:29 26.06.2019
5855 Rain 10 1011 81 10000 7 80 14:58 26.06.2019
5856 -273 0 0 0 0 0 14:37 26.06.2019
5857 Rain 10 1012 81 10000 9 80 14:18 26.06.2019
5858 Rain 10 1012 81 10000 9 80 13:39 26.06.2019
5859 Rain 10 1012 81 10000 9 70 13:19 26.06.2019
5860 Rain 10 1012 81 10000 9 70 12:40 26.06.2019
5861 Clouds 10 1012 81 10000 8 70 12:20 26.06.2019
5862 Clouds 10 1013 81 10000 10 70 11:42 26.06.2019
5863 Clouds 10 1013 81 10000 10 70 11:42 26.06.2019
5864 Rain 10 1012 81 10000 9 80 11:19 26.06.2019
5865 Rain 10 1012 81 10000 8 80 10:39 26.06.2019
5866 Rain 10 1012 81 10000 8 80 10:21 26.06.2019
5867 Rain 10 1012 87 9000 9 80 09:37 26.06.2019
5868 Rain 10 1013 87 6000 8 70 09:18 26.06.2019
5869 Rain 10 1013 87 5000 9 80 08:39 26.06.2019
5870 Rain 10 1013 87 8000 9 80 08:19 26.06.2019
5871 Rain 9 1013 87 8000 9 80 07:43 26.06.2019
5872 Rain 9 1013 87 9000 6 70 06:34 26.06.2019
5873 Rain 8 1014 81 10000 7 20 03:52 26.06.2019
5874 Clouds 11 1015 53 10000 4 70 00:45 26.06.2019
5875 Clouds 11 1016 53 10000 5 60 00:19 26.06.2019
5876 Clouds 11 1016 57 10000 5 60 23:41 25.06.2019
5877 Clouds 11 1016 57 10000 5 60 23:23 25.06.2019
5878 Clear 11 1016 50 10000 7 60 22:55 25.06.2019
5879 Clear 11 1016 53 10000 9 40 22:37 25.06.2019
5880 Clear 10 1016 57 10000 8 30 22:18 25.06.2019
5881 Clear 10 1016 57 10000 8 30 21:37 25.06.2019
5882 Clear 9 1017 66 10000 6 20 21:19 25.06.2019
5883 Clear 9 1017 66 10000 6 20 20:38 25.06.2019
5884 Clear 8 1017 70 10000 5 10 20:19 25.06.2019
5885 Clear 7 1017 70 10000 5 10 19:45 25.06.2019
5886 Clear 7 1017 70 10000 5 10 19:22 25.06.2019
5887 Clear 5 1017 80 10000 3 20 18:43 25.06.2019
5888 Clear 5 1017 80 10000 3 20 18:25 25.06.2019
5889 -273 0 0 0 0 0 17:51 25.06.2019
5890 -273 0 0 0 0 0 17:51 25.06.2019
5891 -273 0 0 0 0 0 17:28 25.06.2019
5892 -273 0 0 0 0 0 17:28 25.06.2019
5893 Clear 3 1018 86 10000 4 20 16:55 25.06.2019
5894 Clear 3 1018 86 10000 4 20 16:37 25.06.2019
5895 Clear 2 1018 68 10000 2 70 16:19 25.06.2019
5896 Clear 2 1018 68 10000 2 70 15:40 25.06.2019
5897 Clear 2 1018 65 10000 2 70 15:21 25.06.2019
5898 Clear 6 1019 70 10000 2 50 14:51 25.06.2019
5899 Clear 6 1019 70 10000 2 50 14:51 25.06.2019
5900 Clear 6 1019 70 10000 2 50 14:32 25.06.2019
5901 Clear 7 1019 70 10000 2 100 13:43 25.06.2019
5902 Clear 7 1019 70 10000 2 100 13:24 25.06.2019
5903 Clear 6 1019 63 10000 3 80 12:43 25.06.2019
5904 Clear 6 1019 56 10000 3 80 12:24 25.06.2019
5905 Clear 9 1019 66 10000 3 120 11:47 25.06.2019
5906 Clear 9 1019 66 10000 3 120 11:26 25.06.2019
5907 Clouds 10 1019 66 10000 4 110 10:59 25.06.2019
5908 Clouds 10 1019 66 10000 4 110 10:38 25.06.2019
5909 Clouds 12 1019 50 10000 4 50 10:19 25.06.2019
5910 Clouds 13 1019 50 10000 4 50 09:40 25.06.2019
5911 Clouds 13 1019 50 10000 4 50 09:22 25.06.2019
5912 Clouds 12 1019 58 10000 6 30 08:59 25.06.2019
5913 Clear 12 1019 54 10000 4 140 08:31 25.06.2019
5914 Clouds 11 1020 57 10000 4 150 07:51 25.06.2019
5915 Clouds 11 1020 62 10000 5 150 07:31 25.06.2019
5916 Clouds 12 1020 62 10000 4 170 06:51 25.06.2019
5917 Clouds 12 1020 58 10000 4 160 06:24 25.06.2019
5918 Clouds 11 1022 62 10000 4 160 02:44 25.06.2019
5919 Clouds 11 1022 71 10000 5 150 01:19 25.06.2019
5920 Clouds 12 1022 71 10000 5 160 00:28 25.06.2019
5921 Clouds 11 1022 76 10000 5 160 23:52 24.06.2019
5922 Clouds 12 1022 76 10000 3 130 23:33 24.06.2019
5923 Clouds 12 1022 71 10000 4 120 22:56 24.06.2019
5924 Clouds 13 1022 58 10000 5 110 22:37 24.06.2019
5925 Clear 13 1022 54 10000 5 110 22:18 24.06.2019
5926 Clear 13 1022 54 10000 5 110 21:37 24.06.2019
5927 Clear 12 1022 54 10000 1 360 21:18 24.06.2019
5928 Clear 12 1022 54 10000 1 360 20:43 24.06.2019
5929 Clear 12 1022 54 10000 1 360 20:23 24.06.2019
5930 Clear 10 1022 66 10000 2 70 19:59 24.06.2019
5931 Clear 10 1022 66 10000 2 70 19:59 24.06.2019
5932 Clear 10 1022 66 10000 2 70 19:40 24.06.2019
5933 Clear 10 1022 66 10000 2 70 19:21 24.06.2019
5934 Clear 9 1022 66 10000 4 40 18:42 24.06.2019
5935 Clear 9 1022 66 10000 4 40 18:23 24.06.2019
5936 Clear 8 1022 65 10000 1 120 17:37 24.06.2019
5937 Clear 7 1023 65 10000 1 90 17:18 24.06.2019
5938 Clear 7 1023 65 10000 1 90 16:45 24.06.2019
5939 Clear 6 1023 75 10000 1 80 16:20 24.06.2019
5940 Clear 6 1023 75 10000 1 80 15:44 24.06.2019
5941 Clear 6 1023 75 10000 1 80 15:44 24.06.2019
5942 Clear 6 1023 75 10000 1 80 15:25 24.06.2019
5943 Clear 8 1023 70 10000 1 140 14:39 24.06.2019
5944 Clear 8 1023 70 10000 1 140 14:20 24.06.2019
5945 Clear 8 1023 87 10000 2 100 13:35 24.06.2019
5946 Clouds 9 1023 81 10000 1 120 12:59 24.06.2019
5947 Clouds 9 1023 81 10000 1 120 12:41 24.06.2019
5948 Clear 10 1022 81 10000 2 130 12:20 24.06.2019
5949 Clear 10 1022 81 10000 2 130 11:45 24.06.2019
5950 Clear 10 1022 81 10000 2 130 11:27 24.06.2019
5951 Clear 10 1022 81 0 5.42 166.882 10:53 24.06.2019
5952 Clear 10 1022 81 10000 5 120 10:34 24.06.2019
5953 Clear 10 1022 81 10000 5 120 09:56 24.06.2019
5954 Clear 10 1022 81 10000 5 120 09:38 24.06.2019
5955 Clouds 10 1023 81 10000 4 140 09:18 24.06.2019
5956 Clouds 11 1023 76 10000 3 120 08:36 24.06.2019
5957 Clouds 11 1023 76 10000 4 110 07:58 24.06.2019
5958 Clouds 10 1023 81 10000 3 110 07:40 24.06.2019
5959 Clouds 10 1023 81 10000 3 110 07:21 24.06.2019
5960 Clouds 11 1023 76 10000 4 130 06:23 24.06.2019
5961 Clouds 10 1023 81 10000 5 150 05:40 24.06.2019
5962 Clouds 10 1023 81 10000 4 130 04:43 24.06.2019
5963 Clouds 10 1024 81 10000 6 130 03:48 24.06.2019
5964 Rain 10 1024 81 10000 4 150 02:36 24.06.2019
5965 Clouds 11 1024 76 10000 1 60 01:55 24.06.2019
5966 Clouds 11 1024 76 10000 3 110 01:31 24.06.2019
5967 Clouds 12 1024 71 10000 4 110 00:46 24.06.2019
5968 Clouds 12 1024 71 10000 5 110 00:20 24.06.2019
5969 Rain 12 1024 71 10000 5 100 23:48 23.06.2019
5970 Rain 12 1024 71 10000 5 100 23:48 23.06.2019
5971 Rain 11 1024 71 10000 5 100 23:28 23.06.2019
5972 Clouds 11 1024 76 10000 6 100 22:57 23.06.2019
5973 Clouds 11 1024 76 10000 5 100 22:39 23.06.2019
5974 Clouds 10 1024 81 10000 5 90 22:19 23.06.2019
5975 Clouds 10 1024 81 10000 5 90 21:41 23.06.2019
5976 Clouds 10 1024 81 10000 5 90 21:41 23.06.2019
5977 Clouds 10 1024 81 10000 5 90 21:22 23.06.2019
5978 Clouds 10 1024 81 10000 5 80 20:49 23.06.2019
5979 Clouds 10 1024 81 10000 5 80 20:29 23.06.2019
5980 Clouds 10 1023 81 10000 5 80 19:47 23.06.2019
5981 Clouds 10 1023 81 10000 5 80 19:23 23.06.2019
5982 Clouds 9 1023 87 10000 6 90 18:55 23.06.2019
5983 Clouds 9 1023 87 10000 6 90 18:36 23.06.2019
5984 Clouds 9 1023 87 10000 6 80 18:18 23.06.2019
5985 Clouds 9 1023 87 10000 6 80 17:39 23.06.2019
5986 Clouds 9 1023 87 10000 6 80 17:21 23.06.2019
5987 Clouds 10 1023 81 10000 6 100 16:43 23.06.2019
5988 Clouds 10 1023 81 10000 6 100 16:24 23.06.2019
5989 Clouds 10 1023 81 10000 6 90 15:42 23.06.2019
5990 Clouds 10 1023 81 10000 6 90 15:23 23.06.2019
5991 Clouds 10 1023 81 10000 5 70 14:59 23.06.2019
5992 Clouds 10 1023 81 10000 5 70 14:37 23.06.2019
5993 Clouds 10 1023 81 10000 7 90 14:19 23.06.2019
5994 Clouds 10 1023 81 10000 7 90 13:42 23.06.2019
5995 Clouds 10 1023 81 10000 7 90 13:20 23.06.2019
5996 Clouds 10 1023 87 10000 7 90 12:56 23.06.2019
5997 Clouds 10 1023 87 10000 7 90 12:37 23.06.2019
5998 Clouds 10 1023 87 10000 7 90 12:18 23.06.2019
5999 Clouds 10 1023 87 10000 7 90 11:44 23.06.2019
6000 Clouds 10 1023 87 10000 7 90 11:24 23.06.2019
6001 Clouds 11 1023 81 10000 10 90 10:47 23.06.2019
6002 Clouds 11 1023 81 10000 10 90 10:20 23.06.2019
6003 Clouds 12 1023 76 10000 10 100 09:54 23.06.2019
6004 Clouds 12 1023 76 10000 10 100 09:22 23.06.2019
6005 Clouds 11 1022 87 10000 10 100 08:46 23.06.2019
6006 Clouds 11 1022 87 10000 10 100 08:27 23.06.2019
6007 Clouds 12 1022 81 10000 11 100 07:55 23.06.2019
6008 Clouds 12 1022 81 10000 11 100 07:55 23.06.2019
6009 Clouds 12 1022 81 10000 11 100 07:25 23.06.2019
6010 Clouds 13 1022 76 10000 11 100 06:55 23.06.2019
6011 Clouds 14 1022 76 10000 10 100 05:59 23.06.2019
6012 Clouds 15 1022 72 10000 10 110 04:38 23.06.2019
6013 Clouds 17 1022 63 10000 9 110 02:24 23.06.2019
6014 Rain 18 1021 63 10000 6 120 01:37 23.06.2019
6015 Clouds 17 1021 67 10000 4 160 00:37 23.06.2019
6016 Clouds 17 1021 67 10000 3 120 23:58 22.06.2019
6017 Clouds 17 1021 67 10000 3 120 23:39 22.06.2019
6018 Clouds 17 1021 67 10000 3 120 23:20 22.06.2019
6019 Clouds 16 1021 67 10000 1 140 22:45 22.06.2019
6020 Clouds 16 1021 67 10000 1 140 22:24 22.06.2019
6021 Clouds 15 1021 72 10000 2 130 21:41 22.06.2019
6022 Clouds 16 1021 72 10000 2.14 253.565 21:20 22.06.2019
6023 Clouds 16 1021 72 10000 2.14 253.565 20:53 22.06.2019
6024 Clouds 16 1021 72 10000 1.91 223.363 20:26 22.06.2019
6025 Clouds 14 1020 82 10000 2 110 19:50 22.06.2019
6026 Clouds 14 1020 82 10000 2 110 19:28 22.06.2019
6027 Clouds 13 1020 82 10000 2 110 18:59 22.06.2019
6028 Clouds 13 1020 82 10000 2 110 18:40 22.06.2019
6029 Clouds 12 1020 81 10000 1 80 18:18 22.06.2019
6030 Clouds 12 1020 81 10000 1 80 17:38 22.06.2019
6031 Clouds 13 1020 76 10000 2 150 17:19 22.06.2019
6032 Clouds 14 1020 76 10000 2 150 16:39 22.06.2019
6033 Clouds 12 1020 87 10000 2 100 16:20 22.06.2019
6034 Clouds 10 1020 87 10000 2 100 15:41 22.06.2019
6035 Clouds 10 1020 87 10000 2 100 15:23 22.06.2019
6036 Clear 8 1020 87 10000 3 100 14:46 22.06.2019
6037 Clear 8 1020 87 10000 3 100 14:28 22.06.2019
6038 Clear 11 1020 81 10000 2 100 13:43 22.06.2019
6039 Clear 11 1020 81 10000 2 100 13:25 22.06.2019
6040 Clear 15 1020 72 10000 1 80 12:54 22.06.2019
6041 Clear 15 1020 72 10000 1 80 12:35 22.06.2019
6042 Clear 17 1019 63 10000 1 330 11:59 22.06.2019
6043 Clear 17 1019 63 10000 1 330 11:34 22.06.2019
6044 Clear 18 1019 55 10000 1 310 10:54 22.06.2019
6045 Clear 18 1019 55 10000 1 310 10:22 22.06.2019
6046 Clear 18 1019 55 10000 2 290 09:55 22.06.2019
6047 Clear 18 1019 55 10000 2 290 09:27 22.06.2019
6048 Clear 18 1019 55 10000 3 280 08:44 22.06.2019
6049 Clear 18 1019 55 10000 3 280 08:25 22.06.2019
6050 Clear 18 1019 55 10000 3 290 07:36 22.06.2019
6051 Clear 19 1019 48 10000 3 280 06:56 22.06.2019
6052 Clear 19 1019 55 10000 4 300 05:31 22.06.2019
6053 Clouds 18 1020 52 10000 4 330 02:38 22.06.2019
6054 Clear 16 1020 59 10000 6 330 01:35 22.06.2019
6055 Clear 18 1020 55 10000 6 330 00:47 22.06.2019
6056 Clear 18 1020 55 10000 6 330 00:22 22.06.2019
6057 Clear 16 1020 59 10000 6 330 23:45 21.06.2019
6058 Clear 16 1020 59 10000 6 330 23:22 21.06.2019
6059 Clear 17 1019 59 10000 5 330 22:53 21.06.2019
6060 Clear 17 1019 59 10000 5 330 22:25 21.06.2019
6061 Clear 16 1019 77 10000 4 280 21:55 21.06.2019
6062 Clear 16 1019 77 10000 4 280 21:37 21.06.2019
6063 Fog 15 1019 77 10000 1 50 21:18 21.06.2019
6064 Fog 15 1019 77 10000 1 50 20:45 21.06.2019
6065 Fog 15 1019 77 10000 1 50 20:22 21.06.2019
6066 Clouds 14 1019 76 10000 1.98 299.914 19:37 21.06.2019
6067 Clouds 9 1019 87 10000 1 160 18:54 21.06.2019
6068 Clouds 9 1019 87 10000 1 160 18:34 21.06.2019
6069 Clear 9 1018 81 10000 1.35 254.496 17:47 21.06.2019
6070 Clear 9 1018 81 10000 1.35 254.496 17:29 21.06.2019
6071 Clear 8 1018 87 10000 2 70 16:42 21.06.2019
6072 Clear 8 1018 87 10000 2 70 16:22 21.06.2019
6073 Clear 7 1018 87 10000 2 60 15:43 21.06.2019
6074 Clear 7 1018 87 10000 2 60 15:23 21.06.2019
6075 Clear 6 1018 93 10000 1 80 14:52 21.06.2019
6076 Clear 6 1018 93 10000 1 80 14:31 21.06.2019
6077 Clear 9 1018 87 10000 1 100 13:57 21.06.2019
6078 Clear 9 1018 87 10000 1 100 13:36 21.06.2019
6079 Clear 14 1017 82 10000 1 130 13:18 21.06.2019
6080 Clear 14 1017 82 10000 1 130 12:39 21.06.2019
6081 Clear 14 1017 77 10000 1 310 12:18 21.06.2019
6082 Clear 16 1017 67 10000 2 280 11:47 21.06.2019
6083 Clear 17 1017 67 10000 2 280 11:26 21.06.2019
6084 Clear 18 1017 63 10000 1 280 10:51 21.06.2019
6085 Clear 19 1017 55 10000 2 280 10:22 21.06.2019
6086 Clear 19 1017 52 10000 3 290 09:59 21.06.2019
6087 Clear 19 1017 52 10000 4 290 09:40 21.06.2019
6088 Clear 20 1017 56 10000 5 280 09:19 21.06.2019
6089 Clear 20 1017 56 10000 5 280 08:43 21.06.2019
6090 Clear 20 1017 56 10000 5 280 08:23 21.06.2019
6091 Clouds 20 1017 56 10000 5 270 07:51 21.06.2019
6092 Clouds 20 1017 56 10000 5 270 07:29 21.06.2019
6093 Clouds 19 1017 55 10000 5 280 06:53 21.06.2019
6094 Clouds 19 1017 59 10000 3 250 06:21 21.06.2019
6095 Clouds 19 1017 59 10000 3 270 05:25 21.06.2019
6096 Clouds 19 1017 59 10000 3 250 04:26 21.06.2019
6097 Clouds 18 1018 55 10000 2 190 03:33 21.06.2019
6098 Clouds 18 1018 55 10000 3 160 02:52 21.06.2019
6099 Clouds 17 1018 67 10000 5 170 01:49 21.06.2019
6100 Clouds 17 1018 63 10000 5 170 00:55 21.06.2019
6101 Clouds 16 1018 72 10000 5 160 00:22 21.06.2019
6102 Clear 15 1018 72 10000 5 190 23:47 20.06.2019
6103 Clear 16 1018 72 10000 5 190 23:23 20.06.2019
6104 Clear 17 1017 59 10000 3 160 22:58 20.06.2019
6105 Clear 17 1017 59 10000 3 160 22:58 20.06.2019
6106 Clear 16 1017 59 10000 2 190 22:38 20.06.2019
6107 Rain 15 1017 72 10000 3 180 22:20 20.06.2019
6108 Rain 15 1017 72 10000 3 180 21:48 20.06.2019
6109 Clear 14 1017 71 10000 2 180 21:19 20.06.2019
6110 Clear 14 1017 71 10000 2 180 20:48 20.06.2019
6111 Clear 14 1017 71 10000 2 180 20:27 20.06.2019
6112 Clear 13 1017 76 10000 2 180 19:58 20.06.2019
6113 Clear 13 1017 76 10000 2 180 19:39 20.06.2019
6114 Clear 13 1017 76 10000 1 60 19:18 20.06.2019
6115 Clear 13 1017 76 10000 1 60 18:43 20.06.2019
6116 Clear 13 1017 76 10000 1 60 18:23 20.06.2019
6117 Clear 13 1017 76 10000 5.14 149.306 17:56 20.06.2019
6118 Clear 13 1017 76 10000 5.14 149.306 17:38 20.06.2019
6119 Clear 10 1017 81 10000 3 110 16:57 20.06.2019
6120 Clear 10 1017 81 10000 3 110 16:39 20.06.2019
6121 Clear 10 1017 81 10000 4 120 16:18 20.06.2019
6122 Clear 10 1017 81 10000 4 120 15:42 20.06.2019
6123 Clear 10 1017 81 10000 4 120 15:22 20.06.2019
6124 Clear 11 1016 76 10000 4 110 14:50 20.06.2019
6125 Clear 11 1016 76 10000 4 110 14:24 20.06.2019
6126 Clear 17 1016 55 10000 3 120 13:42 20.06.2019
6127 Clear 17 1016 55 10000 3 120 13:21 20.06.2019
6128 Clear 18 1016 48 10000 5 110 12:54 20.06.2019
6129 Clear 18 1016 48 10000 5 110 12:36 20.06.2019
6130 Clear 19 1015 37 10000 7 100 12:18 20.06.2019
6131 Clear 20 1015 37 10000 7 100 11:39 20.06.2019
6132 Clear 20 1015 37 10000 7 100 11:20 20.06.2019
6133 Clear 20 1015 34 10000 9 100 10:42 20.06.2019
6134 Clear 20 1015 34 10000 9 100 10:23 20.06.2019
6135 Clear 19 1015 34 10000 9 100 09:41 20.06.2019
6136 Clear 19 1015 34 10000 9 100 09:41 20.06.2019
6137 Clear 19 1015 34 10000 9 100 09:23 20.06.2019
6138 Clear 20 1015 34 10000 5 130 08:47 20.06.2019
6139 Clear 20 1015 34 10000 5 130 08:28 20.06.2019
6140 Clear 21 1015 30 10000 5 130 07:55 20.06.2019
6141 Clear 22 1015 30 10000 6 130 07:31 20.06.2019
6142 Clear 22 1015 46 10000 5 150 06:46 20.06.2019
6143 Clear 22 1015 31 10000 4 140 06:18 20.06.2019
6144 Clear 23 1016 35 10000 3 170 03:37 20.06.2019
6145 Clear 20 1016 42 10000 4 160 00:43 20.06.2019
6146 Clear 20 1016 42 10000 4 160 00:24 20.06.2019
6147 Clear 19 1015 45 10000 5 160 23:42 19.06.2019
6148 Clear 19 1015 45 10000 5 160 23:24 19.06.2019
6149 Clear 18 1015 59 10000 5 190 22:48 19.06.2019
6150 Clear 17 1015 59 10000 5 190 22:20 19.06.2019
6151 Clear 16 1015 63 10000 3 200 21:54 19.06.2019
6152 Clear 16 1015 63 10000 3 200 21:54 19.06.2019
6153 Clear 16 1015 63 10000 3 200 21:36 19.06.2019
6154 Clear 17 1015 59 10000 1 230 21:18 19.06.2019
6155 Clear 17 1015 59 10000 1 230 21:18 19.06.2019
6156 Clear 17 1015 59 10000 1 230 20:39 19.06.2019
6157 Rain 16 1015 67 10000 4.93 148.803 20:20 19.06.2019
6158 Rain 16 1015 67 10000 4.93 148.803 19:42 19.06.2019
6159 Rain 15 1014 67 10000 1 130 19:21 19.06.2019
6160 Rain 15 1014 67 10000 1 130 18:51 19.06.2019
6161 Rain 16 1014 51 10000 1 170 18:21 19.06.2019
6162 Rain 16 1014 51 10000 1 170 17:41 19.06.2019
6163 Rain 16 1014 51 10000 1 170 17:41 19.06.2019
6164 Rain 16 1014 51 10000 1 170 17:22 19.06.2019
6165 Clear 15 1014 58 10000 2 110 16:40 19.06.2019
6166 Clear 15 1014 58 10000 2 110 16:22 19.06.2019
6167 Clear 14 1014 67 10000 3 120 15:55 19.06.2019
6168 Clear 14 1014 67 10000 3 120 15:31 19.06.2019
6169 Clear 16 1013 63 10000 1 130 14:57 19.06.2019
6170 Clear 16 1013 63 10000 1 130 14:39 19.06.2019
6171 Clear 16 1013 63 10000 1 130 14:21 19.06.2019
6172 Clear 21 1013 40 10000 4 100 13:43 19.06.2019
6173 Clear 21 1013 40 10000 4 100 13:24 19.06.2019
6174 Clear 22 1013 35 10000 3 90 12:44 19.06.2019
6175 Clear 22 1013 35 10000 3 90 12:22 19.06.2019
6176 Clear 22 1013 37 10000 2 80 11:56 19.06.2019
6177 Clear 23 1013 35 10000 3 100 11:38 19.06.2019
6178 Clear 22 1013 40 10000 3 120 11:19 19.06.2019
6179 Clear 22 1013 37 10000 3 110 10:45 19.06.2019
6180 Clear 22 1013 37 10000 3 110 10:26 19.06.2019
6181 Clear 22 1012 43 10000 1 140 09:43 19.06.2019
6182 Clear 22 1012 43 10000 1 140 09:22 19.06.2019
6183 Clear 23 1012 38 10000 1 140 08:51 19.06.2019
6184 Clear 22 1012 37 10000 3 140 08:29 19.06.2019
6185 Clear 23 1012 40 10000 4 140 07:52 19.06.2019
6186 Clear 22 1012 40 10000 4 140 07:34 19.06.2019
6187 Clear 22 1012 40 10000 4 150 06:55 19.06.2019
6188 Clear 23 1013 40 10000 4 150 06:30 19.06.2019
6189 Clear 22 1013 46 10000 5 150 05:50 19.06.2019
6190 Clear 23 1013 40 10000 5 160 04:47 19.06.2019
6191 Clear 20 1013 49 10000 5 160 03:48 19.06.2019
6192 Clear 20 1013 45 10000 5 170 02:34 19.06.2019
6193 Clear 21 1013 46 10000 5 170 01:29 19.06.2019
6194 Clear 17 1013 51 10000 5 170 00:52 19.06.2019
6195 Clear 17 1013 51 10000 5 180 00:34 19.06.2019
6196 Clear 17 1013 55 10000 5 180 23:58 18.06.2019
6197 Clear 17 1013 55 10000 5 180 23:58 18.06.2019
6198 Clear 21 1013 46 10000 4 170 23:30 18.06.2019
6199 Clear 20 1013 49 10000 1 170 22:55 18.06.2019
6200 Clear 19 1013 52 10000 1 130 22:37 18.06.2019
6201 Clear 18 1013 55 10000 3 230 22:19 18.06.2019
6202 Clear 17 1013 55 10000 3 230 21:44 18.06.2019
6203 Clear 17 1013 55 10000 3 230 21:21 18.06.2019
6204 Clear 17 1013 48 10000 3 130 20:55 18.06.2019
6205 Clear 17 1013 48 10000 3 130 20:37 18.06.2019
6206 Clear 16 1013 58 10000 1 200 20:18 18.06.2019
6207 Clear 16 1013 58 10000 1 200 20:18 18.06.2019
6208 Clear 15 1013 58 10000 1 200 19:39 18.06.2019
6209 Clear 14 1013 50 10000 1 190 19:20 18.06.2019
6210 Clear 14 1013 50 10000 1 190 18:46 18.06.2019
6211 Clear 14 1013 50 10000 1 190 18:25 18.06.2019
6212 Clear 14 1013 50 10000 2 270 17:42 18.06.2019
6213 Clear 14 1013 50 10000 2 270 17:21 18.06.2019
6214 Clear 17 1013 42 10000 3 120 16:47 18.06.2019
6215 Clear 17 1013 42 10000 3 120 16:28 18.06.2019
6216 Clear 17 1013 51 10000 1 150 15:58 18.06.2019
6217 Clear 17 1013 51 10000 1 150 15:38 18.06.2019
6218 Clear 15 1013 62 10000 6 110 15:19 18.06.2019
6219 Clear 13 1013 62 10000 6 110 14:45 18.06.2019
6220 Clear 13 1013 62 10000 6 110 14:22 18.06.2019
6221 Clouds 15 1013 51 10000 4 140 13:58 18.06.2019
6222 Clouds 15 1013 51 10000 4 140 13:38 18.06.2019
6223 Clouds 16 1014 55 10000 3 70 13:20 18.06.2019
6224 Clouds 17 1014 55 10000 3 70 12:43 18.06.2019
6225 Clouds 17 1014 55 10000 3 70 12:25 18.06.2019
6226 Clouds 17 1014 55 10000 7 50 11:45 18.06.2019
6227 Clouds 17 1014 55 10000 7 50 11:23 18.06.2019
6228 Clouds 19 1013 32 10000 5 120 10:57 18.06.2019
6229 Clouds 19 1013 32 10000 5 120 10:37 18.06.2019
6230 Clear 20 1012 32 10000 4 140 10:18 18.06.2019
6231 Clear 21 1012 32 10000 4 140 09:48 18.06.2019
6232 Clear 21 1012 32 10000 4 140 09:24 18.06.2019
6233 Clear 20 1013 32 10000 5 150 08:46 18.06.2019
6234 Clear 21 1013 32 10000 5 150 08:21 18.06.2019
6235 Clear 21 1013 32 10000 5 150 08:21 18.06.2019
6236 Clear 22 1013 31 10000 5 150 07:41 18.06.2019
6237 Clear 23 1013 31 10000 5 150 07:23 18.06.2019
6238 Clear 22 1013 30 10000 5 150 06:44 18.06.2019
6239 Clear 22 1014 30 10000 5 150 05:21 18.06.2019
6240 Clear 21 1014 30 10000 5 150 03:58 18.06.2019
6241 Clear 19 1015 34 10000 6 160 01:59 18.06.2019
6242 Clouds 19 1015 22 10000 6 160 01:25 18.06.2019
6243 Clouds 18 1015 25 10000 5 170 00:56 18.06.2019
6244 Clouds 16 1015 29 10000 5 160 00:30 18.06.2019
6245 Rain 15 1015 46 10000 5 170 23:41 17.06.2019
6246 Rain 15 1015 46 10000 5 160 23:20 17.06.2019
6247 Rain 16 1015 46 10000 5 160 22:58 17.06.2019
6248 Rain 16 1015 46 10000 6 190 22:38 17.06.2019
6249 Rain 14 1015 58 10000 4 200 22:20 17.06.2019
6250 Rain 13 1015 58 10000 4 200 21:42 17.06.2019
6251 Rain 13 1015 58 10000 4 200 21:22 17.06.2019
6252 Clear 13 1015 47 10000 3 180 20:38 17.06.2019
6253 Clear 12 1015 50 10000 3 150 20:20 17.06.2019
6254 Clear 12 1015 50 10000 3 150 19:43 17.06.2019
6255 Clear 12 1015 50 10000 3 150 19:24 17.06.2019
6256 Clear 11 1015 62 10000 3 180 18:58 17.06.2019
6257 Clear 11 1015 62 10000 3 180 18:38 17.06.2019
6258 Clear 11 1016 50 10000 3 160 18:18 17.06.2019
6259 Clear 11 1016 50 10000 3 160 18:18 17.06.2019
6260 Clear 11 1016 50 10000 3 160 17:47 17.06.2019
6261 Clear 11 1016 50 10000 3 160 17:29 17.06.2019
6262 Clear 9 1016 47 10000 3 190 16:55 17.06.2019
6263 Clear 9 1016 47 10000 3 190 16:37 17.06.2019
6264 Clear 11 1016 47 10000 5 170 16:18 17.06.2019
6265 Clear 11 1016 47 10000 5 170 15:40 17.06.2019
6266 Clear 10 1016 57 10000 5 180 15:20 17.06.2019
6267 Clear 10 1016 57 10000 5 180 14:55 17.06.2019
6268 Clear 10 1016 57 10000 5 180 14:34 17.06.2019
6269 Clear 10 1016 57 10000 5 180 14:34 17.06.2019
6270 Clear 12 1016 46 10000 3 190 13:58 17.06.2019
6271 Clear 12 1016 46 10000 3 190 13:39 17.06.2019
6272 Clear 12 1016 37 10000 1 20 13:20 17.06.2019
6273 Clear 13 1016 35 10000 4 170 12:38 17.06.2019
6274 Clear 13 1016 35 10000 4 170 12:18 17.06.2019
6275 Clear 13 1016 37 10000 4 190 11:39 17.06.2019
6276 Clear 13 1016 35 10000 4 190 11:20 17.06.2019
6277 Clear 13 1016 47 10000 4 180 10:46 17.06.2019
6278 Clear 13 1016 47 10000 4 180 10:46 17.06.2019
6279 Clear 13 1016 47 10000 4 180 10:28 17.06.2019
6280 Clear 13 1016 47 10000 4 180 10:28 17.06.2019
6281 Clear 14 1016 47 10000 6 190 09:56 17.06.2019
6282 Clear 14 1016 47 10000 6 190 09:56 17.06.2019
6283 Clear 14 1016 47 10000 6 190 09:56 17.06.2019
6284 Clear 15 1016 38 10000 6 180 09:33 17.06.2019
6285 Clear 15 1016 44 10000 6 170 08:48 17.06.2019
6286 Clear 15 1016 44 10000 6 170 08:25 17.06.2019
6287 Clear 16 1016 36 10000 6 170 07:58 17.06.2019
6288 Clear 16 1016 36 10000 7 160 07:32 17.06.2019
6289 Clouds 16 1016 23 10000 6 170 06:59 17.06.2019
6290 Clear 16 1016 31 10000 6 160 06:18 17.06.2019
6291 Clear 16 1016 26 10000 7 160 05:26 17.06.2019
6292 Clear 16 1016 26 10000 6 170 04:23 17.06.2019
6293 Clear 17 1016 29 10000 5 170 03:31 17.06.2019
6294 Clear 16 1016 38 10000 5 180 02:44 17.06.2019
6295 Clear 16 1016 38 10000 5 180 02:26 17.06.2019
6296 Clear 16 1016 31 10000 6 170 01:36 17.06.2019
6297 Clear 16 1016 29 10000 6 160 00:57 17.06.2019
6298 Clear 16 1016 36 10000 6 160 00:37 17.06.2019
6299 Clear 15 1016 38 10000 7 170 00:18 17.06.2019
6300 Clear 16 1016 39 10000 6 160 23:39 16.06.2019
6301 Clear 16 1016 39 10000 6 160 23:20 16.06.2019
6302 Clear 16 1016 38 10000 7 180 22:45 16.06.2019
6303 Clear 16 1016 41 10000 5 180 22:20 16.06.2019
6304 Clear 16 1016 41 10000 5 180 21:57 16.06.2019
6305 Clear 16 1016 41 10000 5 180 21:39 16.06.2019
6306 Clear 16 1016 41 10000 1 210 21:20 16.06.2019
6307 Clear 16 1016 41 10000 1 210 20:40 16.06.2019
6308 Clear 15 1015 38 10000 2 170 20:19 16.06.2019
6309 Clear 15 1015 38 10000 2 170 19:58 16.06.2019
6310 Clear 15 1015 38 10000 2 170 19:58 16.06.2019
6311 Clear 15 1015 38 10000 2 170 19:39 16.06.2019
6312 Clear 15 1015 38 10000 3 90 19:21 16.06.2019
6313 Clear 15 1015 38 10000 3 90 18:42 16.06.2019
6314 Clear 15 1015 38 10000 3 90 18:42 16.06.2019
6315 Clear 15 1015 41 10000 2 360 18:21 16.06.2019
6316 Clear 15 1015 41 10000 2 360 17:57 16.06.2019
6317 Clear 15 1015 41 10000 2 360 17:57 16.06.2019
6318 Clear 15 1015 41 10000 2 360 17:38 16.06.2019
6319 Clear 11 1014 65 10000 3 90 17:20 16.06.2019
6320 Clear 8 1014 65 10000 3 90 16:54 16.06.2019
6321 Clear 8 1014 65 10000 3 90 16:36 16.06.2019
6322 Clear 8 1014 66 10000 3 90 16:18 16.06.2019
6323 Clear 9 1014 66 10000 3 90 15:38 16.06.2019
6324 Clear 10 1014 61 10000 3 100 15:20 16.06.2019
6325 Clear 10 1014 61 10000 3 100 14:39 16.06.2019
6326 Clear 10 1015 61 10000 3 100 14:20 16.06.2019
6327 Clear 10 1015 61 10000 3 100 13:48 16.06.2019
6328 Clear 10 1015 61 10000 3 100 13:25 16.06.2019
6329 Clear 13 1015 58 10000 1 160 12:46 16.06.2019
6330 Clear 13 1015 58 10000 1 160 12:46 16.06.2019
6331 Clear 15 1014 41 10000 1 210 12:23 16.06.2019
6332 Clear 16 1014 41 10000 1 210 11:59 16.06.2019
6333 Clear 16 1014 41 10000 1 210 11:38 16.06.2019
6334 Clear 16 1014 48 10000 3 200 11:19 16.06.2019
6335 Clear 16 1014 48 10000 3 200 10:45 16.06.2019
6336 Clear 17 1014 36 10000 3 210 10:20 16.06.2019
6337 Clear 18 1014 36 10000 3 210 09:43 16.06.2019
6338 Clear 18 1014 36 10000 3 210 09:24 16.06.2019
6339 Clear 22 1014 24 10000 5 110 08:47 16.06.2019
6340 Rain 22 1015 40 10000 6 120 08:21 16.06.2019
6341 Rain 22 1015 24 10000 6 120 07:49 16.06.2019
6342 Rain 22 1015 24 10000 6 120 07:31 16.06.2019
6343 Clouds 22 1015 24 10000 7 110 06:55 16.06.2019
6344 Clouds 24 1014 25 10000 8 120 05:57 16.06.2019
6345 Clear 24 1014 25 10000 6 130 05:26 16.06.2019
6346 Clear 26 1014 29 10000 5 310 04:26 16.06.2019
6347 Clear 27 1015 26 10000 6 310 03:43 16.06.2019
6348 Clear 27 1015 28 10000 6 320 03:23 16.06.2019
6349 Clear 25 1016 36 10000 6 330 01:51 16.06.2019
6350 Clear 25 1016 36 10000 6 330 01:33 16.06.2019
6351 Clear 24 1016 36 10000 2 330 00:49 16.06.2019
6352 Clear 24 1016 36 10000 2 330 00:26 16.06.2019
6353 Clear 23 1016 40 10000 4 340 23:59 15.06.2019
6354 Clear 21 1016 49 10000 4 350 23:39 15.06.2019
6355 Clear 19 1016 59 10000 4 340 23:20 15.06.2019
6356 Clear 21 1017 40 10000 2 330 22:48 15.06.2019
6357 Clear 21 1017 40 10000 2 330 22:26 15.06.2019
6358 Clear 20 1017 40 10000 3 360 21:45 15.06.2019
6359 Clear 20 1017 40 10000 5 10 21:21 15.06.2019
6360 Clear 20 1017 45 10000 4 360 20:46 15.06.2019
6361 Clear 20 1017 45 10000 4 360 20:24 15.06.2019
6362 Clear 17 1017 55 10000 3 10 19:53 15.06.2019
6363 Clear 17 1017 55 10000 3 10 19:30 15.06.2019
6364 Clear 14 1017 71 10000 3 10 18:59 15.06.2019
6365 Clear 12 1017 71 10000 3 360 18:37 15.06.2019
6366 Clear 12 1017 66 10000 4 340 18:19 15.06.2019
6367 Clear 12 1017 71 10000 4 350 17:41 15.06.2019
6368 Clear 12 1017 66 10000 3 350 17:21 15.06.2019
6369 Clear 12 1017 66 10000 3 340 16:44 15.06.2019
6370 Clear 12 1017 66 10000 2 360 16:18 15.06.2019
6371 Clear 11 1017 71 10000 4 10 15:42 15.06.2019
6372 Clear 10 1017 66 10000 3 20 15:22 15.06.2019
6373 Clear 10 1017 66 10000 3 20 14:39 15.06.2019
6374 Clear 10 1017 66 10000 3 80 14:18 15.06.2019
6375 Clear 10 1017 66 10000 3 80 13:55 15.06.2019
6376 Clear 10 1017 66 10000 3 80 13:36 15.06.2019
6377 Clear 11 1017 66 10000 1 60 13:18 15.06.2019
6378 Clear 12 1017 66 10000 1 60 12:42 15.06.2019
6379 Clear 15 1017 45 10000 1 70 12:23 15.06.2019
6380 Clear 18 1017 45 10000 1 70 11:48 15.06.2019
6381 Clear 18 1017 45 10000 1 70 11:29 15.06.2019
6382 Clear 22 1017 33 10000 2 310 10:46 15.06.2019
6383 Clear 22 1017 33 10000 2 310 10:25 15.06.2019
6384 Clear 23 1017 28 10000 3 280 09:48 15.06.2019
6385 Clear 23 1017 28 10000 3 280 09:48 15.06.2019
6386 Clear 23 1017 28 10000 3 280 09:27 15.06.2019
6387 Clear 24 1017 29 10000 4 300 08:56 15.06.2019
6388 Clear 24 1017 29 10000 4 300 08:38 15.06.2019
6389 Clear 24 1016 31 10000 5 290 08:18 15.06.2019
6390 Clear 24 1016 31 10000 5 290 08:18 15.06.2019
6391 Clear 24 1016 31 10000 5 290 07:26 15.06.2019
6392 Clear 24 1016 31 10000 5 290 07:26 15.06.2019
6393 Clear 24 1016 31 10000 5 290 07:26 15.06.2019
6394 Clear 25 1016 27 10000 4 300 06:48 15.06.2019
6395 Clear 25 1016 27 10000 4 300 06:28 15.06.2019
6396 Clear 25 1017 29 10000 4 300 05:39 15.06.2019
6397 Clear 24 1017 29 10000 3 310 04:56 15.06.2019
6398 Clear 24 1017 29 10000 3 310 04:26 15.06.2019
6399 Clear 24 1017 29 10000 3 310 03:22 15.06.2019
6400 Clear 24 1017 29 10000 3 310 02:34 15.06.2019
6401 Clear 23 1017 31 10000 4 360 01:57 15.06.2019
6402 Clear 22 1017 33 10000 4 360 01:24 15.06.2019
6403 Clear 22 1017 33 10000 4 360 00:42 15.06.2019
6404 Clear 21 1017 32 10000 5 350 00:23 15.06.2019
6405 Clear 21 1017 32 10000 5 350 23:49 14.06.2019
6406 Clear 20 1017 39 10000 4 350 23:20 14.06.2019
6407 Clear 20 1017 39 10000 4 350 23:20 14.06.2019
6408 Clear 19 1017 39 10000 4 350 22:41 14.06.2019
6409 Clear 19 1017 39 10000 4 350 22:41 14.06.2019
6410 Clear 18 1017 42 10000 3 350 22:21 14.06.2019
6411 Clear 18 1017 42 10000 3 350 21:49 14.06.2019
6412 Clear 18 1017 42 10000 3 350 21:28 14.06.2019
6413 Clear 16 1017 44 10000 2 30 20:57 14.06.2019
6414 Clear 16 1017 44 10000 2 30 20:38 14.06.2019
6415 Clear 13 1017 58 10000 1 80 20:18 14.06.2019
6416 Clear 13 1017 58 10000 1 80 19:41 14.06.2019
6417 Clear 11 1017 70 10000 2 100 19:22 14.06.2019
6418 Clear 9 1017 70 10000 2 100 18:54 14.06.2019
6419 Clear 9 1017 70 10000 2 100 18:54 14.06.2019
6420 Clear 9 1017 70 10000 2 100 18:36 14.06.2019
6421 Clear 8 1016 65 10000 3 90 18:18 14.06.2019
6422 Clear 8 1016 65 10000 3 90 17:44 14.06.2019
6423 Clear 8 1016 65 10000 3 90 17:23 14.06.2019
6424 Clear 10 1016 53 10000 1 110 16:49 14.06.2019
6425 Clear 10 1016 53 10000 1 110 16:24 14.06.2019
6426 Clear 10 1016 53 10000 1 110 16:24 14.06.2019
6427 Clear 8 1016 65 10000 3 120 15:59 14.06.2019
6428 Clear 8 1016 65 10000 3 120 15:39 14.06.2019
6429 Clear 12 1016 38 10000 2 110 15:19 14.06.2019
6430 Clear 15 1016 38 10000 2 110 14:46 14.06.2019
6431 Clear 15 1016 38 10000 2 110 14:46 14.06.2019
6432 Clear 15 1016 38 10000 2 110 14:27 14.06.2019
6433 Clear 14 1016 47 10000 4 110 13:46 14.06.2019
6434 Clear 14 1016 47 10000 4 110 13:28 14.06.2019
6435 -273 0 0 0 0 0 12:57 14.06.2019
6436 Clear 16 1015 41 10000 4 120 12:39 14.06.2019
6437 Clear 16 1015 44 10000 3 120 12:20 14.06.2019
6438 Clear 16 1015 44 10000 3 120 11:42 14.06.2019
6439 Clear 16 1015 44 10000 3 120 11:42 14.06.2019
6440 Clear 16 1015 44 10000 3 120 11:42 14.06.2019
6441 Clear 16 1015 44 10000 3 120 11:23 14.06.2019
6442 Clear 18 1015 39 10000 4 160 10:47 14.06.2019
6443 Clear 18 1014 39 10000 4 110 10:21 14.06.2019
6444 Clear 18 1014 39 10000 4 110 09:55 14.06.2019
6445 Clear 18 1014 39 10000 4 110 09:34 14.06.2019
6446 Clear 19 1014 34 10000 5 150 08:49 14.06.2019
6447 Clear 20 1014 30 10000 4 160 08:21 14.06.2019
6448 Clear 20 1014 30 10000 4 160 07:55 14.06.2019
6449 Clear 20 1014 34 10000 4 150 07:24 14.06.2019
6450 Clear 20 1014 34 10000 4 150 06:55 14.06.2019
6451 Clear 19 1014 34 10000 5 150 06:19 14.06.2019
6452 Clear 19 1014 37 10000 5 160 05:47 14.06.2019
6453 Clear 20 1014 34 10000 5 160 04:54 14.06.2019
6454 Clear 19 1014 39 10000 5 160 04:27 14.06.2019
6455 Clear 19 1014 37 10000 5 160 03:39 14.06.2019
6456 Clear 19 1014 37 10000 5 170 03:21 14.06.2019
6457 Clear 18 1014 39 10000 5 160 02:36 14.06.2019
6458 Clear 18 1014 39 10000 5 160 02:36 14.06.2019
6459 Clear 18 1014 37 10000 4 180 01:47 14.06.2019
6460 Clear 18 1014 42 10000 4 160 00:37 14.06.2019
6461 Clear 16 1014 48 10000 3 170 00:19 14.06.2019
6462 Clear 16 1014 42 10000 3 170 23:49 13.06.2019
6463 Clear 17 1014 42 10000 3 170 23:25 13.06.2019
6464 Clear 15 1014 54 10000 2 220 22:41 13.06.2019
6465 Clear 14 1014 54 10000 2.02 210.939 22:22 13.06.2019
6466 Clear 14 1014 54 10000 2.02 210.939 21:59 13.06.2019
6467 Clear 14 1014 54 10000 2.02 210.939 21:37 13.06.2019
6468 Clear 12 1014 54 10000 1 230 21:18 13.06.2019
6469 Clear 12 1014 54 10000 1 230 21:18 13.06.2019
6470 Clear 12 1014 54 10000 1 230 20:44 13.06.2019
6471 Clear 10 1014 70 10000 1 230 20:20 13.06.2019
6472 Clear 9 1014 70 10000 1 230 19:43 13.06.2019
6473 Clear 9 1014 70 10000 1 230 19:25 13.06.2019
6474 Clear 9 1014 66 10000 2 100 18:59 13.06.2019
6475 Clear 9 1014 66 10000 2 100 18:41 13.06.2019
6476 Clear 7 1014 75 10000 1 20 18:22 13.06.2019
6477 Clear 6 1014 75 10000 1 20 17:45 13.06.2019
6478 Clear 7 1014 65 10000 1 130 17:22 13.06.2019
6479 Clear 8 1014 65 10000 1 130 16:59 13.06.2019
6480 Clear 8 1014 65 10000 1 130 16:41 13.06.2019
6481 Clear 8 1014 65 10000 1 110 16:20 13.06.2019
6482 Clear 8 1014 65 10000 1 110 15:41 13.06.2019
6483 Clear 10 1014 57 10000 2 130 15:22 13.06.2019
6484 Clear 11 1014 57 10000 2 130 14:52 13.06.2019
6485 Clear 11 1014 57 10000 2 130 14:31 13.06.2019
6486 Clear 14 1014 47 10000 2 110 13:57 13.06.2019
6487 Clear 14 1014 47 10000 2 110 13:57 13.06.2019
6488 Clear 14 1014 47 10000 2 110 13:57 13.06.2019
6489 Clear 14 1014 47 10000 2 110 13:39 13.06.2019
6490 Clear 15 1014 41 10000 2 120 13:20 13.06.2019
6491 Clear 15 1014 41 10000 2 120 12:41 13.06.2019
6492 Clear 15 1014 44 10000 2 130 12:22 13.06.2019
6493 Clear 15 1014 44 10000 2 130 11:46 13.06.2019
6494 Clear 15 1014 44 10000 2 130 11:28 13.06.2019
6495 Clear 16 1014 44 10000 4 140 10:51 13.06.2019
6496 Clear 16 1014 44 10000 4 140 10:31 13.06.2019
6497 -273 0 0 0 0 0 09:58 13.06.2019
6498 Clear 16 1014 41 10000 6 160 09:40 13.06.2019
6499 Clear 16 1014 41 10000 6 150 09:22 13.06.2019
6500 Clear 16 1014 41 10000 5 150 08:43 13.06.2019
6501 Clear 16 1014 38 10000 6 150 08:23 13.06.2019
6502 Clear 16 1014 38 10000 6 150 08:23 13.06.2019
6503 Clear 16 1014 41 10000 5 160 07:50 13.06.2019
6504 Clear 16 1014 41 10000 5 160 07:25 13.06.2019
6505 Clear 17 1014 42 10000 4 160 06:45 13.06.2019
6506 Clear 17 1014 39 10000 4 160 06:22 13.06.2019
6507 Clear 18 1014 39 10000 4 160 05:54 13.06.2019
6508 Clear 18 1014 36 10000 4 170 05:36 13.06.2019
6509 Clear 18 1015 31 10000 4 170 04:57 13.06.2019
6510 Clear 17 1015 36 10000 5 170 02:26 13.06.2019
6511 Clear 16 1016 38 10000 4 170 00:47 13.06.2019
6512 Clear 14 1016 47 10000 3 190 23:52 12.06.2019
6513 Clear 13 1016 46 10000 4 170 23:23 12.06.2019
6514 Clear 13 1016 43 10000 5 180 22:44 12.06.2019
6515 Clear 13 1016 43 10000 5 180 22:25 12.06.2019
6516 Clear 12 1016 50 10000 5 190 21:56 12.06.2019
6517 Clear 12 1016 50 10000 5 190 21:37 12.06.2019
6518 Clear 12 1016 54 10000 4 180 21:18 12.06.2019
6519 Clear 12 1016 54 10000 4 180 21:18 12.06.2019
6520 Clear 12 1016 54 10000 4 180 20:38 12.06.2019
6521 Clear 12 1016 50 10000 1 200 20:20 12.06.2019
6522 Clear 12 1016 50 10000 1 200 19:42 12.06.2019
6523 Clear 12 1016 50 10000 1 200 19:23 12.06.2019
6524 Clear 11 1016 43 10000 1 220 18:56 12.06.2019
6525 Clear 11 1016 43 10000 1 220 18:38 12.06.2019
6526 Clear 10 1016 57 10000 2 190 18:19 12.06.2019
6527 Clear 9 1016 57 10000 2 190 17:43 12.06.2019
6528 Clear 8 1016 59 10000 1 170 17:20 12.06.2019
6529 Clear 8 1016 59 10000 1 170 16:42 12.06.2019
6530 Clear 8 1016 59 10000 1 170 16:23 12.06.2019
6531 Clear 9 1016 57 10000 1 150 15:53 12.06.2019
6532 Clear 9 1016 57 10000 1 150 15:32 12.06.2019
6533 Clear 8 1016 52 10000 2 190 14:49 12.06.2019
6534 Clear 8 1016 52 10000 2 190 14:27 12.06.2019
6535 Clear 9 1016 55 10000 1 160 13:44 12.06.2019
6536 Clear 9 1016 55 10000 1 160 13:44 12.06.2019
6537 Clear 10 1016 57 10000 3.44 170.423 13:21 12.06.2019
6538 Clear 10 1016 57 10000 3.44 170.423 12:59 12.06.2019
6539 Clear 10 1016 57 10000 3.44 170.423 12:39 12.06.2019
6540 Clear 10 1016 57 10000 3.44 170.423 12:39 12.06.2019
6541 Clear 10 1016 66 10000 2 140 12:19 12.06.2019
6542 Clear 10 1016 66 10000 2 140 12:19 12.06.2019
6543 Clear 10 1016 66 10000 2 140 11:47 12.06.2019
6544 Clear 10 1016 66 10000 2 140 11:28 12.06.2019
6545 Clear 13 1015 50 10000 3 160 10:52 12.06.2019
6546 Clear 13 1015 50 10000 3 160 10:34 12.06.2019
6547 Clear 14 1015 47 10000 4 180 09:55 12.06.2019
6548 Clear 14 1015 47 10000 4 180 09:37 12.06.2019
6549 Clear 16 1015 38 10000 5 190 09:18 12.06.2019
6550 Clear 16 1015 38 10000 5 190 08:25 12.06.2019
6551 Clear 15 1015 38 10000 7 180 07:52 12.06.2019
6552 Clear 16 1016 38 10000 7 190 06:55 12.06.2019
6553 Clear 16 1016 41 10000 5 170 05:54 12.06.2019
6554 Clear 16 1016 41 10000 5 170 05:23 12.06.2019
6555 Clear 13 1017 54 10000 4 200 02:18 12.06.2019
6556 Clear 13 1017 54 10000 4 200 00:41 12.06.2019
6557 Clear 13 1018 54 10000 3 220 23:52 11.06.2019
6558 Clear 13 1018 54 10000 3 220 23:33 11.06.2019
6559 Clear 13 1018 58 10000 1 260 22:44 11.06.2019
6560 Clear 12 1018 66 10000 2.55 175.689 22:23 11.06.2019
6561 Clear 11 1018 66 10000 2.55 175.689 21:58 11.06.2019
6562 Clear 11 1018 66 10000 2.55 175.689 21:40 11.06.2019
6563 Clear 10 1017 71 10000 2.14 157.735 21:21 11.06.2019
6564 Clear 10 1017 71 10000 2.14 157.735 20:50 11.06.2019
6565 -273 0 0 0 0 0 20:27 11.06.2019
6566 Clear 8 1017 75 10000 2.14 157.735 19:57 11.06.2019
6567 Clear 8 1017 75 10000 2.14 157.735 19:39 11.06.2019
6568 Clear 6 1017 86 10000 2.14 157.735 19:21 11.06.2019
6569 Clear 4 1017 86 10000 2.14 157.735 18:40 11.06.2019
6570 Clear 3 1017 59 10000 1 20 18:18 11.06.2019
6571 Clear 2 1017 59 10000 1 20 17:41 11.06.2019
6572 Clear 2 1017 93 10000 1 10 17:19 11.06.2019
6573 Clear 2 1017 93 10000 1 10 16:42 11.06.2019
6574 Clear 3 1017 86 10000 1 320 16:23 11.06.2019
6575 Clear 3 1017 86 10000 1 320 16:23 11.06.2019
6576 Clear 4 1017 86 10000 1 320 15:43 11.06.2019
6577 Clear 4 1017 86 10000 1 320 15:25 11.06.2019
6578 Clear 5 1017 80 10000 2 120 14:54 11.06.2019
6579 Clear 5 1017 80 10000 2 120 14:23 11.06.2019
6580 Clear 5 1018 80 10000 3.31 174.953 13:58 11.06.2019
6581 Clear 5 1018 80 10000 3.31 174.953 13:37 11.06.2019
6582 Clear 7 1018 66 10000 1 310 13:19 11.06.2019
6583 Clear 9 1018 66 10000 1 310 12:41 11.06.2019
6584 Clear 9 1018 66 10000 1 310 12:21 11.06.2019
6585 Clear 10 1018 62 10000 4.24 169.628 11:49 11.06.2019
6586 Clear 11 1018 62 10000 4.24 169.628 11:31 11.06.2019
6587 Clear 11 1018 58 10000 1 120 10:50 11.06.2019
6588 Clear 12 1018 58 10000 1 120 10:27 11.06.2019
6589 Clear 12 1018 54 10000 3 160 09:51 11.06.2019
6590 Clear 13 1018 54 10000 3 160 09:26 11.06.2019
6591 Clear 13 1018 54 10000 4 180 08:56 11.06.2019
6592 Clear 13 1018 54 10000 6 160 08:38 11.06.2019
6593 Clear 13 1018 50 10000 6 160 08:19 11.06.2019
6594 Clear 15 1018 47 10000 6 160 07:32 11.06.2019
6595 Clear 15 1018 47 10000 6 160 06:52 11.06.2019
6596 Clear 15 1019 47 10000 6 160 05:21 11.06.2019
6597 Clear 15 1019 51 10000 6 160 04:27 11.06.2019
6598 Clear 14 1020 54 10000 5 190 01:58 11.06.2019
6599 Clear 12 1020 62 10000 5 180 00:50 11.06.2019
6600 Clear 12 1020 62 10000 5 180 00:24 11.06.2019
6601 Clear 12 1020 66 10000 4 160 23:44 10.06.2019
6602 Clear 11 1020 71 10000 5 160 23:20 10.06.2019
6603 Clear 10 1020 76 10000 1 230 22:43 10.06.2019
6604 Clear 9 1020 76 10000 1 230 22:25 10.06.2019
6605 Fog 8 1020 75 10000 1 300 21:56 10.06.2019
6606 Fog 8 1020 75 10000 1 300 21:38 10.06.2019
6607 Clear 7 1020 75 10000 1 310 21:19 10.06.2019
6608 Clear 7 1020 75 10000 1 310 20:41 10.06.2019
6609 Clear 6 1020 81 10000 2 320 20:21 10.06.2019
6610 Clear 6 1020 81 10000 2 320 19:44 10.06.2019
6611 Clear 5 1020 86 10000 1 70 19:22 10.06.2019
6612 Clear 4 1020 86 10000 1 70 18:56 10.06.2019
6613 Clear 4 1020 86 10000 1 70 18:38 10.06.2019
6614 Clear 6 1020 75 10000 4 120 18:19 10.06.2019
6615 Clear 7 1020 75 10000 4 120 17:43 10.06.2019
6616 Clear 7 1020 75 10000 4 120 17:24 10.06.2019
6617 Clear 7 1020 75 10000 4 120 17:24 10.06.2019
6618 Clear 5 1020 80 10000 3 130 16:49 10.06.2019
6619 Clear 5 1020 80 10000 3 130 16:30 10.06.2019
6620 Clear 12 1020 58 10000 5 110 15:58 10.06.2019
6621 Clear 12 1020 58 10000 5 110 15:39 10.06.2019
6622 Clear 12 1020 58 10000 6 110 15:21 10.06.2019
6623 Clear 12 1020 58 10000 6 110 14:42 10.06.2019
6624 Clear 12 1020 58 10000 6 110 14:24 10.06.2019
6625 Clear 14 1020 50 10000 5 110 13:46 10.06.2019
6626 Clear 14 1020 50 10000 5 110 13:28 10.06.2019
6627 Clear 13 1020 58 10000 3 60 12:54 10.06.2019
6628 Clear 13 1020 58 10000 3 60 12:30 10.06.2019
6629 Clear 12 1020 66 10000 3 50 11:54 10.06.2019
6630 Clear 12 1020 66 10000 3 50 11:30 10.06.2019
6631 Clear 14 1020 58 10000 6 120 10:59 10.06.2019
6632 Clear 14 1020 58 10000 6 130 10:41 10.06.2019
6633 Clear 14 1020 58 10000 6 120 10:19 10.06.2019
6634 Clear 15 1020 54 10000 4 110 09:51 10.06.2019
6635 Clear 15 1020 54 10000 4 110 09:29 10.06.2019
6636 Clear 15 1020 51 10000 7 120 08:49 10.06.2019
6637 Clear 16 1020 51 10000 7 120 08:26 10.06.2019
6638 Clear 15 1021 48 10000 7 120 07:42 10.06.2019
6639 Clear 15 1022 51 10000 5 140 04:43 10.06.2019
6640 Clear 15 1022 47 10000 6 140 03:29 10.06.2019
6641 Clear 15 1022 51 10000 6 150 01:55 10.06.2019
6642 Clear 15 1022 54 10000 6 150 01:19 10.06.2019
6643 Clear 13 1023 58 10000 5 150 00:47 10.06.2019
6644 Clear 10 1023 66 10000 5 170 23:48 09.06.2019
6645 Clear 10 1023 66 10000 5 170 23:48 09.06.2019
6646 Clear 9 1023 66 10000 5 170 23:23 09.06.2019
6647 Clear 11 1022 62 10000 5 110 22:48 09.06.2019
6648 Clear 11 1022 62 10000 5 110 22:26 09.06.2019
6649 Clear 15 1022 44 10000 7 110 21:59 09.06.2019
6650 Clear 15 1022 44 10000 7 110 21:37 09.06.2019
6651 Clear 14 1022 47 10000 5 110 21:19 09.06.2019
6652 Clear 14 1022 47 10000 5 110 20:42 09.06.2019
6653 Clear 13 1022 50 10000 5 110 20:22 09.06.2019
6654 Clear 13 1022 50 10000 5 110 19:45 09.06.2019
6655 Clear 12 1022 50 10000 6 120 19:18 09.06.2019
6656 Clear 12 1022 50 10000 6 120 19:18 09.06.2019
6657 Clear 12 1022 50 10000 6 120 18:44 09.06.2019
6658 Clear 12 1022 50 10000 6 120 18:25 09.06.2019
6659 Clear 10 1022 57 10000 6 120 17:56 09.06.2019
6660 Clear 10 1022 57 10000 6 120 17:32 09.06.2019
6661 Clear 9 1022 57 10000 6 120 16:59 09.06.2019
6662 Clear 9 1022 57 10000 6 120 16:40 09.06.2019
6663 Clear 10 1022 50 10000 7 110 16:20 09.06.2019
6664 Clear 11 1022 50 10000 7 110 15:50 09.06.2019
6665 Clear 11 1022 50 10000 7 110 15:29 09.06.2019
6666 Clear 8 1022 61 10000 7 110 14:56 09.06.2019
6667 Clear 8 1022 61 10000 7 110 14:38 09.06.2019
6668 Clear 10 1022 43 10000 6 110 14:19 09.06.2019
6669 Clear 11 1022 43 10000 6 110 13:48 09.06.2019
6670 Clear 11 1022 50 10000 6 110 12:57 09.06.2019
6671 Clear 11 1022 50 10000 6 110 12:35 09.06.2019
6672 Clear 12 1022 54 10000 6 110 11:58 09.06.2019
6673 Clear 12 1022 54 10000 6 110 11:36 09.06.2019
6674 Clear 12 1022 58 10000 6 110 11:18 09.06.2019
6675 Clear 12 1022 58 10000 6 110 10:43 09.06.2019
6676 Clear 12 1022 58 10000 6 110 10:43 09.06.2019
6677 Clear 11 1022 66 10000 4 120 10:20 09.06.2019
6678 Clear 11 1022 66 10000 4 120 09:39 09.06.2019
6679 Clear 11 1022 62 10000 6 150 09:20 09.06.2019
6680 Clear 12 1022 62 10000 6 150 08:45 09.06.2019
6681 Clear 13 1021 58 10000 6 120 07:57 09.06.2019
6682 Clear 15 1022 51 10000 6 110 06:48 09.06.2019
6683 Clear 15 1022 51 10000 6 110 06:29 09.06.2019
6684 Clear 14 1022 54 10000 7 190 03:25 09.06.2019
6685 Clear 14 1022 54 10000 6 190 01:38 09.06.2019
6686 Clear 13 1022 62 10000 5 200 01:19 09.06.2019
6687 Clear 13 1022 62 10000 5 200 00:42 09.06.2019
6688 Clear 12 1022 62 10000 3 210 23:42 08.06.2019
6689 Clear 12 1022 62 10000 3 210 23:23 08.06.2019
6690 Clear 11 1021 66 10000 2 210 22:56 08.06.2019
6691 Clear 11 1021 66 10000 2 210 22:38 08.06.2019
6692 Clear 9 1021 76 10000 2 200 22:19 08.06.2019
6693 Clear 9 1021 76 10000 2 200 21:49 08.06.2019
6694 Clear 8 1021 75 10000 1 210 21:25 08.06.2019
6695 Clear 8 1021 75 10000 1 210 20:46 08.06.2019
6696 Clear 8 1021 75 10000 1 210 20:25 08.06.2019
6697 Clear 9 1021 76 10000 1 220 19:58 08.06.2019
6698 Clear 9 1021 76 10000 1 220 19:39 08.06.2019
6699 Clear 9 1021 70 10000 2 150 19:19 08.06.2019
6700 Clear 9 1021 70 10000 2 150 18:51 08.06.2019
6701 Clear 9 1021 70 10000 2 150 18:32 08.06.2019
6702 Clear 9 1020 70 10000 2 140 17:48 08.06.2019
6703 Clear 9 1020 70 10000 2 140 17:23 08.06.2019
6704 Clear 9 1020 70 10000 2 140 16:54 08.06.2019
6705 Clear 9 1020 70 10000 2 140 16:35 08.06.2019
6706 Clear 9 1020 70 10000 2 140 15:54 08.06.2019
6707 Clear 9 1020 70 10000 2 140 15:35 08.06.2019
6708 Clear 10 1020 71 10000 3 150 14:49 08.06.2019
6709 Clear 10 1020 71 10000 3 150 14:31 08.06.2019
6710 Clear 11 1020 62 10000 3 140 13:53 08.06.2019
6711 Clear 11 1020 62 10000 4 120 12:57 08.06.2019
6712 Clear 11 1020 62 10000 4 120 12:39 08.06.2019
6713 Clear 12 1020 58 10000 3 150 11:57 08.06.2019
6714 Clear 12 1020 58 10000 3 150 11:38 08.06.2019
6715 Clear 13 1019 50 10000 4 130 11:20 08.06.2019
6716 Clear 14 1019 50 10000 4 130 10:43 08.06.2019
6717 Clear 13 1019 54 10000 5 100 10:21 08.06.2019
6718 Clear 13 1019 54 10000 5 100 09:36 08.06.2019
6719 Clear 13 1019 54 10000 4 170 08:58 08.06.2019
6720 Clear 14 1019 54 10000 5 170 08:22 08.06.2019
6721 Clear 14 1019 54 10000 5 170 07:39 08.06.2019
6722 Clear 15 1019 51 10000 5 170 06:45 08.06.2019
6723 Clear 15 1020 54 10000 4 180 03:40 08.06.2019
6724 Clear 13 1020 58 10000 4 190 02:20 08.06.2019
6725 Clear 13 1020 58 10000 3 200 00:32 08.06.2019
6726 Clear 11 1020 66 10000 3 200 23:59 07.06.2019
6727 Clear 9 1020 70 10000 2 200 23:21 07.06.2019
6728 Clear 9 1020 70 10000 2 200 22:54 07.06.2019
6729 Clear 9 1020 70 10000 2 200 22:35 07.06.2019
6730 Clear 8 1020 75 10000 2 190 21:56 07.06.2019
6731 Clear 8 1020 75 10000 2 190 21:38 07.06.2019
6732 Clear 7 1020 75 10000 3 180 21:20 07.06.2019
6733 Clear 7 1020 75 10000 3 180 20:42 07.06.2019
6734 Clear 6 1020 80 10000 2 210 20:23 07.06.2019
6735 Clear 5 1020 80 10000 2 210 19:46 07.06.2019
6736 Clear 6 1020 75 10000 1 220 19:20 07.06.2019
6737 Clear 6 1020 75 10000 1 220 18:45 07.06.2019
6738 Clear 6 1020 75 10000 1 220 18:27 07.06.2019
6739 Clear 6 1020 75 10000 1 130 17:46 07.06.2019
6740 Clear 6 1020 75 10000 1 130 17:46 07.06.2019
6741 Clear 6 1020 75 10000 1 130 17:23 07.06.2019
6742 Clear 8 1020 65 10000 2 130 16:42 07.06.2019
6743 Clear 8 1020 65 10000 4 150 16:22 07.06.2019
6744 Clear 8 1020 65 10000 4 150 15:49 07.06.2019
6745 Clear 9 1020 57 10000 3 150 15:20 07.06.2019
6746 Clear 10 1020 57 10000 3 150 14:46 07.06.2019
6747 Clear 10 1020 61 10000 4 120 14:23 07.06.2019
6748 Clear 10 1020 61 10000 4 120 13:36 07.06.2019
6749 Clear 10 1019 61 10000 3 150 13:18 07.06.2019
6750 Clear 10 1019 61 10000 3 150 12:39 07.06.2019
6751 Clear 11 1019 62 10000 6 110 12:18 07.06.2019
6752 Clear 11 1019 62 10000 6 110 11:40 07.06.2019
6753 Clear 11 1019 62 10000 7 100 11:21 07.06.2019
6754 Clear 11 1019 62 10000 7 100 10:47 07.06.2019
6755 Clear 11 1019 62 10000 7 100 10:21 07.06.2019
6756 Clear 12 1019 62 10000 7 100 09:49 07.06.2019
6757 Clear 12 1019 62 10000 7 100 09:27 07.06.2019
6758 Clear 13 1019 58 10000 4 140 08:50 07.06.2019
6759 Clear 13 1019 58 10000 4 140 08:28 07.06.2019
6760 Clear 13 1019 58 10000 4 140 08:28 07.06.2019
6761 Clear 13 1019 54 10000 5 160 07:55 07.06.2019
6762 Clear 12 1019 58 10000 6 160 07:23 07.06.2019
6763 Clear 12 1019 54 10000 5 160 06:48 07.06.2019
6764 Clear 13 1019 54 10000 5 160 06:27 07.06.2019
6765 Clear 14 1020 47 10000 4 150 05:45 07.06.2019
6766 Clear 12 1020 54 10000 5 160 02:58 07.06.2019
6767 Clear 11 1020 57 10000 5 150 01:39 07.06.2019
6768 Clear 10 1020 66 10000 5 170 00:48 07.06.2019
6769 Clear 10 1020 66 10000 5 170 00:48 07.06.2019
6770 Clear 11 1020 57 10000 5 170 00:20 07.06.2019
6771 Clear 11 1020 57 10000 3 160 23:41 06.06.2019
6772 Clear 10 1021 61 10000 3 160 23:19 06.06.2019
6773 Clear 9 1021 66 10000 5 170 22:38 06.06.2019
6774 Clear 8 1021 75 10000 6 180 22:20 06.06.2019
6775 Clear 7 1021 75 10000 6 180 21:56 06.06.2019
6776 Clear 7 1021 75 10000 6 180 21:38 06.06.2019
6777 Clear 7 1020 81 10000 5 180 21:19 06.06.2019
6778 Clear 7 1020 81 10000 5 180 20:41 06.06.2019
6779 Clear 8 1020 70 10000 4 120 20:21 06.06.2019
6780 Clear 8 1020 70 10000 4 120 19:39 06.06.2019
6781 Clear 8 1020 70 10000 3 160 19:19 06.06.2019
6782 Clear 8 1020 70 10000 3 160 18:52 06.06.201